# Wetter Temperatur Luftdruck Luftfeuchtigkeit Sichtweite Windgeschwindigkeit Windrichtung Zeit
1 Clear -2 1009 100 10000 3 340 19:58 17.10.2019
2 Clear -1 1009 100 10000 3 360 19:39 17.10.2019
3 Clear -1 1009 100 10000 3 360 19:19 17.10.2019
4 Clear -1 1009 92 10000 2 350 18:43 17.10.2019
5 Clear -1 1008 92 10000 3 340 18:21 17.10.2019
6 Clear -1 1008 92 10000 3 330 18:00 17.10.2019
7 Clouds -1 1008 92 10000 3 330 17:41 17.10.2019
8 Clouds -1 1008 92 10000 3 340 17:23 17.10.2019
9 Clouds -1 1008 100 10000 2 350 16:56 17.10.2019
10 Clouds -1 1008 100 10000 2 350 16:38 17.10.2019
11 Clouds -1 1008 100 10000 2 350 16:18 17.10.2019
12 Clouds 0 1008 97 10000 1 360 15:55 17.10.2019
13 Clouds 0 1008 97 10000 1 360 15:55 17.10.2019
14 Clouds 0 1008 97 10000 1 340 15:37 17.10.2019
15 Clouds 0 1008 97 10000 1 340 15:19 17.10.2019
16 Clouds 0 1009 97 10000 2 320 14:42 17.10.2019
17 Rain 0 1009 97 10000 1 80 14:23 17.10.2019
18 Rain 0 1009 97 10000 1 30 13:56 17.10.2019
19 Clouds 0 1010 97 10000 1 50 13:38 17.10.2019
20 Clouds 0 1010 97 10000 1 50 13:18 17.10.2019
21 Clouds 0 1010 97 10000 2 10 12:41 17.10.2019
22 Clouds 1 1009 80 10000 1 100 12:21 17.10.2019
23 Clouds 1 1010 80 10000 1 70 11:59 17.10.2019
24 Clouds 1 1010 80 10000 1 70 11:59 17.10.2019
25 Clouds 1 1010 80 10000 2 80 11:40 17.10.2019
26 Clouds 1 1010 80 10000 2 80 11:19 17.10.2019
27 Clouds 1 1010 80 10000 2 90 10:55 17.10.2019
28 Clouds 1 1011 80 10000 2 70 10:37 17.10.2019
29 Clouds 1 1011 80 10000 2 70 10:18 17.10.2019
30 Clouds 1 1011 80 10000 1 70 09:42 17.10.2019
31 Clouds 1 1011 80 10000 2 10 09:23 17.10.2019
32 Clouds 1 1012 80 10000 2 20 08:59 17.10.2019
33 Clouds 1 1012 80 10000 2 20 08:41 17.10.2019
34 Clouds 1 1012 74 10000 2 30 08:21 17.10.2019
35 Clouds 1 1012 74 10000 2 30 07:56 17.10.2019
36 Clouds 0 1012 97 10000 1 50 07:37 17.10.2019
37 Clouds 0 1012 97 10000 1 50 07:18 17.10.2019
38 Clouds 0 1012 97 10000 1 50 07:18 17.10.2019
39 Clouds 0 1012 97 10000 1 30 06:40 17.10.2019
40 Clouds 0 1012 92 10000 1 30 06:21 17.10.2019
41 Clouds 0 1012 92 10000 2 90 05:54 17.10.2019
42 Clouds 0 1012 92 10000 2 50 05:32 17.10.2019
43 Clouds 0 1012 92 10000 2 50 05:32 17.10.2019
44 Clouds 0 1013 92 10000 1 50 04:53 17.10.2019
45 Clouds -1 1013 80 10000 2 70 03:55 17.10.2019
46 Clouds -2 1013 86 10000 1 60 02:37 17.10.2019
47 Clouds -2 1013 86 10000 1 70 01:27 17.10.2019
48 Clouds -2 1013 86 10000 2 100 00:38 17.10.2019
49 Clouds -2 1013 86 10000 2 100 00:19 17.10.2019
50 Clouds -2 1013 86 10000 2 110 23:42 16.10.2019
51 Clouds -2 1013 86 10000 2 110 23:21 16.10.2019
52 Snow -2 1013 86 10000 2 110 22:56 16.10.2019
53 Snow -2 1013 86 10000 2 110 22:56 16.10.2019
54 Snow -3 1013 92 10000 2 110 22:37 16.10.2019
55 Snow -3 1013 92 10000 2 110 22:19 16.10.2019
56 Snow -3 1013 92 10000 3 110 21:56 16.10.2019
57 Snow -3 1013 92 10000 2 110 21:37 16.10.2019
58 Snow -3 1013 92 10000 2 110 21:19 16.10.2019
59 Snow -3 1013 92 10000 2 110 21:19 16.10.2019
60 Snow -2 1013 79 10000 3 120 20:57 16.10.2019
61 Snow -3 1013 86 10000 3 120 20:38 16.10.2019
62 Snow -3 1013 86 10000 3 120 20:20 16.10.2019
63 Snow -2 1013 79 10000 3 120 19:57 16.10.2019
64 Snow -2 1013 79 10000 4 130 19:38 16.10.2019
65 Snow -2 1013 79 10000 4 130 19:20 16.10.2019
66 Clouds -2 1014 79 10000 3 120 18:39 16.10.2019
67 Clouds -2 1014 79 10000 3 120 18:39 16.10.2019
68 Clouds -2 1014 79 10000 3 120 18:19 16.10.2019
69 Clouds -2 1014 74 10000 3 130 17:58 16.10.2019
70 Clouds -2 1014 74 10000 3 130 17:58 16.10.2019
71 Clouds -2 1015 74 10000 3 140 17:39 16.10.2019
72 Clouds -2 1015 74 10000 3 140 17:21 16.10.2019
73 Clouds -2 1015 74 10000 4 140 16:59 16.10.2019
74 Clouds -2 1015 74 10000 4 140 16:41 16.10.2019
75 Clouds -2 1015 74 10000 4 140 16:41 16.10.2019
76 Clouds -2 1015 74 10000 3 130 16:20 16.10.2019
77 Clouds -2 1016 74 10000 4 130 15:56 16.10.2019
78 Clouds -2 1016 74 10000 4 130 15:56 16.10.2019
79 Clouds -4 1017 91 0 2.85 145 15:37 16.10.2019
80 Clouds -2 1017 74 10000 3 140 15:18 16.10.2019
81 Clouds -2 1017 74 10000 3 140 14:56 16.10.2019
82 Clouds -2 1017 74 10000 3 140 14:38 16.10.2019
83 Clouds -2 1017 74 10000 3 140 14:18 16.10.2019
84 Clouds -2 1017 74 10000 3 140 13:56 16.10.2019
85 Clouds -2 1017 74 10000 3 140 13:37 16.10.2019
86 Clouds -2 1017 74 10000 3 140 13:19 16.10.2019
87 Clouds -2 1017 74 10000 3 130 12:41 16.10.2019
88 Clouds -2 1017 74 10000 2 170 12:19 16.10.2019
89 Clouds -2 1018 74 10000 2 180 11:44 16.10.2019
90 Clouds -2 1018 74 10000 2 180 11:19 16.10.2019
91 Clouds -2 1017 74 10000 3 160 10:41 16.10.2019
92 Clouds -2 1017 68 10000 3 170 10:22 16.10.2019
93 Clouds -2 1018 74 10000 2 160 09:58 16.10.2019
94 Clouds -2 1018 74 10000 2 160 09:58 16.10.2019
95 Clouds -2 1018 74 10000 2 150 09:39 16.10.2019
96 Clouds -2 1018 74 10000 2 150 09:39 16.10.2019
97 Clouds -2 1018 74 10000 2 150 09:20 16.10.2019
98 Clouds -2 1018 74 10000 2 150 08:44 16.10.2019
99 Clouds -2 1018 79 10000 3 150 08:26 16.10.2019
100 Clouds -2 1018 79 10000 2 150 07:56 16.10.2019
101 Clouds -2 1018 79 10000 3 150 07:38 16.10.2019
102 Clouds -2 1018 79 10000 3 150 07:20 16.10.2019
103 Snow -2 1018 79 10000 3 150 06:40 16.10.2019
104 Snow -2 1018 79 10000 3 150 06:19 16.10.2019
105 Clouds -3 1018 79 10000 1 260 03:46 16.10.2019
106 Clouds -4 1018 79 10000 1 280 02:50 16.10.2019
107 Clouds -4 1017 79 10000 1 280 01:20 16.10.2019
108 Clouds -4 1017 79 10000 1 320 00:57 16.10.2019
109 Clouds -4 1017 73 10000 3 320 00:37 16.10.2019
110 Clouds -4 1017 79 10000 3 280 23:42 15.10.2019
111 Clouds -4 1017 79 10000 2 300 23:22 15.10.2019
112 Clouds -4 1016 79 10000 3 320 22:58 15.10.2019
113 Clouds -4 1016 79 10000 3 320 22:40 15.10.2019
114 Clouds -4 1016 79 10000 3 320 22:21 15.10.2019
115 Clouds -4 1016 79 10000 3 310 21:57 15.10.2019
116 Clouds -4 1016 79 10000 3 300 21:38 15.10.2019
117 Clouds -4 1016 79 10000 3 300 21:20 15.10.2019
118 Clouds -4 1016 79 10000 3 300 21:20 15.10.2019
119 Snow -4 1016 79 10000 3 290 20:58 15.10.2019
120 Snow -4 1016 79 10000 3 290 20:58 15.10.2019
121 Snow -4 1016 79 10000 3 290 20:40 15.10.2019
122 Snow -4 1016 79 10000 3 290 20:40 15.10.2019
123 Snow -4 1016 79 10000 3 300 20:21 15.10.2019
124 Snow -3 1015 73 10000 3 290 19:59 15.10.2019
125 Snow -3 1015 73 10000 3 290 19:41 15.10.2019
126 Snow -3 1015 73 10000 2 300 19:20 15.10.2019
127 Snow -3 1015 73 10000 3 310 18:55 15.10.2019
128 -273 0 0 0 0 0 18:55 15.10.2019
129 Snow -3 1015 73 10000 3 290 18:37 15.10.2019
130 Snow -3 1015 73 10000 3 290 18:19 15.10.2019
131 -273 0 0 0 0 0 17:42 15.10.2019
132 Snow -3 1015 73 10000 3 300 17:42 15.10.2019
133 Snow -3 1015 73 10000 4 300 17:21 15.10.2019
134 Snow -3 1015 73 10000 4 300 16:59 15.10.2019
135 Snow -3 1015 73 10000 4 300 16:41 15.10.2019
136 Snow -3 1015 73 10000 3 300 16:21 15.10.2019
137 Snow -3 1014 79 10000 5 290 15:55 15.10.2019
138 Snow -3 1014 86 10000 3 310 15:37 15.10.2019
139 Snow -3 1014 86 10000 3 310 15:19 15.10.2019
140 -273 0 0 0 0 0 14:54 15.10.2019
141 Clouds -6 1015 87 0 3.522 294 14:36 15.10.2019
142 Clouds -6 1015 87 0 3.522 294 14:18 15.10.2019
143 Clouds -6 1015 87 0 3.522 294 13:43 15.10.2019
144 Clouds -6 1015 87 0 3.522 294 13:20 15.10.2019
145 Clouds -6 1015 87 0 3.522 294 12:46 15.10.2019
146 Snow -4 1013 88 0 3.487 283 12:23 15.10.2019
147 Snow -4 1013 88 0 3.487 283 11:59 15.10.2019
148 Snow -4 1013 88 0 3.487 283 11:40 15.10.2019
149 Snow -4 1013 88 0 3.487 283 11:20 15.10.2019
150 Snow -4 1013 88 0 3.487 283 10:46 15.10.2019
151 Clouds -5 1013 89 0 4.02 290.174 10:24 15.10.2019
152 Clouds -5 1013 89 0 4.02 290.174 09:59 15.10.2019
153 Clouds -5 1013 89 0 4.02 290.174 09:40 15.10.2019
154 Clouds -3 1012 83 0 4.76 289.502 09:21 15.10.2019
155 Clouds -3 1012 83 0 4.76 289.502 09:21 15.10.2019
156 Clouds -3 1012 85 0 4.84 291.859 08:58 15.10.2019
157 Clouds -3 1012 85 0 4.84 291.859 08:39 15.10.2019
158 Clouds -3 1012 85 0 4.84 291.859 08:19 15.10.2019
159 Clouds -3 1012 85 0 4.84 291.859 08:19 15.10.2019
160 Clouds -3 1012 85 0 4.84 291.859 07:43 15.10.2019
161 Clouds -3 1012 85 0 4.84 291.859 07:43 15.10.2019
162 Clouds -3 1012 85 0 4.84 291.859 07:22 15.10.2019
163 Clouds -3 1012 85 0 4.84 291.859 06:56 15.10.2019
164 Clouds -3 1012 85 0 4.84 291.859 06:37 15.10.2019
165 Clouds -2 1011 86 0 4.23 291.65 05:56 15.10.2019
166 Clouds -2 1011 86 0 4.23 291.65 05:36 15.10.2019
167 Clouds -2 1011 86 0 4.23 291.65 04:48 15.10.2019
168 Clouds -2 1011 86 0 4.23 291.65 04:18 15.10.2019
169 Clouds -2 1011 86 0 4.23 291.65 03:34 15.10.2019
170 Clouds -4 1011 87 0 3.59 284.872 01:52 15.10.2019
171 Clouds -3 1010 88 0 3.63 284.864 01:31 15.10.2019
172 Clouds -3 1010 88 0 3.63 284.864 00:59 15.10.2019
173 Clouds -3 1010 88 0 3.63 284.864 00:25 15.10.2019
174 Clouds -5 1009 94 0 2.91 268.191 23:58 14.10.2019
175 Clouds -5 1009 94 0 2.91 268.191 23:37 14.10.2019
176 Clouds -5 1009 94 0 2.91 268.191 23:37 14.10.2019
177 Clouds -5 1009 94 0 2.91 268.191 23:18 14.10.2019
178 Clouds -5 1009 94 0 2.91 268.191 22:39 14.10.2019
179 Clouds -5 1009 94 0 2.91 268.191 22:20 14.10.2019
180 Clouds -5 1009 94 0 2.91 268.191 21:58 14.10.2019
181 Clouds -5 1009 94 0 2.91 268.191 21:39 14.10.2019
182 Clouds -5 1010 95 0 2.74 264.057 21:20 14.10.2019
183 Clouds -5 1009 95 0 2.69 262.973 20:57 14.10.2019
184 Clouds -5 1009 95 0 2.69 262.973 20:57 14.10.2019
185 Clouds -5 1009 95 0 2.69 262.973 20:38 14.10.2019
186 Clouds -5 1009 95 0 2.69 262.973 20:38 14.10.2019
187 Clouds -5 1009 95 0 2.69 262.973 20:18 14.10.2019
188 Clouds -5 1009 93 0 2.72 255 19:43 14.10.2019
189 Clouds -5 1009 93 0 2.72 255 19:25 14.10.2019
190 Clouds -5 1009 95 0 2.69 262.973 18:59 14.10.2019
191 -273 0 0 0 0 0 18:59 14.10.2019
192 Clouds -5 1009 95 0 2.69 262.973 18:40 14.10.2019
193 Clouds -6 1010 95 0 2.32 261.102 18:20 14.10.2019
194 Clouds -6 1010 95 0 2.32 261.102 17:58 14.10.2019
195 Clouds -6 1010 95 0 2.32 261.102 17:40 14.10.2019
196 Clouds -6 1010 95 0 2.32 261.102 17:21 14.10.2019
197 Clouds -6 1010 95 0 2.32 261.102 17:21 14.10.2019
198 Clouds -6 1010 95 0 2.32 261.102 16:44 14.10.2019
199 Clouds -6 1010 95 0 2.32 261.102 16:22 14.10.2019
200 -273 0 0 0 0 0 15:57 14.10.2019
201 Clouds -6 1010 95 0 2.32 261.102 15:38 14.10.2019
202 Clouds -6 1010 94 0 2.26 265.007 15:20 14.10.2019
203 Clouds -6 1010 94 0 2.26 265.007 14:43 14.10.2019
204 Clouds -6 1010 94 0 2.26 265.007 14:24 14.10.2019
205 Clouds -6 1010 94 0 2.26 265.007 13:56 14.10.2019
206 Clouds -6 1010 94 0 2.26 265.007 13:37 14.10.2019
207 Clouds -7 1010 95 0 2.33 265.153 13:18 14.10.2019
208 Clouds -7 1010 95 0 2.33 265.153 12:40 14.10.2019
209 Clouds -7 1010 95 0 2.33 265.153 12:40 14.10.2019
210 Clouds -7 1010 93 0 2.69 269.851 12:19 14.10.2019
211 Clouds -7 1010 93 0 2.69 269.851 11:46 14.10.2019
212 Clouds -7 1010 93 0 2.69 269.851 11:27 14.10.2019
213 Clouds -7 1010 93 0 2.69 269.851 10:58 14.10.2019
214 Clouds -7 1010 93 0 2.69 269.851 10:58 14.10.2019
215 Clouds -7 1010 93 0 2.69 269.851 10:39 14.10.2019
216 Clouds -7 1010 93 0 2.69 269.851 10:20 14.10.2019
217 Clouds -7 1010 93 0 2.69 269.851 09:55 14.10.2019
218 Clouds -7 1010 93 0 2.69 269.851 09:36 14.10.2019
219 Clouds -4 1011 78 0 4.24 285.546 09:18 14.10.2019
220 Clouds -4 1011 78 0 4.24 285.546 08:43 14.10.2019
221 Clouds -4 1011 78 0 4.24 285.546 08:22 14.10.2019
222 Clouds -4 1011 78 0 4.24 285.546 07:42 14.10.2019
223 Clouds -4 1011 78 0 4.24 285.546 07:19 14.10.2019
224 Clouds -4 1011 78 0 4.24 285.546 06:48 14.10.2019
225 Clouds -4 1012 80 0 4.93 275.332 06:20 14.10.2019
226 Clouds -4 1012 80 0 4.93 275.332 05:49 14.10.2019
227 Clouds -4 1012 80 0 4.93 275.332 04:43 14.10.2019
228 Clouds -4 1012 80 0 4.93 275.332 03:28 14.10.2019
229 Clouds -8 1014 85 0 4.37 288.161 02:49 14.10.2019
230 Clouds -7 1014 86 0 4.24 287.003 01:24 14.10.2019
231 Clouds -7 1014 86 0 4.24 287.003 00:58 14.10.2019
232 Clouds -10 1015 91 0 3.81 280.002 00:20 14.10.2019
233 Clouds -10 1015 91 0 3.81 280.002 23:45 13.10.2019
234 Clouds -10 1015 91 0 3.81 280.002 23:20 13.10.2019
235 Clouds -10 1015 91 0 3.81 280.002 22:58 13.10.2019
236 Clouds -10 1015 91 0 3.81 280.002 22:40 13.10.2019
237 Clouds -10 1015 91 0 3.81 280.002 22:21 13.10.2019
238 Clouds -10 1015 91 0 3.81 280.002 21:58 13.10.2019
239 Clouds -10 1015 91 0 3.81 280.002 21:37 13.10.2019
240 Clouds -10 1016 92 0 4.48 283.245 21:19 13.10.2019
241 Clouds -10 1016 92 0 4.48 283.245 20:57 13.10.2019
242 Clouds -10 1016 92 0 4.48 283.245 20:57 13.10.2019
243 Clouds -10 1016 92 0 4.35 287.078 20:38 13.10.2019
244 Clouds -10 1016 92 0 4.35 287.078 20:20 13.10.2019
245 Clouds -10 1016 92 0 4.35 287.078 19:58 13.10.2019
246 Clouds -10 1016 92 0 4.35 287.078 19:39 13.10.2019
247 Clouds -10 1016 92 0 4.35 287.078 19:21 13.10.2019
248 Clouds -10 1016 92 0 4.35 287.078 18:57 13.10.2019
249 -273 0 0 0 0 0 18:56 13.10.2019
250 Clouds -10 1016 92 0 4.35 287.078 18:56 13.10.2019
251 Clouds -10 1016 92 0 4.35 287.078 18:56 13.10.2019
252 Clouds -10 1016 92 0 4.35 287.078 18:36 13.10.2019
253 Clouds -10 1016 92 0 4.85 292.102 18:18 13.10.2019
254 Clouds -10 1016 92 0 4.85 292.102 17:44 13.10.2019
255 Clouds -10 1016 92 0 4.85 292.102 17:44 13.10.2019
256 Clouds -10 1016 92 0 4.85 292.102 17:26 13.10.2019
257 Clouds -10 1016 92 0 4.85 292.102 16:58 13.10.2019
258 Clouds -10 1016 92 0 4.85 292.102 16:40 13.10.2019
259 Clouds -10 1016 92 0 4.85 292.102 16:18 13.10.2019
260 Clouds -10 1016 92 0 4.85 292.102 15:56 13.10.2019
261 Clouds -10 1016 92 0 4.85 292.102 15:37 13.10.2019
262 Clouds -10 1016 92 0 4.85 292.102 15:37 13.10.2019
263 Clouds -10 1018 92 0 4.99 294.207 15:18 13.10.2019
264 Clouds -10 1018 92 0 4.99 294.207 14:56 13.10.2019
265 Clouds -10 1018 92 0 4.99 294.207 14:38 13.10.2019
266 Clouds -10 1018 92 0 4.99 294.207 14:19 13.10.2019
267 Clouds -10 1018 92 0 4.99 294.207 13:41 13.10.2019
268 Clouds -9 1017 92 0 4.99 294.375 13:22 13.10.2019
269 Clouds -9 1017 92 0 4.99 294.375 12:59 13.10.2019
270 Clouds -9 1017 92 0 4.99 294.375 12:39 13.10.2019
271 Clear -8 1017 90 0 4.9 298.133 12:20 13.10.2019
272 Clear -8 1017 90 0 4.9 298.133 11:58 13.10.2019
273 Clear -8 1017 90 0 4.9 298.133 11:39 13.10.2019
274 Clear -8 1017 90 0 4.9 298.133 11:20 13.10.2019
275 Clear -8 1017 90 0 4.9 298.133 10:56 13.10.2019
276 Clear -8 1017 90 0 4.9 298.133 10:38 13.10.2019
277 Clear -8 1017 90 0 4.9 298.133 10:19 13.10.2019
278 Clear -8 1017 90 0 4.9 298.133 09:39 13.10.2019
279 Clouds -6 1016 79 0 5.48 296.593 09:21 13.10.2019
280 Clouds -6 1016 79 0 5.6 298.593 08:44 13.10.2019
281 Clouds -6 1016 79 0 5.6 298.593 08:26 13.10.2019
282 Clouds -6 1016 79 0 5.6 298.593 07:52 13.10.2019
283 Clouds -6 1016 79 0 5.6 298.593 07:33 13.10.2019
284 Clouds -6 1016 79 0 5.6 298.593 07:33 13.10.2019
285 Clouds -6 1016 79 0 5.6 298.593 06:54 13.10.2019
286 Clouds -6 1016 79 0 5.6 298.593 06:24 13.10.2019
287 Clouds -6 1016 79 0 5.6 298.593 06:24 13.10.2019
288 Clouds -6 1016 79 0 5.6 298.593 06:24 13.10.2019
289 Clouds -7 1016 78 0 5.56 297.952 05:22 13.10.2019
290 Clouds -7 1016 78 0 5.56 297.952 04:34 13.10.2019
291 Clouds -7 1016 78 0 5.56 297.952 04:34 13.10.2019
292 Clouds -7 1016 78 0 5.56 297.952 03:24 13.10.2019
293 Clouds -9 1016 86 0 6.01 298.98 02:31 13.10.2019
294 Clouds -9 1016 86 0 6.01 298.98 02:31 13.10.2019
295 Clouds -9 1016 86 0 6.01 298.98 01:37 13.10.2019
296 Clouds -9 1016 85 0 6.03 299.194 00:56 13.10.2019
297 Clouds -9 1016 85 0 6.03 299.194 00:56 13.10.2019
298 Clouds -9 1016 85 0 6.03 299.194 00:38 13.10.2019
299 Clouds -10 1016 90 0 5.92 298.969 00:19 13.10.2019
300 Clouds -10 1016 90 0 5.92 298.969 23:42 12.10.2019
301 Clouds -10 1016 90 0 5.92 298.969 23:42 12.10.2019
302 Clouds -10 1016 90 0 5.92 298.969 23:23 12.10.2019
303 Clouds -10 1016 90 0 5.92 298.969 22:59 12.10.2019
304 Clouds -10 1016 90 0 5.92 298.969 22:40 12.10.2019
305 Clouds -10 1016 90 0 5.92 298.969 22:22 12.10.2019
306 Clouds -10 1016 90 0 5.92 298.969 21:58 12.10.2019
307 Clouds -10 1016 90 0 5.92 298.969 21:58 12.10.2019
308 Clouds -10 1016 90 0 5.92 298.969 21:39 12.10.2019
309 Clouds -9 1015 90 0 5.88 295.668 21:21 12.10.2019
310 Clouds -8 1015 87 0 5.55 298.666 20:54 12.10.2019
311 Clouds -8 1015 87 0 5.55 298.666 20:36 12.10.2019
312 Clouds -8 1015 87 0 5.55 298.666 20:18 12.10.2019
313 Clouds -8 1015 87 0 5.55 298.666 19:36 12.10.2019
314 Clouds -8 1015 87 0 5.55 298.666 19:18 12.10.2019
315 Clouds -8 1015 87 0 5.55 298.666 18:42 12.10.2019
316 Clouds -8 1014 85 0 5.22 300.335 18:24 12.10.2019
317 Clouds -8 1014 85 0 5.22 300.335 17:46 12.10.2019
318 Clouds -8 1014 85 0 5.22 300.335 17:21 12.10.2019
319 Clouds -8 1014 85 0 5.22 300.335 16:59 12.10.2019
320 Clouds -8 1014 85 0 5.22 300.335 16:59 12.10.2019
321 Clouds -8 1014 85 0 5.22 300.335 16:40 12.10.2019
322 Clouds -8 1014 85 0 5.22 300.335 16:21 12.10.2019
323 Clouds -8 1014 85 0 5.22 300.335 15:56 12.10.2019
324 Clouds -8 1014 85 0 5.22 300.335 15:37 12.10.2019
325 Clouds -8 1013 87 0 4.95 293.547 15:18 12.10.2019
326 Clouds -8 1013 87 0 4.95 293.547 14:39 12.10.2019
327 Clouds -8 1013 87 0 4.95 293.547 14:20 12.10.2019
328 Clouds -8 1013 87 0 4.95 293.547 14:20 12.10.2019
329 Clouds -8 1013 87 0 4.95 293.547 13:50 12.10.2019
330 Clouds -8 1013 88 0 4.68 295.175 13:32 12.10.2019
331 Clouds -8 1013 88 0 4.68 295.175 12:55 12.10.2019
332 Clouds -8 1013 88 0 4.68 295.175 12:37 12.10.2019
333 Clouds -8 1012 90 0 3.98 296.134 12:19 12.10.2019
334 Clouds -8 1012 90 0 3.98 296.134 11:43 12.10.2019
335 Clouds -8 1012 90 0 3.98 296.134 11:43 12.10.2019
336 Clouds -8 1012 90 0 3.98 296.134 11:23 12.10.2019
337 Clouds -8 1012 90 0 3.98 296.134 10:58 12.10.2019
338 Clouds -8 1012 90 0 3.98 296.134 10:39 12.10.2019
339 Clouds -8 1012 90 0 3.98 296.134 10:20 12.10.2019
340 Clouds -8 1012 90 0 3.98 296.134 10:20 12.10.2019
341 Clouds -8 1012 90 0 3.98 296.134 09:57 12.10.2019
342 Clouds -8 1012 90 0 3.98 296.134 09:57 12.10.2019
343 Clouds -8 1012 90 0 3.98 296.134 09:37 12.10.2019
344 Clouds -7 1010 80 0 4.96 299.695 09:19 12.10.2019
345 Clouds -7 1011 79 0 4.57 301.076 08:44 12.10.2019
346 Clouds -7 1011 79 0 4.57 301.076 08:23 12.10.2019
347 Clouds -7 1011 79 0 4.57 301.076 07:50 12.10.2019
348 Clouds -7 1011 79 0 4.57 301.076 07:30 12.10.2019
349 Clouds -7 1011 79 0 4.57 301.076 06:27 12.10.2019
350 Clouds -9 1010 79 0 5.69 295.344 05:42 12.10.2019
351 Clouds -9 1010 79 0 5.69 295.344 04:34 12.10.2019
352 Clouds -9 1010 79 0 5.69 295.344 03:53 12.10.2019
353 Clouds -9 1009 80 0 6.35 294.984 02:45 12.10.2019
354 Clouds -9 1009 81 0 6.31 294.413 01:32 12.10.2019
355 Clouds -9 1009 81 0 6.31 294.413 00:55 12.10.2019
356 Clouds -9 1009 81 0 6.31 294.413 00:55 12.10.2019
357 Clouds -9 1009 81 0 6.31 294.413 00:37 12.10.2019
358 Clouds -9 1008 83 0 6.14 298.884 23:55 11.10.2019
359 Clouds -9 1008 83 0 6.14 298.884 23:36 11.10.2019
360 Clouds -9 1008 83 0 6.14 298.884 23:18 11.10.2019
361 Clouds -9 1008 83 0 6.14 298.884 22:37 11.10.2019
362 Clouds -9 1008 83 0 6.14 298.884 22:19 11.10.2019
363 Clouds -9 1008 83 0 6.14 298.884 21:42 11.10.2019
364 Clouds -8 1007 83 0 6.6 296.814 21:21 11.10.2019
365 Clouds -8 1006 82 0 6.51 296.002 20:57 11.10.2019
366 Clouds -8 1006 82 0 6.51 296.002 20:38 11.10.2019
367 Clouds -8 1006 82 0 6.51 296.002 20:38 11.10.2019
368 Clouds -8 1006 82 0 6.51 296.002 20:19 11.10.2019
369 Clouds -8 1006 82 0 6.51 296.002 19:55 11.10.2019
370 Clouds -8 1006 82 0 6.51 296.002 19:36 11.10.2019
371 Clouds -8 1006 82 0 6.51 296.002 19:18 11.10.2019
372 Clouds -8 1006 82 0 6.51 296.002 19:18 11.10.2019
373 Clouds -8 1006 82 0 6.51 296.002 19:18 11.10.2019
374 Clouds -8 1006 82 0 6.51 296.002 19:18 11.10.2019
375 Clouds -8 1006 82 0 6.51 296.002 18:54 11.10.2019
376 Clouds -8 1006 82 0 6.51 296.002 18:36 11.10.2019
377 Clouds -8 1006 82 0 6.51 296.002 18:36 11.10.2019
378 Clouds -8 1007 83 0 6.76 297.539 18:18 11.10.2019
379 Clouds -8 1007 83 0 6.76 297.539 17:54 11.10.2019
380 Clouds -8 1007 83 0 6.76 297.539 17:36 11.10.2019
381 Clouds -8 1007 83 0 6.76 297.539 17:18 11.10.2019
382 Clouds -8 1007 83 0 6.76 297.539 17:18 11.10.2019
383 Clouds -8 1007 83 0 6.76 297.539 16:40 11.10.2019
384 Clouds -8 1007 83 0 6.76 297.539 16:19 11.10.2019
385 Clouds -8 1007 83 0 6.76 297.539 15:58 11.10.2019
386 Clouds -8 1007 83 0 6.76 297.539 15:38 11.10.2019
387 Clouds -8 1008 83 0 6.1 297.17 15:18 11.10.2019
388 Clouds -8 1008 83 0 6.1 297.17 14:46 11.10.2019
389 Clouds -8 1008 83 0 6.1 297.17 14:28 11.10.2019
390 Clouds -8 1008 83 0 6.1 297.17 13:47 11.10.2019
391 Clouds -8 1008 83 0 5.93 295.618 13:27 11.10.2019
392 Clouds -8 1008 83 0 5.93 295.618 12:59 11.10.2019
393 Clouds -8 1008 83 0 5.93 295.618 12:41 11.10.2019
394 Clouds -7 1008 84 0 5.59 302.353 12:22 11.10.2019
395 Clouds -7 1008 84 0 5.59 302.353 11:59 11.10.2019
396 Clouds -7 1008 84 0 5.59 302.353 11:40 11.10.2019
397 Clouds -7 1008 84 0 5.59 302.353 11:21 11.10.2019
398 Clouds -7 1008 84 0 5.59 302.353 10:56 11.10.2019
399 Clouds -7 1008 84 0 5.59 302.353 10:38 11.10.2019
400 Clouds -7 1008 84 0 5.59 302.353 10:20 11.10.2019
401 Clouds -7 1008 84 0 5.59 302.353 09:54 11.10.2019
402 Clouds -7 1008 84 0 5.59 302.353 09:54 11.10.2019
403 Clouds -8 1009 85 0 5.46 298.541 09:36 11.10.2019
404 Clouds -5 1009 79 0 5.37 299.754 09:18 11.10.2019
405 Clouds -5 1009 79 0 5.37 299.754 08:40 11.10.2019
406 Clouds -5 1009 79 0 5.37 299.754 08:21 11.10.2019
407 Clouds -5 1009 79 0 5.37 299.754 07:59 11.10.2019
408 Clouds -5 1009 79 0 5.37 299.754 07:40 11.10.2019
409 Clouds -5 1009 79 0 5.37 299.754 07:20 11.10.2019
410 Clouds -5 1009 79 0 5.37 299.754 06:44 11.10.2019
411 Clouds -4 1009 82 0 4.35 301.203 06:21 11.10.2019
412 Clouds -4 1009 82 0 4.35 301.203 05:37 11.10.2019
413 Clouds -4 1009 82 0 4.35 301.203 04:59 11.10.2019
414 Clouds -4 1009 82 0 4.35 301.203 04:24 11.10.2019
415 Clouds -7 1010 89 0 2.98 293.194 01:58 11.10.2019
416 Clouds -7 1010 89 0 2.84 294.929 00:42 11.10.2019
417 Clouds -9 1010 93 0 3.2 291.688 00:23 11.10.2019
418 Clouds -9 1010 93 0 3.2 291.688 00:23 11.10.2019
419 Clouds -9 1010 93 0 3.2 291.688 23:42 10.10.2019
420 Clouds -9 1010 93 0 3.2 291.688 23:21 10.10.2019
421 Clouds -9 1010 93 0 3.2 291.688 22:57 10.10.2019
422 Clouds -9 1010 93 0 3.2 291.688 22:38 10.10.2019
423 Clouds -9 1010 93 0 3.2 291.688 22:19 10.10.2019
424 Clouds -9 1010 93 0 3.2 291.688 21:56 10.10.2019
425 Clouds -9 1010 93 0 3.2 291.688 21:56 10.10.2019
426 Clouds -9 1010 93 0 3.2 291.688 21:38 10.10.2019
427 Clouds -9 1011 93 0 3.63 284.53 21:20 10.10.2019
428 Clouds -9 1010 93 0 3.72 288.377 20:41 10.10.2019
429 Clouds -9 1010 93 0 3.72 288.377 20:21 10.10.2019
430 Clouds -9 1010 93 0 3.72 288.377 19:58 10.10.2019
431 Clouds -9 1010 93 0 3.72 288.377 19:40 10.10.2019
432 Clouds -9 1010 93 0 3.72 288.377 19:20 10.10.2019
433 Clouds -9 1010 93 0 3.72 288.377 18:56 10.10.2019
434 Clouds -9 1010 93 0 3.72 288.377 18:38 10.10.2019
435 Clouds -9 1010 93 0 3.25 284.1 18:19 10.10.2019
436 Clouds -9 1010 93 0 3.25 284.1 17:41 10.10.2019
437 Clouds -9 1010 93 0 3.25 284.1 17:20 10.10.2019
438 Clouds -9 1010 93 0 3.25 284.1 16:59 10.10.2019
439 Clouds -9 1010 93 0 3.25 284.1 16:41 10.10.2019
440 Clouds -9 1010 93 0 3.25 284.1 16:22 10.10.2019
441 Clouds -9 1010 93 0 3.25 284.1 15:44 10.10.2019
442 Clouds -9 1010 93 0 3.25 284.1 15:25 10.10.2019
443 Clouds -9 1011 93 0 3.25 278.549 14:59 10.10.2019
444 Clouds -9 1011 93 0 3.25 278.549 14:38 10.10.2019
445 Clouds -9 1011 93 0 3.25 278.549 14:38 10.10.2019
446 Snow -4 1010 79 10000 3 280 14:19 10.10.2019
447 Snow -4 1010 79 10000 3 280 13:59 10.10.2019
448 Snow -4 1010 79 10000 3 270 13:40 10.10.2019
449 Snow -4 1010 79 10000 3 270 13:19 10.10.2019
450 Snow -4 1010 79 10000 3 270 13:19 10.10.2019
451 Snow -4 1010 79 10000 3 270 12:56 10.10.2019
452 Snow -4 1010 79 10000 3 270 12:38 10.10.2019
453 Snow -4 1010 79 10000 3 270 12:19 10.10.2019
454 -273 0 0 0 0 0 11:55 10.10.2019
455 Snow -4 1010 79 10000 3 270 11:36 10.10.2019
456 Snow -4 1010 79 10000 3 270 11:18 10.10.2019
457 Clouds -4 1010 79 10000 2 270 10:44 10.10.2019
458 Clouds -4 1010 79 10000 2 280 10:25 10.10.2019
459 Clouds -3 1009 73 10000 3 270 09:55 10.10.2019
460 Clouds -3 1009 73 10000 4 270 09:37 10.10.2019
461 Clouds -3 1009 73 10000 4 270 09:19 10.10.2019
462 Clouds -3 1009 73 10000 3 280 08:41 10.10.2019
463 Clouds -3 1009 73 10000 3 270 08:22 10.10.2019
464 Clouds -3 1008 79 10000 4 250 07:58 10.10.2019
465 Clouds -3 1008 73 10000 4 240 07:38 10.10.2019
466 Clouds -3 1008 73 10000 4 240 07:19 10.10.2019
467 Clouds -3 1008 73 10000 4 240 06:45 10.10.2019
468 Clouds -3 1008 79 10000 4 250 05:57 10.10.2019
469 Clouds -3 1008 73 10000 4 240 05:23 10.10.2019
470 Clouds -4 1007 79 10000 4 250 04:37 10.10.2019
471 Clouds -4 1006 85 10000 3 260 02:54 10.10.2019
472 Clouds -4 1006 85 10000 3 270 01:42 10.10.2019
473 Clouds -4 1006 85 10000 4 290 01:23 10.10.2019
474 Clouds -4 1005 85 10000 6 280 00:45 10.10.2019
475 Snow -4 1005 92 10000 5 280 00:19 10.10.2019
476 Snow -3 1005 92 10000 4 280 23:39 09.10.2019
477 Snow -3 1005 92 10000 4 280 23:19 09.10.2019
478 Snow -3 1004 92 10000 4 280 22:43 09.10.2019
479 Snow -2 1004 92 10000 4 280 22:24 09.10.2019
480 Snow -2 1004 100 10000 3 290 21:59 09.10.2019
481 Snow -2 1003 100 10000 2 270 21:39 09.10.2019
482 Snow -2 1003 100 10000 2 270 21:20 09.10.2019
483 Snow -2 1003 92 10000 2 280 20:56 09.10.2019
484 Snow -2 1003 92 10000 3 280 20:37 09.10.2019
485 Snow -2 1003 92 10000 3 280 20:18 09.10.2019
486 Snow -2 1003 100 10000 3 290 19:45 09.10.2019
487 Snow -2 1003 100 5000 3 300 19:24 09.10.2019
488 Snow -2 1002 100 5000 3 300 18:58 09.10.2019
489 Snow -2 1002 100 5000 3 300 18:38 09.10.2019
490 Snow -2 1002 100 5000 3 300 18:18 09.10.2019
491 Snow -2 1002 100 5000 3 300 17:55 09.10.2019
492 Snow -2 1002 100 2400 3 310 17:37 09.10.2019
493 Snow -2 1002 100 2400 3 310 17:18 09.10.2019
494 Snow -1 1001 92 2400 4 310 16:41 09.10.2019
495 Snow -1 1001 92 2400 4 320 16:23 09.10.2019
496 Snow -1 1001 92 1500 4 310 15:58 09.10.2019
497 Snow -1 1001 92 2400 4 320 15:39 09.10.2019
498 Snow -1 1001 92 2400 4 320 15:20 09.10.2019
499 Snow -1 1001 92 5000 4 320 14:58 09.10.2019
500 Snow -1 1001 92 5000 4 320 14:40 09.10.2019
501 Snow -1 1001 92 5000 4 330 14:18 09.10.2019
502 Snow -1 1001 100 10000 4 330 13:40 09.10.2019
503 Snow -1 1001 100 10000 4 330 13:21 09.10.2019
504 Snow -1 1001 100 3200 5 330 12:59 09.10.2019
505 Snow -1 1001 100 3200 5 330 12:59 09.10.2019
506 Snow -1 1001 100 3200 5 330 12:40 09.10.2019
507 Snow -1 1001 100 1500 5 330 12:21 09.10.2019
508 Snow -1 1001 100 2100 5 340 11:55 09.10.2019
509 Snow -1 1001 100 2100 5 340 11:37 09.10.2019
510 Snow -1 1001 100 2100 5 340 11:19 09.10.2019
511 Snow -1 1001 100 1200 5 340 10:43 09.10.2019
512 Snow -1 1001 100 1200 5 340 10:43 09.10.2019
513 Snow -1 1001 100 1500 5 350 10:21 09.10.2019
514 Snow -1 1001 100 1500 5 350 10:21 09.10.2019
515 Snow 0 1001 95 1500 5 350 09:58 09.10.2019
516 Snow 0 1001 95 1500 5 350 09:40 09.10.2019
517 Snow 0 1001 95 1500 5 350 09:40 09.10.2019
518 Snow 0 1001 95 1500 5 350 09:40 09.10.2019
519 Snow 0 1001 94 1500 6 360 09:18 09.10.2019
520 Snow 0 1001 94 1500 6 360 08:41 09.10.2019
521 Snow 0 1001 94 1500 7 360 08:21 09.10.2019
522 Snow 0 1001 94 1100 6 360 07:56 09.10.2019
523 Snow 0 1001 94 1500 6 360 07:37 09.10.2019
524 Snow 0 1001 94 1500 6 360 07:19 09.10.2019
525 Snow 0 1001 94 1500 6 360 07:19 09.10.2019
526 Snow 0 1001 94 1500 6 360 06:49 09.10.2019
527 Snow 0 1001 93 2100 6 360 05:56 09.10.2019
528 Snow 1 1001 80 3200 6 360 05:28 09.10.2019
529 Snow 1 1002 80 10000 6 20 04:24 09.10.2019
530 Clouds 0 1002 94 10000 6 20 02:52 09.10.2019
531 Snow 0 1003 94 3200 5 20 01:43 09.10.2019
532 Snow 0 1003 94 3200 5 20 01:20 09.10.2019
533 Snow 0 1003 94 3200 5 20 01:20 09.10.2019
534 Snow 0 1003 94 5000 5 20 00:56 09.10.2019
535 Snow 0 1003 94 5000 4 30 00:38 09.10.2019
536 Snow 0 1003 96 5000 4 30 00:19 09.10.2019
537 Snow 0 1003 96 10000 5 20 23:39 08.10.2019
538 Snow 0 1003 96 10000 5 20 23:19 08.10.2019
539 Snow 0 1003 96 10000 5 20 22:56 08.10.2019
540 Snow -1 1003 100 3200 5 20 22:38 08.10.2019
541 Snow -1 1003 100 3200 5 20 22:19 08.10.2019
542 Snow -1 1004 92 10000 5 20 21:57 08.10.2019
543 Snow -1 1004 92 10000 5 20 21:57 08.10.2019
544 Snow -1 1004 92 10000 5 20 21:39 08.10.2019
545 Snow -1 1004 92 10000 5 20 21:19 08.10.2019
546 Snow -1 1004 92 10000 5 20 21:19 08.10.2019
547 Clouds -1 1004 92 10000 4 10 20:56 08.10.2019
548 Clouds -2 1004 92 10000 3 350 20:37 08.10.2019
549 Clouds -2 1004 92 10000 3 350 20:19 08.10.2019
550 Clouds -2 1004 92 10000 3 350 19:56 08.10.2019
551 Clouds -2 1005 92 10000 3 350 19:37 08.10.2019
552 Clouds -2 1005 92 10000 3 350 19:19 08.10.2019
553 Clouds -2 1005 92 10000 3 360 18:46 08.10.2019
554 Clouds -2 1005 92 10000 3 350 18:27 08.10.2019
555 Clouds -2 1005 92 10000 3 340 17:59 08.10.2019
556 Clouds -2 1005 92 10000 3 340 17:40 08.10.2019
557 Clouds -2 1005 92 10000 3 340 17:40 08.10.2019
558 Clouds -2 1005 92 10000 3 340 17:40 08.10.2019
559 Clouds -2 1005 92 10000 3 350 17:20 08.10.2019
560 Clouds -2 1005 86 10000 2 350 16:56 08.10.2019
561 Clouds -2 1005 92 10000 3 350 16:38 08.10.2019
562 Clouds -2 1005 92 10000 3 350 16:20 08.10.2019
563 Clouds -2 1005 86 10000 2 350 15:40 08.10.2019
564 -273 0 0 0 0 0 15:21 08.10.2019
565 Clouds -1 1005 86 10000 2 10 14:57 08.10.2019
566 Clouds -1 1005 86 10000 2 360 14:39 08.10.2019
567 Clouds -1 1005 86 10000 2 360 14:20 08.10.2019
568 Clouds -1 1005 86 10000 3 360 13:56 08.10.2019
569 Clouds 1 1005 80 10000 3 350 13:37 08.10.2019
570 Clouds 1 1005 80 10000 3 350 13:18 08.10.2019
571 Clouds 1 1005 80 10000 3 350 12:42 08.10.2019
572 Clouds 0 1005 83 10000 2 20 12:21 08.10.2019
573 Clouds 0 1005 83 10000 2 20 12:21 08.10.2019
574 Clouds 1 1005 80 10000 2 50 11:59 08.10.2019
575 Clouds 1 1005 80 10000 2 50 11:40 08.10.2019
576 Clouds 2 1005 74 10000 2 50 11:21 08.10.2019
577 Clouds 2 1005 74 10000 2 80 10:55 08.10.2019
578 Clouds 2 1005 74 10000 2 80 10:36 08.10.2019
579 Clouds 2 1005 74 10000 2 80 10:18 08.10.2019
580 Clouds 2 1004 74 10000 2 90 09:41 08.10.2019
581 Clouds 2 1004 74 10000 2 90 09:41 08.10.2019
582 Clouds 2 1004 74 10000 3 90 09:23 08.10.2019
583 Clouds 2 1004 74 10000 3 70 08:57 08.10.2019
584 Clouds 3 1004 69 10000 2 100 08:39 08.10.2019
585 Clouds 3 1004 69 10000 2 100 08:21 08.10.2019
586 Clouds 3 1004 69 10000 2 90 07:41 08.10.2019
587 Clouds 3 1004 69 10000 2 90 07:20 08.10.2019
588 Clouds 3 1004 69 10000 2 90 07:20 08.10.2019
589 Clouds 2 1004 74 10000 3 90 06:47 08.10.2019
590 Clouds 2 1004 74 10000 2 100 06:26 08.10.2019
591 Clouds 2 1004 74 10000 2 100 05:45 08.10.2019
592 -273 0 0 0 0 0 05:24 08.10.2019
593 Clouds 0 1004 73 10000 2 120 03:32 08.10.2019
594 Clouds 0 1004 85 10000 2 120 02:47 08.10.2019
595 Snow 0 1005 85 10000 2 110 02:29 08.10.2019
596 Snow 0 1005 85 10000 2 110 01:43 08.10.2019
597 Snow 0 1005 82 10000 2 170 01:19 08.10.2019
598 Clouds -1 1005 92 10000 2 160 00:38 08.10.2019
599 Clouds -1 1005 92 10000 2 160 00:19 08.10.2019
600 Clouds -1 1005 86 10000 2 130 23:39 07.10.2019
601 Clouds -1 1005 86 10000 2 130 23:19 07.10.2019
602 Clouds -1 1005 86 10000 1 160 22:55 07.10.2019
603 Clouds -1 1005 86 10000 1 160 22:55 07.10.2019
604 Clouds -1 1005 86 10000 2 180 22:37 07.10.2019
605 Clouds -1 1005 86 10000 2 180 22:19 07.10.2019
606 Clouds -1 1005 80 10000 1 180 21:55 07.10.2019
607 Clouds -1 1005 80 10000 2 160 21:37 07.10.2019
608 Clouds -1 1005 80 10000 2 160 21:18 07.10.2019
609 Clouds -2 1005 86 10000 0.98 146.782 20:57 07.10.2019
610 Clear -2 1005 86 10000 1 160 20:38 07.10.2019
611 Clear -2 1005 86 10000 1 160 20:19 07.10.2019
612 Clear -3 1006 86 10000 0.98 146.782 19:55 07.10.2019
613 Clear -3 1006 86 10000 0.98 146.782 19:54 07.10.2019
614 Clear -3 1006 86 10000 0.98 146.782 19:54 07.10.2019
615 Clear -3 1006 86 10000 0.98 146.782 19:36 07.10.2019
616 Clear -3 1006 86 10000 0.98 146.782 19:18 07.10.2019
617 Clear -3 1006 86 10000 0.98 146.782 18:42 07.10.2019
618 Clear -3 1006 79 10000 1 310 18:19 07.10.2019
619 Clear -4 1007 85 10000 2 300 17:58 07.10.2019
620 Clear -4 1007 85 10000 2 300 17:40 07.10.2019
621 Clear -4 1007 85 10000 2 300 17:40 07.10.2019
622 Clear -4 1007 85 10000 2 300 17:40 07.10.2019
623 Clear -4 1007 85 10000 1 280 17:19 07.10.2019
624 Clear -4 1007 85 10000 1 300 16:46 07.10.2019
625 Clear -4 1007 85 10000 1 300 16:46 07.10.2019
626 Clear -3 1007 79 10000 1 300 16:28 07.10.2019
627 Clear -4 1007 85 10000 2 310 15:58 07.10.2019
628 Clear -4 1008 85 10000 1 300 15:39 07.10.2019
629 Clear -4 1008 85 10000 1 300 15:21 07.10.2019
630 Clear -3 1008 79 10000 2 320 14:41 07.10.2019
631 Clear -2 1008 79 10000 1 10 14:23 07.10.2019
632 Clear -1 1008 74 10000 1 20 13:45 07.10.2019
633 Clear 0 1008 67 10000 2 30 13:21 07.10.2019
634 Clear 0 1008 67 10000 2 20 12:59 07.10.2019
635 Clear 1 1008 64 10000 2 60 12:40 07.10.2019
636 Clear 1 1008 64 10000 2 60 12:40 07.10.2019
637 Clear 1 1008 64 10000 2 60 12:21 07.10.2019
638 Clear 1 1008 64 10000 2 60 12:21 07.10.2019
639 Clear 1 1008 64 10000 2 60 12:21 07.10.2019
640 Clear 1 1008 64 10000 2 90 11:59 07.10.2019
641 Clear 1 1008 64 10000 2 90 11:40 07.10.2019
642 Clear 2 1008 59 10000 2 80 11:21 07.10.2019
643 Clear 2 1008 59 10000 2 80 10:58 07.10.2019
644 Clear 3 1008 55 10000 2 90 10:39 07.10.2019
645 -273 0 0 0 0 0 10:20 07.10.2019
646 Clear 3 1008 55 10000 2 80 09:40 07.10.2019
647 Clear 3 1008 51 10000 2 80 09:22 07.10.2019
648 Clear 4 1008 48 10000 3 70 08:44 07.10.2019
649 Clear 4 1008 48 10000 3 60 08:21 07.10.2019
650 Clear 4 1008 48 10000 3 20 07:59 07.10.2019
651 Clear 4 1008 48 10000 3 30 07:40 07.10.2019
652 Clear 4 1008 48 10000 3 30 07:20 07.10.2019
653 Clear 3 1008 47 10000 3 40 06:44 07.10.2019
654 Clear 3 1009 51 10000 3 30 06:22 07.10.2019
655 Clear 1 1009 59 10000 3 10 05:27 07.10.2019
656 Clear 0 1009 64 10000 2 20 04:56 07.10.2019
657 Clear 0 1010 64 10000 3 30 04:19 07.10.2019
658 Clear -1 1010 74 10000 3 20 03:39 07.10.2019
659 Clear -1 1010 74 10000 3 20 03:39 07.10.2019
660 Clear -1 1010 74 10000 3 20 03:18 07.10.2019
661 Clear -3 1010 86 10000 2 10 02:20 07.10.2019
662 Clear -3 1010 86 10000 2 360 01:42 07.10.2019
663 Clear -4 1010 85 10000 2 350 01:18 07.10.2019
664 Clear -5 1010 92 10000 2 350 00:36 07.10.2019
665 Clear -5 1010 92 10000 2 350 00:18 07.10.2019
666 Clear -5 1010 92 10000 2 340 23:42 06.10.2019
667 Clear -5 1010 92 10000 3 360 23:21 06.10.2019
668 Clear -4 1010 85 10000 2 10 22:58 06.10.2019
669 Clear -4 1010 85 10000 2 10 22:40 06.10.2019
670 Clear -4 1010 92 10000 2 10 22:21 06.10.2019
671 Clear -4 1010 92 10000 2 360 21:57 06.10.2019
672 Clear -4 1010 92 10000 3 10 21:37 06.10.2019
673 Clear -4 1010 92 10000 3 10 21:37 06.10.2019
674 Clear -4 1010 92 10000 3 10 21:19 06.10.2019
675 Clear -4 1010 92 10000 3 360 20:57 06.10.2019
676 Clear -3 1011 86 10000 3 350 20:38 06.10.2019
677 Clear -3 1011 86 10000 3 350 20:20 06.10.2019
678 Clear -3 1011 86 10000 3 360 19:57 06.10.2019
679 Clear -3 1011 86 10000 3 360 19:37 06.10.2019
680 Clear -3 1011 86 10000 3 360 19:19 06.10.2019
681 Clear -3 1011 86 10000 2 350 18:56 06.10.2019
682 Clear -3 1011 86 10000 3 350 18:38 06.10.2019
683 Clear -3 1011 86 10000 3 350 18:19 06.10.2019
684 Clear -4 1011 92 10000 2 350 17:43 06.10.2019
685 Clear -4 1011 92 10000 2 360 17:21 06.10.2019
686 Clear -4 1011 92 10000 2 350 16:59 06.10.2019
687 Clear -4 1011 92 10000 2 350 16:41 06.10.2019
688 Clear -3 1011 86 10000 2 360 16:23 06.10.2019
689 Clear -3 1011 86 10000 2 350 15:45 06.10.2019
690 Clear -3 1011 86 10000 2 350 15:45 06.10.2019
691 Clear -3 1011 86 10000 2 360 15:23 06.10.2019
692 Clear -1 1011 80 10000 2 60 14:58 06.10.2019
693 Clear -1 1011 80 10000 2 60 14:40 06.10.2019
694 Clear -1 1011 80 10000 2 70 14:22 06.10.2019
695 Clear -1 1011 80 10000 2 90 13:55 06.10.2019
696 Clear -1 1011 80 10000 2 100 13:37 06.10.2019
697 Clear -1 1011 80 10000 2 100 13:19 06.10.2019
698 Clear -1 1011 80 10000 1 100 12:55 06.10.2019
699 Clear -1 1011 80 10000 1 120 12:37 06.10.2019
700 Clear -1 1011 80 10000 1 120 12:19 06.10.2019
701 Clear 0 1011 82 10000 3 130 11:43 06.10.2019
702 Clear 0 1011 82 10000 3 110 11:24 06.10.2019
703 Clear 0 1011 82 10000 3 110 11:24 06.10.2019
704 Clear 0 1011 82 10000 3 110 10:58 06.10.2019
705 Clear 1 1010 69 10000 2 120 10:39 06.10.2019
706 Clear 1 1010 69 10000 2 120 10:21 06.10.2019
707 Clear 1 1010 69 10000 4 110 09:42 06.10.2019
708 Clear 1 1010 69 10000 4 120 09:21 06.10.2019
709 Clear 1 1010 69 10000 4 100 08:57 06.10.2019
710 Clear 2 1010 64 10000 4 120 08:38 06.10.2019
711 Clear 2 1010 64 10000 4 120 08:19 06.10.2019
712 Clouds 2 1010 64 10000 3 120 07:41 06.10.2019
713 Clouds 2 1010 64 10000 3 110 06:59 06.10.2019
714 Clouds 1 1011 69 10000 3 110 06:18 06.10.2019
715 Clouds 0 1011 66 10000 3 100 04:44 06.10.2019
716 Clouds -1 1012 74 10000 2 100 02:56 06.10.2019
717 Clouds -2 1012 79 10000 2 100 02:37 06.10.2019
718 Clouds -2 1012 79 10000 2 100 01:57 06.10.2019
719 Clouds -2 1012 79 10000 3 110 01:37 06.10.2019
720 Clouds -2 1012 79 10000 3 110 01:18 06.10.2019
721 Clouds -2 1012 79 10000 3 90 00:45 06.10.2019
722 Clouds -2 1012 79 10000 4 100 00:21 06.10.2019
723 Clouds -2 1012 79 10000 3 100 23:42 05.10.2019
724 Clouds -2 1012 79 10000 3 100 23:21 05.10.2019
725 Clouds -2 1012 79 10000 4 100 22:56 05.10.2019
726 Clouds -2 1012 79 10000 3 100 22:38 05.10.2019
727 Clouds -2 1012 79 10000 3 100 22:38 05.10.2019
728 Clouds -2 1012 79 10000 3 100 22:38 05.10.2019
729 Clouds -2 1012 79 10000 3 100 22:19 05.10.2019
730 Clouds -2 1012 79 10000 4 90 21:42 05.10.2019
731 Clouds -2 1012 79 10000 4 90 21:42 05.10.2019
732 Clouds -2 1013 74 10000 3 100 21:24 05.10.2019
733 Clouds -2 1013 74 10000 3 100 20:59 05.10.2019
734 Clouds -2 1013 74 10000 3 100 20:40 05.10.2019
735 Clouds -2 1013 79 10000 3 90 20:20 05.10.2019
736 Clouds -2 1013 79 10000 2 90 19:57 05.10.2019
737 Clouds -2 1013 79 10000 3 110 19:37 05.10.2019
738 Clouds -2 1013 79 10000 3 110 19:18 05.10.2019
739 Clouds -2 1013 79 10000 3 120 18:55 05.10.2019
740 Clouds -2 1013 79 10000 2 120 18:36 05.10.2019
741 Clouds -2 1013 79 10000 2 120 18:18 05.10.2019
742 Clouds -2 1013 79 10000 2 120 17:42 05.10.2019
743 Clouds -2 1014 79 10000 2 120 17:22 05.10.2019
744 Clouds -2 1014 79 10000 2 130 16:56 05.10.2019
745 Clouds -2 1014 79 10000 3 120 16:37 05.10.2019
746 Clouds -2 1014 79 10000 3 120 16:18 05.10.2019
747 Clouds -2 1014 79 10000 3 120 16:18 05.10.2019
748 Clouds -1 1014 74 10000 2 140 15:55 05.10.2019
749 Clouds -1 1014 74 10000 3 140 15:37 05.10.2019
750 Clouds -1 1014 74 10000 3 140 15:18 05.10.2019
751 Clouds -1 1014 74 10000 2 160 14:42 05.10.2019
752 Clouds -1 1014 74 10000 2 170 14:23 05.10.2019
753 Clouds -1 1014 74 10000 2 180 13:44 05.10.2019
754 Clear -1 1014 68 10000 2 130 13:26 05.10.2019
755 Clear -1 1014 68 10000 2 110 12:59 05.10.2019
756 Clear -1 1014 68 10000 2 110 12:41 05.10.2019
757 Clouds -1 1014 68 10000 2 110 12:19 05.10.2019
758 Clouds -1 1014 68 10000 2 110 11:41 05.10.2019
759 Clouds -1 1014 68 10000 2 100 11:20 05.10.2019
760 Clouds -1 1014 68 10000 2 100 10:57 05.10.2019
761 Clouds -1 1014 68 10000 2 100 10:57 05.10.2019
762 Clouds -1 1014 63 10000 2 100 10:38 05.10.2019
763 Clouds -1 1014 63 10000 2 100 10:20 05.10.2019
764 Clouds -1 1014 63 10000 2 90 09:41 05.10.2019
765 Clouds -1 1014 63 10000 2 80 09:23 05.10.2019
766 Clouds 0 1014 69 10000 2 100 08:43 05.10.2019
767 Clouds 0 1014 69 10000 2 90 08:23 05.10.2019
768 Clouds 0 1014 69 10000 2 100 07:59 05.10.2019
769 Clouds -1 1014 63 10000 3 90 07:39 05.10.2019
770 Clouds -1 1014 63 10000 3 90 07:20 05.10.2019
771 Clouds -1 1014 68 10000 3 100 06:52 05.10.2019
772 Clouds -1 1014 68 10000 3 80 06:21 05.10.2019
773 Clouds -2 1014 68 10000 4 90 04:46 05.10.2019
774 Snow -3 1014 79 10000 3 40 03:32 05.10.2019
775 Snow -3 1013 86 10000 4 50 02:26 05.10.2019
776 Snow -4 1013 92 10000 3 40 01:26 05.10.2019
777 Snow -4 1013 92 10000 3 60 00:48 05.10.2019
778 Snow -4 1013 92 10000 3 60 00:48 05.10.2019
779 Snow -4 1013 92 10000 3 60 00:27 05.10.2019
780 Snow -4 1013 85 10000 4 40 23:56 04.10.2019
781 Snow -4 1013 85 10000 4 40 23:56 04.10.2019
782 Snow -3 1013 86 10000 3 60 23:37 04.10.2019
783 Snow -3 1013 86 10000 3 60 23:18 04.10.2019
784 Snow -3 1013 86 10000 3 50 22:42 04.10.2019
785 Snow -3 1013 86 10000 3 60 22:24 04.10.2019
786 Snow -3 1013 86 10000 3 50 21:58 04.10.2019
787 Snow -3 1013 86 10000 3 50 21:40 04.10.2019
788 Snow -3 1013 86 10000 3 60 21:22 04.10.2019
789 Snow -3 1013 86 10000 3 60 20:58 04.10.2019
790 Snow -2 1012 79 10000 3 80 20:39 04.10.2019
791 Snow -2 1012 79 10000 3 80 20:21 04.10.2019
792 Snow -2 1012 74 10000 4 90 19:55 04.10.2019
793 Snow -2 1012 74 10000 3 60 19:37 04.10.2019
794 Snow -2 1012 74 10000 3 60 19:19 04.10.2019
795 Snow -1 1012 74 10000 3 80 18:40 04.10.2019
796 Snow -1 1012 74 10000 3 80 18:20 04.10.2019
797 Snow -1 1012 74 10000 3 90 17:59 04.10.2019
798 Snow -1 1012 74 10000 3 90 17:39 04.10.2019
799 Snow -1 1012 74 10000 3 90 17:21 04.10.2019
800 Snow -1 1012 74 10000 3 100 16:57 04.10.2019
801 Snow -1 1012 74 10000 3 100 16:39 04.10.2019
802 Snow -1 1012 74 10000 3 100 16:39 04.10.2019
803 Snow -1 1012 74 10000 3 100 16:18 04.10.2019
804 Snow -1 1012 74 10000 2 100 15:55 04.10.2019
805 Clouds -1 1013 80 10000 3 100 15:37 04.10.2019
806 Clouds -1 1013 80 10000 3 100 15:19 04.10.2019
807 Clouds -1 1013 80 10000 3 100 15:19 04.10.2019
808 Snow -1 1013 80 10000 3 90 14:55 04.10.2019
809 Snow -1 1013 80 10000 3 90 14:36 04.10.2019
810 Snow -1 1013 80 10000 3 90 14:18 04.10.2019
811 Snow -1 1013 80 10000 3 110 13:43 04.10.2019
812 Snow -1 1013 80 10000 4 110 13:21 04.10.2019
813 Snow 0 1013 89 10000 4 120 12:47 04.10.2019
814 Clouds 1 1013 64 10000 4 110 12:29 04.10.2019
815 Clouds 1 1013 59 10000 3 110 11:59 04.10.2019
816 Clouds 1 1013 59 10000 3 110 11:59 04.10.2019
817 Clouds 1 1013 59 10000 3 110 11:59 04.10.2019
818 Clouds 1 1013 59 10000 3 110 11:41 04.10.2019
819 Clouds 1 1013 59 10000 3 120 11:20 04.10.2019
820 Clouds 1 1013 59 10000 3 120 11:20 04.10.2019
821 Clouds 1 1013 59 10000 5 120 10:41 04.10.2019
822 Clear 2 1013 55 10000 4 150 10:21 04.10.2019
823 Clear 2 1013 51 10000 4 140 09:48 04.10.2019
824 Clear 2 1013 51 10000 4 130 09:30 04.10.2019
825 Clear 2 1013 51 10000 4 140 08:57 04.10.2019
826 Clear 2 1014 47 10000 4 140 08:38 04.10.2019
827 Clear 2 1014 47 10000 4 140 08:20 04.10.2019
828 Clear 2 1014 51 10000 4 150 07:45 04.10.2019
829 Clear 2 1014 47 10000 4 150 07:22 04.10.2019
830 Clear 2 1014 51 10000 5 140 06:47 04.10.2019
831 Clear 2 1014 51 10000 5 140 06:47 04.10.2019
832 Clear 2 1015 55 10000 3 140 06:27 04.10.2019
833 Clear 2 1015 55 10000 3 160 05:52 04.10.2019
834 Clear 1 1015 64 10000 2 160 05:19 04.10.2019
835 Clouds -2 1017 79 10000 2 140 03:56 04.10.2019
836 Mist -5 1017 100 1500 2 170 02:54 04.10.2019
837 Mist -5 1017 100 1500 2 170 02:54 04.10.2019
838 Fog -6 1017 100 300 2 150 02:18 04.10.2019
839 Mist -6 1018 92 1100 2 180 01:42 04.10.2019
840 Mist -7 1018 92 3200 2 180 01:23 04.10.2019
841 Clear -11 1018 92 10000 1 260 23:59 03.10.2019
842 Clear -11 1018 92 10000 1 270 23:37 03.10.2019
843 Clear -11 1018 92 10000 1 270 23:18 03.10.2019
844 Clear -11 1019 92 10000 1 280 22:57 03.10.2019
845 Clear -10 1019 92 10000 1 250 22:39 03.10.2019
846 Clear -10 1019 92 10000 1 250 22:21 03.10.2019
847 Clear -9 1019 92 10000 1 230 21:56 03.10.2019
848 Clear -9 1019 92 10000 1.91 206.083 21:37 03.10.2019
849 Clear -9 1019 92 10000 1.82 239.7 21:19 03.10.2019
850 Clear -9 1019 92 10000 1.86 241.906 20:56 03.10.2019
851 Clear -8 1019 92 10000 1 310 20:37 03.10.2019
852 Clear -8 1019 92 10000 1 310 20:19 03.10.2019
853 -273 0 0 0 0 0 19:54 03.10.2019
854 -273 0 0 0 0 0 19:54 03.10.2019
855 Clear -8 1019 92 10000 2 280 19:36 03.10.2019
856 Clear -8 1019 92 10000 2 280 19:18 03.10.2019
857 Clear -7 1020 92 10000 3 270 18:40 03.10.2019
858 Clear -7 1020 92 10000 3 270 18:19 03.10.2019
859 Clear -7 1020 92 10000 3 270 18:19 03.10.2019
860 Clear -6 1020 92 10000 3 280 17:59 03.10.2019
861 Clear -6 1020 92 10000 3 280 17:59 03.10.2019
862 Clear -6 1020 92 10000 3 280 17:41 03.10.2019
863 Clear -6 1020 92 10000 4 280 17:19 03.10.2019
864 Clear -5 1020 85 10000 4 280 16:44 03.10.2019
865 Clear -5 1020 85 10000 4 280 16:26 03.10.2019
866 Clear -5 1020 85 10000 3 290 15:57 03.10.2019
867 Clear -4 1020 85 10000 3 280 15:39 03.10.2019
868 Clear -4 1020 85 10000 3 280 15:20 03.10.2019
869 Clear -4 1020 85 10000 3 280 14:47 03.10.2019
870 Clear -4 1020 85 10000 3 280 14:27 03.10.2019
871 Clear -4 1020 85 10000 3 280 13:59 03.10.2019
872 Clear -4 1020 85 10000 3 280 13:41 03.10.2019
873 Clear -3 1020 86 10000 3 280 13:19 03.10.2019
874 Clear -3 1020 86 10000 3 280 12:56 03.10.2019
875 Clouds -3 1020 86 10000 4 280 12:38 03.10.2019
876 Clouds -3 1020 86 10000 4 280 12:19 03.10.2019
877 Clouds -3 1020 86 10000 4 270 11:41 03.10.2019
878 Clouds -2 1020 79 10000 4 270 11:23 03.10.2019
879 Clouds -2 1020 79 10000 3 270 10:59 03.10.2019
880 Snow 0 1020 68 5000 6 300 10:40 03.10.2019
881 Snow 0 1020 68 5000 6 300 10:19 03.10.2019
882 Clouds 0 1019 68 10000 4 270 09:58 03.10.2019
883 Clouds 0 1019 68 10000 4 320 09:40 03.10.2019
884 Clouds 0 1019 52 10000 4 320 09:21 03.10.2019
885 Clouds 1 1019 50 10000 4 310 08:45 03.10.2019
886 Clouds 1 1019 47 10000 5 310 08:27 03.10.2019
887 Clouds 1 1019 50 10000 5 310 07:57 03.10.2019
888 Clouds 2 1019 47 10000 4 320 07:39 03.10.2019
889 Clouds 2 1019 47 10000 4 320 07:19 03.10.2019
890 Clouds 2 1019 47 10000 4 320 07:19 03.10.2019
891 Clouds 2 1019 47 10000 5 270 06:47 03.10.2019
892 Clouds 0 1019 59 10000 4 310 06:24 03.10.2019
893 Clouds 0 1019 59 10000 4 310 05:44 03.10.2019
894 Clouds 0 1020 59 10000 4 290 04:56 03.10.2019
895 Clouds 0 1020 59 10000 5 260 04:27 03.10.2019
896 Clear -1 1020 74 10000 4 260 03:24 03.10.2019
897 Clear -2 1020 74 10000 4 270 02:39 03.10.2019
898 Clear -3 1020 79 10000 5 280 01:52 03.10.2019
899 Clouds -3 1020 79 10000 5 270 01:33 03.10.2019
900 Clouds -3 1020 79 10000 5 270 00:49 03.10.2019
901 Clouds -3 1020 73 10000 5 260 00:19 03.10.2019
902 Clouds -3 1020 73 10000 5 270 23:43 02.10.2019
903 Clouds -4 1020 79 10000 5 260 23:22 02.10.2019
904 Clear -4 1020 73 10000 4 260 22:44 02.10.2019
905 Clear -4 1020 73 10000 4 260 22:44 02.10.2019
906 Clear -4 1020 79 10000 4 260 22:22 02.10.2019
907 Clear -3 1020 73 10000 3 250 21:57 02.10.2019
908 Clear -3 1020 68 10000 3 250 21:38 02.10.2019
909 Clear -3 1020 68 10000 3 250 21:20 02.10.2019
910 Clear -4 1020 68 10000 2 260 20:57 02.10.2019
911 Clear -5 1020 79 10000 3 270 20:38 02.10.2019
912 Clear -5 1020 79 10000 3 270 20:20 02.10.2019
913 Clear -5 1020 79 10000 3 280 19:55 02.10.2019
914 Clear -4 1020 73 10000 4 280 19:37 02.10.2019
915 Clear -4 1020 73 10000 4 280 19:18 02.10.2019
916 Clear -4 1020 73 10000 5 270 18:56 02.10.2019
917 Clear -4 1020 73 10000 5 270 18:37 02.10.2019
918 Clear -4 1020 73 10000 5 270 18:19 02.10.2019
919 Clear -4 1020 73 10000 4 280 17:42 02.10.2019
920 Clear -4 1020 73 10000 4 280 17:21 02.10.2019
921 Clear -4 1020 73 10000 4 280 17:21 02.10.2019
922 Clear -3 1020 73 10000 4 280 16:59 02.10.2019
923 Clear -3 1020 73 10000 4 280 16:41 02.10.2019
924 Clear -3 1020 73 10000 3 280 16:21 02.10.2019
925 Clear -3 1020 73 10000 3 280 15:57 02.10.2019
926 Clear -2 1020 68 10000 5 280 15:38 02.10.2019
927 Clear -2 1020 68 10000 5 280 15:18 02.10.2019
928 Clear -2 1020 68 10000 5 290 14:55 02.10.2019
929 Clear -2 1020 68 10000 5 280 14:36 02.10.2019
930 Clear -2 1020 68 10000 5 280 14:36 02.10.2019
931 Clear -2 1020 68 10000 5 280 14:18 02.10.2019
932 Clouds -2 1020 68 10000 4 270 13:41 02.10.2019
933 Clouds -2 1020 68 10000 4 270 13:22 02.10.2019
934 Clouds -2 1019 68 10000 3 280 12:56 02.10.2019
935 Clouds -1 1019 63 10000 5 280 12:37 02.10.2019
936 Clouds -1 1019 63 10000 5 280 12:37 02.10.2019
937 Clouds -1 1019 63 10000 5 280 12:18 02.10.2019
938 Clouds 0 1019 67 10000 4 280 11:42 02.10.2019
939 Clouds 0 1019 67 10000 4 280 11:21 02.10.2019
940 Clouds 1 1019 50 10000 6 300 10:41 02.10.2019
941 Clouds 1 1019 50 10000 6 300 10:19 02.10.2019
942 Clouds 1 1018 59 10000 5 310 09:42 02.10.2019
943 Clouds 1 1018 59 10000 5 310 09:21 02.10.2019
944 Clouds 2 1018 55 10000 6 310 08:59 02.10.2019
945 Clouds 2 1018 55 10000 7 300 08:41 02.10.2019
946 Clouds 2 1018 55 10000 7 300 08:22 02.10.2019
947 Clouds 2 1017 59 10000 5 310 07:55 02.10.2019
948 Clouds 1 1017 69 10000 4 300 07:37 02.10.2019
949 Clouds 2 1017 64 10000 6 300 07:18 02.10.2019
950 Clouds 2 1017 64 10000 6 300 07:18 02.10.2019
951 Clouds 3 1017 55 10000 7 260 06:29 02.10.2019
952 Clouds 2 1017 55 10000 6 280 05:51 02.10.2019
953 Snow 0 1017 53 10000 6 280 05:22 02.10.2019
954 Clear 1 1017 59 10000 8 280 04:41 02.10.2019
955 Clear 1 1017 59 10000 7 270 03:51 02.10.2019
956 Clear 0 1016 65 10000 7 280 02:39 02.10.2019
957 Clear 0 1016 65 10000 7 280 02:20 02.10.2019
958 Clear -2 1016 74 10000 6 270 01:18 02.10.2019
959 Clear -3 1016 79 10000 5 270 00:42 02.10.2019
960 Clear -3 1016 79 10000 5 270 00:23 02.10.2019
961 Clear -3 1015 79 10000 6 270 23:42 01.10.2019
962 Clear -3 1015 79 10000 6 270 23:24 01.10.2019
963 Clear -3 1015 79 10000 6 270 22:58 01.10.2019
964 Clouds -2 1015 74 10000 6 270 22:38 01.10.2019
965 Clouds -2 1015 74 10000 6 270 22:18 01.10.2019
966 Clouds -2 1014 74 10000 6 280 21:44 01.10.2019
967 Clouds -2 1014 74 10000 6 280 21:25 01.10.2019
968 Clouds -2 1014 74 10000 6 270 20:59 01.10.2019
969 Clouds -1 1014 68 10000 6 280 20:39 01.10.2019
970 Clouds -1 1014 68 10000 6 280 20:21 01.10.2019
971 Clouds -1 1013 68 10000 6 280 19:59 01.10.2019
972 Clouds -1 1013 74 10000 6 280 19:41 01.10.2019
973 Clouds -1 1013 74 10000 6 280 19:23 01.10.2019
974 Clouds -1 1013 74 10000 7 280 18:58 01.10.2019
975 Clouds -1 1012 80 10000 6 290 18:38 01.10.2019
976 Clouds -1 1012 80 10000 6 290 18:19 01.10.2019
977 -273 0 0 0 0 0 17:54 01.10.2019
978 Snow 0 1011 74 10000 6 290 17:36 01.10.2019
979 Snow 0 1011 74 10000 6 290 17:18 01.10.2019
980 Snow 0 1010 74 10000 7 300 16:41 01.10.2019
981 Snow 0 1010 74 10000 7 300 16:41 01.10.2019
982 Snow 0 1010 74 10000 7 300 16:22 01.10.2019
983 Snow 0 1010 74 10000 6 280 15:55 01.10.2019
984 Snow 0 1009 74 10000 5 280 15:37 01.10.2019
985 Snow 1 1009 86 10000 6 270 15:18 01.10.2019
986 Snow 0 1009 90 10000 5 280 15:18 01.10.2019
987 Snow 1 1009 86 10000 4 280 14:40 01.10.2019
988 Snow 1 1009 86 10000 4 280 14:20 01.10.2019
989 Snow 1 1008 86 10000 4 270 13:56 01.10.2019
990 Clouds 2 1008 74 10000 4 260 13:37 01.10.2019
991 Clouds 2 1008 74 10000 4 260 13:18 01.10.2019
992 Clouds 2 1008 80 10000 3 260 12:56 01.10.2019
993 Clouds 2 1008 80 10000 3 230 12:37 01.10.2019
994 Clouds 2 1008 80 10000 3 230 12:18 01.10.2019
995 Clouds 2 1007 80 10000 2 210 11:56 01.10.2019
996 Clouds 2 1007 80 10000 2 210 11:56 01.10.2019
997 Clouds 2 1007 80 10000 1 200 11:36 01.10.2019
998 Clouds 2 1007 80 10000 1 200 11:18 01.10.2019
999 Clouds 2 1007 80 10000 1 270 10:46 01.10.2019
1000 Clouds 3 1007 74 10000 1 250 10:28 01.10.2019
1001 Clouds 3 1007 74 10000 3 270 09:45 01.10.2019
1002 Clouds 3 1007 74 10000 4 280 09:26 01.10.2019
1003 Clouds 4 1007 64 10000 4 270 08:45 01.10.2019
1004 Clouds 5 1006 56 10000 4 240 08:27 01.10.2019
1005 Clouds 5 1006 52 10000 4 240 07:56 01.10.2019
1006 Clouds 5 1006 52 10000 4 250 07:38 01.10.2019
1007 Clouds 5 1006 52 10000 4 250 07:19 01.10.2019
1008 Clouds 5 1006 56 10000 3 250 06:41 01.10.2019
1009 Clouds 6 1006 48 10000 3 240 06:18 01.10.2019
1010 Clouds 6 1006 48 10000 3 230 05:43 01.10.2019
1011 Clear 6 1006 48 10000 3 210 04:42 01.10.2019
1012 Clear 5 1006 52 10000 2 220 03:46 01.10.2019
1013 Clear 3 1006 64 10000 3 230 02:20 01.10.2019
1014 Clear 2 1006 69 10000 3 230 01:56 01.10.2019
1015 Clear 2 1006 69 10000 3 230 01:56 01.10.2019
1016 Clear 0 1005 87 10000 3 250 00:46 01.10.2019
1017 Clear 0 1005 87 10000 3 250 00:25 01.10.2019
1018 Clear 0 1005 94 10000 3 220 23:42 30.09.2019
1019 Clear 0 1005 94 10000 3 220 23:23 30.09.2019
1020 Clear 0 1005 94 10000 2 210 22:59 30.09.2019
1021 Clear 0 1005 94 10000 2 210 22:59 30.09.2019
1022 Clear 0 1005 94 10000 3 210 22:40 30.09.2019
1023 Clear 0 1005 94 10000 3 210 22:22 30.09.2019
1024 Clear 0 1005 94 10000 2 200 21:56 30.09.2019
1025 Clouds 2 1005 80 10000 3 250 21:37 30.09.2019
1026 Clouds 2 1005 80 10000 3 250 21:19 30.09.2019
1027 Clouds 2 1004 80 10000 4 260 20:55 30.09.2019
1028 Clouds 2 1004 80 10000 4 250 20:37 30.09.2019
1029 Clouds 2 1004 80 10000 4 250 20:19 30.09.2019
1030 Clouds 1 1004 86 10000 2 210 19:56 30.09.2019
1031 Clouds 1 1004 86 10000 2 210 19:55 30.09.2019
1032 Clouds 2 1004 90 10000 2 170 19:37 30.09.2019
1033 Clouds 2 1004 90 10000 2 170 19:18 30.09.2019
1034 Clouds 1 1004 86 10000 2 210 18:41 30.09.2019
1035 Clouds 1 1004 86 10000 2 210 18:22 30.09.2019
1036 Clouds 1 1004 86 10000 3 210 17:59 30.09.2019
1037 Clouds 2 1003 80 10000 3 220 17:39 30.09.2019
1038 Clouds 2 1003 80 10000 3 220 17:39 30.09.2019
1039 Clouds 2 1003 80 10000 3 220 17:21 30.09.2019
1040 Clouds 1 1003 86 10000 3 220 16:56 30.09.2019
1041 Clouds 1 1003 86 10000 3 220 16:37 30.09.2019
1042 Clouds 1 1003 86 10000 3 220 16:18 30.09.2019
1043 Clouds 1 1003 86 10000 2 220 15:55 30.09.2019
1044 Clouds 2 1003 80 10000 1 250 15:37 30.09.2019
1045 Clouds 2 1003 80 10000 1 250 15:18 30.09.2019
1046 Clouds 2 1003 80 10000 2 240 14:57 30.09.2019
1047 Clouds 2 1003 80 10000 1 260 14:37 30.09.2019
1048 Clouds 2 1003 80 10000 1 260 14:18 30.09.2019
1049 Clouds 3 1003 74 10000 2 240 13:44 30.09.2019
1050 Clouds 3 1003 74 10000 2 240 13:23 30.09.2019
1051 Clouds 3 1002 74 10000 1 260 12:59 30.09.2019
1052 Rain 3 1002 74 10000 2 220 12:40 30.09.2019
1053 Rain 3 1002 74 10000 2 220 12:21 30.09.2019
1054 Clouds 4 1002 64 10000 2 190 11:43 30.09.2019
1055 Clouds 4 1002 64 10000 2 190 11:22 30.09.2019
1056 Clouds 4 1002 60 10000 2 170 10:59 30.09.2019
1057 Clouds 4 1002 60 10000 3 170 10:39 30.09.2019
1058 Clouds 4 1002 60 10000 3 170 10:19 30.09.2019
1059 Clouds 4 1002 60 10000 3 170 10:19 30.09.2019
1060 Clouds 5 1001 56 10000 4 160 09:58 30.09.2019
1061 Clouds 4 1001 55 10000 4 180 09:39 30.09.2019
1062 Clouds 4 1001 55 10000 4 180 09:20 30.09.2019
1063 Clouds 5 1001 52 10000 4 180 08:46 30.09.2019
1064 Clouds 5 1001 52 10000 3 110 08:28 30.09.2019
1065 Clear 5 1002 52 10000 3 100 07:44 30.09.2019
1066 Clear 5 1002 52 10000 3 100 07:26 30.09.2019
1067 Clear 5 1002 52 10000 3 110 06:56 30.09.2019
1068 Clear 5 1002 52 10000 3 110 06:33 30.09.2019
1069 Clear 4 1002 55 10000 3 100 05:47 30.09.2019
1070 Clear 4 1002 55 10000 3 100 05:47 30.09.2019
1071 Clear 4 1002 55 10000 3 100 05:47 30.09.2019
1072 Clear 3 1003 69 10000 1 20 03:45 30.09.2019
1073 Clear 0 1004 72 10000 1 30 02:48 30.09.2019
1074 Clear -3 1004 92 10000 2 360 01:37 30.09.2019
1075 Clear -4 1005 92 10000 2 350 00:42 30.09.2019
1076 Clear -4 1005 92 10000 2 350 00:21 30.09.2019
1077 Clear -5 1005 100 10000 2 340 23:47 29.09.2019
1078 Clear -5 1005 100 10000 2 340 23:23 29.09.2019
1079 Clear -5 1005 92 10000 2 350 22:59 29.09.2019
1080 Clear -5 1006 92 10000 1 320 22:40 29.09.2019
1081 Clear -5 1006 92 10000 1 320 22:22 29.09.2019
1082 Clear -5 1006 92 10000 2 330 21:57 29.09.2019
1083 Clear -5 1006 92 10000 1 300 21:37 29.09.2019
1084 Clear -5 1006 92 10000 1 300 21:19 29.09.2019
1085 Clear -5 1006 92 10000 1 300 20:45 29.09.2019
1086 Clear -5 1006 92 10000 1 300 20:20 29.09.2019
1087 Clear -5 1007 92 10000 2 320 19:59 29.09.2019
1088 Clear -5 1007 92 10000 1 280 19:38 29.09.2019
1089 Clear -5 1007 92 10000 1 280 19:19 29.09.2019
1090 Clear -5 1007 92 10000 1 280 19:19 29.09.2019
1091 Clear -4 1007 85 10000 2 290 18:56 29.09.2019
1092 Clear -4 1007 85 10000 2 310 18:38 29.09.2019
1093 Clear -4 1007 85 10000 2 310 18:19 29.09.2019
1094 Clear -4 1008 85 10000 2 300 17:58 29.09.2019
1095 Clear -4 1008 85 10000 3 310 17:40 29.09.2019
1096 Clear -4 1008 85 10000 3 310 17:20 29.09.2019
1097 Clear -3 1008 86 10000 0.46 262.563 16:59 29.09.2019
1098 Clear -3 1008 86 10000 2 290 16:40 29.09.2019
1099 Clear -3 1008 86 10000 2 290 16:19 29.09.2019
1100 Clear -2 1008 86 10000 2 290 15:57 29.09.2019
1101 Clear -2 1008 79 10000 2 290 15:36 29.09.2019
1102 Clear -2 1008 79 10000 2 290 15:18 29.09.2019
1103 Clear -2 1009 86 10000 2 280 14:55 29.09.2019
1104 Clear -2 1009 86 10000 2 260 14:36 29.09.2019
1105 Clear -2 1009 86 10000 2 260 14:18 29.09.2019
1106 Clear -1 1009 80 10000 3 230 13:42 29.09.2019
1107 Clear -1 1009 80 10000 3 230 13:19 29.09.2019
1108 Clear -1 1009 80 10000 3 240 12:58 29.09.2019
1109 Clear 1 1009 69 10000 2 250 12:40 29.09.2019
1110 Clear 1 1009 69 10000 2 250 12:22 29.09.2019
1111 Clear 2 1009 64 10000 3 240 11:59 29.09.2019
1112 Clear 2 1009 64 10000 2 240 11:40 29.09.2019
1113 Clear 2 1009 64 10000 2 240 11:19 29.09.2019
1114 Clear 4 1009 55 10000 2 270 10:57 29.09.2019
1115 Clear 5 1009 52 10000 4 290 10:38 29.09.2019
1116 Clear 5 1009 52 10000 4 290 10:19 29.09.2019
1117 Clear 5 1009 52 10000 5 290 09:56 29.09.2019
1118 Clear 6 1009 48 10000 5 280 09:37 29.09.2019
1119 Clear 6 1009 48 10000 5 280 09:18 29.09.2019
1120 Clear 6 1009 52 10000 6 280 08:42 29.09.2019
1121 Clear 6 1009 52 10000 6 280 08:21 29.09.2019
1122 Clear 5 1010 60 10000 5 310 07:43 29.09.2019
1123 Clear 5 1010 60 10000 5 310 07:25 29.09.2019
1124 Clear 5 1010 60 10000 5 290 06:46 29.09.2019
1125 Clear 5 1010 60 10000 6 290 05:54 29.09.2019
1126 Clear 5 1010 60 10000 6 290 05:54 29.09.2019
1127 Clouds 3 1010 74 10000 6 290 04:42 29.09.2019
1128 Clouds 3 1010 74 10000 6 290 04:23 29.09.2019
1129 Clouds 2 1010 80 10000 6 280 02:55 29.09.2019
1130 Clouds 1 1010 86 10000 7 280 02:19 29.09.2019
1131 Clouds 0 1010 83 10000 5 280 01:40 29.09.2019
1132 Clouds 0 1010 83 10000 6 270 00:55 29.09.2019
1133 Clouds 0 1010 83 10000 5 280 00:36 29.09.2019
1134 Clouds 0 1010 91 10000 5 280 00:18 29.09.2019
1135 Clear 0 1010 91 10000 5 270 23:37 28.09.2019
1136 Clear 0 1010 91 10000 5 270 23:19 28.09.2019
1137 Clear -1 1010 92 10000 4 280 22:40 28.09.2019
1138 Clear -1 1010 92 10000 4 280 22:21 28.09.2019
1139 Clouds -1 1010 92 10000 2 310 21:58 28.09.2019
1140 Clouds -1 1010 92 10000 2 320 21:40 28.09.2019
1141 Clouds -1 1010 92 10000 2 320 21:21 28.09.2019
1142 Clouds -1 1010 92 10000 2 330 20:57 28.09.2019
1143 Clouds -1 1009 92 10000 2 300 20:39 28.09.2019
1144 Clouds -1 1009 92 10000 2 300 20:19 28.09.2019
1145 Clouds -1 1009 92 10000 2 300 20:19 28.09.2019
1146 Clouds 0 1010 89 10000 4 290 19:56 28.09.2019
1147 Clouds 0 1009 89 10000 4 290 19:38 28.09.2019
1148 Clouds 0 1009 89 10000 4 290 19:20 28.09.2019
1149 Clouds 0 1009 89 10000 3 290 18:55 28.09.2019
1150 Clouds 0 1009 89 10000 3 300 18:37 28.09.2019
1151 Clear 0 1009 89 10000 3 300 18:18 28.09.2019
1152 Clear 0 1009 89 10000 3 300 17:55 28.09.2019
1153 Clear 0 1009 89 10000 3 300 17:55 28.09.2019
1154 Clear 0 1009 89 10000 5 290 17:37 28.09.2019
1155 Clear 0 1009 89 10000 5 290 17:18 28.09.2019
1156 Clear 0 1009 89 10000 6 270 16:41 28.09.2019
1157 Clear 0 1009 89 10000 6 270 16:23 28.09.2019
1158 Clear 1 1009 89 10000 6 270 15:41 28.09.2019
1159 Clear 1 1009 88 10000 6 270 15:23 28.09.2019
1160 Clear 1 1009 88 10000 6 280 14:57 28.09.2019
1161 Clear 1 1009 88 10000 6 280 14:38 28.09.2019
1162 Clear 1 1009 88 10000 6 280 14:20 28.09.2019
1163 Clear 1 1009 88 10000 5 280 13:56 28.09.2019
1164 Clouds 1 1009 88 10000 5 280 13:37 28.09.2019
1165 Clouds 1 1009 88 10000 5 280 13:37 28.09.2019
1166 Clouds 1 1009 87 10000 5 280 13:19 28.09.2019
1167 Clouds 1 1009 87 10000 2 250 12:40 28.09.2019
1168 Clouds 1 1009 89 10000 2 250 12:19 28.09.2019
1169 Clouds 2 1009 93 10000 2 270 11:55 28.09.2019
1170 Clouds 2 1009 93 10000 3 290 11:37 28.09.2019
1171 Clouds 2 1009 93 10000 3 290 11:18 28.09.2019
1172 Clouds 3 1008 86 10000 3 310 10:42 28.09.2019
1173 Clouds 3 1008 86 10000 3 310 10:20 28.09.2019
1174 Clouds 3 1008 86 10000 4 310 09:56 28.09.2019
1175 Clouds 2 1008 93 10000 4 320 09:37 28.09.2019
1176 Clouds 2 1008 93 10000 4 320 09:18 28.09.2019
1177 Rain 2 1008 93 10000 4 320 08:44 28.09.2019
1178 Rain 2 1008 93 10000 4 320 08:26 28.09.2019
1179 Rain 2 1008 93 10000 5 320 07:45 28.09.2019
1180 Clouds 2 1008 93 5000 4 330 07:21 28.09.2019
1181 Clouds 1 1008 100 2400 5 330 06:55 28.09.2019
1182 Clouds 1 1007 80 1800 5 340 06:31 28.09.2019
1183 Clouds 1 1007 96 2100 6 340 05:55 28.09.2019
1184 Clouds 1 1007 100 3200 6 350 05:20 28.09.2019
1185 Clouds 2 1007 93 5000 6 350 04:39 28.09.2019
1186 Snow 2 1007 93 10000 7 360 03:58 28.09.2019
1187 Snow 3 1008 86 10000 6 360 03:23 28.09.2019
1188 Rain 3 1007 96 10000 6 10 02:56 28.09.2019
1189 Rain 3 1008 86 10000 6 360 02:32 28.09.2019
1190 Rain 3 1007 96 10000 6 360 01:49 28.09.2019
1191 Rain 3 1007 96 10000 6 360 01:26 28.09.2019
1192 Rain 3 1007 74 10000 5 20 00:55 28.09.2019
1193 Clouds 3 1007 69 10000 4 10 00:36 28.09.2019
1194 Clouds 3 1007 69 10000 4 10 00:18 28.09.2019
1195 Clear 2 1008 74 10000 3 350 23:37 27.09.2019
1196 Clear 2 1008 74 10000 3 350 23:19 27.09.2019
1197 Clear 2 1008 74 10000 2 360 22:45 27.09.2019
1198 Clear 2 1008 74 10000 2 360 22:45 27.09.2019
1199 Clear 2 1008 74 10000 3 10 22:19 27.09.2019
1200 Clear 2 1008 80 10000 3 30 21:57 27.09.2019
1201 Clear 2 1008 80 10000 2 20 21:37 27.09.2019
1202 Clear 2 1008 80 10000 2 20 21:19 27.09.2019
1203 Clear 2 1008 80 10000 2 360 20:56 27.09.2019
1204 Clear 3 1009 74 10000 3 40 20:38 27.09.2019
1205 Clear 3 1009 74 10000 3 40 20:19 27.09.2019
1206 Clear 3 1009 74 10000 2 50 19:56 27.09.2019
1207 Clear 1 1009 86 10000 3 360 19:37 27.09.2019
1208 Clear 1 1009 86 10000 3 360 19:18 27.09.2019
1209 Clear 2 1010 80 10000 2 350 18:40 27.09.2019
1210 Clear 2 1010 80 10000 2 350 18:22 27.09.2019
1211 Clear 2 1010 80 10000 2 350 17:55 27.09.2019
1212 Clear 2 1010 80 10000 2 350 17:37 27.09.2019
1213 Clear 2 1010 80 10000 2 350 17:18 27.09.2019
1214 Clear 2 1010 80 10000 2 350 16:56 27.09.2019
1215 Clear 3 1010 74 10000 2 330 16:37 27.09.2019
1216 Clear 3 1010 74 10000 2 330 16:18 27.09.2019
1217 Clear 3 1010 74 10000 2 350 15:44 27.09.2019
1218 Clear 3 1010 74 10000 2 350 15:20 27.09.2019
1219 Clear 3 1011 74 10000 2 340 14:57 27.09.2019
1220 Clear 3 1011 74 10000 2 330 14:39 27.09.2019
1221 Clear 3 1011 74 10000 2 330 14:20 27.09.2019
1222 Clear 3 1011 74 10000 1 330 13:57 27.09.2019
1223 Clear 4 1011 69 10000 2 340 13:38 27.09.2019
1224 Clear 4 1011 69 10000 2 340 13:19 27.09.2019
1225 Clear 4 1012 69 10000 2 360 12:51 27.09.2019
1226 Clear 4 1012 64 10000 1 10 12:22 27.09.2019
1227 Clear 4 1012 60 10000 1 300 11:57 27.09.2019
1228 Clear 7 1012 45 10000 1 270 11:37 27.09.2019
1229 Clear 7 1012 45 10000 1 270 11:19 27.09.2019
1230 Clear 8 1012 42 10000 2 260 10:42 27.09.2019
1231 Clear 8 1012 42 10000 2 260 10:21 27.09.2019
1232 Clear 9 1012 39 10000 1 270 09:56 27.09.2019
1233 Clear 9 1012 39 10000 1 270 09:56 27.09.2019
1234 Clear 10 1012 37 10000 1 230 09:37 27.09.2019
1235 Clear 10 1012 37 10000 1 230 09:18 27.09.2019
1236 Clear 9 1012 39 10000 3 280 08:41 27.09.2019
1237 Clear 9 1012 39 10000 3 280 08:20 27.09.2019
1238 Clear 10 1013 37 10000 3 290 07:49 27.09.2019
1239 Clear 10 1013 39 10000 4 270 07:24 27.09.2019
1240 Clear 9 1013 45 10000 5 280 06:46 27.09.2019
1241 Clear 9 1013 45 10000 5 280 06:46 27.09.2019
1242 Clear 9 1013 45 10000 5 280 06:27 27.09.2019
1243 Clouds 9 1013 49 10000 6 300 05:52 27.09.2019
1244 Clouds 9 1013 49 10000 6 270 05:33 27.09.2019
1245 Clouds 8 1014 61 10000 5 270 04:24 27.09.2019
1246 Clouds 7 1013 70 10000 5 270 03:38 27.09.2019
1247 Clouds 6 1013 75 10000 6 270 01:53 27.09.2019
1248 Clouds 5 1013 80 10000 7 270 01:30 27.09.2019
1249 Clear 5 1012 86 10000 5 260 00:40 27.09.2019
1250 Clear 5 1011 86 10000 6 260 23:57 26.09.2019
1251 Clear 5 1011 86 10000 6 260 23:57 26.09.2019
1252 Clear 5 1011 86 10000 5 270 23:39 26.09.2019
1253 Clear 5 1011 86 10000 5 270 23:19 26.09.2019
1254 Clear 5 1011 86 10000 5 270 22:58 26.09.2019
1255 Clear 5 1010 86 10000 5 270 22:39 26.09.2019
1256 Clear 5 1010 86 10000 5 270 22:18 26.09.2019
1257 Clear 5 1010 86 10000 5 270 22:18 26.09.2019
1258 Clear 6 1010 81 10000 6 270 21:58 26.09.2019
1259 Clear 6 1010 87 10000 5 290 21:37 26.09.2019
1260 Clear 6 1010 87 10000 5 290 21:19 26.09.2019
1261 Clouds 7 1009 81 10000 5 290 20:58 26.09.2019
1262 Clouds 8 1009 81 10000 5 290 20:39 26.09.2019
1263 Clouds 8 1009 81 10000 5 290 20:21 26.09.2019
1264 Clouds 8 1008 81 10000 4 290 19:56 26.09.2019
1265 Clouds 8 1008 81 10000 3 280 19:38 26.09.2019
1266 Clouds 8 1008 81 10000 4 280 19:18 26.09.2019
1267 Rain 8 1007 70 10000 2 280 18:43 26.09.2019
1268 Rain 8 1007 70 10000 2 280 18:22 26.09.2019
1269 Rain 8 1007 65 10000 1 10 17:59 26.09.2019
1270 Clouds 8 1007 61 10000 2 310 17:38 26.09.2019
1271 Clouds 8 1007 61 10000 2 310 17:19 26.09.2019
1272 Clouds 8 1007 61 10000 4 290 16:56 26.09.2019
1273 Clouds 9 1006 57 10000 2 150 16:37 26.09.2019
1274 Clouds 9 1006 57 10000 2 150 16:19 26.09.2019
1275 Clouds 8 1006 61 10000 1 100 15:55 26.09.2019
1276 Clouds 9 1006 57 10000 2 250 15:36 26.09.2019
1277 Clouds 9 1006 57 10000 2 250 15:18 26.09.2019
1278 Clouds 9 1007 57 10000 2 130 14:41 26.09.2019
1279 Clouds 9 1007 57 10000 2 130 14:22 26.09.2019
1280 Clouds 10 1007 53 10000 3 170 13:58 26.09.2019
1281 Clouds 10 1007 53 10000 3 160 13:39 26.09.2019
1282 Clouds 10 1007 53 10000 3 160 13:19 26.09.2019
1283 Clouds 10 1008 53 10000 3 140 12:55 26.09.2019
1284 Clouds 10 1008 53 10000 3 140 12:55 26.09.2019
1285 Clouds 10 1008 53 10000 3 140 12:55 26.09.2019
1286 Clouds 9 1008 61 10000 2 140 12:36 26.09.2019
1287 Clouds 9 1008 61 10000 2 120 12:18 26.09.2019
1288 Clouds 9 1008 66 10000 2 140 11:41 26.09.2019
1289 Clouds 9 1008 66 10000 2 140 11:20 26.09.2019
1290 Clear 11 1009 53 10000 2 130 10:43 26.09.2019
1291 Clear 11 1009 53 10000 2 130 10:25 26.09.2019
1292 Clear 11 1009 53 10000 2 130 10:25 26.09.2019
1293 Clear 11 1009 53 10000 2 130 10:25 26.09.2019
1294 Clear 11 1009 53 10000 2 170 09:59 26.09.2019
1295 Clear 11 1009 53 10000 2 170 09:59 26.09.2019
1296 Clear 11 1009 53 10000 2 170 09:59 26.09.2019
1297 Clear 11 1010 53 10000 3 170 09:41 26.09.2019
1298 Clear 11 1010 53 10000 3 170 09:22 26.09.2019
1299 Clear 11 1010 50 10000 4 170 08:54 26.09.2019
1300 Clear 12 1011 46 10000 4 170 08:32 26.09.2019
1301 Clear 11 1011 50 10000 5 170 07:58 26.09.2019
1302 Clear 11 1011 50 10000 4 140 07:40 26.09.2019
1303 Clear 10 1012 53 10000 4 140 07:19 26.09.2019
1304 Clear 10 1012 53 10000 4 130 06:43 26.09.2019
1305 Clear 10 1012 53 10000 4 130 06:24 26.09.2019
1306 Clear 9 1013 57 10000 4 130 05:40 26.09.2019
1307 Clear 9 1013 57 10000 4 130 05:20 26.09.2019
1308 Clear 4 1014 69 10000 2 170 02:38 26.09.2019
1309 Clear 3 1014 74 10000 2 170 01:49 26.09.2019
1310 Clear 1 1014 86 10000 1 200 01:26 26.09.2019
1311 Clear -2 1014 92 10000 2 160 00:48 26.09.2019
1312 Clear -2 1014 92 10000 2 160 00:28 26.09.2019
1313 Clear -3 1014 92 10000 1 230 23:45 25.09.2019
1314 Clear -3 1014 92 10000 1 230 23:26 25.09.2019
1315 Clear -3 1014 92 10000 1 230 23:26 25.09.2019
1316 Clear -3 1014 86 10000 1 210 22:56 25.09.2019
1317 Clear -3 1014 86 10000 1 210 22:56 25.09.2019
1318 Clear -3 1014 86 10000 1 210 22:56 25.09.2019
1319 Clear -3 1014 86 10000 1 200 22:38 25.09.2019
1320 Clear -3 1014 86 10000 1 200 22:20 25.09.2019
1321 Clear -3 1014 86 10000 1 200 22:20 25.09.2019
1322 Clear -3 1014 86 10000 1 230 21:56 25.09.2019
1323 Clear -3 1014 86 10000 1 290 21:38 25.09.2019
1324 Clear -3 1014 86 10000 1 290 21:18 25.09.2019
1325 Clear -3 1014 92 10000 2.5 246.711 20:56 25.09.2019
1326 Clear -2 1014 86 10000 1 140 20:38 25.09.2019
1327 Clear -2 1014 86 10000 1 140 20:19 25.09.2019
1328 Clear -2 1014 86 10000 2 310 19:41 25.09.2019
1329 Clear -2 1014 86 10000 2 310 19:41 25.09.2019
1330 Clear -2 1014 86 10000 2 310 19:21 25.09.2019
1331 Clear -1 1014 80 10000 1 320 18:57 25.09.2019
1332 Clear -1 1014 80 10000 2.66 252.649 18:39 25.09.2019
1333 Clear -1 1014 80 10000 2.55 261.641 18:21 25.09.2019
1334 Clear 0 1014 93 10000 1 250 17:58 25.09.2019
1335 Clear -1 1014 86 10000 2.55 261.641 17:37 25.09.2019
1336 Clear -1 1014 86 10000 2.55 261.641 17:18 25.09.2019
1337 Clear 0 1014 93 10000 2 270 16:44 25.09.2019
1338 Clear 0 1014 93 10000 2 270 16:26 25.09.2019
1339 Clear 1 1014 74 10000 2 260 15:58 25.09.2019
1340 Clear 2 1014 74 10000 2 270 15:40 25.09.2019
1341 Clear 2 1014 74 10000 2 270 15:21 25.09.2019
1342 Clear 3 1014 69 10000 2 270 14:54 25.09.2019
1343 Clear 3 1014 69 10000 2 300 14:36 25.09.2019
1344 Clear 3 1014 69 10000 2 300 14:18 25.09.2019
1345 Clear 5 1013 65 10000 2 240 13:41 25.09.2019
1346 Clear 5 1013 65 10000 2 240 13:20 25.09.2019
1347 Clear 5 1013 65 10000 2 230 12:58 25.09.2019
1348 Clear 5 1013 65 10000 1 240 12:39 25.09.2019
1349 Clear 5 1013 65 10000 1 240 12:39 25.09.2019
1350 Clear 5 1013 65 10000 1 240 12:20 25.09.2019
1351 Clear 8 1013 45 10000 1 300 11:42 25.09.2019
1352 Clear 8 1013 45 10000 1 300 11:21 25.09.2019
1353 Clear 8 1013 45 10000 2 300 10:57 25.09.2019
1354 Clear 9 1013 39 10000 3 290 10:38 25.09.2019
1355 Clear 9 1013 39 10000 3 290 10:19 25.09.2019
1356 Clear 9 1013 39 10000 3 290 10:19 25.09.2019
1357 Clear 9 1012 42 10000 3 280 09:55 25.09.2019
1358 Clear 9 1012 42 10000 3 270 09:36 25.09.2019
1359 Clear 9 1012 42 10000 3 270 09:18 25.09.2019
1360 Clear 9 1012 42 10000 4 270 08:41 25.09.2019
1361 Clear 9 1012 42 10000 4 270 08:20 25.09.2019
1362 Clear 10 1012 39 10000 4 270 07:55 25.09.2019
1363 Clear 10 1012 39 10000 4 270 07:55 25.09.2019
1364 Clear 9 1012 45 10000 3 290 07:36 25.09.2019
1365 Clear 9 1013 42 10000 4 270 07:18 25.09.2019
1366 Clear 9 1012 45 10000 3 280 06:37 25.09.2019
1367 Clear 9 1013 45 10000 3 280 05:52 25.09.2019
1368 Clear 9 1013 45 10000 3 270 05:27 25.09.2019
1369 Clear 7 1013 52 10000 4 320 04:46 25.09.2019
1370 Clear 2 1013 74 10000 4 300 01:54 25.09.2019
1371 Clear 0 1013 76 10000 4 310 00:43 25.09.2019
1372 Clear 0 1013 93 10000 4 310 00:23 25.09.2019
1373 Clear 0 1012 93 10000 4 300 23:54 24.09.2019
1374 Clear 0 1012 93 10000 4 300 23:54 24.09.2019
1375 Clear 0 1012 93 10000 5 290 23:36 24.09.2019
1376 Clear 0 1012 93 10000 5 290 23:18 24.09.2019
1377 Clear -1 1012 92 10000 2 300 22:39 24.09.2019
1378 Clear -1 1012 92 10000 2 300 22:20 24.09.2019
1379 Clear 0 1013 91 10000 3 280 21:56 24.09.2019
1380 Clear 0 1012 91 10000 3 270 21:37 24.09.2019
1381 Clear 0 1012 93 10000 3 270 21:19 24.09.2019
1382 Clear 0 1013 93 10000 2 280 20:57 24.09.2019
1383 Clear 0 1013 93 10000 1 320 20:38 24.09.2019
1384 Clear 0 1013 93 10000 1 320 20:20 24.09.2019
1385 Clear 0 1013 93 10000 3 290 19:43 24.09.2019
1386 Clear 0 1013 93 10000 3 290 19:22 24.09.2019
1387 Clear 1 1013 86 10000 4 290 18:59 24.09.2019
1388 Clear 1 1013 86 10000 5 310 18:41 24.09.2019
1389 Clear 1 1013 86 10000 5 310 18:22 24.09.2019
1390 Clear 1 1013 86 10000 5 310 18:22 24.09.2019
1391 Clear 2 1013 80 10000 4 310 17:58 24.09.2019
1392 Clear 2 1013 80 10000 4 310 17:58 24.09.2019
1393 Clear 1 1013 86 10000 4 300 17:38 24.09.2019
1394 Clear 1 1013 86 10000 4 300 17:38 24.09.2019
1395 Clear 1 1013 86 10000 4 300 17:20 24.09.2019
1396 Clear 1 1013 86 10000 4 310 16:57 24.09.2019
1397 Clear 1 1013 86 10000 4 300 16:39 24.09.2019
1398 Clear 1 1013 86 10000 4 300 16:18 24.09.2019
1399 Clear 2 1014 80 10000 4 300 15:42 24.09.2019
1400 Clear 2 1014 80 10000 4 300 15:23 24.09.2019
1401 Clear 2 1014 80 10000 3 310 14:45 24.09.2019
1402 Clear 2 1014 80 10000 3 300 14:20 24.09.2019
1403 Clear 2 1014 80 10000 3 300 13:57 24.09.2019
1404 Clear 3 1014 74 10000 3 300 13:38 24.09.2019
1405 Clear 3 1014 74 10000 3 300 13:20 24.09.2019
1406 Clear 4 1014 69 10000 3 300 12:40 24.09.2019
1407 Clear 4 1014 69 10000 3 300 12:21 24.09.2019
1408 Clear 4 1014 69 10000 3 290 11:56 24.09.2019
1409 Clear 4 1014 69 10000 3 290 11:55 24.09.2019
1410 Clear 5 1014 78 10000 3 290 11:37 24.09.2019
1411 Clear 5 1014 78 10000 3 290 11:18 24.09.2019
1412 Clear 7 1014 78 10000 4 290 10:39 24.09.2019
1413 Clear 7 1014 78 10000 4 290 10:21 24.09.2019
1414 Clear 7 1014 78 10000 5 310 09:56 24.09.2019
1415 Clear 7 1014 78 10000 5 290 09:37 24.09.2019
1416 Clear 7 1014 77 10000 5 290 09:18 24.09.2019
1417 Clear 7 1014 56 10000 5 300 08:41 24.09.2019
1418 Clear 7 1014 56 10000 5 300 08:41 24.09.2019
1419 Clear 7 1014 56 10000 5 300 08:41 24.09.2019
1420 Clear 7 1014 56 10000 5 300 08:23 24.09.2019
1421 Clear 7 1014 76 10000 5 310 07:59 24.09.2019
1422 Clear 7 1014 76 10000 5 290 07:41 24.09.2019
1423 Clear 6 1015 76 10000 5 300 07:22 24.09.2019
1424 Clouds 6 1015 76 10000 6 290 06:46 24.09.2019
1425 Clouds 6 1015 76 10000 6 290 06:26 24.09.2019
1426 Clouds 6 1015 77 10000 5 310 05:23 24.09.2019
1427 Clouds 5 1015 77 10000 6 310 03:47 24.09.2019
1428 Clouds 5 1015 77 10000 5 320 03:26 24.09.2019
1429 Clouds 4 1015 82 10000 5 310 02:45 24.09.2019
1430 Clouds 2 1015 82 10000 5 300 01:42 24.09.2019
1431 Clear 2 1015 84 10000 5 290 00:42 24.09.2019
1432 Clear 2 1015 87 10000 5 290 00:23 24.09.2019
1433 Clear 2 1015 87 10000 5 300 23:43 23.09.2019
1434 Clear 2 1015 87 10000 5 300 23:43 23.09.2019
1435 Clear 2 1015 87 10000 5 300 23:23 23.09.2019
1436 Clear 2 1014 87 10000 5 290 22:56 23.09.2019
1437 Clear 2 1015 87 10000 4 300 22:37 23.09.2019
1438 Clear 2 1015 87 10000 4 300 22:37 23.09.2019
1439 Clear 2 1015 87 10000 4 300 22:18 23.09.2019
1440 Clear 2 1014 87 10000 5 290 21:54 23.09.2019
1441 Clear 2 1014 87 10000 4 300 21:36 23.09.2019
1442 Clear 2 1014 88 10000 4 300 21:18 23.09.2019
1443 Clear 2 1014 86 10000 4 300 20:40 23.09.2019
1444 Clear 2 1014 86 10000 4 300 20:19 23.09.2019
1445 Clear 2 1014 86 10000 4 300 20:19 23.09.2019
1446 Clear 2 1014 86 10000 4 300 19:55 23.09.2019
1447 Clear 2 1014 80 10000 4 290 19:37 23.09.2019
1448 Clear 2 1014 80 10000 4 290 19:19 23.09.2019
1449 Clear 2 1014 80 10000 5 290 18:42 23.09.2019
1450 Clear 2 1014 80 10000 5 290 18:20 23.09.2019
1451 Clear 2 1014 80 10000 4 280 17:58 23.09.2019
1452 Clear 2 1014 74 10000 3 260 17:39 23.09.2019
1453 Clear 2 1014 74 10000 3 260 17:39 23.09.2019
1454 Clear 2 1014 74 10000 3 260 17:20 23.09.2019
1455 Clear 2 1014 80 10000 4 270 16:57 23.09.2019
1456 Clear 1 1015 80 10000 2 280 16:37 23.09.2019
1457 Clear 2 1015 80 10000 3 300 16:18 23.09.2019
1458 Clear 2 1015 80 10000 3 300 15:56 23.09.2019
1459 Clear 1 1014 80 10000 2 280 15:38 23.09.2019
1460 Clear 1 1014 80 10000 2 280 15:18 23.09.2019
1461 Clear 2 1014 74 10000 2 290 14:40 23.09.2019
1462 Clear 2 1014 74 10000 2 290 14:21 23.09.2019
1463 Clear 3 1014 74 10000 3 290 13:59 23.09.2019
1464 Clear 3 1014 74 10000 3 290 13:59 23.09.2019
1465 Clear 3 1014 74 10000 3 280 13:39 23.09.2019
1466 Clear 4 1014 69 10000 2 300 13:18 23.09.2019
1467 Clear 4 1014 69 10000 2 300 12:55 23.09.2019
1468 Clear 5 1014 65 10000 3 280 12:36 23.09.2019
1469 Clear 6 1013 60 10000 3 290 12:18 23.09.2019
1470 Clear 7 1013 56 10000 3 290 11:43 23.09.2019
1471 Clear 7 1013 56 10000 3 290 11:25 23.09.2019
1472 Clear 8 1013 52 10000 4 300 10:49 23.09.2019
1473 Clear 9 1013 49 10000 3 320 10:23 23.09.2019
1474 Clear 10 1013 46 10000 3 310 09:59 23.09.2019
1475 Clear 9 1013 49 10000 4 300 09:38 23.09.2019
1476 Clear 9 1013 49 10000 4 300 09:20 23.09.2019
1477 Clear 9 1013 78 10000 4 300 08:50 23.09.2019
1478 Clouds 8 1013 76 10000 5 300 08:30 23.09.2019
1479 Clouds 10 1012 76 10000 6 320 07:58 23.09.2019
1480 Clouds 10 1012 53 10000 6 300 07:31 23.09.2019
1481 Clear 9 1013 61 10000 5 300 06:42 23.09.2019
1482 Clouds 8 1013 70 10000 5 290 05:56 23.09.2019
1483 Clouds 7 1013 75 10000 6 300 05:22 23.09.2019
1484 Clouds 7 1013 75 10000 5 300 04:54 23.09.2019
1485 Clouds 6 1012 87 10000 3 300 03:34 23.09.2019
1486 Clouds 3 1012 100 10000 2 290 01:22 23.09.2019
1487 Clouds 2 1012 100 10000 1 340 00:23 23.09.2019
1488 Fog 2 1011 100 650 1 250 23:57 22.09.2019
1489 Fog 2 1011 100 650 1 250 23:57 22.09.2019
1490 Fog 2 1011 100 550 1 230 23:33 22.09.2019
1491 Fog 2 1011 100 400 1 210 22:59 22.09.2019
1492 Fog 2 1011 100 600 2 220 22:41 22.09.2019
1493 Fog 2 1011 100 600 2 220 22:22 22.09.2019
1494 Fog 2 1011 93 900 2 230 21:55 22.09.2019
1495 Fog 2 1011 93 900 2 230 21:55 22.09.2019
1496 Mist 2 1011 93 5000 2 230 21:36 22.09.2019
1497 Mist 2 1011 93 5000 2 230 21:18 22.09.2019
1498 Mist 1 1011 100 5000 1 220 20:42 22.09.2019
1499 Mist 1 1011 100 5000 1 220 20:23 22.09.2019
1500 Mist 1 1011 100 5000 2.17 265.379 19:55 22.09.2019
1501 Mist 1 1011 100 5000 2.17 265.379 19:55 22.09.2019
1502 Mist 1 1010 100 5000 1 320 19:37 22.09.2019
1503 Mist 2 1010 93 2400 2 360 19:18 22.09.2019
1504 Mist 2 1010 93 2400 2 360 18:55 22.09.2019
1505 Mist 2 1010 93 5000 2 330 18:36 22.09.2019
1506 Mist 2 1010 100 5000 2 310 18:18 22.09.2019
1507 Mist 2 1010 100 5000 2 290 17:41 22.09.2019
1508 Mist 2 1010 100 5000 2 290 17:22 22.09.2019
1509 Mist 2 1010 100 5000 2 300 16:46 22.09.2019
1510 Mist 2 1010 100 5000 3 290 16:27 22.09.2019
1511 Mist 3 1010 93 5000 3 320 15:58 22.09.2019
1512 Mist 3 1010 93 5000 2 330 15:40 22.09.2019
1513 Mist 3 1010 93 5000 2 330 15:21 22.09.2019
1514 Mist 3 1010 93 5000 2 330 15:21 22.09.2019
1515 Mist 3 1010 93 2400 1 320 14:45 22.09.2019
1516 Mist 3 1010 93 2400 1 320 14:26 22.09.2019
1517 Mist 3 1009 100 2400 2 320 13:59 22.09.2019
1518 Mist 3 1009 100 2000 2 310 13:41 22.09.2019
1519 Mist 3 1009 100 2000 2 310 13:22 22.09.2019
1520 Fog 3 1009 100 600 1 320 12:56 22.09.2019
1521 Fog 3 1009 100 700 2 350 12:37 22.09.2019
1522 Mist 4 1008 93 1100 1 330 12:18 22.09.2019
1523 Drizzle 4 1008 93 2400 0.82 106.846 11:42 22.09.2019
1524 Drizzle 4 1008 93 2400 0.82 106.846 11:24 22.09.2019
1525 Drizzle 4 1008 93 3200 1 200 10:55 22.09.2019
1526 Drizzle 4 1008 93 3200 1 170 10:37 22.09.2019
1527 Drizzle 4 1008 93 3200 1 170 10:18 22.09.2019
1528 Drizzle 4 1007 93 10000 2 160 09:41 22.09.2019
1529 Drizzle 4 1007 93 10000 2 160 09:20 22.09.2019
1530 Clouds 3 1007 100 10000 2 130 08:47 22.09.2019
1531 Rain 3 1007 100 10000 2 140 08:26 22.09.2019
1532 Clouds 3 1007 93 10000 4 140 07:57 22.09.2019
1533 Rain 3 1007 93 10000 4 110 07:39 22.09.2019
1534 Rain 2 1007 100 10000 4 120 07:19 22.09.2019
1535 Rain 2 1007 100 10000 4 120 06:55 22.09.2019
1536 Rain 2 1008 93 10000 3 110 05:36 22.09.2019
1537 Rain 3 1008 86 10000 4 130 03:49 22.09.2019
1538 Snow 1 1009 86 10000 4.38 137.983 02:38 22.09.2019
1539 Snow 1 1009 86 10000 4.38 137.983 02:20 22.09.2019
1540 Clear 1 1010 80 10000 1 170 01:23 22.09.2019
1541 Clear 0 1010 86 10000 3 110 00:37 22.09.2019
1542 Clear 0 1010 89 10000 3 110 00:19 22.09.2019
1543 Clear 0 1010 89 10000 1 120 23:41 21.09.2019
1544 Clear 0 1010 89 10000 1 120 23:22 21.09.2019
1545 Clear -1 1011 92 10000 1 130 22:39 21.09.2019
1546 Clear -1 1011 92 10000 1 130 22:21 21.09.2019
1547 Clear -1 1011 92 10000 1 130 22:21 21.09.2019
1548 Clear -1 1011 92 10000 2 120 21:55 21.09.2019
1549 Clear -1 1011 92 10000 3 120 21:37 21.09.2019
1550 Clear -1 1011 92 10000 3 120 21:18 21.09.2019
1551 Clear -2 1011 100 10000 2 130 20:40 21.09.2019
1552 Clear -2 1011 100 10000 2 130 20:22 21.09.2019
1553 Clear -3 1012 92 10000 1 120 19:49 21.09.2019
1554 Clear -3 1012 92 10000 1 120 19:49 21.09.2019
1555 Clear -3 1012 100 10000 2.56 130.46 19:25 21.09.2019
1556 Clear -3 1012 100 10000 2.56 130.46 18:59 21.09.2019
1557 Clear -2 1012 92 10000 1 10 18:38 21.09.2019
1558 Clear -2 1012 100 10000 2 60 18:20 21.09.2019
1559 Clear -1 1013 92 10000 2 350 17:42 21.09.2019
1560 Clear -1 1013 92 10000 2 350 17:23 21.09.2019
1561 Clear -1 1013 100 10000 2 340 16:44 21.09.2019
1562 Clear -1 1013 100 10000 2 340 16:24 21.09.2019
1563 Clear 0 1013 95 10000 3 340 15:59 21.09.2019
1564 Clear 0 1013 95 10000 3 340 15:40 21.09.2019
1565 Clear 0 1013 92 10000 3 340 15:20 21.09.2019
1566 Clear 0 1013 92 10000 3 340 14:44 21.09.2019
1567 Clear 0 1013 92 10000 3 340 14:44 21.09.2019
1568 Clear 0 1013 92 10000 3 340 14:44 21.09.2019
1569 Clear 0 1013 92 10000 3 340 14:26 21.09.2019
1570 Clear 1 1013 92 10000 2 340 13:43 21.09.2019
1571 Clear 1 1013 92 10000 2 340 13:25 21.09.2019
1572 Clear 2 1013 92 10000 2 350 12:58 21.09.2019
1573 Clear 2 1013 92 10000 3 360 12:39 21.09.2019
1574 Clear 2 1013 79 10000 3 360 12:20 21.09.2019
1575 Clear 3 1012 79 10000 3 10 11:57 21.09.2019
1576 Clear 5 1012 75 10000 3 30 11:38 21.09.2019
1577 Clear 5 1012 75 10000 3 30 11:18 21.09.2019
1578 Clear 6 1012 70 10000 3 30 10:40 21.09.2019
1579 Clear 6 1012 70 10000 3 30 10:20 21.09.2019
1580 Clear 6 1012 70 10000 3 30 10:20 21.09.2019
1581 Clear 6 1012 79 10000 2 40 09:57 21.09.2019
1582 Clear 7 1012 79 10000 2 40 09:37 21.09.2019
1583 Clear 7 1012 65 10000 2 40 09:19 21.09.2019
1584 Clear 6 1012 60 10000 1 100 08:45 21.09.2019
1585 Clear 6 1012 60 10000 1 100 08:20 21.09.2019
1586 Clear 6 1012 60 10000 1 170 07:40 21.09.2019
1587 Clear 5 1012 65 10000 2 170 07:20 21.09.2019
1588 Clear 5 1012 65 10000 2 160 06:36 21.09.2019
1589 Clear 4 1012 69 10000 2 160 05:51 21.09.2019
1590 Clear 4 1012 69 10000 2 160 05:51 21.09.2019
1591 Clear 3 1013 74 10000 3 170 04:40 21.09.2019
1592 Clear 3 1013 74 10000 3 160 03:39 21.09.2019
1593 Clear 2 1014 81 10000 3 150 02:25 21.09.2019
1594 Clear 1 1014 81 10000 2 110 01:49 21.09.2019
1595 Clear 1 1014 81 10000 2 110 01:26 21.09.2019
1596 Clear 1 1014 81 10000 1 110 00:26 21.09.2019
1597 Clear 1 1014 86 10000 1 170 23:57 20.09.2019
1598 Clear 1 1014 86 10000 1 140 23:30 20.09.2019
1599 Clear 0 1015 92 10000 2 160 22:56 20.09.2019
1600 Clear 0 1015 92 10000 2 160 22:56 20.09.2019
1601 Clear 0 1015 92 10000 2 160 22:38 20.09.2019
1602 Clear 0 1015 92 10000 2 160 22:20 20.09.2019
1603 Clear 0 1015 92 10000 2 170 21:55 20.09.2019
1604 Clear 0 1015 92 10000 2 160 21:37 20.09.2019
1605 Clear 0 1015 92 10000 2 160 21:18 20.09.2019
1606 Clear 0 1015 93 10000 2 160 20:41 20.09.2019
1607 Clear 0 1015 93 10000 2 160 20:21 20.09.2019
1608 Clear 0 1015 93 10000 2 200 19:57 20.09.2019
1609 Clear 0 1015 93 10000 2 200 19:57 20.09.2019
1610 Clear 1 1015 86 10000 3 190 19:38 20.09.2019
1611 Clear 1 1015 86 10000 3 190 19:20 20.09.2019
1612 Clear 2 1016 80 10000 2 190 18:40 20.09.2019
1613 Clear 3 1016 74 10000 2 190 18:20 20.09.2019
1614 Clear 3 1016 74 10000 2 190 17:58 20.09.2019
1615 Clear 3 1016 94 10000 2 190 17:39 20.09.2019
1616 Clear 3 1016 94 10000 2 190 17:21 20.09.2019
1617 Clouds 3 1016 94 10000 2 190 16:41 20.09.2019
1618 Clouds 3 1016 94 10000 2 190 16:41 20.09.2019
1619 Clouds 3 1016 94 10000 2 190 16:19 20.09.2019
1620 Clouds 4 1016 94 10000 4 240 15:43 20.09.2019
1621 Clouds 4 1016 90 10000 4 240 15:24 20.09.2019
1622 Clouds 4 1016 80 10000 4 250 14:59 20.09.2019
1623 Clouds 4 1016 80 10000 4 250 14:41 20.09.2019
1624 Clouds 2 1018 90 0 3.34 252.936 14:18 20.09.2019
1625 Clouds 2 1018 90 0 3.34 252.936 14:18 20.09.2019
1626 Clouds 3 1016 86 10000 3 200 13:47 20.09.2019
1627 Clouds 3 1016 86 10000 3 200 13:27 20.09.2019
1628 Clouds 3 1016 86 10000 3 200 12:57 20.09.2019
1629 Clouds 3 1016 86 10000 5 230 12:36 20.09.2019
1630 Clouds 3 1016 86 10000 5 250 12:18 20.09.2019
1631 Clouds 4 1016 80 10000 5 250 11:48 20.09.2019
1632 Clouds 4 1016 80 10000 5 250 11:21 20.09.2019
1633 Clouds 5 1015 80 10000 4 260 10:43 20.09.2019
1634 Clouds 5 1015 80 10000 4 260 10:24 20.09.2019
1635 Clouds 5 1015 80 10000 5 260 09:55 20.09.2019
1636 Clouds 5 1015 75 10000 6 250 09:36 20.09.2019
1637 Clouds 5 1015 75 10000 5 260 09:18 20.09.2019
1638 Rain 4 1015 86 10000 5 260 08:41 20.09.2019
1639 Rain 4 1015 86 10000 5 260 08:41 20.09.2019
1640 Rain 4 1015 86 10000 5 260 08:22 20.09.2019
1641 Rain 5 1014 80 10000 6 240 07:47 20.09.2019
1642 Clouds 5 1014 80 10000 5 250 07:26 20.09.2019
1643 Rain 4 1013 86 10000 5 280 06:44 20.09.2019
1644 Rain 4 1013 86 10000 5 280 06:44 20.09.2019
1645 Rain 4 1013 86 10000 5 280 06:22 20.09.2019
1646 Rain 3 1012 86 10000 5 290 05:44 20.09.2019
1647 Clouds 3 1011 86 10000 4 210 03:42 20.09.2019
1648 Clouds 3 1011 86 10000 4 210 03:19 20.09.2019
1649 Clouds 3 1010 93 10000 4 190 01:44 20.09.2019
1650 Clouds 3 1010 86 10000 3 200 00:52 20.09.2019
1651 Clouds 3 1010 86 10000 3 200 00:25 20.09.2019
1652 Clouds 3 1009 93 10000 4 200 23:42 19.09.2019
1653 Clouds 3 1009 93 10000 4 200 23:19 19.09.2019
1654 Clouds 3 1009 93 10000 4 200 22:55 19.09.2019
1655 Clouds 4 1009 93 10000 4 200 22:37 19.09.2019
1656 Clouds 4 1009 93 10000 4 200 22:18 19.09.2019
1657 Rain 4 1008 93 10000 2 190 21:55 19.09.2019
1658 Rain 4 1008 93 5000 2 150 21:36 19.09.2019
1659 Rain 4 1008 93 5000 2 150 21:18 19.09.2019
1660 Rain 4 1008 93 10000 4 100 20:43 19.09.2019
1661 Rain 4 1008 93 10000 4 100 20:22 19.09.2019
1662 Rain 4 1008 93 10000 3 90 19:55 19.09.2019
1663 Rain 4 1008 93 10000 3 90 19:37 19.09.2019
1664 Rain 4 1009 93 10000 3 90 19:19 19.09.2019
1665 Clouds 5 1009 80 10000 3 80 18:42 19.09.2019
1666 Clouds 5 1009 80 10000 3 80 18:24 19.09.2019
1667 Rain 5 1009 80 10000 4 80 17:54 19.09.2019
1668 Rain 5 1009 80 10000 4 80 17:36 19.09.2019
1669 Rain 5 1009 80 10000 4 80 17:18 19.09.2019
1670 Rain 5 1009 80 10000 4 80 16:43 19.09.2019
1671 Rain 5 1009 80 10000 4 80 16:20 19.09.2019
1672 Rain 5 1009 75 10000 3 80 15:56 19.09.2019
1673 Rain 6 1009 70 10000 4 80 15:38 19.09.2019
1674 Rain 6 1009 70 10000 4 80 15:18 19.09.2019
1675 Clouds 6 1010 77 10000 5 80 14:41 19.09.2019
1676 Clouds 6 1010 77 10000 5 80 14:22 19.09.2019
1677 Clouds 7 1010 77 10000 5 80 13:58 19.09.2019
1678 Clouds 7 1010 77 10000 4 70 13:38 19.09.2019
1679 Clouds 7 1010 77 10000 4 70 13:38 19.09.2019
1680 Clouds 7 1010 80 10000 4 80 13:19 19.09.2019
1681 Clouds 7 1010 65 10000 4 70 12:38 19.09.2019
1682 Clouds 7 1010 65 10000 4 70 12:18 19.09.2019
1683 Clouds 7 1010 65 10000 4 70 11:56 19.09.2019
1684 Clouds 7 1010 72 10000 4 80 11:37 19.09.2019
1685 Clouds 7 1010 72 10000 4 80 11:18 19.09.2019
1686 Clouds 8 1010 72 10000 5 90 10:40 19.09.2019
1687 Clouds 8 1010 72 10000 5 90 10:21 19.09.2019
1688 Clouds 8 1010 72 10000 5 90 10:21 19.09.2019
1689 Clouds 8 1010 72 10000 5 100 09:58 19.09.2019
1690 Clouds 8 1010 52 10000 6 100 09:40 19.09.2019
1691 Clouds 8 1010 52 10000 6 100 09:20 19.09.2019
1692 Clouds 8 1010 71 10000 5 100 08:51 19.09.2019
1693 Clouds 8 1011 61 10000 5 100 08:26 19.09.2019
1694 Clouds 8 1011 65 10000 5 100 07:45 19.09.2019
1695 Clouds 8 1011 65 10000 5 100 07:24 19.09.2019
1696 Clouds 9 1011 57 10000 5 100 06:59 19.09.2019
1697 Clouds 10 1011 46 10000 3 120 06:40 19.09.2019
1698 Clouds 10 1011 46 10000 3 120 06:21 19.09.2019
1699 Clouds 10 1011 46 10000 3 120 06:21 19.09.2019
1700 Clouds 9 1012 71 10000 4 120 05:49 19.09.2019
1701 Clouds 6 1013 75 10000 4 70 04:23 19.09.2019
1702 Clouds 3 1014 93 10000 2 60 03:20 19.09.2019
1703 Fog 1 1014 100 450 2 120 01:40 19.09.2019
1704 Fog 1 1014 100 450 2 120 01:19 19.09.2019
1705 Fog 1 1014 100 200 2 180 00:43 19.09.2019
1706 Fog 1 1014 100 200 2 180 00:19 19.09.2019
1707 Mist 1 1014 100 3200 2 180 23:38 18.09.2019
1708 Mist 1 1014 100 3200 2 180 23:19 18.09.2019
1709 Clouds 1 1014 100 10000 1 150 22:41 18.09.2019
1710 Clouds 1 1014 100 10000 1 150 22:19 18.09.2019
1711 Rain 1 1015 100 10000 1 180 21:57 18.09.2019
1712 Rain 2 1015 93 10000 1 210 21:39 18.09.2019
1713 Rain 2 1015 93 10000 1 210 21:18 18.09.2019
1714 Rain 2 1015 93 10000 1 210 21:18 18.09.2019
1715 Clouds 2 1015 93 10000 2 230 20:57 18.09.2019
1716 Clouds 1 1014 100 10000 1 220 20:39 18.09.2019
1717 Clouds 1 1015 98 10000 2 220 20:21 18.09.2019
1718 Clouds 1 1015 98 10000 2 220 19:57 18.09.2019
1719 Clouds 1 1015 98 10000 1 230 19:38 18.09.2019
1720 Clouds 1 1015 98 10000 1 240 19:19 18.09.2019
1721 Clouds 1 1015 98 10000 1 240 19:19 18.09.2019
1722 Clouds 1 1015 98 10000 1 240 19:19 18.09.2019
1723 Clouds 1 1015 98 10000 1 240 18:55 18.09.2019
1724 Clouds 1 1015 98 10000 2 210 18:37 18.09.2019
1725 Clouds 2 1015 93 10000 1 210 18:18 18.09.2019
1726 Clouds 2 1015 93 10000 1 210 17:56 18.09.2019
1727 Clouds 2 1014 93 10000 2 230 17:38 18.09.2019
1728 Clouds 2 1014 93 10000 2 230 17:18 18.09.2019
1729 Clouds 2 1015 93 10000 2 220 16:43 18.09.2019
1730 Clouds 2 1015 93 10000 2 220 16:23 18.09.2019
1731 Clouds 2 1015 93 10000 2 230 15:59 18.09.2019
1732 Clouds 2 1015 93 10000 2 230 15:41 18.09.2019
1733 Clouds 2 1015 93 10000 2 230 15:21 18.09.2019
1734 Clouds 2 1015 93 10000 2 240 14:59 18.09.2019
1735 Clouds 2 1015 93 10000 2 220 14:40 18.09.2019
1736 Clouds 2 1015 93 10000 2 220 14:22 18.09.2019
1737 Clouds 3 1015 86 10000 3 230 13:59 18.09.2019
1738 Clouds 3 1015 86 10000 2 240 13:40 18.09.2019
1739 Clouds 3 1014 86 10000 3 240 13:18 18.09.2019
1740 Clouds 3 1014 86 10000 3 240 12:53 18.09.2019
1741 Clouds 3 1014 86 10000 2 240 12:30 18.09.2019
1742 Clouds 3 1014 86 10000 2 270 11:55 18.09.2019
1743 Clouds 3 1014 86 10000 2 270 11:37 18.09.2019
1744 Clouds 3 1014 86 10000 2 270 11:19 18.09.2019
1745 Clouds 3 1013 86 10000 3 260 10:40 18.09.2019
1746 Clouds 3 1013 86 10000 3 260 10:21 18.09.2019
1747 Clouds 3 1013 86 10000 3 250 09:58 18.09.2019
1748 Clouds 3 1013 86 10000 3 280 09:38 18.09.2019
1749 Clouds 3 1013 86 10000 3 280 09:20 18.09.2019
1750 Clouds 3 1012 86 10000 3 270 08:42 18.09.2019
1751 Clouds 3 1012 86 10000 3 270 08:24 18.09.2019
1752 Clouds 3 1012 86 10000 2 250 07:57 18.09.2019
1753 Clouds 3 1012 86 10000 2 290 07:39 18.09.2019
1754 Clouds 3 1012 86 10000 2 300 07:21 18.09.2019
1755 Clouds 3 1011 86 10000 3 290 06:38 18.09.2019
1756 Clouds 3 1011 86 10000 3 290 05:50 18.09.2019
1757 Clouds 3 1011 86 10000 3 280 04:52 18.09.2019
1758 Clouds 2 1010 93 10000 3 260 02:54 18.09.2019
1759 Clouds 2 1010 93 10000 3 270 02:28 18.09.2019
1760 Clouds 2 1010 93 10000 3 270 01:21 18.09.2019
1761 Snow 1 1009 100 10000 2 260 00:48 18.09.2019
1762 Snow 1 1009 97 5000 2 260 00:20 18.09.2019
1763 Snow 1 1009 97 5000 2 270 23:44 17.09.2019
1764 Snow 1 1009 97 5000 2 270 23:22 17.09.2019
1765 Rain 2 1009 93 10000 2 300 22:43 17.09.2019
1766 Rain 2 1009 93 10000 2 300 22:24 17.09.2019
1767 Rain 2 1008 93 10000 2 290 21:55 17.09.2019
1768 Rain 2 1008 93 10000 3 280 21:37 17.09.2019
1769 Rain 2 1008 93 10000 3 280 21:19 17.09.2019
1770 Rain 2 1008 93 10000 4 280 20:58 17.09.2019
1771 Rain 2 1008 93 10000 4 280 20:58 17.09.2019
1772 Rain 3 1008 93 10000 5 280 20:40 17.09.2019
1773 Rain 3 1008 93 10000 5 280 20:21 17.09.2019
1774 Rain 3 1008 93 10000 4 310 19:58 17.09.2019
1775 Rain 3 1008 93 10000 5 300 19:39 17.09.2019
1776 Rain 4 1008 86 10000 5 300 19:19 17.09.2019
1777 Rain 4 1008 86 10000 5 300 18:56 17.09.2019
1778 Rain 4 1008 86 10000 5 300 18:38 17.09.2019
1779 Clouds 4 1008 86 10000 6 310 18:20 17.09.2019
1780 Clouds 4 1008 86 10000 6 310 18:20 17.09.2019
1781 Clouds 4 1008 86 10000 5 310 17:45 17.09.2019
1782 Clouds 4 1008 86 10000 5 310 17:20 17.09.2019
1783 Clouds 5 1008 80 10000 3 310 16:57 17.09.2019
1784 Clouds 5 1008 75 10000 4 320 16:39 17.09.2019
1785 Clouds 5 1008 75 10000 4 320 16:21 17.09.2019
1786 Clouds 5 1008 75 10000 4 320 16:21 17.09.2019
1787 Clouds 5 1008 75 10000 4 320 16:21 17.09.2019
1788 Clouds 5 1007 80 10000 5 320 15:40 17.09.2019
1789 Clouds 5 1007 80 10000 5 320 15:20 17.09.2019
1790 Clouds 5 1007 80 10000 4 320 14:57 17.09.2019
1791 Clouds 5 1008 86 10000 4 320 14:39 17.09.2019
1792 Clouds 5 1008 86 10000 4 320 14:19 17.09.2019
1793 Clouds 5 1008 86 10000 5 330 13:57 17.09.2019
1794 Clouds 5 1008 86 10000 4 330 13:38 17.09.2019
1795 Clouds 5 1008 86 10000 4 330 13:20 17.09.2019
1796 Clouds 6 1008 81 10000 4 330 12:42 17.09.2019
1797 Clouds 6 1007 87 10000 4 320 12:19 17.09.2019
1798 Rain 6 1007 87 10000 4 310 11:46 17.09.2019
1799 Rain 6 1007 87 10000 4 310 11:26 17.09.2019
1800 Clouds 6 1007 87 10000 4 320 10:59 17.09.2019
1801 Clouds 6 1007 87 10000 5 320 10:41 17.09.2019
1802 Clouds 6 1007 87 10000 5 320 10:21 17.09.2019
1803 Clouds 5 1007 93 10000 4 320 09:55 17.09.2019
1804 Clouds 5 1006 93 10000 4 320 09:37 17.09.2019
1805 Clouds 5 1006 93 10000 4 320 09:19 17.09.2019
1806 Rain 6 1006 87 10000 4 320 08:43 17.09.2019
1807 Rain 6 1006 87 10000 4 320 08:25 17.09.2019
1808 Rain 6 1005 87 10000 5 330 07:44 17.09.2019
1809 Rain 6 1005 87 10000 5 330 07:26 17.09.2019
1810 Rain 6 1005 87 10000 5 320 06:54 17.09.2019
1811 Rain 6 1005 87 10000 4 320 06:35 17.09.2019
1812 Rain 5 1005 93 10000 4 320 05:53 17.09.2019
1813 Rain 5 1005 86 10000 3 330 04:55 17.09.2019
1814 Rain 4 1005 86 10000 4 310 03:42 17.09.2019
1815 Rain 3 1005 93 10000 4 310 02:39 17.09.2019
1816 Rain 3 1005 86 10000 2 340 01:50 17.09.2019
1817 Clouds 3 1004 86 10000 4 310 00:50 17.09.2019
1818 Rain 3 1004 86 10000 3 330 23:41 16.09.2019
1819 Rain 3 1004 86 10000 3 330 23:20 16.09.2019
1820 Rain 3 1005 86 10000 4 320 22:59 16.09.2019
1821 Rain 3 1004 86 10000 5 310 22:40 16.09.2019
1822 Rain 3 1004 86 10000 5 310 22:22 16.09.2019
1823 Rain 3 1004 86 10000 6 300 21:56 16.09.2019
1824 Rain 3 1004 93 10000 5 300 21:38 16.09.2019
1825 Rain 3 1004 93 10000 5 300 21:19 16.09.2019
1826 Rain 3 1004 86 10000 4 300 20:42 16.09.2019
1827 Rain 3 1004 86 10000 4 300 20:42 16.09.2019
1828 Rain 3 1004 86 10000 4 300 20:23 16.09.2019
1829 Rain 4 1004 80 10000 4 310 19:58 16.09.2019
1830 Clouds 4 1005 80 10000 2 330 19:40 16.09.2019
1831 Clouds 4 1005 84 10000 2 330 19:20 16.09.2019
1832 Clouds 4 1005 84 10000 2 330 18:56 16.09.2019
1833 Clouds 5 1005 84 10000 2 340 18:37 16.09.2019
1834 Clouds 5 1005 85 10000 2 340 18:18 16.09.2019
1835 Clouds 5 1005 85 10000 3 320 17:42 16.09.2019
1836 Clouds 5 1005 85 10000 3 320 17:24 16.09.2019
1837 Clouds 5 1005 85 10000 5 330 16:58 16.09.2019
1838 Clouds 5 1005 85 10000 5 330 16:38 16.09.2019
1839 Clouds 5 1005 85 10000 5 330 16:20 16.09.2019
1840 Clouds 6 1005 85 10000 5 320 15:56 16.09.2019
1841 Clouds 6 1005 60 10000 4 340 15:37 16.09.2019
1842 Clouds 6 1005 60 10000 4 340 15:18 16.09.2019
1843 Clouds 6 1005 67 10000 5 330 14:44 16.09.2019
1844 Clouds 6 1005 67 10000 5 330 14:23 16.09.2019
1845 Clouds 6 1005 67 10000 4 320 13:59 16.09.2019
1846 Clouds 6 1005 67 10000 5 310 13:39 16.09.2019
1847 Clouds 6 1005 67 10000 5 310 13:39 16.09.2019
1848 Clouds 6 1005 63 10000 5 310 13:21 16.09.2019
1849 Clouds 8 1005 52 10000 4 310 12:45 16.09.2019
1850 Clouds 8 1005 52 10000 4 310 12:27 16.09.2019
1851 Clouds 8 1005 49 10000 4 310 11:56 16.09.2019
1852 Clouds 8 1005 49 10000 4 310 11:56 16.09.2019
1853 Clouds 8 1005 49 10000 4 310 11:56 16.09.2019
1854 Clouds 9 1005 39 10000 2 330 11:37 16.09.2019
1855 Clouds 9 1005 39 10000 2 330 11:19 16.09.2019
1856 Clouds 10 1005 31 10000 3 340 10:39 16.09.2019
1857 Clouds 10 1005 31 10000 3 340 10:20 16.09.2019
1858 Clouds 10 1005 34 10000 3 360 09:58 16.09.2019
1859 Clouds 10 1005 34 10000 3 10 09:39 16.09.2019
1860 Clouds 10 1005 34 10000 3 10 09:19 16.09.2019
1861 Clear 10 1005 37 10000 2 350 08:46 16.09.2019
1862 Clear 9 1005 39 10000 2 350 08:26 16.09.2019
1863 Clear 9 1005 39 10000 3 360 07:56 16.09.2019
1864 Clear 9 1005 39 10000 3 360 07:56 16.09.2019
1865 Clear 8 1005 45 10000 2 360 07:37 16.09.2019
1866 Clear 8 1005 45 10000 2 350 07:19 16.09.2019
1867 Clear 8 1005 49 10000 2 20 06:45 16.09.2019
1868 Clear 8 1005 49 10000 2 20 06:26 16.09.2019
1869 Clear 7 1005 48 10000 2 20 05:51 16.09.2019
1870 Clear 6 1005 56 10000 2 10 05:29 16.09.2019
1871 Clear 6 1005 56 10000 2 30 04:38 16.09.2019
1872 Clear 3 1005 74 10000 3 340 02:36 16.09.2019
1873 Clear 0 1005 65 10000 2 320 00:44 16.09.2019
1874 Clear 0 1005 65 10000 2 320 00:44 16.09.2019
1875 Clear 0 1005 65 10000 2 320 00:26 16.09.2019
1876 Clear -1 1004 68 10000 2 290 23:44 15.09.2019
1877 Clear -1 1004 68 10000 2 290 23:21 15.09.2019
1878 Clear -1 1004 74 10000 2 290 22:58 15.09.2019
1879 Clear -1 1004 74 10000 2 300 22:37 15.09.2019
1880 Clear -1 1004 74 10000 2 300 22:18 15.09.2019
1881 Clear 0 1004 75 10000 2 30 21:55 15.09.2019
1882 Clear 0 1004 75 10000 2 30 21:55 15.09.2019
1883 Clear 0 1004 75 10000 2 30 21:55 15.09.2019
1884 Clear 0 1004 75 10000 1 320 21:37 15.09.2019
1885 Clear 0 1004 76 10000 1 320 21:18 15.09.2019
1886 Clear 0 1004 77 10000 0.89 41.762 20:43 15.09.2019
1887 Clear 0 1004 77 10000 0.89 41.762 20:25 15.09.2019
1888 Clear 0 1003 77 10000 1 50 19:47 15.09.2019
1889 Clear 0 1003 77 10000 1 330 19:26 15.09.2019
1890 Clear 0 1003 77 10000 1 330 18:55 15.09.2019
1891 Clear 0 1003 77 10000 1 350 18:36 15.09.2019
1892 Clear 0 1003 74 10000 3 330 18:18 15.09.2019
1893 Clear 0 1003 74 10000 2 330 17:41 15.09.2019
1894 Clear 0 1003 74 10000 2 330 17:21 15.09.2019
1895 Clear 4 1003 41 10000 1 60 16:55 15.09.2019
1896 Clear 4 1003 41 10000 2 50 16:37 15.09.2019
1897 Clear 4 1003 41 10000 2 50 16:37 15.09.2019
1898 Clear 4 1003 41 10000 2 50 16:18 15.09.2019
1899 Clear 4 1003 41 10000 2 50 16:18 15.09.2019
1900 Clear 5 1003 41 10000 1 80 15:41 15.09.2019
1901 Clear 5 1003 41 10000 1 80 15:41 15.09.2019
1902 Clear 5 1003 41 10000 1 80 15:21 15.09.2019
1903 Clear 6 1003 38 10000 2 90 14:59 15.09.2019
1904 Clear 7 1003 39 10000 3 90 14:40 15.09.2019
1905 Clear 7 1003 39 10000 3 90 14:22 15.09.2019
1906 Clear 7 1003 45 10000 2 90 13:47 15.09.2019
1907 Clear 8 1003 42 10000 2 80 13:25 15.09.2019
1908 Clear 9 1002 34 10000 2 90 12:58 15.09.2019
1909 Clear 9 1002 36 10000 3 90 12:40 15.09.2019
1910 Clear 9 1002 36 10000 3 90 12:20 15.09.2019
1911 Clear 9 1002 36 10000 3 90 12:20 15.09.2019
1912 Clear 12 1002 22 10000 3 110 11:43 15.09.2019
1913 Clear 12 1002 22 10000 3 110 11:23 15.09.2019
1914 Clear 13 1002 19 10000 4 110 10:59 15.09.2019
1915 Clear 13 1002 19 10000 4 110 10:40 15.09.2019
1916 Clear 13 1002 19 10000 4 110 10:21 15.09.2019
1917 Clear 13 1001 19 10000 4 120 09:43 15.09.2019
1918 Clear 13 1001 19 10000 4 120 09:21 15.09.2019
1919 Clear 14 1001 17 10000 4 120 08:59 15.09.2019
1920 Clear 13 1001 20 10000 4 110 08:40 15.09.2019
1921 Clear 13 1001 20 10000 4 110 08:19 15.09.2019
1922 Clear 13 1002 19 10000 4 110 07:46 15.09.2019
1923 Clear 13 1002 19 10000 4 110 06:44 15.09.2019
1924 Clear 12 1003 23 10000 4 110 05:58 15.09.2019
1925 Clear 5 1004 56 10000 2 60 03:19 15.09.2019
1926 Clear 3 1004 69 10000 1 360 02:19 15.09.2019
1927 Clear -1 1005 86 10000 2 340 01:36 15.09.2019
1928 Clear -1 1005 86 10000 2 340 01:36 15.09.2019
1929 Clear -2 1005 92 10000 1 320 00:57 15.09.2019
1930 Clear -3 1004 92 10000 2 350 00:37 15.09.2019
1931 Clear -3 1004 92 10000 2 350 00:19 15.09.2019
1932 Clear -5 1004 92 10000 2 340 23:56 14.09.2019
1933 Clear -6 1004 92 10000 3 360 23:38 14.09.2019
1934 Clear -6 1004 92 10000 3 360 23:37 14.09.2019
1935 Clear -6 1004 92 10000 3 360 23:19 14.09.2019
1936 Clear -5 1005 92 10000 1 340 22:55 14.09.2019
1937 Clear -5 1005 85 10000 2 300 22:37 14.09.2019
1938 Clear -5 1005 85 10000 2 300 22:18 14.09.2019
1939 Clear -5 1004 85 10000 1 10 21:40 14.09.2019
1940 Clear -5 1004 85 10000 1 10 21:21 14.09.2019
1941 Clear -5 1005 92 10000 2 310 20:58 14.09.2019
1942 Clear -4 1005 85 10000 1 340 20:39 14.09.2019
1943 Clear -4 1005 85 10000 1 340 20:21 14.09.2019
1944 Clear -4 1005 85 10000 2 310 19:47 14.09.2019
1945 Clear -4 1004 85 10000 1 330 19:23 14.09.2019
1946 Clear -4 1005 85 10000 2 310 18:58 14.09.2019
1947 Clear -3 1005 79 10000 1 330 18:38 14.09.2019
1948 Clear -3 1005 79 10000 1 330 18:20 14.09.2019
1949 Clear -3 1005 86 10000 1 310 17:45 14.09.2019
1950 Clear -3 1005 86 10000 1 310 17:24 14.09.2019
1951 Clear -2 1005 79 10000 1 310 16:56 14.09.2019
1952 Clear -2 1005 86 10000 1 310 16:38 14.09.2019
1953 Clear -2 1005 86 10000 1 310 16:18 14.09.2019
1954 Clear 0 1005 59 10000 1 260 15:42 14.09.2019
1955 Clear 0 1005 57 10000 1 260 15:22 14.09.2019
1956 Clear 1 1004 74 10000 2 210 14:55 14.09.2019
1957 Clear 2 1004 64 10000 2 190 14:36 14.09.2019
1958 Clear 2 1004 64 10000 2 190 14:18 14.09.2019
1959 Clear 2 1004 64 10000 2 190 14:18 14.09.2019
1960 Clear 3 1004 55 10000 2 210 13:44 14.09.2019
1961 Clear 5 1004 48 10000 2 180 13:20 14.09.2019
1962 Clear 6 1004 41 10000 3 160 12:45 14.09.2019
1963 Clear 7 1004 36 10000 2 180 12:23 14.09.2019
1964 Clear 9 1004 29 10000 2 210 11:41 14.09.2019
1965 Clear 9 1004 29 10000 2 210 11:20 14.09.2019
1966 Clear 10 1004 25 10000 2 220 10:40 14.09.2019
1967 Clear 10 1004 25 10000 2 220 10:40 14.09.2019
1968 Clear 10 1004 25 10000 2 220 10:22 14.09.2019
1969 Clear 10 1004 23 10000 3 260 09:59 14.09.2019
1970 Clear 10 1004 23 10000 3 260 09:40 14.09.2019
1971 Clear 10 1004 23 10000 3 260 09:21 14.09.2019
1972 Clear 10 1004 23 10000 2 250 08:59 14.09.2019
1973 Clear 10 1004 23 10000 3 260 08:41 14.09.2019
1974 Clear 10 1004 23 10000 3 260 08:21 14.09.2019
1975 Clear 9 1004 26 10000 4 260 07:43 14.09.2019
1976 Clear 9 1004 26 10000 4 260 07:23 14.09.2019
1977 Clear 9 1004 29 10000 4 250 06:35 14.09.2019
1978 Clear 8 1004 31 10000 5 290 05:55 14.09.2019
1979 Clear 7 1004 30 10000 6 280 04:34 14.09.2019
1980 Clear 6 1005 38 10000 5 260 03:25 14.09.2019
1981 Clear 4 1004 44 10000 4 260 02:42 14.09.2019
1982 Clear 2 1004 51 10000 5 270 01:45 14.09.2019
1983 Clear 2 1004 51 10000 5 270 01:19 14.09.2019
1984 Clear 1 1004 55 10000 5 260 00:40 14.09.2019
1985 Clear 1 1004 55 10000 5 260 00:22 14.09.2019
1986 -273 0 0 0 0 0 23:56 13.09.2019
1987 Clear 0 1003 73 10000 4 260 23:37 13.09.2019
1988 Clear 0 1003 73 10000 4 260 23:18 13.09.2019
1989 Clear 0 1003 73 10000 5 260 22:55 13.09.2019
1990 Clear 1 1003 59 10000 6 270 22:36 13.09.2019
1991 Clear 1 1003 59 10000 6 270 22:18 13.09.2019
1992 Clear 1 1002 59 10000 6 260 21:39 13.09.2019
1993 Clear 1 1002 59 10000 6 260 21:19 13.09.2019
1994 Clear 2 1002 55 10000 5 260 20:58 13.09.2019
1995 Clear 2 1002 55 10000 5 260 20:37 13.09.2019
1996 Clear 2 1002 55 10000 5 260 20:19 13.09.2019
1997 Clear 2 1001 59 10000 5 260 19:54 13.09.2019
1998 Clear 3 1001 59 10000 5 270 19:36 13.09.2019
1999 Clear 3 1001 59 10000 5 270 19:18 13.09.2019
2000 Clear 4 1001 60 10000 6 270 18:38 13.09.2019
2001 Clear 5 1000 56 10000 6 270 18:19 13.09.2019
2002 Clear 5 1000 56 10000 6 270 18:19 13.09.2019
2003 Clear 5 1000 56 10000 6 270 18:19 13.09.2019
2004 Clear 6 1000 56 10000 5 270 17:44 13.09.2019
2005 Clear 6 1000 56 10000 5 270 17:23 13.09.2019
2006 Clear 6 1000 60 10000 5 260 16:59 13.09.2019
2007 Clear 6 1000 60 10000 4 250 16:40 13.09.2019
2008 Clear 6 1000 60 10000 4 250 16:19 13.09.2019
2009 Clear 7 999 64 10000 4 270 15:43 13.09.2019
2010 Clear 7 999 73 10000 4 270 15:24 13.09.2019
2011 Clear 7 999 65 10000 8 280 14:56 13.09.2019
2012 Clouds 7 999 65 10000 5 250 14:37 13.09.2019
2013 Clouds 7 999 65 10000 5 250 14:19 13.09.2019
2014 Clear 7 998 65 10000 5 270 13:44 13.09.2019
2015 Clear 7 998 65 10000 5 270 13:22 13.09.2019
2016 Clouds 8 997 65 10000 6 260 12:46 13.09.2019
2017 Clouds 8 997 65 10000 6 260 12:26 13.09.2019
2018 Clouds 8 996 70 10000 7 270 11:57 13.09.2019
2019 Clouds 8 996 75 10000 7 260 11:21 13.09.2019
2020 Clouds 8 995 81 10000 7 260 10:59 13.09.2019
2021 Clouds 9 995 76 10000 8 260 10:37 13.09.2019
2022 Clouds 9 995 76 10000 8 260 10:18 13.09.2019
2023 Clouds 10 993 76 10000 7 260 09:44 13.09.2019
2024 Clouds 10 993 76 10000 7 260 09:23 13.09.2019
2025 Clouds 10 993 81 10000 8 250 08:58 13.09.2019
2026 Clouds 11 992 81 10000 6 250 08:40 13.09.2019
2027 Clouds 11 992 81 10000 6 250 08:20 13.09.2019
2028 Clouds 11 992 81 10000 6 250 08:20 13.09.2019
2029 Clouds 12 991 76 10000 6 240 07:44 13.09.2019
2030 Clouds 12 991 76 10000 6 240 07:26 13.09.2019
2031 Clouds 12 991 71 10000 5 240 06:41 13.09.2019
2032 Clouds 12 990 76 10000 6 230 05:43 13.09.2019
2033 Clouds 12 990 81 10000 7 220 04:39 13.09.2019
2034 Clouds 11 989 87 10000 5 210 03:37 13.09.2019
2035 Clouds 11 989 87 10000 6 200 02:20 13.09.2019
2036 Rain 11 989 93 10000 5 210 01:38 13.09.2019
2037 Clouds 11 989 93 10000 4 190 01:18 13.09.2019
2038 Clouds 11 988 93 10000 3 190 00:36 13.09.2019
2039 Clouds 11 988 93 10000 3 190 23:57 12.09.2019
2040 Clouds 11 989 93 10000 4 190 23:35 12.09.2019
2041 Rain 11 989 93 10000 4 170 22:59 12.09.2019
2042 Rain 11 989 93 10000 4 140 22:40 12.09.2019
2043 Rain 11 989 93 10000 4 140 22:22 12.09.2019
2044 Rain 11 989 93 10000 4 140 21:56 12.09.2019
2045 Rain 11 990 93 10000 4 140 21:37 12.09.2019
2046 Rain 11 990 93 10000 4 140 21:19 12.09.2019
2047 Rain 11 990 93 10000 6 130 20:55 12.09.2019
2048 Rain 11 990 93 10000 6 130 20:55 12.09.2019
2049 Rain 11 990 93 10000 6 130 20:55 12.09.2019
2050 Rain 11 991 93 10000 5 110 20:36 12.09.2019
2051 Rain 11 991 93 10000 5 110 20:18 12.09.2019
2052 Rain 11 992 87 10000 5 100 19:41 12.09.2019
2053 Rain 11 993 93 10000 5 90 19:20 12.09.2019
2054 Rain 11 993 93 10000 5 90 18:57 12.09.2019
2055 Rain 11 994 87 10000 4 90 18:36 12.09.2019
2056 Rain 12 995 81 10000 3 100 18:18 12.09.2019
2057 Rain 13 995 76 10000 3 120 17:41 12.09.2019
2058 Rain 13 995 76 10000 3 120 17:21 12.09.2019
2059 Rain 13 996 71 10000 3 160 16:58 12.09.2019
2060 Rain 14 997 67 10000 4 170 16:40 12.09.2019
2061 Rain 14 997 67 10000 4 170 16:20 12.09.2019
2062 Clear 15 998 54 10000 4 110 15:42 12.09.2019
2063 Clear 15 998 54 10000 4 110 15:24 12.09.2019
2064 Clear 15 998 54 10000 3 110 14:55 12.09.2019
2065 Clear 15 998 58 10000 3 100 14:37 12.09.2019
2066 Clear 15 998 58 10000 3 100 14:19 12.09.2019
2067 Clear 16 999 51 10000 3 110 13:39 12.09.2019
2068 Clear 16 999 51 10000 3 110 13:20 12.09.2019
2069 Clear 17 1000 48 10000 5 130 12:48 12.09.2019
2070 Clear 16 1000 51 10000 3 100 12:19 12.09.2019
2071 Clear 16 1000 51 10000 3 100 11:58 12.09.2019
2072 Clear 16 1000 51 10000 2 60 11:39 12.09.2019
2073 Clear 16 1000 51 10000 2 60 11:39 12.09.2019
2074 Clear 16 1000 51 10000 2 60 11:21 12.09.2019
2075 Clear 17 1001 48 10000 1 70 10:49 12.09.2019
2076 Clear 19 1001 39 10000 2 102.221 10:28 12.09.2019
2077 Clear 19 1002 32 10000 2 170 09:57 12.09.2019
2078 Clear 19 1002 32 10000 2 170 09:38 12.09.2019
2079 Clear 19 1002 32 10000 2 170 09:19 12.09.2019
2080 Clear 20 1003 30 10000 3 160 08:44 12.09.2019
2081 Clear 20 1003 30 10000 3 160 08:23 12.09.2019
2082 Clear 19 1004 32 10000 4 140 07:54 12.09.2019
2083 Clear 19 1004 32 10000 4 140 07:36 12.09.2019
2084 Clear 19 1004 37 10000 4 140 07:18 12.09.2019
2085 Clear 19 1004 37 10000 3 150 06:44 12.09.2019
2086 Clear 18 1005 42 10000 4 140 05:54 12.09.2019
2087 Clear 18 1005 42 10000 3 170 05:36 12.09.2019
2088 Clear 15 1005 54 10000 2 170 04:45 12.09.2019
2089 Clear 13 1006 62 10000 3 150 03:23 12.09.2019
2090 Clear 8 1006 81 10000 1 300 01:43 12.09.2019
2091 Clear 8 1006 81 10000 1 300 01:23 12.09.2019
2092 Clear 5 1006 93 10000 0.86 199.864 00:47 12.09.2019
2093 Clear 5 1006 93 10000 0.86 199.864 00:28 12.09.2019
2094 Clear 1 1006 89 10000 1 220 23:43 11.09.2019
2095 Clear 1 1006 89 10000 1 220 23:25 11.09.2019
2096 Clear 2 1006 93 10000 3 290 22:58 11.09.2019
2097 Clear 2 1006 93 10000 1 250 22:38 11.09.2019
2098 Clear 2 1006 93 10000 1 250 22:19 11.09.2019
2099 Clear 2 1006 93 10000 1 260 21:57 11.09.2019
2100 Clear 3 1005 93 10000 1 290 21:39 11.09.2019
2101 Clear 3 1005 93 10000 1 290 21:20 11.09.2019
2102 Clear 4 1005 86 10000 1 280 20:54 11.09.2019
2103 Clear 4 1005 86 10000 1 280 20:36 11.09.2019
2104 Clear 4 1005 86 10000 1 280 20:18 11.09.2019
2105 Clear 4 1005 93 10000 2 300 19:55 11.09.2019
2106 Clear 4 1006 93 10000 3 290 19:37 11.09.2019
2107 Clear 4 1006 93 10000 3 300 19:18 11.09.2019
2108 Clear 5 1006 86 10000 2 300 18:42 11.09.2019
2109 Clear 5 1006 86 10000 2 300 18:23 11.09.2019
2110 Clear 5 1006 93 10000 2 310 17:58 11.09.2019
2111 Clear 6 1006 87 10000 2 320 17:39 11.09.2019
2112 Clear 6 1006 87 10000 2 320 17:20 11.09.2019
2113 Clear 7 1006 87 10000 2 320 16:54 11.09.2019
2114 Clear 7 1006 87 10000 2 320 16:54 11.09.2019
2115 Clear 8 1006 81 10000 2 350 16:36 11.09.2019
2116 Clear 8 1006 81 10000 2 350 16:18 11.09.2019
2117 Clear 9 1006 81 10000 2 20 15:45 11.09.2019
2118 Clear 9 1006 81 10000 2 20 15:22 11.09.2019
2119 Clear 10 1006 71 10000 2 30 14:57 11.09.2019
2120 Clear 10 1006 76 10000 2 20 14:38 11.09.2019
2121 Clear 10 1006 76 10000 2 20 14:19 11.09.2019
2122 Clear 11 1006 66 10000 1 50 13:55 11.09.2019
2123 Clouds 14 1006 58 10000 2 70 13:36 11.09.2019
2124 Clouds 15 1006 51 10000 2 100 13:18 11.09.2019
2125 Clouds 16 1006 48 10000 3 80 12:41 11.09.2019
2126 Clouds 16 1006 48 10000 3 80 12:21 11.09.2019
2127 Clouds 17 1006 45 10000 2 350 11:55 11.09.2019
2128 Clouds 17 1006 45 10000 2 350 11:55 11.09.2019
2129 Clouds 18 1006 42 10000 2 140 11:36 11.09.2019
2130 Clouds 18 1006 42 10000 2 140 11:36 11.09.2019
2131 Clouds 18 1006 42 10000 2 140 11:18 11.09.2019
2132 Clouds 19 1006 32 10000 4 170 10:40 11.09.2019
2133 Clouds 19 1006 32 10000 4 170 10:21 11.09.2019
2134 Clouds 21 1006 30 10000 3 170 09:40 11.09.2019
2135 Clouds 21 1006 30 10000 3 170 09:20 11.09.2019
2136 Clouds 21 1006 30 10000 3 170 09:20 11.09.2019
2137 Clouds 20 1006 32 10000 4 170 08:59 11.09.2019
2138 Clouds 21 1006 28 10000 4 190 08:39 11.09.2019
2139 Clouds 21 1006 28 10000 4 190 08:20 11.09.2019
2140 Clouds 21 1007 30 10000 4 170 07:45 11.09.2019
2141 Clouds 21 1007 30 10000 4 170 07:23 11.09.2019
2142 Clear 21 1007 30 10000 5 180 06:52 11.09.2019
2143 Clear 20 1008 32 10000 4 140 06:33 11.09.2019
2144 Clear 19 1009 39 10000 3 170 05:49 11.09.2019
2145 Clear 19 1009 39 10000 3 170 05:28 11.09.2019
2146 Clear 16 1009 55 10000 3 130 04:46 11.09.2019
2147 Clear 14 1010 67 10000 3 150 03:36 11.09.2019
2148 Clear 14 1010 67 10000 3 140 02:49 11.09.2019
2149 Clear 13 1010 71 10000 2 170 02:26 11.09.2019
2150 Clear 10 1011 87 10000 1 160 00:53 11.09.2019
2151 Clear 8 1011 87 10000 1 200 00:29 11.09.2019
2152 Clear 8 1011 87 10000 1 110 23:56 10.09.2019
2153 Clear 8 1011 81 10000 1 120 23:38 10.09.2019
2154 Clear 8 1011 81 10000 1 120 23:20 10.09.2019
2155 Clear 8 1011 81 10000 1 60 22:41 10.09.2019
2156 Clear 8 1011 81 10000 1 60 22:20 10.09.2019
2157 Clear 8 1011 81 10000 1 310 21:56 10.09.2019
2158 Clear 8 1011 81 10000 1 200 21:38 10.09.2019
2159 Clear 8 1011 81 10000 1 200 21:20 10.09.2019
2160 Clear 8 1011 81 10000 1 110 20:58 10.09.2019
2161 Clear 8 1011 81 10000 1 320 20:40 10.09.2019
2162 Clear 8 1011 81 10000 1 320 20:22 10.09.2019
2163 Clear 7 1011 81 10000 1 320 19:57 10.09.2019
2164 Clear 7 1011 81 10000 1 310 19:38 10.09.2019
2165 Clear 7 1011 81 10000 1 260 19:19 10.09.2019
2166 Clear 7 1011 81 10000 1 260 18:58 10.09.2019
2167 Clear 7 1011 81 10000 1 290 18:39 10.09.2019
2168 Clear 7 1011 81 10000 1 290 18:21 10.09.2019
2169 Clear 7 1011 81 10000 1 310 17:54 10.09.2019
2170 Clear 6 1011 87 10000 1 240 17:36 10.09.2019
2171 Clear 6 1011 87 10000 1 240 17:18 10.09.2019
2172 Clear 7 1011 81 10000 1 270 16:55 10.09.2019
2173 Clear 7 1011 81 10000 1 270 16:55 10.09.2019
2174 Clear 8 1011 81 10000 2 290 16:36 10.09.2019
2175 Clear 8 1011 81 10000 2 290 16:18 10.09.2019
2176 Clear 10 1011 71 10000 2 270 15:42 10.09.2019
2177 Clear 10 1011 71 10000 2 270 15:21 10.09.2019
2178 Clear 11 1011 66 10000 3 260 14:42 10.09.2019
2179 Clear 11 1011 66 10000 3 260 14:24 10.09.2019
2180 Clear 13 1011 58 10000 3 280 13:59 10.09.2019
2181 Clear 14 1011 54 10000 3 270 13:40 10.09.2019
2182 Clear 14 1011 54 10000 3 270 13:40 10.09.2019
2183 Clear 14 1011 54 10000 3 270 13:22 10.09.2019
2184 Clear 16 1010 48 10000 3 260 12:49 10.09.2019
2185 Clear 16 1010 48 10000 3 260 12:27 10.09.2019
2186 Clear 16 1010 48 10000 2 270 11:57 10.09.2019
2187 Clear 18 1010 39 10000 4 310 11:39 10.09.2019
2188 Clear 19 1009 37 10000 5 320 11:20 10.09.2019
2189 Clear 20 1009 32 10000 6 280 10:42 10.09.2019
2190 Clear 21 1009 28 10000 6 290 10:19 10.09.2019
2191 Clear 21 1009 28 10000 6 290 09:56 10.09.2019
2192 Clear 20 1009 30 10000 6 300 09:38 10.09.2019
2193 Clear 21 1009 28 10000 6 280 09:19 10.09.2019
2194 Clear 21 1009 28 10000 6 280 09:19 10.09.2019
2195 Clear 21 1009 28 10000 6 300 08:45 10.09.2019
2196 Clear 21 1009 28 10000 6 300 08:26 10.09.2019
2197 Clear 21 1009 26 10000 7 280 07:46 10.09.2019
2198 Clear 21 1009 26 10000 7 280 07:27 10.09.2019
2199 Clear 20 1009 34 10000 6 280 06:53 10.09.2019
2200 Clear 20 1009 34 10000 6 280 06:35 10.09.2019
2201 Clear 20 1009 37 10000 6 280 05:27 10.09.2019
2202 Clear 18 1009 45 10000 4 270 03:57 10.09.2019
2203 Clear 15 1010 54 10000 2 190 02:23 10.09.2019
2204 Clear 15 1010 54 10000 2 190 02:23 10.09.2019
2205 Clear 15 1010 54 10000 2 190 02:23 10.09.2019
2206 Clear 14 1010 62 10000 1 220 01:58 10.09.2019
2207 Clear 14 1010 62 10000 1 220 01:58 10.09.2019
2208 Clear 12 1010 71 10000 1 130 01:40 10.09.2019
2209 Clear 9 1009 81 10000 1 50 00:54 10.09.2019
2210 Clear 9 1009 81 10000 1 50 00:25 10.09.2019
2211 Clear 8 1009 87 10000 3 300 23:47 09.09.2019
2212 Clear 8 1009 87 10000 5 280 23:20 09.09.2019
2213 Clear 8 1009 87 10000 5 280 22:57 09.09.2019
2214 Clear 8 1009 87 10000 3 280 22:39 09.09.2019
2215 Clear 8 1008 87 10000 4 280 22:20 09.09.2019
2216 Clear 8 1008 87 10000 4 280 21:57 09.09.2019
2217 Clear 8 1008 87 10000 4 280 21:39 09.09.2019
2218 Clear 9 1008 81 10000 4 280 21:20 09.09.2019
2219 Clear 9 1008 81 10000 4 280 20:56 09.09.2019
2220 Clear 9 1008 81 10000 4 280 20:37 09.09.2019
2221 Clear 8 1008 87 10000 3 290 20:19 09.09.2019
2222 Clear 8 1008 87 10000 3 290 20:19 09.09.2019
2223 Clear 8 1008 87 10000 3 290 20:19 09.09.2019
2224 Clear 8 1008 87 10000 3 290 19:58 09.09.2019
2225 Clear 8 1008 81 10000 3 290 19:39 09.09.2019
2226 Clear 9 1008 81 10000 3 290 19:19 09.09.2019
2227 Clear 9 1008 81 10000 3 290 19:19 09.09.2019
2228 Clear 8 1008 81 10000 3 270 18:57 09.09.2019
2229 Clear 8 1008 81 10000 3 270 18:39 09.09.2019
2230 Clear 8 1008 81 10000 2 260 18:21 09.09.2019
2231 Clear 8 1008 81 10000 2 260 17:58 09.09.2019
2232 Clear 9 1008 76 10000 2 260 17:40 09.09.2019
2233 Clear 10 1008 76 10000 3 270 17:21 09.09.2019
2234 Clear 10 1008 76 10000 3 270 17:21 09.09.2019
2235 Clear 10 1008 76 10000 3 270 16:55 09.09.2019
2236 Clear 11 1008 71 10000 3 270 16:37 09.09.2019
2237 Clear 11 1008 71 10000 5 280 16:19 09.09.2019
2238 Clear 11 1008 71 10000 5 280 15:55 09.09.2019
2239 Clear 11 1008 71 10000 5 280 15:55 09.09.2019
2240 Clear 11 1008 71 10000 5 280 15:55 09.09.2019
2241 Clear 11 1008 66 10000 4 270 15:36 09.09.2019
2242 Clear 10 1008 71 10000 3 280 15:18 09.09.2019
2243 Clear 10 1008 71 10000 3 270 14:40 09.09.2019
2244 Clear 10 1008 71 10000 3 270 14:22 09.09.2019
2245 Clear 11 1008 66 10000 3 270 14:00 09.09.2019
2246 Clear 11 1008 66 10000 3 260 13:41 09.09.2019
2247 Clear 13 1007 58 10000 3 270 13:19 09.09.2019
2248 Clear 13 1007 58 10000 3 270 12:57 09.09.2019
2249 Clear 14 1007 54 10000 3 290 12:38 09.09.2019
2250 Clear 15 1007 47 10000 3 300 12:19 09.09.2019
2251 Clear 16 1007 48 10000 2 310 11:43 09.09.2019
2252 Clear 16 1007 44 10000 3 330 11:20 09.09.2019
2253 Clear 16 1007 44 10000 3 330 10:57 09.09.2019
2254 Clear 17 1007 42 10000 5 300 10:39 09.09.2019
2255 Clear 16 1006 44 10000 4 320 10:19 09.09.2019
2256 Clear 17 1006 42 10000 4 300 09:49 09.09.2019
2257 Clear 17 1006 42 10000 4 300 09:30 09.09.2019
2258 Clear 17 1006 42 10000 4 310 08:57 09.09.2019
2259 Clear 18 1006 39 10000 4 320 08:38 09.09.2019
2260 Clear 16 1007 44 10000 4 340 08:19 09.09.2019
2261 Clear 16 1006 44 10000 3 330 07:44 09.09.2019
2262 Clear 15 1007 47 10000 4 320 07:22 09.09.2019
2263 Clear 15 1007 47 10000 4 320 06:56 09.09.2019
2264 Clear 16 1007 44 10000 4 330 06:31 09.09.2019
2265 Clear 13 1007 58 10000 2 350 04:45 09.09.2019
2266 Clear 8 1008 70 10000 2 310 02:43 09.09.2019
2267 Clear 6 1008 75 10000 3 320 01:47 09.09.2019
2268 Clear 4 1008 86 10000 3 300 00:39 09.09.2019
2269 Clear 3 1008 86 10000 3 300 00:20 09.09.2019
2270 Clear 2 1008 95 10000 2 300 23:41 08.09.2019
2271 Clear 2 1008 95 10000 2 300 23:23 08.09.2019
2272 Clear 1 1008 95 10000 3 310 22:43 08.09.2019
2273 Clear 1 1008 95 10000 3 310 22:23 08.09.2019
2274 Clear 2 1008 95 10000 3 290 21:59 08.09.2019
2275 Clear 3 1009 86 10000 4 270 21:40 08.09.2019
2276 Clear 3 1009 86 10000 4 270 21:22 08.09.2019
2277 Clear 3 1009 86 10000 3 280 20:56 08.09.2019
2278 Clear 2 1009 93 10000 1 300 20:37 08.09.2019
2279 Clear 2 1009 93 10000 1 330 20:19 08.09.2019
2280 Clear 2 1009 93 10000 1 330 20:19 08.09.2019
2281 Clear 2 1009 93 10000 1 330 19:56 08.09.2019
2282 Clear 3 1009 86 10000 1 310 19:37 08.09.2019
2283 Clear 4 1009 80 10000 3 300 19:18 08.09.2019
2284 Clear 4 1009 80 10000 3 300 19:18 08.09.2019
2285 Clear 4 1009 80 10000 3 300 18:55 08.09.2019
2286 Clear 5 1009 80 10000 4 300 18:37 08.09.2019
2287 Clear 5 1009 80 10000 4 300 18:18 08.09.2019
2288 Clear 6 1009 75 10000 4 300 17:38 08.09.2019
2289 Clear 6 1009 75 10000 4 310 17:19 08.09.2019
2290 Clear 6 1009 75 10000 4 310 16:58 08.09.2019
2291 Clear 6 1009 75 10000 4 310 16:40 08.09.2019
2292 Clouds 6 1009 75 10000 4 310 16:20 08.09.2019
2293 Clouds 6 1009 75 10000 4 310 16:20 08.09.2019
2294 Clouds 6 1009 75 10000 4 310 15:57 08.09.2019
2295 Clouds 6 1009 75 10000 4 300 15:39 08.09.2019
2296 Clouds 6 1009 75 10000 4 300 15:20 08.09.2019
2297 Clouds 7 1009 70 10000 4 310 14:41 08.09.2019
2298 Clouds 7 1009 70 10000 4 310 14:22 08.09.2019
2299 Clouds 7 1009 70 10000 4 310 14:22 08.09.2019
2300 Clouds 7 1009 70 10000 3 310 13:58 08.09.2019
2301 Clouds 8 1009 65 10000 4 300 13:40 08.09.2019
2302 Clouds 8 1009 65 10000 4 300 13:40 08.09.2019
2303 Clouds 8 1009 65 10000 4 300 13:40 08.09.2019
2304 Clouds 8 1009 65 10000 4 300 13:22 08.09.2019
2305 Clouds 8 1009 65 10000 4 300 12:58 08.09.2019
2306 Clouds 8 1009 65 10000 4 290 12:40 08.09.2019
2307 Clouds 9 1009 61 10000 5 300 12:22 08.09.2019
2308 Clouds 9 1009 61 10000 5 300 11:57 08.09.2019
2309 Clouds 9 1009 61 10000 4 300 11:38 08.09.2019
2310 Clouds 9 1009 61 10000 5 300 11:19 08.09.2019
2311 Clouds 10 1009 57 10000 5 310 10:43 08.09.2019
2312 Clouds 10 1009 57 10000 5 310 10:23 08.09.2019
2313 Clouds 11 1009 53 10000 5 300 09:58 08.09.2019
2314 Clouds 10 1009 53 10000 6 320 09:37 08.09.2019
2315 Clouds 12 1008 50 10000 5 310 09:19 08.09.2019
2316 Clouds 12 1008 50 10000 5 310 08:40 08.09.2019
2317 Clouds 13 1008 47 10000 5 320 08:19 08.09.2019
2318 Clouds 13 1008 47 10000 5 320 07:59 08.09.2019
2319 Clouds 13 1008 47 10000 5 310 07:37 08.09.2019
2320 Clouds 12 1008 50 10000 4 300 07:19 08.09.2019
2321 Clouds 12 1009 54 10000 4 290 06:44 08.09.2019
2322 Clouds 10 1009 61 10000 4 310 05:45 08.09.2019
2323 Clouds 10 1009 61 10000 4 310 05:27 08.09.2019
2324 Clouds 7 1010 81 10000 4 290 03:39 08.09.2019
2325 Clouds 7 1010 87 10000 4 310 02:51 08.09.2019
2326 Clouds 7 1010 87 10000 5 330 01:57 08.09.2019
2327 Clouds 7 1010 81 10000 6 330 01:34 08.09.2019
2328 Clouds 7 1010 81 10000 6 330 01:34 08.09.2019
2329 Clouds 8 1009 93 10000 5 310 00:53 08.09.2019
2330 Clouds 8 1009 93 10000 5 310 00:34 08.09.2019
2331 Clouds 9 1009 87 10000 3 290 23:59 07.09.2019
2332 Clouds 8 1009 93 10000 3 270 23:38 07.09.2019
2333 Clouds 9 1009 87 10000 3 280 23:19 07.09.2019
2334 Clouds 9 1009 87 10000 3 280 22:57 07.09.2019
2335 Rain 9 1009 87 10000 3 280 22:37 07.09.2019
2336 Rain 9 1009 81 10000 2 270 22:18 07.09.2019
2337 Clear 10 1009 76 10000 2 270 21:41 07.09.2019
2338 Clear 10 1009 76 10000 2 270 21:23 07.09.2019
2339 Clear 10 1009 71 10000 2 240 20:42 07.09.2019
2340 Clear 10 1009 71 10000 2 240 20:22 07.09.2019
2341 Clear 10 1009 71 10000 2 230 19:58 07.09.2019
2342 Clear 10 1009 76 10000 2 200 19:39 07.09.2019
2343 Clear 10 1009 76 10000 2 210 19:21 07.09.2019
2344 Clear 10 1009 76 10000 2 210 18:59 07.09.2019
2345 Clear 11 1010 71 10000 3 200 18:40 07.09.2019
2346 Clear 11 1010 71 10000 3 200 18:22 07.09.2019
2347 Clear 11 1010 71 10000 3 200 17:59 07.09.2019
2348 Clear 11 1010 71 10000 3 200 17:59 07.09.2019
2349 Clear 11 1010 71 10000 3 210 17:40 07.09.2019
2350 Clear 10 1010 76 10000 3 210 17:19 07.09.2019
2351 Clear 10 1010 76 10000 3 210 16:59 07.09.2019
2352 Clear 10 1010 76 10000 3 210 16:40 07.09.2019
2353 Clear 10 1011 76 10000 3 210 16:20 07.09.2019
2354 Clear 10 1011 71 10000 3 220 15:47 07.09.2019
2355 Clear 10 1011 71 10000 3 220 15:26 07.09.2019
2356 Clear 9 1011 76 10000 3 210 14:57 07.09.2019
2357 Clear 10 1011 71 10000 3 210 14:37 07.09.2019
2358 Clear 11 1011 71 10000 3 210 14:19 07.09.2019
2359 Clear 11 1011 71 10000 3 210 13:57 07.09.2019
2360 Clear 11 1011 66 10000 3 210 13:39 07.09.2019
2361 Clear 11 1011 66 10000 3 210 13:39 07.09.2019
2362 Clear 13 1011 58 10000 4 230 13:21 07.09.2019
2363 Clear 13 1011 58 10000 3 230 12:44 07.09.2019
2364 Clear 13 1011 58 10000 3 230 12:25 07.09.2019
2365 Clear 13 1011 58 10000 4 230 11:57 07.09.2019
2366 Clear 14 1011 50 10000 4 230 11:39 07.09.2019
2367 Clear 14 1011 50 10000 3 250 11:19 07.09.2019
2368 Clear 14 1011 50 10000 4 250 10:40 07.09.2019
2369 Clear 15 1011 47 10000 4 250 10:21 07.09.2019
2370 Clear 15 1011 44 10000 4 270 09:45 07.09.2019
2371 Clear 15 1011 44 10000 4 270 09:27 07.09.2019
2372 Clouds 15 1011 44 10000 4 270 08:59 07.09.2019
2373 Clouds 15 1011 44 10000 4 270 08:41 07.09.2019
2374 Clouds 15 1011 44 10000 4 270 08:41 07.09.2019
2375 Clouds 15 1011 44 10000 4 270 08:23 07.09.2019
2376 Clouds 15 1011 44 10000 5 280 07:45 07.09.2019
2377 Clouds 15 1011 44 10000 5 280 07:26 07.09.2019
2378 Clear 16 1011 41 10000 5 270 06:47 07.09.2019
2379 Clear 15 1011 41 10000 4 280 06:20 07.09.2019
2380 Clear 14 1011 47 10000 6 260 04:48 07.09.2019
2381 Clear 13 1011 54 10000 5 270 04:20 07.09.2019
2382 Clear 11 1011 62 10000 4 290 02:48 07.09.2019
2383 Clear 10 1011 71 10000 4 290 01:46 07.09.2019
2384 Clear 9 1011 70 10000 3 280 01:21 07.09.2019
2385 Clear 7 1011 81 10000 4 280 00:40 07.09.2019
2386 Clear 7 1010 81 10000 3 300 00:19 07.09.2019
2387 Clear 7 1010 81 10000 3 300 23:40 06.09.2019
2388 Clear 7 1010 81 10000 3 300 23:21 06.09.2019
2389 Clear 8 1010 81 10000 4 300 22:58 06.09.2019
2390 Clear 8 1010 75 10000 3 320 22:38 06.09.2019
2391 Clear 8 1010 75 10000 2 290 22:19 06.09.2019
2392 Clear 8 1010 75 10000 2 290 21:57 06.09.2019
2393 Clear 8 1009 81 10000 2 290 21:39 06.09.2019
2394 Clear 8 1009 81 10000 2 290 21:20 06.09.2019
2395 Clear 8 1009 81 10000 2 290 20:57 06.09.2019
2396 Clear 8 1009 81 10000 2 300 20:38 06.09.2019
2397 Clear 8 1009 81 10000 1 290 20:19 06.09.2019
2398 -273 0 0 0 0 0 19:55 06.09.2019
2399 Clear 8 1009 87 10000 1 270 19:37 06.09.2019
2400 Clear 8 1009 87 10000 1 280 19:18 06.09.2019
2401 Clear 8 1009 87 10000 2 280 18:41 06.09.2019
2402 Clear 9 1009 81 10000 1 290 18:23 06.09.2019
2403 Clear 9 1009 81 10000 1 290 17:58 06.09.2019
2404 Clear 9 1009 81 10000 1 290 17:58 06.09.2019
2405 Clear 9 1009 81 10000 2 280 17:37 06.09.2019
2406 Clear 9 1009 81 10000 1 300 17:19 06.09.2019
2407 Clear 9 1009 81 10000 2 300 16:41 06.09.2019
2408 Clear 10 1009 81 10000 2 310 16:19 06.09.2019
2409 Clear 10 1009 81 10000 2 290 15:42 06.09.2019
2410 Clear 10 1009 81 10000 2 290 15:24 06.09.2019
2411 Clear 10 1009 76 10000 1.51 328.4 14:57 06.09.2019
2412 Clear 11 1009 71 10000 1.51 328.4 14:39 06.09.2019
2413 Clear 11 1009 66 10000 1 110 14:18 06.09.2019
2414 Clear 12 1009 66 10000 1 100 13:42 06.09.2019
2415 Clear 12 1009 66 10000 2 80 13:20 06.09.2019
2416 Clear 13 1009 54 10000 1 90 12:38 06.09.2019
2417 Clear 13 1008 50 10000 1 100 12:20 06.09.2019
2418 Clear 13 1008 50 10000 1 100 11:55 06.09.2019
2419 Clear 14 1008 47 10000 2 100 11:36 06.09.2019
2420 Clear 15 1008 44 10000 2 90 11:18 06.09.2019
2421 Clear 15 1008 44 10000 2 110 10:41 06.09.2019
2422 Clear 15 1008 44 10000 2 110 10:22 06.09.2019
2423 Clear 14 1008 47 10000 2 100 09:58 06.09.2019
2424 Clear 15 1008 44 10000 2 110 09:37 06.09.2019
2425 Clear 15 1008 44 10000 2 110 09:18 06.09.2019
2426 Clouds 15 1009 44 10000 2 120 08:44 06.09.2019
2427 Clouds 15 1009 44 10000 2 120 08:26 06.09.2019
2428 Clouds 15 1009 44 10000 2 120 08:26 06.09.2019
2429 Clouds 14 1009 54 10000 1 70 07:50 06.09.2019
2430 Clouds 14 1009 54 10000 1 70 07:28 06.09.2019
2431 Clouds 14 1009 54 10000 1 110 06:58 06.09.2019
2432 Clouds 14 1009 58 10000 2 150 06:31 06.09.2019
2433 Clouds 13 1010 66 10000 2 130 05:44 06.09.2019
2434 Clouds 12 1010 76 10000 2 120 04:54 06.09.2019
2435 Clouds 10 1010 87 10000 1 110 04:19 06.09.2019
2436 Mist 9 1010 100 5000 1 70 02:40 06.09.2019
2437 Fog 7 1010 100 300 2 20 00:51 06.09.2019
2438 Fog 8 1010 93 550 2 80 23:58 05.09.2019
2439 Mist 7 1010 100 1200 1 30 23:40 05.09.2019
2440 Fog 7 1010 100 1000 2 10 23:21 05.09.2019
2441 Fog 8 1010 93 1000 1 90 22:45 05.09.2019
2442 Fog 8 1010 93 1000 1 90 22:25 05.09.2019
2443 Fog 8 1010 100 100 1 120 21:57 05.09.2019
2444 Fog 9 1010 93 300 1 20 21:38 05.09.2019
2445 Fog 9 1010 93 500 1 30 21:20 05.09.2019
2446 Fog 9 1010 93 500 1 30 20:58 05.09.2019
2447 Mist 8 1010 100 5000 1.11 312.631 20:38 05.09.2019
2448 Mist 8 1009 100 5000 1 10 20:19 05.09.2019
2449 Mist 8 1009 100 5000 1 10 19:56 05.09.2019
2450 Fog 8 1009 93 1500 1.11 312.631 19:37 05.09.2019
2451 Fog 8 1009 93 400 2 330 19:19 05.09.2019
2452 Mist 8 1009 93 1500 2 10 18:41 05.09.2019
2453 Clouds 9 1009 93 10000 2 320 18:22 05.09.2019
2454 Clouds 9 1009 93 10000 2 320 17:57 05.09.2019
2455 Clouds 9 1009 100 10000 1 330 17:39 05.09.2019
2456 Clouds 9 1009 93 10000 1 340 17:20 05.09.2019
2457 Clouds 9 1008 100 10000 2 310 16:42 05.09.2019
2458 Clouds 10 1008 93 10000 1 290 16:21 05.09.2019
2459 Clouds 10 1008 93 10000 1 290 15:58 05.09.2019
2460 Clouds 10 1008 93 10000 2 360 15:39 05.09.2019
2461 Clouds 11 1008 93 10000 1 360 15:19 05.09.2019
2462 Clouds 11 1008 93 10000 1 360 15:19 05.09.2019
2463 Clouds 11 1008 93 10000 1 360 14:56 05.09.2019
2464 Clouds 11 1008 93 10000 1 360 14:38 05.09.2019
2465 Rain 11 1008 93 10000 2 20 14:18 05.09.2019
2466 Clouds 11 1007 93 10000 2 30 13:41 05.09.2019
2467 Clouds 13 1007 76 10000 2 270 13:19 05.09.2019
2468 Clouds 13 1007 76 10000 3 270 12:42 05.09.2019
2469 Clouds 13 1006 76 10000 3 260 12:24 05.09.2019
2470 Clouds 13 1006 76 10000 3 260 11:56 05.09.2019
2471 Clouds 14 1007 71 10000 4 260 11:37 05.09.2019
2472 Clouds 14 1006 71 10000 3 260 11:18 05.09.2019
2473 Clouds 14 1006 76 10000 3 260 10:40 05.09.2019
2474 Clouds 14 1006 71 10000 5 260 10:20 05.09.2019
2475 Clouds 14 1006 71 10000 5 260 09:57 05.09.2019
2476 Clouds 14 1006 71 10000 5 250 09:38 05.09.2019
2477 Clouds 13 1006 76 10000 6 260 09:18 05.09.2019
2478 Clouds 14 1006 71 10000 6 260 08:43 05.09.2019
2479 Clouds 14 1006 71 10000 6 260 08:25 05.09.2019
2480 Clouds 15 1006 62 10000 6 240 07:44 05.09.2019
2481 Clouds 14 1006 71 10000 4 220 07:26 05.09.2019
2482 Clouds 13 1006 76 10000 4 210 06:52 05.09.2019
2483 Clouds 13 1006 76 10000 4 210 06:29 05.09.2019
2484 Clouds 12 1006 81 10000 4 220 05:49 05.09.2019
2485 Clouds 12 1006 81 10000 4 220 05:30 05.09.2019
2486 Clouds 12 1006 76 10000 5 220 04:47 05.09.2019
2487 Clouds 12 1006 71 10000 3 200 04:19 05.09.2019
2488 Clouds 12 1006 71 10000 3 220 03:27 05.09.2019
2489 Clouds 12 1007 71 10000 4 270 02:42 05.09.2019
2490 Clear 12 1007 66 10000 4 250 02:18 05.09.2019
2491 Clear 11 1007 71 10000 3 270 01:25 05.09.2019
2492 Clear 9 1006 81 10000 3 260 00:42 05.09.2019
2493 Clear 7 1006 93 10000 1 290 00:20 05.09.2019
2494 Clear 8 1006 87 10000 2 260 23:45 04.09.2019
2495 Clear 8 1006 87 10000 2 260 23:23 04.09.2019
2496 Clear 7 1006 93 10000 2 240 22:57 04.09.2019
2497 Clear 7 1006 87 10000 2 260 22:38 04.09.2019
2498 Clear 7 1006 93 10000 3 300 22:18 04.09.2019
2499 Clear 7 1006 93 10000 2 280 21:39 04.09.2019
2500 Clear 7 1005 93 10000 2 290 21:20 04.09.2019
2501 Clear 7 1005 93 10000 2 290 20:56 04.09.2019
2502 Clouds 8 1005 87 10000 2 290 20:37 04.09.2019
2503 Clouds 9 1005 87 10000 3 280 20:18 04.09.2019
2504 Clouds 9 1005 87 10000 3 280 19:55 04.09.2019
2505 Clouds 9 1005 87 10000 2 300 19:36 04.09.2019
2506 Clouds 9 1005 87 10000 2 320 19:18 04.09.2019
2507 Clouds 9 1005 87 10000 2 300 18:38 04.09.2019
2508 Clouds 9 1005 87 10000 1 250 18:19 04.09.2019
2509 Clouds 9 1004 87 10000 2 300 17:41 04.09.2019
2510 Clouds 9 1004 87 10000 2 300 17:23 04.09.2019
2511 Clouds 9 1004 87 10000 2 300 17:23 04.09.2019
2512 Clouds 10 1004 81 10000 2 290 16:58 04.09.2019
2513 Clouds 10 1005 81 10000 2 310 16:40 04.09.2019
2514 Clouds 10 1005 81 10000 2 310 16:21 04.09.2019
2515 Clouds 10 1005 81 10000 2 280 15:55 04.09.2019
2516 Clear 10 1005 81 10000 2 280 15:37 04.09.2019
2517 Clear 10 1004 81 10000 1 290 15:18 04.09.2019
2518 Clear 10 1004 81 10000 1 290 14:54 04.09.2019
2519 Clear 10 1004 87 10000 2 300 14:36 04.09.2019
2520 Clear 10 1004 87 10000 2 270 14:18 04.09.2019
2521 Clear 11 1004 76 10000 1 300 13:39 04.09.2019
2522 Clear 12 1004 71 10000 2 310 13:21 04.09.2019
2523 Clear 13 1003 71 10000 3 320 12:46 04.09.2019
2524 Clear 13 1003 71 10000 3 320 12:27 04.09.2019
2525 Clear 13 1003 71 10000 3 320 12:27 04.09.2019
2526 Clouds 14 1003 67 10000 2 340 11:59 04.09.2019
2527 Clouds 15 1003 62 10000 3 340 11:41 04.09.2019
2528 Clouds 15 1003 62 10000 3 340 11:21 04.09.2019
2529 Clouds 15 1003 62 10000 3 340 10:58 04.09.2019
2530 Clouds 16 1003 55 10000 3 310 10:39 04.09.2019
2531 Clouds 16 1003 55 10000 4 280 10:21 04.09.2019
2532 Clouds 17 1003 55 10000 4 280 09:46 04.09.2019
2533 Clouds 17 1003 55 10000 4 280 09:22 04.09.2019
2534 Clouds 17 1003 55 10000 4 290 08:57 04.09.2019
2535 Clouds 16 1003 59 10000 6 300 08:38 04.09.2019
2536 Clouds 16 1003 59 10000 6 290 08:19 04.09.2019
2537 Clouds 16 1003 63 10000 4 290 07:43 04.09.2019
2538 Clouds 15 1003 67 10000 3 300 07:24 04.09.2019
2539 Clouds 15 1003 67 10000 3 320 06:39 04.09.2019
2540 Clouds 14 1004 71 10000 4 300 04:56 04.09.2019
2541 Clouds 13 1003 76 10000 3 290 04:25 04.09.2019
2542 Clouds 13 1004 76 10000 3 280 03:39 04.09.2019
2543 Clouds 12 1003 87 10000 2 300 01:21 04.09.2019
2544 Clouds 12 1003 87 10000 2 290 00:46 04.09.2019
2545 Clouds 12 1003 87 10000 2 290 00:27 04.09.2019
2546 Clouds 12 1002 81 10000 2 270 23:54 03.09.2019
2547 Clouds 12 1002 81 10000 2 270 23:27 03.09.2019
2548 Clouds 12 1002 81 10000 2 290 22:57 03.09.2019
2549 Clouds 12 1002 87 10000 1 210 22:39 03.09.2019
2550 Clouds 12 1002 87 10000 2 220 22:21 03.09.2019
2551 -273 0 0 0 0 0 21:55 03.09.2019
2552 Clouds 12 1002 87 10000 3 230 21:36 03.09.2019
2553 Clouds 13 1002 82 10000 3 200 21:18 03.09.2019
2554 Clouds 13 1002 82 10000 3 220 20:42 03.09.2019
2555 Clouds 13 1002 82 10000 3 220 20:24 03.09.2019
2556 Clouds 13 1002 82 10000 3 220 20:24 03.09.2019
2557 Clouds 13 1002 82 10000 3 220 19:55 03.09.2019
2558 Clouds 13 1002 82 10000 3 220 19:37 03.09.2019
2559 Clouds 13 1002 82 10000 3 200 19:18 03.09.2019
2560 Clouds 12 1002 87 10000 1 180 18:44 03.09.2019
2561 Clouds 12 1002 87 10000 3 200 18:25 03.09.2019
2562 Clouds 12 1002 87 10000 3 200 18:25 03.09.2019
2563 Clouds 12 1002 87 10000 3 200 18:25 03.09.2019
2564 Clouds 12 1002 81 10000 4 200 17:57 03.09.2019
2565 Clouds 12 1002 81 10000 4 200 17:39 03.09.2019
2566 Clouds 12 1003 87 10000 2 200 17:19 03.09.2019
2567 Clouds 12 1003 87 10000 2 200 16:54 03.09.2019
2568 Clouds 12 1003 87 10000 3 190 16:36 03.09.2019
2569 Clouds 12 1003 87 10000 3 170 16:18 03.09.2019
2570 Clouds 11 1003 93 10000 2 180 15:39 03.09.2019
2571 Clouds 11 1003 93 10000 2 150 15:21 03.09.2019
2572 Clouds 11 1003 93 10000 2 150 14:58 03.09.2019
2573 Clouds 11 1003 93 10000 1 150 14:40 03.09.2019
2574 Clouds 12 1003 87 10000 2 200 14:20 03.09.2019
2575 Clouds 12 1003 87 10000 2 200 13:56 03.09.2019
2576 Clouds 12 1003 87 10000 2 200 13:56 03.09.2019
2577 Clouds 12 1003 87 10000 2 200 13:37 03.09.2019
2578 Clouds 13 1003 87 10000 2 190 13:19 03.09.2019
2579 Clouds 14 1004 82 10000 2 170 12:48 03.09.2019
2580 Clouds 14 1004 82 10000 2 170 12:30 03.09.2019
2581 Clouds 16 1004 72 10000 2 180 11:58 03.09.2019
2582 Clouds 17 1004 67 10000 3 210 11:38 03.09.2019
2583 Clouds 17 1004 67 10000 3 210 11:38 03.09.2019
2584 Clouds 17 1004 72 10000 2 210 11:19 03.09.2019
2585 Clouds 17 1004 72 10000 2 210 10:54 03.09.2019
2586 Clouds 18 1004 68 10000 3 180 10:36 03.09.2019
2587 Clouds 17 1004 77 10000 2 150 10:18 03.09.2019
2588 Clouds 17 1004 77 10000 2 150 10:18 03.09.2019
2589 Rain 17 1005 77 10000 1 200 09:41 03.09.2019
2590 Rain 17 1005 77 10000 1 200 09:41 03.09.2019
2591 Rain 17 1005 77 10000 1 200 09:23 03.09.2019
2592 Clouds 16 1005 72 10000 3 140 08:41 03.09.2019
2593 Clouds 16 1005 72 10000 3 140 08:22 03.09.2019
2594 Clouds 17 1005 67 10000 3 130 07:57 03.09.2019
2595 Clouds 17 1005 72 10000 3 130 07:37 03.09.2019
2596 Clouds 16 1005 77 10000 3 140 07:18 03.09.2019
2597 Clouds 17 1006 77 10000 2 170 06:41 03.09.2019
2598 Rain 13 1006 87 10000 2 190 03:57 03.09.2019
2599 Rain 13 1006 82 10000 3 180 03:33 03.09.2019
2600 Clouds 13 1006 82 10000 2 190 02:40 03.09.2019
2601 Clear 12 1006 87 10000 2 180 02:21 03.09.2019
2602 Clear 11 1006 87 10000 1.62 250.67 01:45 03.09.2019
2603 Clear 11 1006 87 10000 1.62 250.67 01:45 03.09.2019
2604 Clear 9 1007 93 10000 1.37 247.438 01:25 03.09.2019
2605 Clear 9 1006 93 10000 1 230 00:31 03.09.2019
2606 Clear 7 1007 93 10000 2 220 23:58 02.09.2019
2607 Clear 6 1007 93 10000 1 220 23:37 02.09.2019
2608 Clear 6 1007 93 10000 1 220 23:37 02.09.2019
2609 Clear 5 1007 93 10000 1 250 23:19 02.09.2019
2610 Clear 5 1007 93 10000 1 250 22:55 02.09.2019
2611 Clear 5 1007 100 10000 1 300 22:36 02.09.2019
2612 Clear 6 1007 93 10000 1 290 22:18 02.09.2019
2613 Clear 6 1007 93 10000 1 290 21:55 02.09.2019
2614 Clear 5 1007 100 10000 2.87 257.87 21:37 02.09.2019
2615 Clear 5 1007 93 10000 2 270 21:18 02.09.2019
2616 Clear 5 1007 93 10000 2 270 20:42 02.09.2019
2617 Clear 5 1007 93 10000 2 270 20:42 02.09.2019
2618 Clear 5 1007 100 10000 1 270 20:23 02.09.2019
2619 Clear 5 1007 100 10000 1 270 19:59 02.09.2019
2620 Clear 6 1007 93 10000 1 270 19:41 02.09.2019
2621 Clear 6 1007 93 10000 1 270 19:22 02.09.2019
2622 Clear 7 1007 93 10000 1 260 18:57 02.09.2019
2623 Clear 7 1007 93 10000 1 260 18:37 02.09.2019
2624 Clear 8 1007 93 10000 1 300 18:18 02.09.2019
2625 Clear 8 1007 93 10000 3 300 17:54 02.09.2019
2626 Clear 8 1007 93 10000 3 300 17:54 02.09.2019
2627 Clear 8 1007 93 10000 3 300 17:36 02.09.2019
2628 Clear 8 1007 93 10000 2 290 17:18 02.09.2019
2629 Clear 8 1007 93 10000 2 290 17:18 02.09.2019
2630 Clear 8 1007 93 10000 2 310 16:40 02.09.2019
2631 Clouds 9 1007 93 10000 1 320 16:20 02.09.2019
2632 Clouds 10 1007 87 10000 1 300 15:52 02.09.2019
2633 Clouds 10 1007 87 10000 1 300 15:31 02.09.2019
2634 Clouds 12 1007 81 10000 2 230 14:58 02.09.2019
2635 Clouds 11 1007 87 10000 2 300 14:58 02.09.2019
2636 Clouds 12 1007 81 10000 2 230 14:40 02.09.2019
2637 Clouds 13 1007 76 10000 2 190 14:22 02.09.2019
2638 Clouds 13 1007 76 10000 2 190 13:59 02.09.2019
2639 Clouds 13 1007 76 10000 2 190 13:40 02.09.2019
2640 Clouds 14 1007 76 10000 1 140 13:22 02.09.2019
2641 Clouds 14 1007 71 10000 2 330 12:45 02.09.2019
2642 Clouds 14 1007 71 10000 2 330 12:45 02.09.2019
2643 Clouds 14 1007 71 10000 2 330 12:26 02.09.2019
2644 Clouds 16 1007 63 10000 7 300 11:59 02.09.2019
2645 Clouds 17 1007 59 10000 2 170 11:40 02.09.2019
2646 Clouds 18 1007 59 10000 3 140 11:21 02.09.2019
2647 Clouds 18 1007 59 10000 3 140 10:58 02.09.2019
2648 Clouds 18 1007 59 10000 3 130 10:39 02.09.2019
2649 Clouds 18 1007 59 10000 3 120 10:20 02.09.2019
2650 Clouds 18 1007 59 10000 3 120 09:57 02.09.2019
2651 Clear 18 1007 63 10000 3 120 09:37 02.09.2019
2652 Clear 18 1007 63 10000 2 100 09:18 02.09.2019
2653 Clear 17 1008 72 10000 2 120 08:39 02.09.2019
2654 Clear 17 1008 72 10000 2 120 08:39 02.09.2019
2655 Clear 16 1008 72 10000 2 100 08:18 02.09.2019
2656 Clouds 15 1008 77 10000 2.91 257.138 07:41 02.09.2019
2657 Rain 15 1008 82 10000 1 140 07:21 02.09.2019
2658 Clouds 15 1008 82 10000 1 40 06:48 02.09.2019
2659 Clouds 15 1008 82 10000 1 40 06:29 02.09.2019
2660 Rain 14 1009 76 10000 1 250 05:49 02.09.2019
2661 Rain 13 1009 82 10000 2 170 05:19 02.09.2019
2662 Rain 13 1009 82 10000 0.98 211.104 04:21 02.09.2019
2663 Clear 10 1009 87 10000 2 230 01:48 02.09.2019
2664 Clear 9 1010 93 10000 3 240 00:49 02.09.2019
2665 Clear 9 1010 93 10000 3 240 00:31 02.09.2019
2666 Clear 7 1010 100 10000 1 210 23:46 01.09.2019
2667 Clear 7 1010 100 10000 1 210 23:23 01.09.2019
2668 Clear 6 1010 93 10000 2 180 22:59 01.09.2019
2669 Clear 7 1010 93 10000 1 230 22:40 01.09.2019
2670 Clear 8 1010 93 10000 3 160 22:19 01.09.2019
2671 Clear 8 1010 93 10000 3 160 21:57 01.09.2019
2672 Clear 6 1010 93 10000 2.47 248.104 21:39 01.09.2019
2673 Clear 7 1010 93 10000 1 10 21:21 01.09.2019
2674 Clear 7 1010 93 10000 1 10 20:57 01.09.2019
2675 Clear 7 1010 93 10000 1 10 20:38 01.09.2019
2676 Clear 7 1010 93 10000 1 10 20:38 01.09.2019
2677 Clear 7 1010 87 10000 1 100 20:18 01.09.2019
2678 Clear 7 1010 87 10000 1 100 20:18 01.09.2019
2679 Clear 8 1010 87 10000 1 60 19:58 01.09.2019
2680 Clear 8 1010 87 10000 1 60 19:58 01.09.2019
2681 Clear 8 1010 87 10000 1 60 19:58 01.09.2019
2682 Clear 8 1010 87 10000 1 60 19:38 01.09.2019
2683 Clear 8 1010 87 10000 1 250 19:19 01.09.2019
2684 Clear 10 1010 81 10000 1 330 18:43 01.09.2019
2685 Clear 11 1010 81 10000 1 300 18:25 01.09.2019
2686 Clear 11 1010 81 10000 1 300 18:25 01.09.2019
2687 Clear 11 1010 81 10000 1 270 17:57 01.09.2019
2688 Clear 11 1010 81 10000 1 270 17:38 01.09.2019
2689 Clear 11 1010 81 10000 1 300 17:19 01.09.2019
2690 Clear 11 1010 81 10000 1 300 17:19 01.09.2019
2691 Clear 12 1010 81 10000 1 280 16:41 01.09.2019
2692 Clear 12 1010 81 10000 1 280 16:41 01.09.2019
2693 Clear 12 1011 87 10000 1 290 16:20 01.09.2019
2694 Clear 12 1011 87 10000 1 290 15:55 01.09.2019
2695 Clear 13 1011 82 10000 1 250 15:37 01.09.2019
2696 Clear 12 1011 81 10000 2 220 15:19 01.09.2019
2697 Clouds 12 1011 81 10000 1 170 14:41 01.09.2019
2698 Clouds 13 1011 76 10000 1 110 14:21 01.09.2019
2699 Clouds 13 1011 76 10000 1 110 13:58 01.09.2019
2700 Clouds 13 1011 76 10000 1.65 290.232 13:39 01.09.2019
2701 Clouds 16 1011 59 10000 1 20 13:20 01.09.2019
2702 Clouds 16 1011 63 10000 2 360 12:43 01.09.2019
2703 Clouds 16 1011 63 10000 2 360 12:25 01.09.2019
2704 Clouds 17 1011 55 10000 2 240 11:55 01.09.2019
2705 Clouds 17 1011 55 10000 2 240 11:37 01.09.2019
2706 Clouds 19 1011 45 10000 1 250 11:18 01.09.2019
2707 Clouds 18 1011 52 10000 2 130 10:43 01.09.2019
2708 Clouds 18 1011 52 10000 2 130 10:23 01.09.2019
2709 Clouds 18 1011 48 10000 3 230 09:47 01.09.2019
2710 Clouds 18 1011 48 10000 3 230 09:26 01.09.2019
2711 Clouds 18 1011 48 10000 4 220 08:46 01.09.2019
2712 Clouds 18 1011 48 10000 4 220 08:25 01.09.2019
2713 Clouds 18 1011 52 10000 5 220 07:59 01.09.2019
2714 Clouds 17 1012 59 10000 4 230 07:41 01.09.2019
2715 Clouds 16 1012 63 10000 2 190 07:19 01.09.2019
2716 Clouds 15 1012 77 10000 3 250 06:38 01.09.2019
2717 Rain 14 1013 76 10000 7 290 05:57 01.09.2019
2718 Rain 14 1013 76 10000 7 290 05:57 01.09.2019
2719 Clear 20 1013 42 10000 2 140 04:36 01.09.2019
2720 Clear 18 1013 48 10000 1 240 03:43 01.09.2019
2721 Clear 17 1013 51 10000 1 250 02:59 01.09.2019
2722 Clear 16 1013 55 10000 1 280 02:30 01.09.2019
2723 Clear 14 1013 62 10000 2 300 01:58 01.09.2019
2724 Clear 12 1013 71 10000 2 300 01:26 01.09.2019
2725 Clear 11 1013 76 10000 1 310 00:47 01.09.2019
2726 Clear 10 1013 81 10000 1 280 00:23 01.09.2019
2727 Clear 10 1013 81 10000 1 280 00:23 01.09.2019
2728 Clear 10 1013 81 10000 1 280 23:56 31.08.2019
2729 Clear 10 1013 81 10000 1 280 23:38 31.08.2019
2730 Clear 10 1013 81 10000 1 290 23:18 31.08.2019
2731 Clear 10 1013 81 10000 1 290 22:54 31.08.2019
2732 Clear 10 1013 81 10000 2 290 22:36 31.08.2019
2733 Clear 10 1013 81 10000 2 290 22:36 31.08.2019
2734 Clear 10 1013 81 10000 2 280 22:18 31.08.2019
2735 Clear 10 1012 76 10000 2 280 21:41 31.08.2019
2736 Clear 11 1012 71 10000 2 290 21:21 31.08.2019
2737 Clear 11 1012 71 10000 3 300 20:50 31.08.2019
2738 Clear 11 1012 71 10000 3 300 20:31 31.08.2019
2739 Clear 11 1012 71 10000 4 300 19:59 31.08.2019
2740 Clear 11 1012 71 10000 2 310 19:41 31.08.2019
2741 Clear 11 1012 71 10000 2 280 19:22 31.08.2019
2742 Clear 10 1012 81 10000 2 290 18:41 31.08.2019
2743 Clear 10 1012 81 10000 2 300 18:21 31.08.2019
2744 Clear 10 1012 81 10000 2 300 17:58 31.08.2019
2745 Clear 11 1012 76 10000 1 250 17:37 31.08.2019
2746 Clear 12 1012 71 10000 1 300 17:19 31.08.2019
2747 Clear 12 1012 71 10000 1 300 16:59 31.08.2019
2748 Clear 12 1012 71 10000 2 300 16:41 31.08.2019
2749 Clear 12 1012 76 10000 2 300 16:21 31.08.2019
2750 Clear 12 1012 76 10000 2 300 15:59 31.08.2019
2751 Smoke 12 1012 76 5000 2 280 15:38 31.08.2019
2752 Smoke 12 1012 76 5000 1 280 15:18 31.08.2019
2753 Smoke 12 1012 76 5000 1 260 14:42 31.08.2019
2754 Smoke 12 1012 76 5000 1 260 14:23 31.08.2019
2755 Smoke 13 1012 71 5000 1 180 13:56 31.08.2019
2756 Smoke 14 1012 62 5000 1 350 13:36 31.08.2019
2757 Smoke 14 1012 58 5000 1 300 13:18 31.08.2019
2758 Clear 15 1012 58 10000 1 270 12:41 31.08.2019
2759 Clear 16 1012 55 10000 1 80 12:21 31.08.2019
2760 Clear 16 1012 55 10000 1 80 11:59 31.08.2019
2761 Clear 18 1012 45 10000 1 70 11:40 31.08.2019
2762 Clear 18 1012 45 10000 1 70 11:22 31.08.2019
2763 Clear 20 1012 34 10000 2 70 10:54 31.08.2019
2764 Clear 20 1012 34 10000 3 70 10:36 31.08.2019
2765 Clear 20 1012 34 10000 3 70 10:18 31.08.2019
2766 Clear 20 1012 34 10000 3 70 10:18 31.08.2019
2767 Clear 20 1012 34 10000 3 70 09:40 31.08.2019
2768 Clear 20 1012 34 10000 2 10 09:21 31.08.2019
2769 Clear 20 1012 32 10000 2 360 08:45 31.08.2019
2770 Clear 20 1012 32 10000 2 360 08:27 31.08.2019
2771 Clear 20 1012 34 10000 2 10 07:43 31.08.2019
2772 Clear 19 1013 39 10000 3 60 07:23 31.08.2019
2773 Clear 19 1013 39 10000 3 60 06:59 31.08.2019
2774 Clear 19 1013 39 10000 2 20 06:23 31.08.2019
2775 Clear 18 1013 42 10000 3 70 05:49 31.08.2019
2776 Clear 18 1013 42 10000 3 70 05:27 31.08.2019
2777 Clear 17 1013 51 10000 1 80 04:28 31.08.2019
2778 Clear 16 1013 55 10000 1 330 03:42 31.08.2019
2779 Clear 13 1013 62 10000 2 290 02:22 31.08.2019
2780 Clear 12 1013 66 10000 2 300 01:47 31.08.2019
2781 Clear 12 1013 66 10000 2 300 01:28 31.08.2019
2782 Clear 10 1013 76 10000 2 290 00:45 31.08.2019
2783 Clear 9 1013 81 10000 2 300 00:27 31.08.2019
2784 Clear 9 1013 81 10000 2 300 00:27 31.08.2019
2785 Clear 9 1013 81 10000 2 290 23:49 30.08.2019
2786 Clear 8 1013 87 10000 2 250 23:19 30.08.2019
2787 Clear 8 1013 87 10000 2 250 23:19 30.08.2019
2788 Clear 8 1013 87 10000 2 250 22:58 30.08.2019
2789 Clear 8 1013 87 10000 2 270 22:38 30.08.2019
2790 Clear 9 1013 81 10000 2 280 22:19 30.08.2019
2791 Clear 9 1013 81 10000 2 280 21:56 30.08.2019
2792 Clear 9 1013 81 10000 2 290 21:36 30.08.2019
2793 Clear 9 1013 81 10000 3 300 21:18 30.08.2019
2794 Clear 9 1013 81 10000 3 300 20:55 30.08.2019
2795 Clear 9 1013 81 10000 3 300 20:37 30.08.2019
2796 Clear 9 1013 81 10000 2 320 20:18 30.08.2019
2797 Clear 9 1013 81 10000 1 310 19:41 30.08.2019
2798 Clear 10 1013 76 10000 2 310 19:22 30.08.2019
2799 Clear 10 1013 76 10000 3 310 18:59 30.08.2019
2800 Clear 10 1013 76 10000 3 310 18:41 30.08.2019
2801 Clear 9 1013 81 10000 3 300 18:23 30.08.2019
2802 Clear 10 1013 76 10000 3 300 17:56 30.08.2019
2803 Clear 10 1013 76 10000 3 300 17:38 30.08.2019
2804 Clear 10 1013 81 10000 3 290 17:18 30.08.2019
2805 Clear 9 1013 87 10000 4 300 16:46 30.08.2019
2806 Clear 9 1013 87 10000 4 300 16:27 30.08.2019
2807 Clear 9 1013 87 10000 3 300 15:57 30.08.2019
2808 Clear 10 1013 81 10000 4 300 15:38 30.08.2019
2809 Clear 10 1013 81 10000 4 300 15:38 30.08.2019
2810 Clear 10 1013 81 10000 2 290 15:19 30.08.2019
2811 Clear 11 1013 81 10000 3 290 14:42 30.08.2019
2812 Clear 11 1013 81 10000 3 290 14:42 30.08.2019
2813 Clear 11 1013 81 10000 3 290 14:24 30.08.2019
2814 Clear 12 1013 76 10000 3 300 13:56 30.08.2019
2815 Clear 13 1013 71 10000 3 290 13:37 30.08.2019
2816 Clear 14 1013 67 10000 2 290 13:19 30.08.2019
2817 Clear 15 1013 62 10000 2 300 12:42 30.08.2019
2818 Clear 17 1013 51 10000 2 290 12:22 30.08.2019
2819 Clear 19 1013 39 10000 1 300 11:43 30.08.2019
2820 -273 0 0 0 0 0 11:25 30.08.2019
2821 Clear 19 1013 42 10000 1.9 17.634 10:59 30.08.2019
2822 Clear 18 1013 45 10000 1 60 10:37 30.08.2019
2823 Clear 19 1013 42 10000 1 70 10:18 30.08.2019
2824 Clear 18 1013 45 10000 2 60 09:42 30.08.2019
2825 Clear 19 1013 39 10000 3 70 09:20 30.08.2019
2826 Clear 19 1013 39 10000 3 70 08:59 30.08.2019
2827 Clear 19 1013 39 10000 3 70 08:40 30.08.2019
2828 Clear 19 1013 37 10000 2 60 08:21 30.08.2019
2829 Clear 18 1013 39 10000 3 50 07:44 30.08.2019
2830 Clear 19 1013 39 10000 2 70 07:23 30.08.2019
2831 Clear 19 1013 37 10000 3 30 06:49 30.08.2019
2832 Clear 19 1013 37 10000 3 30 06:30 30.08.2019
2833 Clear 18 1014 39 10000 2 10 05:55 30.08.2019
2834 Clear 16 1014 51 10000 1 60 04:53 30.08.2019
2835 Clear 15 1014 51 10000 1 340 03:55 30.08.2019
2836 Clear 14 1014 58 10000 1 340 03:33 30.08.2019
2837 Clear 11 1014 71 10000 2 320 02:34 30.08.2019
2838 Clear 6 1014 93 10000 2 300 01:38 30.08.2019
2839 Clear 4 1014 93 10000 3 300 00:46 30.08.2019
2840 Clear 4 1014 93 10000 3 290 00:18 30.08.2019
2841 Clear 4 1014 93 10000 3 300 23:41 29.08.2019
2842 Clear 5 1014 93 10000 3 300 23:21 29.08.2019
2843 Clear 5 1014 93 10000 3 290 22:45 29.08.2019
2844 Clear 5 1014 93 10000 3 290 22:45 29.08.2019
2845 Clear 5 1014 93 10000 3 290 22:26 29.08.2019
2846 Clear 5 1014 93 10000 2 300 21:58 29.08.2019
2847 Clear 5 1013 93 10000 2 310 21:39 29.08.2019
2848 Clear 6 1013 93 10000 2 300 21:21 29.08.2019
2849 Clear 6 1013 93 10000 2 300 21:21 29.08.2019
2850 Clear 6 1013 93 10000 2 300 20:57 29.08.2019
2851 Clear 6 1013 93 10000 2 300 20:38 29.08.2019
2852 Clear 6 1013 93 10000 2 300 20:18 29.08.2019
2853 Clear 7 1013 87 10000 2 310 19:46 29.08.2019
2854 Clear 7 1013 93 10000 2 310 19:26 29.08.2019
2855 Clear 7 1013 93 10000 3 300 18:57 29.08.2019
2856 Clear 8 1013 93 10000 3 300 18:38 29.08.2019
2857 Clear 8 1013 93 10000 3 300 18:18 29.08.2019
2858 Clear 8 1013 93 10000 3 300 17:54 29.08.2019
2859 Clear 9 1013 93 10000 3 300 17:36 29.08.2019
2860 Clear 9 1013 93 10000 3 300 17:18 29.08.2019
2861 Clouds 11 1013 93 10000 3 300 16:41 29.08.2019
2862 Clouds 11 1013 93 10000 3 300 16:22 29.08.2019
2863 Clouds 11 1013 93 10000 3 300 15:41 29.08.2019
2864 Clouds 12 1013 93 10000 2 300 15:21 29.08.2019
2865 Clouds 12 1013 93 10000 2 300 14:58 29.08.2019
2866 Clouds 13 1013 87 10000 2 290 14:39 29.08.2019
2867 Clouds 13 1013 87 10000 2 290 14:20 29.08.2019
2868 Clouds 13 1013 87 10000 2 290 13:56 29.08.2019
2869 Clouds 13 1012 87 10000 1 230 13:37 29.08.2019
2870 Clouds 14 1012 87 10000 2 300 13:18 29.08.2019
2871 Clouds 14 1012 87 10000 2 300 12:56 29.08.2019
2872 Clouds 13 1012 93 10000 2.45 343.29 12:37 29.08.2019
2873 Clouds 14 1012 82 10000 1.49 56.023 12:19 29.08.2019
2874 Clouds 15 1012 82 10000 1 20 11:42 29.08.2019
2875 Clouds 16 1012 77 10000 2 50 11:21 29.08.2019
2876 Clouds 16 1012 77 10000 2 50 10:57 29.08.2019
2877 Clouds 15 1011 77 10000 3 40 10:38 29.08.2019
2878 Clouds 15 1011 77 10000 3 30 10:19 29.08.2019
2879 Clouds 15 1011 82 10000 2 50 09:41 29.08.2019
2880 Clouds 15 1011 82 10000 2 40 09:19 29.08.2019
2881 Clouds 15 1011 82 10000 2 350 08:49 29.08.2019
2882 Clouds 15 1011 82 10000 2 350 08:31 29.08.2019
2883 Clouds 15 1011 82 10000 3 360 07:58 29.08.2019
2884 Clouds 16 1011 77 10000 1 80 07:37 29.08.2019
2885 Clouds 16 1011 77 10000 1 60 07:18 29.08.2019
2886 Clouds 14 1011 87 10000 2 360 06:40 29.08.2019
2887 Clouds 14 1011 87 10000 1.6 14.791 05:52 29.08.2019
2888 Clouds 14 1011 87 10000 1.6 14.791 05:32 29.08.2019
2889 Clouds 14 1011 82 10000 2 30 04:49 29.08.2019
2890 Clouds 14 1011 82 10000 2 30 04:28 29.08.2019
2891 Clouds 12 1010 87 10000 1 340 02:18 29.08.2019
2892 Clouds 12 1010 87 10000 1 320 01:40 29.08.2019
2893 Clouds 11 1010 93 10000 1 260 00:48 29.08.2019
2894 Clouds 10 1010 93 10000 1 270 00:24 29.08.2019
2895 Clouds 10 1010 93 10000 1 270 23:59 28.08.2019
2896 Clouds 10 1010 93 10000 2 280 23:39 28.08.2019
2897 Clouds 10 1010 87 10000 1 280 23:21 28.08.2019
2898 Clouds 10 1010 87 10000 1 280 22:56 28.08.2019
2899 Clouds 10 1010 93 10000 3.36 289.359 22:38 28.08.2019
2900 Clouds 10 1010 93 10000 2 220 22:18 28.08.2019
2901 Clouds 11 1010 87 10000 3 270 21:43 28.08.2019
2902 Clouds 11 1010 87 10000 3 270 21:24 28.08.2019
2903 Clouds 11 1010 87 10000 2 300 20:59 28.08.2019
2904 Clouds 11 1010 87 10000 2 310 20:40 28.08.2019
2905 Clouds 11 1010 87 10000 1 350 20:22 28.08.2019
2906 Clouds 11 1010 87 10000 4 300 19:43 28.08.2019
2907 Clouds 11 1010 87 10000 3 280 19:22 28.08.2019
2908 Clouds 12 1010 81 10000 3 280 18:59 28.08.2019
2909 Clouds 12 1010 81 10000 3 280 18:39 28.08.2019
2910 Clouds 12 1010 81 10000 4 270 18:21 28.08.2019
2911 Clouds 12 1010 81 10000 4 270 17:39 28.08.2019
2912 Clouds 12 1010 81 10000 4 270 17:19 28.08.2019
2913 Clouds 12 1010 81 10000 4 270 16:55 28.08.2019
2914 Clouds 13 1010 76 10000 4 270 16:37 28.08.2019
2915 Clouds 13 1010 76 10000 4 280 16:18 28.08.2019
2916 Clouds 14 1010 67 10000 4 280 15:38 28.08.2019
2917 Clouds 15 1010 67 10000 4 280 15:20 28.08.2019
2918 Clouds 15 1010 67 10000 4 280 14:58 28.08.2019
2919 Clouds 16 1010 67 10000 4 250 14:39 28.08.2019
2920 Clouds 13 1010 87 10000 1 190 14:20 28.08.2019
2921 Clouds 13 1010 87 10000 1 190 13:58 28.08.2019
2922 Clouds 14 1010 82 10000 1 260 13:38 28.08.2019
2923 Clouds 16 1010 77 10000 2 270 13:19 28.08.2019
2924 Clouds 18 1010 68 10000 2 300 12:42 28.08.2019
2925 Clouds 18 1010 68 10000 2 300 12:42 28.08.2019
2926 Clouds 18 1010 68 10000 1 270 12:24 28.08.2019
2927 Clouds 18 1010 68 10000 1 270 11:57 28.08.2019
2928 Clouds 18 1010 68 10000 3 330 11:39 28.08.2019
2929 Clouds 18 1011 68 10000 3 310 11:20 28.08.2019
2930 -273 0 0 0 0 0 10:55 28.08.2019
2931 Clouds 18 1010 68 10000 4 280 10:37 28.08.2019
2932 Clouds 19 1010 63 10000 4 280 10:19 28.08.2019
2933 Clouds 19 1010 63 10000 6 270 09:41 28.08.2019
2934 Clouds 20 1010 60 10000 5 260 09:21 28.08.2019
2935 Clouds 21 1010 56 10000 8 240 08:40 28.08.2019
2936 Clouds 22 1010 46 10000 6 250 08:21 28.08.2019
2937 Clouds 22 1010 46 10000 6 250 07:59 28.08.2019
2938 Clouds 23 1010 40 10000 5 250 07:37 28.08.2019
2939 Clouds 22 1010 49 10000 3 190 07:18 28.08.2019
2940 Clouds 21 1010 49 10000 4 180 06:44 28.08.2019
2941 Clouds 22 1011 46 10000 3 150 05:52 28.08.2019
2942 Clear 21 1011 49 10000 3 160 04:28 28.08.2019
2943 Clear 16 1012 67 10000 1 120 01:56 28.08.2019
2944 Clear 14 1012 76 10000 1 200 01:30 28.08.2019
2945 Clear 11 1012 81 10000 1.78 246.552 00:43 28.08.2019
2946 Clear 9 1012 81 10000 1 290 00:22 28.08.2019
2947 Clear 8 1012 87 10000 2 300 23:43 27.08.2019
2948 Clear 7 1012 93 10000 1 290 23:22 27.08.2019
2949 Clear 7 1012 93 10000 1 290 23:22 27.08.2019
2950 Clear 7 1012 93 10000 1 290 22:57 27.08.2019
2951 Clear 7 1012 93 10000 1 290 22:39 27.08.2019
2952 Clear 7 1012 93 10000 1 290 22:39 27.08.2019
2953 Clear 7 1012 93 10000 2 310 22:20 27.08.2019
2954 Clear 7 1012 93 10000 2 310 21:56 27.08.2019
2955 Clear 8 1012 87 10000 2 310 21:37 27.08.2019
2956 Clear 7 1012 93 10000 2 310 21:18 27.08.2019
2957 Clear 8 1012 87 10000 2 300 20:42 27.08.2019
2958 Clear 8 1012 87 10000 2 310 20:22 27.08.2019
2959 Clear 8 1012 87 10000 2 310 19:59 27.08.2019
2960 Clear 9 1012 81 10000 2 300 19:40 27.08.2019
2961 Clear 9 1012 81 10000 2 300 19:22 27.08.2019
2962 Clear 9 1012 87 10000 2 310 18:55 27.08.2019
2963 Clear 9 1012 87 10000 2 310 18:36 27.08.2019
2964 Clear 9 1012 87 10000 1 270 18:18 27.08.2019
2965 Clear 8 1013 87 10000 1 280 17:42 27.08.2019
2966 Clear 8 1013 87 10000 1 280 17:23 27.08.2019
2967 Clear 10 1013 81 10000 1 270 16:48 27.08.2019
2968 Clear 10 1013 81 10000 1 270 16:28 27.08.2019
2969 Clear 11 1012 81 10000 2 270 15:58 27.08.2019
2970 Clear 12 1012 76 10000 3 290 15:40 27.08.2019
2971 Clear 13 1012 76 10000 2 280 15:21 27.08.2019
2972 Clear 13 1012 76 10000 2 280 14:58 27.08.2019
2973 Clear 14 1012 71 10000 2 260 14:40 27.08.2019
2974 Clear 15 1012 67 10000 2 250 14:20 27.08.2019
2975 Clear 15 1012 67 10000 1 250 13:42 27.08.2019
2976 Clear 15 1012 67 10000 1 250 13:42 27.08.2019
2977 Clear 17 1012 63 10000 1.59 303.161 13:23 27.08.2019
2978 Clear 17 1012 63 10000 1.59 303.161 12:55 27.08.2019
2979 Clear 20 1012 49 10000 1 70 12:37 27.08.2019
2980 Clear 22 1012 37 10000 2 40 12:18 27.08.2019
2981 Clear 22 1012 40 10000 2 60 11:43 27.08.2019
2982 Clear 22 1012 40 10000 2 60 11:24 27.08.2019
2983 Clear 23 1012 33 10000 2 50 10:42 27.08.2019
2984 Clear 23 1012 33 10000 3 50 10:21 27.08.2019
2985 Clear 23 1012 33 10000 3 50 09:58 27.08.2019
2986 Clear 24 1011 31 10000 2 60 09:38 27.08.2019
2987 Clear 24 1012 31 10000 4 10 09:20 27.08.2019
2988 Clear 24 1012 31 10000 4 10 08:54 27.08.2019
2989 Clear 24 1012 27 10000 5 340 08:36 27.08.2019
2990 Clear 24 1012 27 10000 4 330 08:18 27.08.2019
2991 Clear 24 1012 25 10000 4 340 07:39 27.08.2019
2992 Clear 24 1012 27 10000 3 320 07:19 27.08.2019
2993 Clear 23 1012 28 10000 2 350 06:51 27.08.2019
2994 Clear 22 1012 35 10000 1 140 06:23 27.08.2019
2995 Clear 23 1012 33 10000 1 110 05:36 27.08.2019
2996 Clear 21 1012 40 10000 1 40 04:37 27.08.2019
2997 Clear 19 1012 45 10000 2 300 03:34 27.08.2019
2998 Clear 16 1013 59 10000 2 300 02:23 27.08.2019
2999 Clear 14 1013 67 10000 3 290 01:40 27.08.2019
3000 Clear 13 1012 71 10000 2 290 00:58 27.08.2019
3001 Clear 11 1012 81 10000 4 300 00:39 27.08.2019
3002 Clear 10 1012 81 10000 3 300 00:19 27.08.2019
3003 Clear 10 1012 81 10000 3 290 23:37 26.08.2019
3004 Clear 9 1012 87 10000 2 290 23:19 26.08.2019
3005 Clear 10 1012 81 10000 3 300 22:39 26.08.2019
3006 Clear 10 1011 81 10000 4 300 22:19 26.08.2019
3007 Clear 10 1011 81 10000 4 300 21:57 26.08.2019
3008 Clear 11 1011 76 10000 4 300 21:37 26.08.2019
3009 Clear 11 1011 76 10000 4 300 21:19 26.08.2019
3010 Clear 11 1011 76 10000 3 300 20:55 26.08.2019
3011 Clear 12 1011 76 10000 4 310 20:37 26.08.2019
3012 Clear 12 1011 76 10000 4 310 20:37 26.08.2019
3013 Clear 12 1011 76 10000 4 310 20:37 26.08.2019
3014 Clear 12 1011 76 10000 4 310 20:18 26.08.2019
3015 Clear 12 1010 76 10000 4 300 19:42 26.08.2019
3016 Clear 12 1010 76 10000 4 300 19:19 26.08.2019
3017 Clear 13 1010 71 10000 4 300 18:58 26.08.2019
3018 Clear 13 1010 71 10000 4 300 18:38 26.08.2019
3019 Clear 13 1010 71 10000 4 300 18:19 26.08.2019
3020 Clear 14 1010 67 10000 4 300 17:44 26.08.2019
3021 Clear 14 1010 67 10000 4 300 17:20 26.08.2019
3022 Clear 14 1010 67 10000 4 300 16:57 26.08.2019
3023 Clear 14 1010 67 10000 4 300 16:57 26.08.2019
3024 Clear 14 1010 71 10000 4 300 16:39 26.08.2019
3025 Clear 14 1010 71 10000 4 300 16:19 26.08.2019
3026 Clear 14 1010 71 10000 3 300 15:55 26.08.2019
3027 Clear 14 1010 71 10000 3 300 15:55 26.08.2019
3028 Clear 14 1010 71 10000 3 300 15:37 26.08.2019
3029 Clear 14 1010 71 10000 3 300 15:18 26.08.2019
3030 Clear 16 1010 63 10000 3 290 14:43 26.08.2019
3031 Clear 16 1010 63 10000 3 290 14:23 26.08.2019
3032 Clear 16 1009 63 10000 3 290 13:56 26.08.2019
3033 Clear 18 1009 55 10000 2 290 13:37 26.08.2019
3034 Clear 18 1009 55 10000 2 290 13:18 26.08.2019
3035 Clear 21 1009 43 10000 3 310 12:43 26.08.2019
3036 Clear 21 1009 43 10000 3 310 12:22 26.08.2019
3037 Clear 23 1008 38 10000 4 310 11:44 26.08.2019
3038 Clear 23 1008 38 10000 4 310 11:26 26.08.2019
3039 Clouds 23 1008 38 10000 4 320 10:59 26.08.2019
3040 Clouds 23 1008 35 10000 5 320 10:40 26.08.2019
3041 Clouds 23 1008 35 10000 5 320 10:19 26.08.2019
3042 Clouds 23 1008 35 10000 5 320 10:19 26.08.2019
3043 Clouds 24 1008 33 10000 5 320 09:47 26.08.2019
3044 Clouds 24 1007 36 10000 5 330 09:26 26.08.2019
3045 Clouds 22 1007 43 10000 2 340 08:59 26.08.2019
3046 Clear 23 1007 40 10000 2 340 08:41 26.08.2019
3047 Clear 23 1007 40 10000 2 340 08:22 26.08.2019
3048 Clear 22 1008 46 10000 2 340 07:45 26.08.2019
3049 Clear 22 1008 46 10000 2 340 07:25 26.08.2019
3050 Clear 22 1008 46 10000 3 320 06:59 26.08.2019
3051 Clear 22 1008 49 10000 3 330 06:39 26.08.2019
3052 Clear 22 1008 49 10000 3 330 06:20 26.08.2019
3053 Clear 21 1008 52 10000 2 310 05:48 26.08.2019
3054 Clear 19 1008 59 10000 2 350 04:22 26.08.2019
3055 Clear 17 1008 63 10000 3 340 02:48 26.08.2019
3056 Clear 14 1008 76 10000 3 300 01:25 26.08.2019
3057 Clear 12 1007 81 10000 4 310 00:45 26.08.2019
3058 Clear 12 1007 81 10000 4 310 00:27 26.08.2019
3059 Clear 12 1007 87 10000 3 300 23:55 25.08.2019
3060 Clear 11 1007 87 10000 2 300 23:36 25.08.2019
3061 Clear 11 1007 87 10000 2 300 23:18 25.08.2019
3062 Clear 11 1007 93 10000 2 320 22:41 25.08.2019
3063 Clear 11 1007 93 10000 2 320 22:21 25.08.2019
3064 Clear 12 1007 87 10000 3 320 21:59 25.08.2019
3065 Clear 12 1007 87 10000 4 320 21:41 25.08.2019
3066 Clear 12 1007 87 10000 4 320 21:41 25.08.2019
3067 Clear 12 1007 87 10000 4 320 21:19 25.08.2019
3068 Clear 12 1006 87 10000 4 310 20:57 25.08.2019
3069 Clear 12 1006 87 10000 4 300 20:39 25.08.2019
3070 Clear 12 1006 87 10000 4 300 20:19 25.08.2019
3071 Clear 12 1006 87 10000 4 300 19:55 25.08.2019
3072 Clear 12 1006 87 10000 4 290 19:36 25.08.2019
3073 Clear 12 1006 87 10000 4 290 19:18 25.08.2019
3074 Clear 13 1006 82 10000 4 300 18:55 25.08.2019
3075 Clear 13 1006 82 10000 4 300 18:55 25.08.2019
3076 Clear 13 1006 82 10000 4 300 18:37 25.08.2019
3077 Clear 13 1006 82 10000 3 300 18:18 25.08.2019
3078 Clear 14 1006 76 10000 3 310 17:40 25.08.2019
3079 Clear 14 1006 76 10000 3 310 17:40 25.08.2019
3080 Clear 14 1006 76 10000 3 310 17:21 25.08.2019
3081 Clear 14 1006 76 10000 3 300 16:41 25.08.2019
3082 Clear 14 1006 76 10000 3 300 16:23 25.08.2019
3083 Clear 15 1006 77 10000 4 300 15:57 25.08.2019
3084 Clear 13 1006 82 10000 2 290 15:39 25.08.2019
3085 Clear 13 1006 82 10000 2 290 15:20 25.08.2019
3086 Clouds 15 1006 77 10000 3 310 14:40 25.08.2019
3087 Clouds 15 1006 77 10000 3 310 14:22 25.08.2019
3088 Clouds 16 1006 77 10000 3 350 13:46 25.08.2019
3089 Clouds 16 1006 77 10000 3 350 13:22 25.08.2019
3090 Clouds 16 1006 72 10000 2 330 12:56 25.08.2019
3091 Clouds 17 1006 72 10000 3 280 12:38 25.08.2019
3092 Clouds 18 1006 63 10000 3 270 12:20 25.08.2019
3093 Clouds 18 1006 63 10000 3 270 11:57 25.08.2019
3094 Clouds 17 1006 67 10000 3 270 11:37 25.08.2019
3095 Clouds 18 1006 59 10000 4 230 11:18 25.08.2019
3096 Clouds 18 1006 59 10000 4 230 10:55 25.08.2019
3097 Clouds 18 1006 55 10000 3 250 10:36 25.08.2019
3098 Clouds 18 1006 55 10000 3 250 10:18 25.08.2019
3099 Thunderstorm 19 1006 59 10000 3 260 09:42 25.08.2019
3100 Thunderstorm 19 1006 59 10000 3 260 09:23 25.08.2019
3101 Clouds 21 1006 49 10000 2 110 08:44 25.08.2019
3102 Clouds 21 1006 49 10000 2 110 08:23 25.08.2019
3103 Clouds 22 1006 46 10000 2 110 07:46 25.08.2019
3104 Clouds 22 1006 46 10000 2 110 07:23 25.08.2019
3105 Clear 21 1007 64 10000 3 120 06:37 25.08.2019
3106 Clear 19 1007 68 10000 2 130 05:27 25.08.2019
3107 Clouds 16 1008 82 10000 3 140 03:43 25.08.2019
3108 Clouds 16 1008 77 10000 1 140 02:42 25.08.2019
3109 Clouds 13 1008 93 10000 1 320 01:45 25.08.2019
3110 Fog 10 1009 93 500 1 290 00:44 25.08.2019
3111 Fog 10 1009 93 500 1 290 00:22 25.08.2019
3112 Fog 9 1009 93 150 1 280 23:54 24.08.2019
3113 Fog 9 1009 93 150 2 270 23:24 24.08.2019
3114 Fog 8 1009 100 200 2 270 22:59 24.08.2019
3115 Fog 9 1008 93 10000 1 250 22:40 24.08.2019
3116 Fog 9 1008 93 10000 1 250 22:19 24.08.2019
3117 Clear 9 1008 93 10000 2 270 21:58 24.08.2019
3118 Clear 9 1008 100 10000 2 300 21:39 24.08.2019
3119 Clear 9 1008 100 10000 2 300 21:21 24.08.2019
3120 Clear 9 1008 93 10000 2 320 20:57 24.08.2019
3121 Clear 9 1008 93 10000 3 310 20:38 24.08.2019
3122 Clear 9 1008 93 10000 3 310 20:19 24.08.2019
3123 Clear 9 1008 93 10000 1 290 19:57 24.08.2019
3124 Clear 9 1008 100 10000 1 310 19:38 24.08.2019
3125 Clear 9 1008 100 10000 1 310 19:38 24.08.2019
3126 Clear 9 1008 100 10000 1 310 19:20 24.08.2019
3127 Clear 10 1008 93 10000 1 290 18:46 24.08.2019
3128 Clear 10 1008 93 10000 1 290 18:24 24.08.2019
3129 Clear 11 1008 93 10000 1 230 17:46 24.08.2019
3130 Clear 11 1008 93 10000 1 230 17:28 24.08.2019
3131 Clear 11 1008 93 10000 2 300 16:57 24.08.2019
3132 Clear 12 1008 93 10000 1 340 16:38 24.08.2019
3133 Clear 12 1008 93 10000 1 340 16:19 24.08.2019
3134 Clear 12 1009 93 10000 1 220 15:44 24.08.2019
3135 Clear 12 1009 93 10000 1 220 15:26 24.08.2019
3136 Clear 13 1009 93 10000 3 210 14:57 24.08.2019
3137 Clouds 14 1009 93 10000 2 160 14:39 24.08.2019
3138 Clouds 14 1009 93 10000 2 160 14:18 24.08.2019
3139 Clouds 14 1009 93 10000 2 160 14:18 24.08.2019
3140 Clouds 14 1009 93 10000 2 200 13:54 24.08.2019
3141 Clouds 15 1009 87 10000 2 210 13:36 24.08.2019
3142 Clouds 15 1009 87 10000 2 210 13:18 24.08.2019
3143 Clear 18 1009 77 10000 2 160 12:41 24.08.2019
3144 Clear 18 1009 77 10000 2 160 12:22 24.08.2019
3145 Clear 18 1009 72 10000 1 180 11:52 24.08.2019
3146 Clear 18 1009 72 10000 2 140 11:32 24.08.2019
3147 Clouds 19 1009 68 10000 2 120 10:59 24.08.2019
3148 Clouds 19 1009 72 10000 1 120 10:40 24.08.2019
3149 Clouds 19 1009 72 10000 1 120 10:21 24.08.2019
3150 Clouds 19 1009 68 10000 2 210 09:42 24.08.2019
3151 Clouds 19 1009 68 10000 2 210 09:19 24.08.2019
3152 Clouds 18 1009 72 10000 2 260 08:43 24.08.2019
3153 Clouds 18 1009 72 10000 2 260 08:25 24.08.2019
3154 Thunderstorm 17 1009 77 10000 2 280 07:53 24.08.2019
3155 Thunderstorm 15 1010 87 10000 5 240 07:30 24.08.2019
3156 Rain 17 1010 77 10000 6 270 06:52 24.08.2019
3157 Rain 18 1010 77 10000 7 260 06:21 24.08.2019
3158 Clouds 20 1010 68 10000 4 200 05:36 24.08.2019
3159 Clear 18 1011 77 10000 1 180 03:50 24.08.2019
3160 Clear 17 1011 82 10000 1 160 03:31 24.08.2019
3161 Clouds 17 1011 82 10000 1 100 02:19 24.08.2019
3162 Clouds 15 1011 93 10000 1 150 01:29 24.08.2019
3163 Clouds 14 1011 93 10000 1 70 00:48 24.08.2019
3164 Rain 13 1011 93 10000 0.56 301.962 00:24 24.08.2019
3165 Clouds 12 1011 93 10000 3 300 23:47 23.08.2019
3166 Clouds 11 1011 93 10000 2 280 23:23 23.08.2019
3167 Clouds 10 1011 100 10000 1 300 22:58 23.08.2019
3168 Clouds 11 1011 93 10000 1 300 22:40 23.08.2019
3169 Clouds 11 1011 93 10000 1 300 22:20 23.08.2019
3170 Clear 11 1011 93 10000 2 310 21:38 23.08.2019
3171 Clear 11 1011 93 10000 2 310 21:19 23.08.2019
3172 Clear 11 1011 93 10000 2 310 20:53 23.08.2019
3173 Clear 11 1011 100 10000 1 320 20:35 23.08.2019
3174 Clear 11 1011 100 10000 1.72 296.565 19:58 23.08.2019
3175 Clear 12 1011 93 10000 2 290 19:40 23.08.2019
3176 Clear 12 1011 93 10000 2 290 19:18 23.08.2019
3177 Clear 13 1011 93 10000 1.72 296.565 18:42 23.08.2019
3178 Clear 13 1011 93 10000 1.33 232.897 18:24 23.08.2019
3179 Clear 14 1011 93 10000 2 270 17:46 23.08.2019
3180 Clear 14 1011 93 10000 2 270 17:28 23.08.2019
3181 Clear 15 1011 87 10000 2 270 16:59 23.08.2019
3182 Clear 15 1011 93 10000 2 280 16:40 23.08.2019
3183 Clear 15 1011 93 10000 2 280 16:22 23.08.2019
3184 Clear 17 1012 82 10000 2 270 15:41 23.08.2019
3185 Clear 17 1012 82 10000 2 270 15:22 23.08.2019
3186 Clear 17 1011 82 10000 1.21 172.646 14:59 23.08.2019
3187 Clear 17 1012 82 10000 1 330 14:40 23.08.2019
3188 Clear 17 1012 82 10000 1 330 14:20 23.08.2019
3189 Clear 18 1012 77 10000 1 340 13:56 23.08.2019
3190 Clouds 18 1012 77 10000 2 10 13:38 23.08.2019
3191 Clouds 18 1012 77 10000 2 10 13:19 23.08.2019
3192 Clouds 19 1012 77 10000 2 340 12:54 23.08.2019
3193 Clouds 20 1012 68 10000 1 320 12:36 23.08.2019
3194 Clouds 20 1012 68 10000 1 320 12:18 23.08.2019
3195 Clouds 20 1011 68 10000 2 280 11:54 23.08.2019
3196 Clouds 21 1011 64 10000 3 300 11:36 23.08.2019
3197 Clouds 21 1011 64 10000 3 300 11:18 23.08.2019
3198 Clouds 23 1011 53 10000 5 290 10:42 23.08.2019
3199 Clouds 23 1011 53 10000 5 290 10:21 23.08.2019
3200 Clouds 25 1011 41 10000 3 170 09:48 23.08.2019
3201 Clear 25 1011 38 10000 3 170 09:30 23.08.2019
3202 Clear 25 1011 41 10000 3 180 08:59 23.08.2019
3203 Clear 25 1011 44 10000 3 160 08:39 23.08.2019
3204 Clear 25 1011 44 10000 3 160 08:39 23.08.2019
3205 Clear 24 1012 47 10000 3 160 08:19 23.08.2019
3206 Clear 24 1012 47 10000 3 160 07:42 23.08.2019
3207 Clear 24 1012 47 10000 3 160 07:24 23.08.2019
3208 Clear 24 1012 44 10000 3 170 06:57 23.08.2019
3209 Clear 24 1013 47 10000 3 130 06:37 23.08.2019
3210 Clear 24 1013 47 10000 3 130 06:19 23.08.2019
3211 Clear 22 1013 53 10000 2 160 05:33 23.08.2019
3212 Clear 20 1013 64 10000 1 170 04:20 23.08.2019
3213 Clear 18 1014 77 10000 1 80 02:58 23.08.2019
3214 Clear 18 1014 77 10000 1 80 02:23 23.08.2019
3215 Clear 15 1014 87 10000 1 330 01:40 23.08.2019
3216 Clear 14 1014 87 10000 1 320 00:45 23.08.2019
3217 Clear 14 1014 87 10000 1 320 00:19 23.08.2019
3218 Clear 13 1014 93 10000 1 310 23:47 22.08.2019
3219 Clear 13 1014 93 10000 2 290 23:25 22.08.2019
3220 Clear 13 1014 93 10000 1 310 22:56 22.08.2019
3221 Clear 13 1014 93 10000 2 310 22:38 22.08.2019
3222 Clear 13 1014 93 10000 2 310 22:19 22.08.2019
3223 Clear 13 1014 87 10000 1 310 21:55 22.08.2019
3224 Clear 13 1014 93 10000 1 310 21:37 22.08.2019
3225 Clear 13 1014 93 10000 1 310 21:18 22.08.2019
3226 Clear 13 1014 93 10000 2 310 20:55 22.08.2019
3227 Clear 14 1014 87 10000 2 310 20:37 22.08.2019
3228 Clear 14 1014 87 10000 2 310 20:18 22.08.2019
3229 Clear 14 1014 87 10000 1 310 19:40 22.08.2019
3230 Clear 14 1014 87 10000 1 310 19:22 22.08.2019
3231 Clear 14 1014 87 10000 1 310 18:59 22.08.2019
3232 Clear 14 1014 87 10000 1 310 18:41 22.08.2019
3233 Clear 14 1014 87 10000 1 310 18:20 22.08.2019
3234 Clear 14 1014 93 10000 1 320 17:58 22.08.2019
3235 Clear 14 1014 93 10000 1 320 17:58 22.08.2019
3236 Clear 14 1014 93 10000 1 320 17:58 22.08.2019
3237 Clear 15 1014 87 10000 2 340 17:39 22.08.2019
3238 Clear 14 1014 93 10000 1 310 17:20 22.08.2019
3239 Clear 14 1014 93 10000 1 310 16:56 22.08.2019
3240 Clear 14 1014 93 10000 1 340 16:38 22.08.2019
3241 Clear 14 1014 93 10000 1 340 16:20 22.08.2019
3242 Clear 14 1014 93 10000 1 340 16:19 22.08.2019
3243 Clear 14 1014 93 10000 1 340 16:19 22.08.2019
3244 Clear 14 1014 93 10000 2 300 15:54 22.08.2019
3245 Clear 14 1014 93 10000 2 300 15:54 22.08.2019
3246 Clear 14 1014 87 10000 2 300 15:36 22.08.2019
3247 Clear 14 1014 87 10000 2 300 15:18 22.08.2019
3248 Clear 15 1014 87 10000 1 20 14:41 22.08.2019
3249 Clear 15 1014 87 10000 1 20 14:22 22.08.2019
3250 Clear 15 1014 87 10000 1 40 13:59 22.08.2019
3251 Clear 17 1014 82 10000 1 40 13:40 22.08.2019
3252 Clear 17 1014 82 10000 1 40 13:20 22.08.2019
3253 Clear 19 1014 72 10000 1 60 12:56 22.08.2019
3254 Clear 21 1014 64 10000 1 50 12:38 22.08.2019
3255 Clear 21 1014 64 10000 1 50 12:19 22.08.2019
3256 Clear 20 1014 64 10000 2 30 11:42 22.08.2019
3257 Clear 20 1014 64 10000 2 30 11:21 22.08.2019
3258 Clear 21 1014 60 10000 2 30 10:58 22.08.2019
3259 Clear 21 1014 60 10000 2 30 10:40 22.08.2019
3260 Clear 21 1014 60 10000 2 30 10:22 22.08.2019
3261 Clouds 21 1014 60 10000 2 40 09:57 22.08.2019
3262 Clouds 21 1014 60 10000 2 50 09:39 22.08.2019
3263 Clouds 21 1014 56 10000 1 90 09:20 22.08.2019
3264 Clouds 21 1014 56 10000 1 90 08:54 22.08.2019
3265 Clouds 21 1015 60 10000 1 70 08:36 22.08.2019
3266 Clear 21 1015 60 10000 2 60 08:18 22.08.2019
3267 Clear 21 1015 60 10000 2 60 07:39 22.08.2019
3268 Clear 21 1015 60 10000 2 60 07:19 22.08.2019
3269 Clear 20 1015 68 10000 2 90 06:48 22.08.2019
3270 Clear 20 1015 68 10000 2 90 06:23 22.08.2019
3271 Clear 19 1016 68 10000 2 90 05:36 22.08.2019
3272 Clouds 18 1016 72 10000 2 50 04:20 22.08.2019
3273 Clouds 17 1016 72 10000 1 60 02:38 22.08.2019
3274 Clouds 16 1016 87 10000 2 360 01:45 22.08.2019
3275 Clouds 16 1016 87 10000 2 360 01:21 22.08.2019
3276 Clouds 15 1016 87 10000 2 340 00:41 22.08.2019
3277 Clouds 15 1016 87 10000 2 350 00:22 22.08.2019
3278 Clouds 15 1016 87 10000 2 350 23:48 21.08.2019
3279 Clouds 15 1016 87 10000 3 360 23:29 21.08.2019
3280 Clouds 14 1016 93 10000 2 340 22:59 21.08.2019
3281 Clouds 14 1016 93 10000 2 340 22:40 21.08.2019
3282 Clouds 14 1016 93 10000 2 340 22:21 21.08.2019
3283 Clouds 14 1016 93 10000 2 340 21:58 21.08.2019
3284 Clouds 14 1016 93 10000 2 340 21:38 21.08.2019
3285 Clouds 14 1016 93 10000 2 340 21:20 21.08.2019
3286 Clouds 14 1017 93 10000 2 360 20:58 21.08.2019
3287 Clouds 14 1017 93 10000 2 360 20:39 21.08.2019
3288 Clouds 14 1017 93 10000 2 360 20:20 21.08.2019
3289 Clouds 14 1017 93 10000 2 330 19:44 21.08.2019
3290 Clouds 14 1017 93 10000 2 330 19:25 21.08.2019
3291 Clouds 15 1017 87 10000 2 340 18:59 21.08.2019
3292 Clouds 15 1017 87 10000 2 340 18:59 21.08.2019
3293 Clouds 15 1017 87 10000 2 340 18:40 21.08.2019
3294 Clouds 15 1017 87 10000 2 340 18:22 21.08.2019
3295 Clouds 15 1017 87 10000 2 340 17:45 21.08.2019
3296 Clouds 15 1017 87 10000 2 340 17:25 21.08.2019
3297 Clouds 15 1017 87 10000 2 340 16:59 21.08.2019
3298 Clouds 15 1017 87 10000 2 330 16:40 21.08.2019
3299 Clouds 15 1017 87 10000 2 330 16:21 21.08.2019
3300 Clouds 15 1017 87 10000 2 340 15:58 21.08.2019
3301 Clouds 15 1017 87 10000 2 340 15:58 21.08.2019
3302 Clouds 15 1017 87 10000 2 340 15:39 21.08.2019
3303 Clouds 15 1017 87 10000 2 340 15:20 21.08.2019
3304 Clouds 15 1017 87 10000 2 330 14:57 21.08.2019
3305 Clouds 15 1017 87 10000 2 330 14:38 21.08.2019
3306 Clouds 15 1017 87 10000 2 330 14:19 21.08.2019
3307 Clouds 16 1017 82 10000 2 340 13:44 21.08.2019
3308 Clouds 16 1017 82 10000 2 340 13:22 21.08.2019
3309 Clouds 16 1017 82 10000 2 350 12:59 21.08.2019
3310 Rain 17 1017 82 10000 1 20 12:40 21.08.2019
3311 Rain 17 1017 82 10000 1 20 12:21 21.08.2019
3312 Clouds 17 1017 77 10000 2 320 11:58 21.08.2019
3313 Clouds 18 1017 72 10000 2 330 11:39 21.08.2019
3314 Clouds 18 1017 72 10000 2 330 11:21 21.08.2019
3315 Clouds 17 1017 72 10000 1 40 10:56 21.08.2019
3316 Clouds 18 1017 68 10000 1 90 10:37 21.08.2019
3317 Clouds 18 1017 68 10000 1 90 10:19 21.08.2019
3318 Rain 17 1017 77 10000 2 170 09:43 21.08.2019
3319 Rain 17 1017 77 10000 2 170 09:24 21.08.2019
3320 Clouds 18 1017 72 10000 2 40 08:59 21.08.2019
3321 Clouds 18 1017 68 10000 2 40 08:41 21.08.2019
3322 Clouds 18 1017 68 10000 2 40 08:23 21.08.2019
3323 Clouds 18 1017 68 10000 2 70 07:41 21.08.2019
3324 Clouds 18 1017 68 10000 2 70 07:22 21.08.2019
3325 Clouds 18 1017 68 10000 3 60 06:49 21.08.2019
3326 Clouds 18 1017 68 10000 3 60 06:22 21.08.2019
3327 Clouds 18 1018 72 10000 2 70 05:42 21.08.2019
3328 Clouds 18 1018 72 10000 2 70 05:23 21.08.2019
3329 Clouds 16 1018 77 10000 2 70 03:39 21.08.2019
3330 Clouds 15 1018 82 10000 2 90 01:50 21.08.2019
3331 Clouds 13 1018 93 10000 2 20 00:46 21.08.2019
3332 Clouds 13 1018 93 10000 2 20 00:24 21.08.2019
3333 Clouds 13 1018 93 10000 1 340 23:59 20.08.2019
3334 Clouds 13 1018 93 10000 1 350 23:41 20.08.2019
3335 Clouds 13 1018 93 10000 1 350 23:19 20.08.2019
3336 Clouds 13 1018 87 10000 1 30 22:56 20.08.2019
3337 Clouds 12 1018 93 10000 1 20 22:37 20.08.2019
3338 Clouds 12 1018 93 10000 1 20 22:19 20.08.2019
3339 Clouds 12 1018 93 10000 1 20 21:57 20.08.2019
3340 Clouds 12 1017 93 10000 1 50 21:37 20.08.2019
3341 Clouds 12 1017 93 10000 1 50 21:19 20.08.2019
3342 Clouds 13 1017 93 10000 2 60 20:43 20.08.2019
3343 Clouds 13 1017 93 10000 2 60 20:24 20.08.2019
3344 Clouds 13 1017 93 10000 2 60 20:24 20.08.2019
3345 Clouds 13 1017 93 10000 2 40 19:59 20.08.2019
3346 Clouds 13 1017 93 10000 1 360 19:39 20.08.2019
3347 Clouds 13 1017 93 10000 1 360 19:20 20.08.2019
3348 Clouds 13 1017 93 10000 1 40 18:55 20.08.2019
3349 Clouds 9 1017 98 0 1.28 103.84 18:37 20.08.2019
3350 Clouds 11 1017 98 0 2.25 115.904 18:18 20.08.2019
3351 Clouds 13 1017 93 10000 2 90 17:54 20.08.2019
3352 Clouds 13 1017 93 10000 2 90 17:36 20.08.2019
3353 Clouds 13 1017 93 10000 2 90 17:18 20.08.2019
3354 Rain 13 1017 93 10000 3 100 16:41 20.08.2019
3355 Rain 13 1017 93 10000 3 100 16:23 20.08.2019
3356 Clouds 14 1017 87 10000 2 110 15:42 20.08.2019
3357 Clouds 14 1017 93 10000 2 100 15:19 20.08.2019
3358 Clouds 14 1017 93 10000 2 100 14:56 20.08.2019
3359 Clouds 14 1017 87 10000 2 100 14:38 20.08.2019
3360 Clouds 14 1017 87 10000 2 100 14:38 20.08.2019
3361 Clouds 14 1017 93 10000 3 100 14:19 20.08.2019
3362 Clouds 14 1017 93 10000 3 100 13:55 20.08.2019
3363 Clouds 15 1017 87 10000 2 80 13:37 20.08.2019
3364 Clouds 15 1016 87 10000 2 80 13:18 20.08.2019
3365 Clouds 15 1016 87 10000 2 50 12:48 20.08.2019
3366 Clouds 15 1016 87 10000 2 50 12:24 20.08.2019
3367 Clouds 15 1016 87 10000 2 30 11:56 20.08.2019
3368 Clouds 15 1016 87 10000 2 40 11:38 20.08.2019
3369 Rain 15 1016 87 10000 2 50 11:18 20.08.2019
3370 Rain 15 1016 87 10000 2 50 10:56 20.08.2019
3371 Rain 15 1016 93 10000 2 360 10:37 20.08.2019
3372 Rain 15 1016 87 10000 2 10 10:18 20.08.2019
3373 Rain 15 1016 87 10000 2 30 09:41 20.08.2019
3374 Rain 15 1016 87 10000 2 30 09:22 20.08.2019
3375 Rain 16 1016 82 10000 3 70 08:43 20.08.2019
3376 Rain 16 1016 82 10000 3 70 08:24 20.08.2019
3377 Clouds 17 1016 72 10000 2 90 07:58 20.08.2019
3378 Clouds 17 1016 72 10000 2 90 07:40 20.08.2019
3379 Clouds 17 1016 72 10000 2 100 07:22 20.08.2019
3380 Clouds 17 1016 72 10000 2 100 06:55 20.08.2019
3381 Rain 16 1016 77 10000 2 90 06:22 20.08.2019
3382 Rain 15 1016 82 10000 2 90 05:48 20.08.2019
3383 Rain 15 1016 82 10000 2 80 04:56 20.08.2019
3384 Rain 14 1016 87 10000 2 80 03:37 20.08.2019
3385 Rain 14 1016 87 10000 2 90 02:34 20.08.2019
3386 Rain 13 1016 93 10000 1 70 01:24 20.08.2019
3387 Rain 13 1016 87 10000 2 70 00:48 20.08.2019
3388 Rain 13 1016 87 10000 2 70 00:48 20.08.2019
3389 Rain 13 1016 87 10000 2 70 00:30 20.08.2019
3390 Rain 12 1016 93 10000 2 80 23:52 19.08.2019
3391 Rain 12 1016 93 10000 2 80 23:19 19.08.2019
3392 Rain 12 1016 93 10000 2 80 22:59 19.08.2019
3393 Rain 12 1016 93 10000 2 90 22:41 19.08.2019
3394 Rain 12 1016 93 10000 2 100 22:21 19.08.2019
3395 Rain 12 1016 93 10000 2 100 21:58 19.08.2019
3396 Rain 13 1016 87 10000 2 110 21:39 19.08.2019
3397 Rain 13 1016 87 10000 2 90 21:20 19.08.2019
3398 Rain 13 1016 87 10000 2 90 20:58 19.08.2019
3399 Rain 13 1016 87 10000 2 70 20:38 19.08.2019
3400 Rain 13 1016 87 10000 1 20 20:19 19.08.2019
3401 Rain 13 1016 87 10000 1 20 19:55 19.08.2019
3402 Rain 13 1016 87 10000 1 20 19:55 19.08.2019
3403 Rain 13 1016 93 10000 1 90 19:37 19.08.2019
3404 Rain 13 1016 93 10000 1 90 19:18 19.08.2019
3405 Rain 13 1016 93 10000 1 90 19:18 19.08.2019
3406 Rain 13 1016 93 10000 2 110 18:44 19.08.2019
3407 Rain 13 1016 93 10000 3 90 18:26 19.08.2019
3408 Rain 13 1016 93 10000 2 100 17:58 19.08.2019
3409 Rain 13 1016 93 10000 2 100 17:40 19.08.2019
3410 Rain 13 1016 93 10000 2 100 17:19 19.08.2019
3411 Rain 13 1016 93 10000 2 100 16:58 19.08.2019
3412 Rain 13 1016 87 10000 3 100 16:37 19.08.2019
3413 Rain 13 1016 87 10000 3 100 16:18 19.08.2019
3414 Clouds 14 1016 82 10000 4 120 15:45 19.08.2019
3415 Clouds 14 1016 82 10000 4 120 15:20 19.08.2019
3416 Clouds 14 1016 82 10000 4 100 14:58 19.08.2019
3417 Clouds 14 1016 82 10000 4 110 14:38 19.08.2019
3418 Clouds 14 1016 82 10000 4 110 14:20 19.08.2019
3419 Rain 14 1016 82 10000 4 100 13:57 19.08.2019
3420 Rain 14 1016 82 10000 5 110 13:37 19.08.2019
3421 Rain 14 1016 82 10000 5 110 13:19 19.08.2019
3422 Rain 14 1016 87 10000 2 90 12:44 19.08.2019
3423 Rain 14 1016 87 10000 2 90 12:24 19.08.2019
3424 Rain 14 1016 82 10000 3 110 11:57 19.08.2019
3425 Clouds 15 1016 77 10000 4 120 11:37 19.08.2019
3426 Clouds 15 1016 77 10000 2 120 11:18 19.08.2019
3427 Rain 15 1016 77 10000 3 120 10:40 19.08.2019
3428 Rain 15 1016 77 10000 3 120 10:19 19.08.2019
3429 Rain 16 1015 77 10000 3 110 09:57 19.08.2019
3430 Rain 16 1015 72 10000 3 120 09:39 19.08.2019
3431 Rain 16 1015 72 10000 3 120 09:39 19.08.2019
3432 Rain 16 1015 72 10000 3 120 09:21 19.08.2019
3433 Clouds 17 1015 63 10000 3 120 08:46 19.08.2019
3434 Clouds 17 1015 63 10000 2 100 08:25 19.08.2019
3435 Clouds 17 1015 63 10000 3 110 07:59 19.08.2019
3436 Clouds 17 1015 59 10000 5 120 07:40 19.08.2019
3437 Clouds 17 1015 59 10000 5 120 07:21 19.08.2019
3438 Clouds 17 1015 59 10000 5 120 06:42 19.08.2019
3439 Clouds 17 1015 59 10000 5 120 05:54 19.08.2019
3440 Clouds 15 1015 67 10000 5 130 04:35 19.08.2019
3441 Clouds 15 1015 67 10000 5 120 03:59 19.08.2019
3442 Clouds 15 1015 72 10000 4 120 03:19 19.08.2019
3443 Rain 13 1014 82 10000 3 120 01:46 19.08.2019
3444 Rain 13 1014 82 10000 4 120 00:59 19.08.2019
3445 Rain 13 1014 82 10000 5 130 00:38 19.08.2019
3446 Rain 13 1014 82 10000 5 130 00:18 19.08.2019
3447 Clear 14 1014 71 10000 5 130 23:40 18.08.2019
3448 Clear 14 1014 71 10000 5 130 23:20 18.08.2019
3449 Clear 14 1014 71 10000 5 130 23:20 18.08.2019
3450 Clear 14 1014 71 10000 5 130 22:40 18.08.2019
3451 Clear 14 1014 71 10000 5 130 22:22 18.08.2019
3452 Clouds 14 1013 71 10000 4 120 21:58 18.08.2019
3453 Clouds 14 1013 71 10000 5 110 21:40 18.08.2019
3454 Clouds 14 1013 71 10000 5 110 21:20 18.08.2019
3455 Clouds 14 1013 71 10000 5 110 20:58 18.08.2019
3456 Clouds 14 1013 71 10000 4 110 20:40 18.08.2019
3457 Clouds 14 1013 71 10000 4 110 20:22 18.08.2019
3458 Clouds 14 1013 71 10000 4 120 19:42 18.08.2019
3459 Clouds 14 1013 71 10000 4 120 19:24 18.08.2019
3460 Clouds 14 1013 71 10000 5 120 18:59 18.08.2019
3461 Clouds 14 1013 76 10000 4 120 18:40 18.08.2019
3462 Clouds 14 1013 76 10000 4 120 18:21 18.08.2019
3463 Clouds 14 1013 76 10000 4 120 18:21 18.08.2019
3464 Clouds 14 1013 76 10000 4 120 17:55 18.08.2019
3465 Clouds 14 1013 76 10000 4 120 17:37 18.08.2019
3466 Clouds 14 1013 76 10000 4 120 17:18 18.08.2019
3467 Clouds 13 1013 82 10000 4 110 16:55 18.08.2019
3468 Clouds 13 1013 87 10000 4 100 16:37 18.08.2019
3469 Clouds 13 1013 87 10000 4 100 16:18 18.08.2019
3470 Rain 13 1013 87 10000 4 110 15:40 18.08.2019
3471 Rain 13 1013 87 10000 4 110 15:20 18.08.2019
3472 Rain 13 1013 87 10000 4 100 14:58 18.08.2019
3473 Rain 13 1013 87 10000 5 100 14:39 18.08.2019
3474 Rain 13 1013 87 10000 5 100 14:19 18.08.2019
3475 Clouds 14 1013 76 10000 4 110 13:56 18.08.2019
3476 Clouds 14 1013 76 10000 5 110 13:38 18.08.2019
3477 Clouds 14 1013 76 10000 5 110 13:20 18.08.2019
3478 Rain 14 1013 82 10000 5 100 12:45 18.08.2019
3479 Rain 14 1013 82 10000 5 100 12:23 18.08.2019
3480 Rain 13 1013 87 10000 4 100 11:59 18.08.2019
3481 Clouds 13 1013 82 10000 4 110 11:40 18.08.2019
3482 Clouds 13 1013 82 10000 4 110 11:21 18.08.2019
3483 Rain 14 1013 76 10000 6 120 10:41 18.08.2019
3484 Rain 14 1013 76 10000 5 120 10:22 18.08.2019
3485 Rain 14 1013 76 10000 5 120 10:22 18.08.2019
3486 Rain 14 1013 76 10000 5 120 09:55 18.08.2019
3487 Clouds 16 1013 59 10000 9 150 09:36 18.08.2019
3488 Clouds 18 1013 48 10000 7 140 09:18 18.08.2019
3489 Clouds 18 1013 52 10000 6 140 08:42 18.08.2019
3490 Clouds 18 1013 52 10000 6 140 08:24 18.08.2019
3491 Clouds 18 1012 52 10000 5 140 07:49 18.08.2019
3492 Clouds 18 1012 59 10000 4 170 07:29 18.08.2019
3493 Clouds 19 1012 55 10000 4 110 05:50 18.08.2019
3494 Clouds 19 1012 52 10000 5 60 04:55 18.08.2019
3495 Clouds 17 1014 63 10000 5 50 03:43 18.08.2019
3496 Clouds 16 1014 67 10000 5 30 02:48 18.08.2019
3497 Clouds 15 1014 72 10000 4 20 02:25 18.08.2019
3498 Clouds 14 1014 82 10000 5 10 01:47 18.08.2019
3499 Rain 14 1015 76 10000 3 350 01:22 18.08.2019
3500 Clouds 14 1016 71 10000 4.37 108.501 00:39 18.08.2019
3501 Clouds 14 1016 71 10000 4.25 82.816 00:19 18.08.2019
3502 Clouds 14 1016 71 10000 2 60 23:57 17.08.2019
3503 Clouds 13 1016 82 10000 2 340 23:37 17.08.2019
3504 Clouds 13 1016 82 10000 2 340 23:18 17.08.2019
3505 Clouds 13 1016 76 10000 2 320 22:56 17.08.2019
3506 Clouds 14 1016 67 10000 2 90 22:38 17.08.2019
3507 Clouds 14 1016 67 10000 2 90 22:20 17.08.2019
3508 Clear 14 1016 71 10000 2 100 21:42 17.08.2019
3509 Clear 14 1016 71 10000 2 100 21:23 17.08.2019
3510 Clear 15 1016 67 10000 2 110 20:56 17.08.2019
3511 Clear 15 1016 67 10000 2 70 20:36 17.08.2019
3512 Clear 15 1016 67 10000 2 70 20:18 17.08.2019
3513 Clear 15 1016 67 10000 3 120 19:41 17.08.2019
3514 Clear 15 1016 67 10000 3 120 19:22 17.08.2019
3515 Clear 15 1016 67 10000 3 120 19:22 17.08.2019
3516 Clear 15 1015 67 10000 2 80 18:55 17.08.2019
3517 Clear 15 1016 67 10000 1 110 18:37 17.08.2019
3518 Clear 16 1016 63 10000 2 120 18:18 17.08.2019
3519 Clear 16 1015 63 10000 2 170 17:42 17.08.2019
3520 Clear 16 1015 63 10000 2 170 17:22 17.08.2019
3521 Clear 17 1015 59 10000 2 140 16:56 17.08.2019
3522 Clear 17 1015 59 10000 4 160 16:37 17.08.2019
3523 Clear 17 1015 59 10000 4 160 16:19 17.08.2019
3524 Clear 18 1015 55 10000 3 150 15:42 17.08.2019
3525 Clear 18 1015 55 10000 3 150 15:22 17.08.2019
3526 Clear 19 1014 52 10000 2 140 14:58 17.08.2019
3527 Clear 19 1014 48 10000 4 160 14:39 17.08.2019
3528 Clear 19 1014 48 10000 4 160 14:21 17.08.2019
3529 Clear 20 1014 45 10000 4 160 13:45 17.08.2019
3530 Clear 20 1014 45 10000 4 160 13:20 17.08.2019
3531 Clear 21 1013 46 10000 3 130 12:45 17.08.2019
3532 Clear 22 1013 43 10000 4 120 12:20 17.08.2019
3533 Clear 22 1013 43 10000 4 120 11:58 17.08.2019
3534 Clear 23 1013 43 10000 4 110 11:39 17.08.2019
3535 Clear 23 1013 43 10000 4 110 11:20 17.08.2019
3536 Clear 23 1013 43 10000 3 120 10:42 17.08.2019
3537 Clear 23 1013 43 10000 3 120 10:42 17.08.2019
3538 Clear 23 1013 43 10000 3 120 10:22 17.08.2019
3539 Clear 23 1013 43 10000 4 130 09:59 17.08.2019
3540 Clear 23 1012 43 10000 5 130 09:40 17.08.2019
3541 Clear 23 1012 43 10000 5 130 09:21 17.08.2019
3542 Clear 24 1013 41 10000 5 130 08:51 17.08.2019
3543 Clear 24 1013 41 10000 4 120 08:22 17.08.2019
3544 Clear 24 1013 47 10000 4 80 07:44 17.08.2019
3545 Clear 24 1013 47 10000 4 80 07:20 17.08.2019
3546 Clear 23 1013 53 10000 4 100 06:34 17.08.2019
3547 Clear 22 1013 56 10000 2 50 04:48 17.08.2019
3548 Clear 21 1014 64 10000 2 50 04:21 17.08.2019
3549 Clear 18 1014 77 10000 1 80 02:43 17.08.2019
3550 Clear 18 1014 77 10000 2 90 01:40 17.08.2019
3551 Clear 18 1014 77 10000 2 90 01:20 17.08.2019
3552 Clouds 16 1014 87 10000 2 20 00:47 17.08.2019
3553 Clouds 16 1014 87 10000 2 20 00:24 17.08.2019
3554 Clouds 15 1014 93 10000 1 30 23:46 16.08.2019
3555 Clouds 14 1014 93 10000 3 10 23:25 16.08.2019
3556 Clear 14 1013 93 10000 3 360 22:43 16.08.2019
3557 Clear 14 1013 93 10000 3 360 22:20 16.08.2019
3558 Clear 14 1013 93 10000 2 360 21:59 16.08.2019
3559 Clear 14 1013 93 10000 2 350 21:39 16.08.2019
3560 Clouds 14 1013 93 10000 2 360 21:19 16.08.2019
3561 Clouds 15 1013 93 10000 2 350 20:43 16.08.2019
3562 Clouds 15 1013 93 10000 2 350 20:43 16.08.2019
3563 Clouds 15 1013 93 10000 2 350 20:20 16.08.2019
3564 Clouds 16 1013 87 10000 3 10 19:59 16.08.2019
3565 Clouds 16 1013 87 10000 2 360 19:39 16.08.2019
3566 Clouds 16 1013 87 10000 2 360 19:19 16.08.2019
3567 Clouds 15 1013 93 10000 2 350 18:42 16.08.2019
3568 Clouds 15 1013 93 10000 2 350 18:23 16.08.2019
3569 Clouds 15 1013 93 10000 2 340 17:48 16.08.2019
3570 Clouds 16 1013 93 10000 2 50 17:28 16.08.2019
3571 Clouds 16 1013 93 10000 2 10 16:59 16.08.2019
3572 Clouds 16 1014 93 10000 2 360 16:40 16.08.2019
3573 Clouds 16 1014 93 10000 2 360 16:19 16.08.2019
3574 Clouds 16 1014 93 10000 2 360 15:56 16.08.2019
3575 Clouds 17 1013 88 10000 2 50 15:38 16.08.2019
3576 Clouds 17 1013 88 10000 2 50 15:19 16.08.2019
3577 Clouds 17 1014 88 10000 2 60 14:56 16.08.2019
3578 Clouds 17 1013 88 10000 2 50 14:38 16.08.2019
3579 Clouds 17 1013 88 10000 2 50 14:18 16.08.2019
3580 Clouds 17 1014 88 10000 2 50 13:40 16.08.2019
3581 Clouds 17 1014 88 10000 2 50 13:22 16.08.2019
3582 Clouds 17 1013 88 10000 2 70 12:41 16.08.2019
3583 Clouds 17 1013 88 10000 2 70 12:23 16.08.2019
3584 Clouds 17 1013 82 10000 3 100 11:59 16.08.2019
3585 Clouds 17 1013 88 10000 3 100 11:40 16.08.2019
3586 Clouds 17 1013 88 10000 3 100 11:22 16.08.2019
3587 Clouds 17 1013 82 10000 3 110 10:43 16.08.2019
3588 Clouds 17 1013 82 10000 3 110 10:22 16.08.2019
3589 Clouds 17 1013 82 10000 3 100 09:55 16.08.2019
3590 Clouds 17 1012 82 10000 3 100 09:36 16.08.2019
3591 Clouds 17 1012 82 10000 3 100 09:18 16.08.2019
3592 Clouds 17 1012 82 10000 4 110 08:39 16.08.2019
3593 -273 0 0 0 0 0 08:20 16.08.2019
3594 Clouds 17 1012 82 10000 4 110 07:52 16.08.2019
3595 Clouds 17 1012 82 10000 3 100 07:29 16.08.2019
3596 Clouds 17 1012 82 10000 4 100 06:55 16.08.2019
3597 Clouds 16 1012 87 10000 4 90 06:19 16.08.2019
3598 Clouds 15 1012 93 10000 5 110 05:34 16.08.2019
3599 Rain 15 1012 87 5000 4 120 03:21 16.08.2019
3600 Clouds 17 1011 77 10000 3 90 01:59 16.08.2019
3601 Clouds 17 1011 77 10000 3 60 01:28 16.08.2019
3602 Clouds 17 1011 77 10000 2 70 00:57 16.08.2019
3603 Clouds 16 1011 82 10000 3 60 00:38 16.08.2019
3604 Clouds 16 1011 82 10000 3 60 00:18 16.08.2019
3605 Clouds 16 1011 82 10000 4 60 23:42 15.08.2019
3606 Clouds 16 1011 82 10000 4 60 23:20 15.08.2019
3607 Clouds 16 1011 82 10000 3 70 22:57 15.08.2019
3608 Clouds 16 1011 82 10000 3 60 22:38 15.08.2019
3609 Clouds 16 1011 82 10000 2 50 22:20 15.08.2019
3610 Clouds 16 1011 82 10000 2 60 21:40 15.08.2019
3611 Clouds 16 1011 82 10000 2 60 21:40 15.08.2019
3612 Clouds 16 1011 82 10000 2 60 21:20 15.08.2019
3613 Clouds 15 1010 87 10000 2 30 20:59 15.08.2019
3614 Clouds 15 1010 93 10000 2 10 20:41 15.08.2019
3615 Clouds 15 1010 93 10000 2 10 20:21 15.08.2019
3616 Clouds 15 1010 93 10000 1 40 19:56 15.08.2019
3617 Clouds 15 1010 93 10000 2 20 19:38 15.08.2019
3618 Clouds 15 1010 93 10000 2 20 19:19 15.08.2019
3619 Clouds 16 1010 93 10000 2 360 18:45 15.08.2019
3620 Clouds 16 1010 93 10000 2 360 18:22 15.08.2019
3621 Clouds 16 1010 93 10000 2 350 17:56 15.08.2019
3622 Clouds 16 1010 93 10000 2 340 17:37 15.08.2019
3623 Clouds 16 1010 93 10000 2 360 17:19 15.08.2019
3624 Clouds 16 1010 93 10000 2 360 16:48 15.08.2019
3625 Clouds 16 1010 93 10000 2 20 16:27 15.08.2019
3626 Clouds 16 1010 93 10000 2 20 15:57 15.08.2019
3627 Clouds 17 1010 88 10000 1 70 15:38 15.08.2019
3628 Clouds 17 1010 88 10000 1 70 15:19 15.08.2019
3629 Clouds 17 1010 88 10000 2 100 14:42 15.08.2019
3630 Clouds 17 1010 88 10000 2 100 14:23 15.08.2019
3631 Rain 17 1010 93 10000 3 110 13:58 15.08.2019
3632 Clouds 17 1010 93 10000 2 20 13:40 15.08.2019
3633 Clouds 17 1010 93 10000 2 20 13:20 15.08.2019
3634 Clouds 17 1010 93 10000 2 20 12:57 15.08.2019
3635 Clouds 17 1010 88 10000 1 340 12:39 15.08.2019
3636 Clouds 17 1010 88 10000 1 340 12:19 15.08.2019
3637 Clouds 17 1010 88 10000 2 10 11:57 15.08.2019
3638 Clouds 17 1009 93 10000 2 10 11:36 15.08.2019
3639 Rain 17 1009 88 10000 2 360 11:18 15.08.2019
3640 Rain 17 1009 88 10000 2 360 10:54 15.08.2019
3641 Rain 17 1009 88 10000 1 210 10:36 15.08.2019
3642 Rain 17 1009 88 10000 1 210 10:18 15.08.2019
3643 Rain 17 1009 88 10000 3 210 09:41 15.08.2019
3644 Rain 17 1009 88 10000 3 210 09:21 15.08.2019
3645 Rain 18 1008 77 10000 2 180 08:38 15.08.2019
3646 Rain 18 1008 77 10000 2 180 08:19 15.08.2019
3647 Rain 20 1008 64 10000 4 180 07:50 15.08.2019
3648 Rain 22 1008 49 10000 3 90 07:32 15.08.2019
3649 Clouds 22 1008 46 10000 4 100 06:57 15.08.2019
3650 Clouds 23 1008 40 10000 5 90 06:39 15.08.2019
3651 Clouds 23 1008 40 10000 5 90 06:21 15.08.2019
3652 Clouds 21 1008 52 10000 2 110 05:29 15.08.2019
3653 Clouds 21 1008 52 10000 2 130 04:50 15.08.2019
3654 Clouds 21 1008 49 10000 3 110 03:48 15.08.2019
3655 Clouds 22 1008 46 10000 4 90 02:52 15.08.2019
3656 Clouds 21 1008 52 10000 3 100 02:18 15.08.2019
3657 Clouds 18 1008 63 10000 2 80 01:38 15.08.2019
3658 Clouds 17 1008 63 10000 3 50 00:42 15.08.2019
3659 Clouds 17 1008 63 10000 3 50 00:22 15.08.2019
3660 Rain 15 1007 77 10000 3 360 23:59 14.08.2019
3661 Clouds 15 1007 72 10000 2 360 23:40 14.08.2019
3662 Clouds 15 1007 72 10000 2 360 23:20 14.08.2019
3663 Clear 14 1007 76 10000 2 350 22:59 14.08.2019
3664 Clear 14 1007 76 10000 3 360 22:40 14.08.2019
3665 Clear 14 1007 76 10000 3 360 22:22 14.08.2019
3666 Clear 14 1008 76 10000 2 350 21:57 14.08.2019
3667 Clear 15 1007 72 10000 3 350 21:38 14.08.2019
3668 Clear 15 1007 72 10000 3 350 21:20 14.08.2019
3669 Clear 15 1007 72 10000 3 350 20:54 14.08.2019
3670 Clear 15 1007 72 10000 2 10 20:36 14.08.2019
3671 Clear 14 1007 76 10000 3 20 20:18 14.08.2019
3672 Clear 14 1007 76 10000 3 360 19:40 14.08.2019
3673 Clear 15 1007 77 10000 3 350 19:22 14.08.2019
3674 Clear 15 1007 77 10000 3 350 18:57 14.08.2019
3675 Clear 15 1007 77 10000 2 360 18:39 14.08.2019
3676 Clear 15 1007 77 10000 2 360 18:20 14.08.2019
3677 Clear 15 1007 77 10000 2 10 17:58 14.08.2019
3678 Clear 15 1007 77 10000 2 10 17:37 14.08.2019
3679 Clear 15 1007 77 10000 2 10 17:19 14.08.2019
3680 Clear 16 1007 72 10000 2 30 16:55 14.08.2019
3681 Clear 16 1007 72 10000 2 40 16:36 14.08.2019
3682 Clear 16 1007 72 10000 2 40 16:18 14.08.2019
3683 Clear 18 1007 63 10000 1 50 15:42 14.08.2019
3684 Clear 18 1007 63 10000 1 50 15:18 14.08.2019
3685 Clear 19 1007 59 10000 2 70 14:54 14.08.2019
3686 Clear 20 1007 52 10000 2 80 14:36 14.08.2019
3687 Clear 20 1007 52 10000 2 80 14:18 14.08.2019
3688 Clear 21 1007 49 10000 2 110 13:43 14.08.2019
3689 Clear 21 1007 49 10000 2 110 13:24 14.08.2019
3690 Clear 22 1007 46 10000 2 100 12:57 14.08.2019
3691 Clear 23 1007 40 10000 3 110 12:38 14.08.2019
3692 Clear 23 1007 40 10000 3 110 12:20 14.08.2019
3693 Clear 24 1006 36 10000 3 110 11:55 14.08.2019
3694 Clear 24 1006 38 10000 4 100 11:37 14.08.2019
3695 Clear 24 1006 38 10000 4 100 11:18 14.08.2019
3696 Clear 26 1006 31 10000 4 90 10:42 14.08.2019
3697 Clear 26 1006 31 10000 4 90 10:23 14.08.2019
3698 Clear 26 1006 31 10000 4 100 09:55 14.08.2019
3699 Clear 26 1007 31 10000 5 110 09:36 14.08.2019
3700 Clear 26 1007 31 10000 5 110 09:18 14.08.2019
3701 Clear 26 1007 31 10000 4 100 08:36 14.08.2019
3702 Clear 26 1007 31 10000 4 100 08:18 14.08.2019
3703 Clear 26 1007 34 10000 5 110 07:45 14.08.2019
3704 Clear 26 1007 34 10000 5 110 07:27 14.08.2019
3705 Clear 25 1007 38 10000 4 80 06:45 14.08.2019
3706 Clear 25 1007 38 10000 4 100 05:48 14.08.2019
3707 Clear 22 1008 53 10000 1 80 04:45 14.08.2019
3708 Clear 21 1008 56 10000 2 70 03:37 14.08.2019
3709 Clear 19 1008 59 10000 1 80 02:32 14.08.2019
3710 Clear 16 1009 77 10000 1 10 01:38 14.08.2019
3711 Clear 15 1009 77 10000 1 10 00:54 14.08.2019
3712 Clear 11 1009 87 10000 2 320 23:50 13.08.2019
3713 Clear 10 1009 87 10000 1 310 23:25 13.08.2019
3714 Clear 9 1009 93 10000 1 310 22:58 13.08.2019
3715 Clear 8 1009 93 10000 2 320 22:39 13.08.2019
3716 Clear 8 1009 93 10000 2 320 22:39 13.08.2019
3717 Clear 8 1009 93 10000 2 320 22:21 13.08.2019
3718 Clear 8 1009 93 10000 2 290 21:58 13.08.2019
3719 Clear 9 1009 87 10000 1 310 21:37 13.08.2019
3720 Clear 9 1009 87 10000 1 310 21:19 13.08.2019
3721 Clear 9 1008 93 10000 2 300 20:46 13.08.2019
3722 Clear 9 1008 93 10000 2 300 20:20 13.08.2019
3723 Clear 10 1008 87 10000 2 300 19:59 13.08.2019
3724 Clear 10 1008 87 10000 2 300 19:59 13.08.2019
3725 Clear 10 1008 87 10000 3 300 19:40 13.08.2019
3726 Clear 10 1008 87 10000 3 300 19:21 13.08.2019
3727 Clear 11 1008 87 10000 2 300 18:42 13.08.2019
3728 Clear 11 1008 87 10000 2 300 18:23 13.08.2019
3729 Clear 12 1008 87 10000 1 280 17:58 13.08.2019
3730 Clear 12 1008 87 10000 2 300 17:40 13.08.2019
3731 Clear 12 1008 87 10000 2 300 17:21 13.08.2019
3732 Clear 13 1008 82 10000 2 310 16:56 13.08.2019
3733 Clear 13 1008 87 10000 2 290 16:38 13.08.2019
3734 Clear 13 1008 87 10000 2 290 16:38 13.08.2019
3735 Clear 13 1008 87 10000 2 290 16:19 13.08.2019
3736 Clear 13 1008 87 10000 2 290 16:19 13.08.2019
3737 Clear 15 1008 87 10000 1 290 15:39 13.08.2019
3738 Clear 15 1008 87 10000 1 290 15:39 13.08.2019
3739 Clear 15 1008 87 10000 1 290 15:20 13.08.2019
3740 Clear 14 1008 87 10000 1 260 14:58 13.08.2019
3741 Clear 16 1008 77 10000 1 230 14:38 13.08.2019
3742 Clear 16 1008 77 10000 1 230 14:38 13.08.2019
3743 Clear 17 1008 72 10000 1.59 203.875 14:19 13.08.2019
3744 Clear 19 1008 63 10000 1.59 203.875 13:42 13.08.2019
3745 Clear 19 1008 63 10000 1.19 190.924 13:21 13.08.2019
3746 Clear 22 1008 53 10000 1.19 190.924 12:59 13.08.2019
3747 Clear 23 1007 40 10000 1.19 190.924 12:41 13.08.2019
3748 Clear 23 1007 40 10000 1.64 86.535 12:22 13.08.2019
3749 Clear 24 1007 41 10000 1 50 11:58 13.08.2019
3750 Clear 24 1007 41 10000 1 110 11:38 13.08.2019
3751 Clear 24 1007 41 10000 1 110 11:19 13.08.2019
3752 Clear 24 1007 38 10000 1 70 10:56 13.08.2019
3753 Clear 24 1007 38 10000 2 110 10:37 13.08.2019
3754 Clear 24 1007 38 10000 2 110 10:18 13.08.2019
3755 Clear 24 1007 41 10000 1 160 09:43 13.08.2019
3756 Clear 24 1007 41 10000 1 160 09:23 13.08.2019
3757 Clear 24 1007 44 10000 1 150 08:44 13.08.2019
3758 Clear 24 1007 44 10000 1 150 08:44 13.08.2019
3759 Clear 24 1007 44 10000 1 150 08:23 13.08.2019
3760 Clear 24 1008 44 10000 1 220 07:58 13.08.2019
3761 Clear 23 1008 46 10000 1 320 07:37 13.08.2019
3762 Clear 23 1008 46 10000 2 60 06:59 13.08.2019
3763 Clear 23 1008 46 10000 1 120 06:40 13.08.2019
3764 Clear 21 1008 60 10000 2 90 05:35 13.08.2019
3765 Clear 18 1008 72 10000 2 130 03:35 13.08.2019
3766 Clear 15 1009 87 10000 1 100 02:19 13.08.2019
3767 Clear 12 1008 87 10000 1 300 01:19 13.08.2019
3768 Clear 12 1008 87 10000 1 300 00:47 13.08.2019
3769 Clear 11 1008 93 10000 1 330 23:57 12.08.2019
3770 Clear 10 1008 93 10000 2 320 23:38 12.08.2019
3771 Clear 10 1008 93 10000 2 320 23:19 12.08.2019
3772 Clear 9 1008 93 10000 2 320 22:40 12.08.2019
3773 Clear 9 1008 93 10000 2 320 22:20 12.08.2019
3774 Clear 9 1008 93 10000 2 310 21:56 12.08.2019
3775 Clear 9 1008 93 10000 2 300 21:38 12.08.2019
3776 Clear 9 1008 93 10000 2 300 21:19 12.08.2019
3777 Clear 10 1008 93 10000 3 300 20:57 12.08.2019
3778 Clear 10 1008 93 10000 3 300 20:38 12.08.2019
3779 Clear 10 1008 93 10000 3 300 20:20 12.08.2019
3780 Clear 10 1007 93 10000 3 310 19:56 12.08.2019
3781 Clear 10 1007 93 10000 3 310 19:56 12.08.2019
3782 Clear 10 1007 93 10000 2 300 19:37 12.08.2019
3783 Clear 10 1007 93 10000 2 300 19:19 12.08.2019
3784 Clear 11 1007 93 10000 2 300 18:55 12.08.2019
3785 Clear 11 1007 93 10000 2 300 18:37 12.08.2019
3786 Clear 11 1007 93 10000 2 300 18:37 12.08.2019
3787 Clear 12 1007 87 10000 2 300 18:19 12.08.2019
3788 Clear 12 1007 87 10000 2 300 17:47 12.08.2019
3789 Clear 13 1007 87 10000 3 310 17:28 12.08.2019
3790 Clear 12 1007 93 10000 3 290 16:57 12.08.2019
3791 Clear 13 1007 93 10000 3 300 16:39 12.08.2019
3792 Clear 13 1007 93 10000 3 300 16:39 12.08.2019
3793 Clear 13 1007 93 10000 3 300 16:20 12.08.2019
3794 Clear 14 1007 87 10000 3 300 15:59 12.08.2019
3795 -273 0 0 0 0 0 15:41 12.08.2019
3796 -273 0 0 0 0 0 15:39 12.08.2019
3797 Clear 14 1007 87 10000 2 290 15:20 12.08.2019
3798 Clear 15 1007 87 10000 3 290 14:55 12.08.2019
3799 -273 0 0 0 0 0 14:37 12.08.2019
3800 Clear 15 1006 82 10000 2 300 14:18 12.08.2019
3801 Clear 17 1006 77 10000 1 360 13:42 12.08.2019
3802 Clear 17 1006 77 10000 1 360 13:23 12.08.2019
3803 Clear 20 1005 60 10000 1 10 12:44 12.08.2019
3804 Clear 20 1005 60 10000 1 10 12:23 12.08.2019
3805 Clear 20 1005 60 10000 2 360 11:58 12.08.2019
3806 Clear 20 1005 60 10000 1 40 11:39 12.08.2019
3807 Clear 20 1005 60 10000 1 40 11:21 12.08.2019
3808 Clear 20 1005 60 10000 2 60 10:42 12.08.2019
3809 Clear 20 1005 60 10000 2 60 10:23 12.08.2019
3810 Clear 20 1005 60 10000 3 50 09:56 12.08.2019
3811 Clouds 21 1005 52 10000 3 70 09:38 12.08.2019
3812 Clouds 21 1005 52 10000 3 70 09:19 12.08.2019
3813 Clouds 20 1005 60 10000 2 70 08:55 12.08.2019
3814 Clouds 20 1005 60 10000 2 70 08:37 12.08.2019
3815 Clouds 20 1005 60 10000 2 70 08:19 12.08.2019
3816 Clouds 20 1005 60 10000 3 80 07:42 12.08.2019
3817 Clouds 20 1005 60 10000 3 80 07:20 12.08.2019
3818 Clouds 19 1006 68 10000 3 40 06:44 12.08.2019
3819 Clouds 18 1006 72 10000 3 80 05:37 12.08.2019
3820 Clouds 15 1006 87 10000 3 350 02:44 12.08.2019
3821 Mist 14 1006 93 5000 3 350 01:53 12.08.2019
3822 Mist 14 1006 93 5000 2 340 01:20 12.08.2019
3823 Mist 14 1006 93 5000 2 340 00:57 12.08.2019
3824 Mist 14 1006 93 5000 2 330 00:38 12.08.2019
3825 Mist 14 1006 93 5000 2 330 00:19 12.08.2019
3826 Mist 13 1006 93 5000 2 340 23:42 11.08.2019
3827 Mist 13 1006 93 5000 2 340 23:20 11.08.2019
3828 Mist 13 1006 93 5000 3 350 22:58 11.08.2019
3829 Mist 13 1006 93 5000 3 350 22:39 11.08.2019
3830 Mist 13 1006 93 5000 3 350 22:19 11.08.2019
3831 Mist 13 1006 93 5000 2 20 21:58 11.08.2019
3832 Clouds 13 1006 100 10000 2 30 21:39 11.08.2019
3833 Clouds 13 1006 100 10000 2 30 21:20 11.08.2019
3834 -273 0 0 0 0 0 20:56 11.08.2019
3835 Clouds 13 1006 93 10000 2 330 20:38 11.08.2019
3836 Clouds 13 1006 93 10000 2 330 20:19 11.08.2019
3837 Rain 13 1006 93 10000 2 320 19:42 11.08.2019
3838 Rain 13 1006 93 10000 2 320 19:18 11.08.2019
3839 Rain 13 1006 93 10000 2 320 19:18 11.08.2019
3840 Clouds 13 1007 93 10000 2 320 18:41 11.08.2019
3841 Clouds 13 1007 93 10000 2 320 18:21 11.08.2019
3842 Clouds 13 1007 93 10000 2 330 17:58 11.08.2019
3843 Clouds 13 1007 93 10000 2 330 17:39 11.08.2019
3844 Clouds 13 1007 93 10000 2 330 17:20 11.08.2019
3845 Clouds 13 1007 93 10000 2 330 17:20 11.08.2019
3846 Clouds 13 1007 93 10000 2 350 16:56 11.08.2019
3847 Clouds 13 1007 93 10000 3 350 16:37 11.08.2019
3848 Clouds 13 1007 93 10000 3 350 16:18 11.08.2019
3849 Clouds 13 1007 93 10000 3 350 16:18 11.08.2019
3850 Clouds 13 1007 93 10000 3 10 15:43 11.08.2019
3851 Clouds 13 1007 93 10000 3 10 15:24 11.08.2019
3852 Clouds 14 1007 87 10000 3 30 14:58 11.08.2019
3853 Clouds 15 1007 87 10000 3 40 14:39 11.08.2019
3854 Clouds 15 1007 87 10000 3 40 14:19 11.08.2019
3855 Clouds 16 1007 82 10000 2 30 13:44 11.08.2019
3856 Clouds 16 1007 82 10000 2 30 13:25 11.08.2019
3857 Clouds 17 1007 77 10000 3 40 12:56 11.08.2019
3858 Clouds 17 1007 72 10000 3 40 12:36 11.08.2019
3859 Clouds 17 1007 72 10000 3 40 12:18 11.08.2019
3860 Clouds 17 1007 77 10000 3 40 11:39 11.08.2019
3861 Clouds 17 1007 77 10000 3 40 11:20 11.08.2019
3862 Clouds 18 1007 72 10000 4 60 10:55 11.08.2019
3863 Clouds 18 1007 72 10000 3 50 10:37 11.08.2019
3864 Clouds 18 1007 72 10000 3 50 10:18 11.08.2019
3865 Clouds 17 1007 72 10000 5 30 09:40 11.08.2019
3866 Clouds 17 1007 72 10000 5 30 09:22 11.08.2019
3867 Clouds 20 1007 60 10000 3 40 08:48 11.08.2019
3868 Clouds 19 1007 63 10000 2 60 08:29 11.08.2019
3869 Clouds 19 1007 68 10000 3 60 07:56 11.08.2019
3870 Clouds 18 1007 68 10000 3 50 07:27 11.08.2019
3871 Clouds 18 1008 72 10000 4 30 06:45 11.08.2019
3872 Clouds 18 1008 72 10000 4 30 06:21 11.08.2019
3873 Clouds 18 1008 72 10000 3 20 04:37 11.08.2019
3874 Clouds 17 1008 77 10000 2 50 02:49 11.08.2019
3875 Clouds 15 1008 87 10000 2 40 01:51 11.08.2019
3876 Mist 14 1008 93 5000 2 30 01:26 11.08.2019
3877 Mist 14 1009 93 5000 2 60 00:53 11.08.2019
3878 Mist 14 1009 93 5000 2 70 00:33 11.08.2019
3879 Mist 13 1009 100 5000 2 70 23:49 10.08.2019
3880 Mist 13 1009 100 5000 2 30 23:29 10.08.2019
3881 Mist 13 1009 93 2400 3 30 22:45 10.08.2019
3882 Mist 13 1009 93 2400 3 30 22:26 10.08.2019
3883 Mist 13 1009 100 2400 2 30 21:59 10.08.2019
3884 Mist 13 1009 100 3200 2 30 21:40 10.08.2019
3885 Mist 13 1009 100 3200 2 30 21:21 10.08.2019
3886 Mist 13 1008 100 3200 2 10 20:57 10.08.2019
3887 Mist 13 1008 100 3200 1 30 20:39 10.08.2019
3888 Mist 13 1008 100 3200 1 30 20:19 10.08.2019
3889 Mist 13 1008 100 2400 2 10 19:43 10.08.2019
3890 Mist 13 1008 100 2400 2 10 19:24 10.08.2019
3891 Fog 13 1008 93 1100 1 360 18:42 10.08.2019
3892 Fog 13 1008 93 1100 1 360 18:24 10.08.2019
3893 Fog 13 1008 93 250 2 340 17:56 10.08.2019
3894 Fog 12 1008 100 700 2 340 17:38 10.08.2019
3895 Fog 12 1008 100 700 2 340 17:19 10.08.2019
3896 Mist 13 1008 93 2400 1 360 16:42 10.08.2019
3897 Mist 13 1008 93 2400 1 360 16:22 10.08.2019
3898 Clouds 14 1009 93 10000 2 10 15:45 10.08.2019
3899 Clouds 14 1009 93 10000 2 10 15:22 10.08.2019
3900 Clouds 15 1009 93 10000 2 40 14:44 10.08.2019
3901 Clouds 15 1009 93 10000 2 40 14:19 10.08.2019
3902 Clouds 15 1009 93 10000 1 360 13:41 10.08.2019
3903 Clouds 15 1009 93 10000 1 360 13:20 10.08.2019
3904 Clouds 16 1009 87 10000 2 30 12:54 10.08.2019
3905 Clouds 17 1009 82 10000 2 50 12:36 10.08.2019
3906 Clouds 17 1009 82 10000 2 50 12:18 10.08.2019
3907 Clouds 18 1008 77 10000 1 340 11:41 10.08.2019
3908 Clouds 18 1008 77 10000 1 340 11:41 10.08.2019
3909 Clouds 18 1008 77 10000 1 340 11:22 10.08.2019
3910 Clouds 18 1008 77 10000 2 360 10:55 10.08.2019
3911 Clouds 17 1008 77 10000 2 50 10:36 10.08.2019
3912 Clouds 17 1008 77 10000 2 50 10:18 10.08.2019
3913 Rain 17 1008 82 10000 1 60 09:41 10.08.2019
3914 Rain 17 1008 82 10000 1 60 09:41 10.08.2019
3915 Rain 17 1008 82 10000 1 60 09:23 10.08.2019
3916 Clouds 18 1008 77 10000 1 260 08:42 10.08.2019
3917 Clouds 18 1008 77 10000 1 260 08:20 10.08.2019
3918 Clouds 17 1008 82 10000 1 180 07:54 10.08.2019
3919 Clouds 16 1008 87 10000 1 140 07:29 10.08.2019
3920 Clouds 16 1008 87 10000 2.42 10.072 06:49 10.08.2019
3921 Clouds 15 1008 93 10000 2.42 10.072 06:28 10.08.2019
3922 Rain 14 1008 93 5000 3 270 05:27 10.08.2019
3923 Rain 14 1009 93 5000 2 290 04:37 10.08.2019
3924 Clouds 15 1009 82 10000 3 280 02:58 10.08.2019
3925 Clouds 15 1009 82 10000 3 290 02:27 10.08.2019
3926 Clouds 14 1009 87 10000 3 300 01:43 10.08.2019
3927 Clouds 14 1009 87 10000 3 300 01:23 10.08.2019
3928 Smoke 14 1009 87 5000 3 280 00:49 10.08.2019
3929 Smoke 13 1009 93 5000 3 290 00:25 10.08.2019
3930 Smoke 13 1009 93 5000 3 300 23:57 09.08.2019
3931 Smoke 13 1009 87 5000 2 280 23:36 09.08.2019
3932 Smoke 13 1009 87 5000 2 280 23:18 09.08.2019
3933 Smoke 12 1008 93 5000 2 310 22:40 09.08.2019
3934 Smoke 12 1008 93 5000 2 310 22:40 09.08.2019
3935 Smoke 12 1008 93 5000 2 310 22:22 09.08.2019
3936 Clouds 12 1008 93 10000 2 290 21:57 09.08.2019
3937 Clouds 13 1008 87 10000 3 310 21:39 09.08.2019
3938 Clouds 13 1008 87 10000 3 310 21:21 09.08.2019
3939 Clouds 13 1008 87 10000 3 310 21:21 09.08.2019
3940 Clouds 13 1008 87 10000 2 310 20:56 09.08.2019
3941 Clouds 13 1008 87 10000 2 290 20:38 09.08.2019
3942 Clouds 13 1008 87 10000 2 290 20:18 09.08.2019
3943 Clouds 14 1009 82 10000 2 290 19:41 09.08.2019
3944 Clouds 14 1009 82 10000 2 290 19:22 09.08.2019
3945 Clouds 15 1008 77 10000 3 300 18:42 09.08.2019
3946 Clouds 15 1008 77 10000 3 300 18:23 09.08.2019
3947 Clouds 15 1008 77 10000 3 310 17:59 09.08.2019
3948 Clouds 15 1008 77 10000 3 310 17:41 09.08.2019
3949 Clouds 15 1008 77 10000 3 310 17:23 09.08.2019
3950 -273 0 0 0 0 0 16:54 09.08.2019
3951 Clouds 16 1009 72 10000 4 300 16:36 09.08.2019
3952 Clouds 16 1009 72 10000 4 300 16:18 09.08.2019
3953 Clouds 16 1009 72 10000 4 300 15:41 09.08.2019
3954 Clouds 16 1009 72 10000 4 300 15:21 09.08.2019
3955 Smoke 16 1009 77 5000 3 300 14:57 09.08.2019
3956 Smoke 16 1009 77 5000 3 300 14:56 09.08.2019
3957 -273 0 0 0 0 0 14:56 09.08.2019
3958 Smoke 16 1009 77 5000 3 310 14:37 09.08.2019
3959 Smoke 16 1009 77 5000 3 310 14:19 09.08.2019
3960 Smoke 17 1009 72 5000 4 300 13:43 09.08.2019
3961 Smoke 17 1009 72 5000 4 300 13:20 09.08.2019
3962 Smoke 17 1009 72 5000 4 290 12:47 09.08.2019
3963 Smoke 17 1009 72 5000 4 290 12:25 09.08.2019
3964 Smoke 18 1009 68 5000 3 310 11:59 09.08.2019
3965 Smoke 18 1009 68 5000 2 300 11:38 09.08.2019
3966 Smoke 18 1009 68 5000 2 300 11:19 09.08.2019
3967 Smoke 18 1009 68 5000 3 320 10:41 09.08.2019
3968 Smoke 18 1009 68 5000 3 320 10:22 09.08.2019
3969 Smoke 18 1009 68 5000 3 300 09:57 09.08.2019
3970 Smoke 17 1009 72 5000 3 280 09:37 09.08.2019
3971 Smoke 17 1009 72 5000 3 280 09:18 09.08.2019
3972 Smoke 16 1009 77 5000 4 280 08:44 09.08.2019
3973 Smoke 16 1009 77 5000 4 280 08:24 09.08.2019
3974 Smoke 15 1009 82 5000 4 290 07:53 09.08.2019
3975 Smoke 15 1009 77 5000 4 300 07:24 09.08.2019
3976 Smoke 15 1009 77 5000 4 300 06:57 09.08.2019
3977 Smoke 15 1009 77 5000 4 310 06:36 09.08.2019
3978 Smoke 15 1009 77 5000 5 300 06:18 09.08.2019
3979 Smoke 16 1009 67 5000 6 290 04:37 09.08.2019
3980 Smoke 17 1009 63 5000 3 290 02:26 09.08.2019
3981 Smoke 15 1009 67 5000 3 310 00:58 09.08.2019
3982 Smoke 14 1009 71 5000 2 300 00:40 09.08.2019
3983 Smoke 14 1009 71 5000 2 300 00:22 09.08.2019
3984 Smoke 13 1009 76 5000 1 330 23:55 08.08.2019
3985 Smoke 13 1009 76 5000 3 290 23:36 08.08.2019
3986 Smoke 13 1009 76 5000 3 290 23:18 08.08.2019
3987 Smoke 12 1009 81 5000 2 320 22:37 08.08.2019
3988 Smoke 12 1009 81 5000 4 310 22:19 08.08.2019
3989 Smoke 12 1009 81 5000 4 310 21:59 08.08.2019
3990 Smoke 12 1009 81 5000 4 310 21:59 08.08.2019
3991 Smoke 13 1009 76 5000 4 310 21:41 08.08.2019
3992 Smoke 13 1009 76 5000 4 310 21:22 08.08.2019
3993 Smoke 14 1009 71 5000 5 300 20:56 08.08.2019
3994 Smoke 14 1009 71 5000 4 300 20:38 08.08.2019
3995 Smoke 14 1009 71 5000 4 300 20:19 08.08.2019
3996 Smoke 13 1009 76 5000 3 290 19:44 08.08.2019
3997 Smoke 13 1009 76 5000 3 290 19:24 08.08.2019
3998 Smoke 14 1009 76 5000 3 280 18:45 08.08.2019
3999 Smoke 14 1009 76 5000 3 280 18:25 08.08.2019
4000 Smoke 14 1010 76 5000 3 290 17:59 08.08.2019
4001 Smoke 14 1010 76 3200 3 290 17:41 08.08.2019
4002 Smoke 14 1010 76 3200 3 290 17:22 08.08.2019
4003 Smoke 14 1010 82 3200 3 290 16:56 08.08.2019
4004 Smoke 15 1010 77 3200 3 290 16:37 08.08.2019
4005 Smoke 15 1010 77 3200 3 290 16:19 08.08.2019
4006 Smoke 16 1010 77 3200 3 290 15:56 08.08.2019
4007 Smoke 15 1010 82 3200 2 290 15:36 08.08.2019
4008 Smoke 15 1010 82 3200 2 290 15:18 08.08.2019
4009 Smoke 16 1010 82 3200 1 310 14:37 08.08.2019
4010 Smoke 16 1010 82 3200 1 310 14:18 08.08.2019
4011 Smoke 20 1009 64 3200 2 40 13:40 08.08.2019
4012 Smoke 20 1009 64 3200 2 40 13:22 08.08.2019
4013 Smoke 22 1009 53 3200 2 330 12:57 08.08.2019
4014 Smoke 23 1009 46 3200 3 330 12:37 08.08.2019
4015 Smoke 23 1009 46 3200 3 330 12:37 08.08.2019
4016 Smoke 24 1009 44 3200 3 340 12:18 08.08.2019
4017 Smoke 24 1009 44 3200 4 340 11:41 08.08.2019
4018 Smoke 24 1009 44 3200 4 340 11:23 08.08.2019
4019 Smoke 26 1009 41 3200 4 340 10:41 08.08.2019
4020 -273 0 0 0 0 0 10:22 08.08.2019
4021 Smoke 26 1009 39 3200 5 330 09:54 08.08.2019
4022 Smoke 27 1009 36 3200 4 330 09:32 08.08.2019
4023 Smoke 27 1009 34 5000 5 320 09:00 08.08.2019
4024 Smoke 28 1009 32 5000 5 310 08:40 08.08.2019
4025 Smoke 28 1009 32 5000 5 310 08:20 08.08.2019
4026 Clear 27 1009 44 10000 2 160 07:41 08.08.2019
4027 Clear 27 1009 44 10000 2 160 07:20 08.08.2019
4028 Clear 26 1009 50 10000 3 150 06:56 08.08.2019
4029 Clear 26 1009 47 10000 3 150 06:38 08.08.2019
4030 Clear 25 1010 47 10000 3 160 05:54 08.08.2019
4031 Clear 24 1010 50 10000 4 170 05:20 08.08.2019
4032 Smoke 21 1010 56 5000 4 180 03:54 08.08.2019
4033 Smoke 19 1011 59 5000 3 170 02:58 08.08.2019
4034 Smoke 16 1011 72 5000 3 170 01:38 08.08.2019
4035 Smoke 14 1011 82 5000 3 160 00:27 08.08.2019
4036 Smoke 13 1012 87 5000 2 180 23:59 07.08.2019
4037 Smoke 13 1012 87 5000 2 180 23:22 07.08.2019
4038 Smoke 11 1012 93 5000 1 180 22:59 07.08.2019
4039 Smoke 10 1012 93 5000 2 190 22:40 07.08.2019
4040 Smoke 10 1012 93 5000 2 190 22:20 07.08.2019
4041 Smoke 9 1012 93 5000 1 180 21:56 07.08.2019
4042 Smoke 8 1012 93 5000 2.04 222.158 21:38 07.08.2019
4043 Smoke 8 1012 93 5000 1.61 228.67 21:19 07.08.2019
4044 Smoke 8 1012 93 5000 1 280 20:56 07.08.2019
4045 Smoke 9 1012 87 5000 1 280 20:37 07.08.2019
4046 Smoke 9 1012 87 5000 1 280 20:19 07.08.2019
4047 Smoke 9 1012 87 5000 1 280 19:40 07.08.2019
4048 Smoke 9 1012 87 5000 1 280 19:22 07.08.2019
4049 Smoke 10 1012 87 5000 2 290 18:59 07.08.2019
4050 Smoke 9 1012 93 5000 1 290 18:39 07.08.2019
4051 Smoke 9 1012 93 5000 1 290 18:19 07.08.2019
4052 Smoke 11 1012 81 5000 2 290 17:54 07.08.2019
4053 Smoke 11 1012 87 5000 1 280 17:36 07.08.2019
4054 Smoke 11 1012 87 5000 1 280 17:18 07.08.2019
4055 Smoke 11 1012 87 5000 1 280 17:18 07.08.2019
4056 Smoke 12 1012 81 5000 1 280 16:55 07.08.2019
4057 Smoke 12 1012 87 5000 1 300 16:37 07.08.2019
4058 Smoke 12 1012 87 5000 1 300 16:18 07.08.2019
4059 Smoke 12 1012 81 5000 1 250 15:42 07.08.2019
4060 Smoke 12 1012 81 5000 1 250 15:20 07.08.2019
4061 Smoke 13 1012 82 3200 1 250 14:49 07.08.2019
4062 Smoke 15 1012 72 3200 1 280 14:30 07.08.2019
4063 Smoke 17 1012 67 3200 2 230 13:58 07.08.2019
4064 Smoke 20 1011 56 3200 2 200 13:39 07.08.2019
4065 Smoke 20 1011 56 3200 2 200 13:19 07.08.2019
4066 -273 0 0 0 0 0 12:57 07.08.2019
4067 Smoke 22 1011 49 3200 2 170 12:38 07.08.2019
4068 Smoke 22 1011 49 3200 2 170 12:19 07.08.2019
4069 Smoke 22 1011 46 5000 2 160 11:55 07.08.2019
4070 Smoke 23 1011 40 5000 3 160 11:36 07.08.2019
4071 Smoke 23 1011 40 5000 3 160 11:18 07.08.2019
4072 Smoke 23 1011 43 5000 3 140 10:40 07.08.2019
4073 Smoke 23 1011 43 5000 3 140 10:19 07.08.2019
4074 Smoke 23 1011 43 5000 2 120 09:46 07.08.2019
4075 Smoke 23 1011 38 5000 2 140 09:24 07.08.2019
4076 Smoke 23 1011 40 5000 3 140 08:59 07.08.2019
4077 Smoke 23 1012 40 5000 2 120 08:41 07.08.2019
4078 Smoke 23 1012 40 5000 2 120 08:23 07.08.2019
4079 Smoke 23 1012 40 5000 2 140 07:50 07.08.2019
4080 Smoke 22 1012 46 5000 3 140 07:29 07.08.2019
4081 Smoke 22 1012 43 5000 2 100 06:43 07.08.2019
4082 Smoke 22 1012 43 5000 2 100 06:21 07.08.2019
4083 Smoke 21 1013 52 5000 2 120 05:41 07.08.2019
4084 Smoke 19 1013 55 5000 3 130 04:29 07.08.2019
4085 Smoke 17 1013 59 5000 1 30 02:54 07.08.2019
4086 Smoke 16 1013 63 5000 1 320 02:36 07.08.2019
4087 Smoke 15 1013 62 5000 2 300 01:49 07.08.2019
4088 Smoke 13 1013 66 5000 3 300 00:54 07.08.2019
4089 Smoke 12 1013 71 5000 3 290 00:24 07.08.2019
4090 Smoke 12 1013 66 5000 3 300 23:57 06.08.2019
4091 Smoke 11 1013 71 5000 4 300 23:36 06.08.2019
4092 Smoke 11 1013 71 5000 3 300 23:18 06.08.2019
4093 Smoke 10 1013 71 5000 3 310 22:40 06.08.2019
4094 Smoke 10 1013 71 5000 3 310 22:21 06.08.2019
4095 Clear 10 1013 71 10000 3 300 21:57 06.08.2019
4096 Clear 10 1012 66 10000 3 300 21:38 06.08.2019
4097 Clear 10 1012 66 10000 3 300 21:19 06.08.2019
4098 Clear 11 1012 62 10000 3 300 20:43 06.08.2019
4099 Clear 11 1012 62 10000 3 300 20:24 06.08.2019
4100 Clear 11 1012 62 10000 3 300 19:49 06.08.2019
4101 Clear 12 1012 54 10000 3 290 19:29 06.08.2019
4102 Smoke 13 1012 50 5000 3 300 18:57 06.08.2019
4103 Smoke 13 1012 50 5000 3 300 18:38 06.08.2019
4104 Smoke 13 1012 50 5000 3 300 18:20 06.08.2019
4105 Smoke 13 1012 50 5000 4 300 17:56 06.08.2019
4106 Smoke 14 1011 47 5000 4 300 17:37 06.08.2019
4107 Smoke 14 1011 47 5000 4 300 17:19 06.08.2019
4108 Smoke 14 1011 50 5000 4 300 16:43 06.08.2019
4109 Smoke 14 1011 50 5000 4 300 16:25 06.08.2019
4110 Smoke 14 1011 50 5000 4 300 16:25 06.08.2019
4111 Smoke 15 1011 47 5000 4 300 15:58 06.08.2019
4112 Smoke 16 1011 44 5000 3 290 15:40 06.08.2019
4113 Smoke 16 1011 44 5000 3 290 15:21 06.08.2019
4114 Smoke 17 1011 42 5000 3 290 14:54 06.08.2019
4115 Clear 18 1011 45 10000 3 280 14:36 06.08.2019
4116 Clear 18 1011 45 10000 3 280 14:18 06.08.2019
4117 Clear 21 1010 40 10000 3 320 13:45 06.08.2019
4118 Clear 21 1010 40 10000 3 320 13:26 06.08.2019
4119 Clear 22 1010 37 10000 4 330 12:59 06.08.2019
4120 Clear 24 1010 33 10000 4 330 12:39 06.08.2019
4121 Clear 24 1010 33 10000 4 330 12:21 06.08.2019
4122 Clear 24 1010 33 10000 4 330 12:21 06.08.2019
4123 Clear 25 1009 29 10000 5 320 11:45 06.08.2019
4124 Clear 25 1009 29 10000 5 320 11:20 06.08.2019
4125 Clear 25 1009 29 10000 6 310 10:56 06.08.2019
4126 Clear 25 1009 31 10000 6 310 10:38 06.08.2019
4127 Clear 25 1009 31 10000 6 310 10:20 06.08.2019
4128 Clear 26 1009 29 10000 5 330 09:41 06.08.2019
4129 Clear 26 1009 29 10000 5 330 09:21 06.08.2019
4130 Clear 26 1009 29 10000 5 330 09:21 06.08.2019
4131 Clear 26 1009 31 10000 6 330 08:49 06.08.2019
4132 Clear 26 1008 27 10000 6 320 08:28 06.08.2019
4133 Clear 26 1009 27 10000 5 310 07:59 06.08.2019
4134 Clear 25 1009 29 10000 5 310 07:29 06.08.2019
4135 Clear 26 1009 29 10000 5 320 06:44 06.08.2019
4136 Clear 26 1009 29 10000 5 320 06:21 06.08.2019
4137 Clear 24 1009 36 10000 6 300 05:21 06.08.2019
4138 Clear 20 1009 49 10000 3 290 02:00 06.08.2019
4139 Clear 19 1009 52 10000 3 320 01:25 06.08.2019
4140 Clear 18 1009 52 10000 3 290 00:51 06.08.2019
4141 Clear 17 1009 55 10000 3 310 23:59 05.08.2019
4142 Clear 17 1009 51 10000 3 310 23:20 05.08.2019
4143 Clouds 15 1010 69 0 5.51 286.583 22:42 05.08.2019
4144 Clear 17 1009 51 10000 5 280 22:23 05.08.2019
4145 Clear 17 1009 51 10000 5 280 21:58 05.08.2019
4146 Clear 17 1009 51 10000 5 280 21:40 05.08.2019
4147 Clear 17 1009 51 10000 5 280 21:19 05.08.2019
4148 Clear 17 1009 51 10000 5 280 20:56 05.08.2019
4149 Clear 17 1009 51 10000 5 280 20:38 05.08.2019
4150 Clear 17 1009 51 10000 5 280 20:20 05.08.2019
4151 Clear 18 1009 48 10000 3 280 19:43 05.08.2019
4152 Clear 18 1009 48 10000 3 280 19:25 05.08.2019
4153 Clear 18 1009 48 10000 4 280 18:59 05.08.2019
4154 Clear 18 1009 48 10000 4 270 18:40 05.08.2019
4155 Clear 18 1009 48 10000 4 270 18:19 05.08.2019
4156 Clear 18 1009 48 10000 4 270 18:19 05.08.2019
4157 Clear 18 1009 48 10000 5 270 17:46 05.08.2019
4158 Clear 18 1009 48 10000 5 270 17:27 05.08.2019
4159 Clear 18 1009 45 10000 4 260 16:47 05.08.2019
4160 Clear 18 1009 45 10000 4 260 16:27 05.08.2019
4161 Clear 18 1009 45 10000 4 260 15:57 05.08.2019
4162 Clear 18 1009 45 10000 4 260 15:39 05.08.2019
4163 Clear 18 1009 45 10000 4 260 15:20 05.08.2019
4164 Clear 17 1009 48 10000 4 260 14:39 05.08.2019
4165 Clear 17 1009 48 10000 4 260 14:21 05.08.2019
4166 Clear 19 1009 42 10000 3 270 13:45 05.08.2019
4167 Clear 19 1009 42 10000 3 270 13:23 05.08.2019
4168 Smoke 20 1009 40 5000 3 280 12:50 05.08.2019
4169 Smoke 21 1009 32 5000 4 290 12:22 05.08.2019
4170 Smoke 21 1009 32 5000 4 280 11:55 05.08.2019
4171 Smoke 21 1009 32 5000 5 290 11:37 05.08.2019
4172 Smoke 21 1009 32 5000 5 290 11:18 05.08.2019
4173 Smoke 22 1009 28 5000 5 290 10:43 05.08.2019
4174 Smoke 22 1009 28 5000 5 290 10:25 05.08.2019
4175 Smoke 21 1009 32 5000 4 290 09:54 05.08.2019
4176 Smoke 21 1009 32 5000 4 310 09:36 05.08.2019
4177 Smoke 21 1009 32 5000 4 310 09:18 05.08.2019
4178 Smoke 22 1009 33 5000 6 280 08:41 05.08.2019
4179 Smoke 22 1009 33 5000 6 280 08:20 05.08.2019
4180 Smoke 22 1009 30 5000 5 280 07:45 05.08.2019
4181 Smoke 22 1009 30 5000 5 280 07:27 05.08.2019
4182 Smoke 22 1009 33 5000 3 290 06:39 05.08.2019
4183 Smoke 21 1009 37 5000 3 280 05:52 05.08.2019
4184 Smoke 20 1009 40 5000 3 270 05:20 05.08.2019
4185 Smoke 20 1009 37 5000 3 280 04:28 05.08.2019
4186 Smoke 18 1009 45 5000 2 290 03:38 05.08.2019
4187 Smoke 15 1009 58 5000 2 300 02:37 05.08.2019
4188 Smoke 13 1009 62 5000 2 300 01:36 05.08.2019
4189 Smoke 11 1009 71 5000 3 300 00:43 05.08.2019
4190 Smoke 11 1009 71 5000 3 300 00:24 05.08.2019
4191 Smoke 10 1009 76 5000 3 300 23:59 04.08.2019
4192 Smoke 10 1009 76 5000 3 290 23:40 04.08.2019
4193 Smoke 10 1009 76 5000 3 290 23:20 04.08.2019
4194 Smoke 10 1008 76 5000 3 300 22:56 04.08.2019
4195 Smoke 10 1008 76 5000 4 290 22:37 04.08.2019
4196 Smoke 10 1008 76 5000 4 290 22:19 04.08.2019
4197 Clear 10 1007 76 10000 3 290 21:44 04.08.2019
4198 Clear 10 1007 76 10000 3 290 21:22 04.08.2019
4199 Clear 10 1007 76 10000 3 300 20:55 04.08.2019
4200 Clear 11 1007 71 10000 4 300 20:37 04.08.2019
4201 Clear 11 1007 71 10000 4 300 20:18 04.08.2019
4202 Clear 12 1006 71 10000 5 300 19:42 04.08.2019
4203 Clear 12 1006 71 10000 5 300 19:24 04.08.2019
4204 Clouds 12 1006 71 10000 4 300 18:42 04.08.2019
4205 Clouds 12 1006 71 10000 4 300 18:21 04.08.2019
4206 Clouds 13 1006 66 10000 4 300 17:54 04.08.2019
4207 Rain 15 1006 62 10000 3 280 17:36 04.08.2019
4208 Rain 15 1006 62 10000 3 280 17:18 04.08.2019
4209 Rain 16 1005 59 10000 5 270 16:41 04.08.2019
4210 Rain 16 1005 59 10000 5 270 16:41 04.08.2019
4211 Rain 16 1005 59 10000 5 270 16:22 04.08.2019
4212 Clouds 16 1005 59 10000 3 280 15:45 04.08.2019
4213 Clouds 16 1005 59 10000 3 280 15:23 04.08.2019
4214 Clouds 17 1005 55 10000 2 270 14:46 04.08.2019
4215 Clouds 17 1005 55 10000 2 270 14:27 04.08.2019
4216 -273 0 0 0 0 0 13:59 04.08.2019
4217 Clear 17 1004 59 10000 2 240 13:41 04.08.2019
4218 Clear 17 1004 59 10000 2 240 13:22 04.08.2019
4219 Clear 20 1004 42 10000 1 180 12:44 04.08.2019
4220 Clear 20 1004 42 10000 1 180 12:25 04.08.2019
4221 Clear 20 1004 42 10000 1 130 11:56 04.08.2019
4222 Clear 19 1003 48 10000 2 80 11:37 04.08.2019
4223 Clear 19 1003 48 10000 2 80 11:19 04.08.2019
4224 Clear 20 1003 37 10000 2 350 10:40 04.08.2019
4225 Clear 20 1003 37 10000 2 350 10:20 04.08.2019
4226 Clear 20 1003 40 10000 4 320 09:44 04.08.2019
4227 Clear 20 1003 40 10000 4 320 09:22 04.08.2019
4228 Clear 21 1002 37 10000 4 310 08:45 04.08.2019
4229 Clear 21 1002 37 10000 4 310 08:26 04.08.2019
4230 Clear 20 1002 42 10000 4 330 07:52 04.08.2019
4231 Clear 19 1002 48 10000 4 320 06:57 04.08.2019
4232 Clear 18 1002 55 10000 5 300 06:28 04.08.2019
4233 Clouds 15 1001 72 10000 5 280 04:26 04.08.2019
4234 Clouds 12 1001 87 10000 5 300 02:41 04.08.2019
4235 Clouds 12 1001 87 10000 4 310 01:39 04.08.2019
4236 Clouds 12 1001 87 10000 4 310 01:18 04.08.2019
4237 Clouds 12 1001 87 10000 4 310 01:18 04.08.2019
4238 Clouds 12 1000 87 10000 3 310 00:41 04.08.2019
4239 Clouds 12 1000 87 10000 3 310 00:19 04.08.2019
4240 Mist 11 1000 93 5000 4 330 23:40 03.08.2019
4241 Mist 11 1000 93 5000 4 330 23:18 03.08.2019
4242 Rain 10 999 100 2400 5 360 22:44 03.08.2019
4243 Rain 10 999 100 2400 5 360 22:22 03.08.2019
4244 Rain 10 999 100 5000 5 360 21:59 03.08.2019
4245 Rain 10 998 100 3200 4 340 21:37 03.08.2019
4246 Rain 10 998 100 3200 4 340 21:19 03.08.2019
4247 Rain 10 997 100 5000 4 330 20:42 03.08.2019
4248 Rain 10 997 100 5000 4 330 20:22 03.08.2019
4249 Rain 11 997 93 3200 3 320 19:42 03.08.2019
4250 Rain 11 997 93 3200 3 320 19:24 03.08.2019
4251 Clouds 11 997 93 10000 3 320 18:53 03.08.2019
4252 Clouds 11 997 93 10000 3 320 18:27 03.08.2019
4253 Clouds 11 997 93 10000 3 300 17:49 03.08.2019
4254 Clouds 11 997 93 10000 3 320 17:22 03.08.2019
4255 Clouds 11 997 93 10000 3 330 16:56 03.08.2019
4256 Clouds 11 997 93 10000 4 330 16:37 03.08.2019
4257 Clouds 11 997 93 10000 4 330 16:19 03.08.2019
4258 Clouds 11 997 93 10000 4 320 15:43 03.08.2019
4259 Clouds 11 997 93 10000 4 320 15:23 03.08.2019
4260 Mist 12 997 93 5000 2 310 14:41 03.08.2019
4261 Mist 12 997 93 5000 2 310 14:21 03.08.2019
4262 Mist 12 996 93 5000 2 330 13:52 03.08.2019
4263 Mist 12 996 93 5000 2 340 13:25 03.08.2019
4264 Rain 12 996 100 5000 1 20 12:58 03.08.2019
4265 Rain 12 996 100 5000 2 80 12:39 03.08.2019
4266 Rain 12 996 100 5000 2 80 12:21 03.08.2019
4267 Rain 12 996 100 2000 2 70 11:49 03.08.2019
4268 Rain 12 996 100 5000 3 90 11:27 03.08.2019
4269 Rain 12 996 93 2400 5 100 10:42 03.08.2019
4270 Rain 12 996 93 2400 5 100 10:24 03.08.2019
4271 Rain 12 997 100 3200 5 100 09:44 03.08.2019
4272 Rain 12 997 100 3200 5 100 09:22 03.08.2019
4273 Rain 13 997 93 3200 5 100 08:54 03.08.2019
4274 Rain 12 998 93 3200 6 80 07:56 03.08.2019
4275 Rain 12 999 93 3200 6 90 07:36 03.08.2019
4276 Rain 12 999 93 5000 6 100 06:39 03.08.2019
4277 Rain 13 1001 93 5000 3 120 04:56 03.08.2019
4278 Rain 13 1003 93 10000 3 140 02:40 03.08.2019
4279 Clouds 14 1004 87 10000 2 170 01:50 03.08.2019
4280 Clouds 14 1004 87 10000 2 170 01:50 03.08.2019
4281 Clear 13 1004 87 10000 2 180 00:50 03.08.2019
4282 Clear 13 1004 87 10000 2 180 00:28 03.08.2019
4283 Clear 13 1005 82 10000 2 200 23:41 02.08.2019
4284 Clear 13 1005 82 10000 2 200 23:19 02.08.2019
4285 Clear 13 1005 82 10000 1 170 22:57 02.08.2019
4286 Clear 12 1005 87 10000 2 240 22:38 02.08.2019
4287 Clear 12 1005 87 10000 2 240 22:20 02.08.2019
4288 Clear 11 1005 87 10000 1 200 21:44 02.08.2019
4289 Clear 11 1005 87 10000 1 200 21:25 02.08.2019
4290 Clear 11 1006 87 10000 1 260 20:59 02.08.2019
4291 Clear 12 1006 81 10000 1 280 20:41 02.08.2019
4292 Clear 12 1006 81 10000 1 280 20:20 02.08.2019
4293 Clear 13 1005 76 10000 1 180 19:48 02.08.2019
4294 Clear 13 1006 76 10000 2 210 19:28 02.08.2019
4295 Clear 13 1006 76 10000 3 290 18:45 02.08.2019
4296 Clear 13 1006 76 10000 3 290 18:26 02.08.2019
4297 Clear 14 1006 67 10000 4 290 17:48 02.08.2019
4298 Clear 14 1006 71 10000 2 260 17:25 02.08.2019
4299 Clear 14 1006 71 10000 3 200 16:59 02.08.2019
4300 Clear 14 1006 71 10000 3 200 16:39 02.08.2019
4301 Clear 14 1006 71 10000 3 200 16:19 02.08.2019
4302 Clear 14 1006 71 10000 3 200 15:44 02.08.2019
4303 Clear 14 1006 71 10000 3 200 15:20 02.08.2019
4304 Clear 15 1006 72 10000 3 200 14:47 02.08.2019
4305 Clear 15 1006 72 10000 3 200 14:19 02.08.2019
4306 Clear 16 1006 63 10000 2 180 13:50 02.08.2019
4307 Clear 17 1006 51 10000 2 190 13:29 02.08.2019
4308 Clear 18 1006 48 10000 3 190 12:47 02.08.2019
4309 Clear 19 1006 45 10000 3 190 12:25 02.08.2019
4310 Clear 19 1006 42 10000 3 180 11:59 02.08.2019
4311 Clear 20 1006 40 10000 3 180 11:40 02.08.2019
4312 Clear 20 1006 40 10000 3 180 11:22 02.08.2019
4313 Clear 20 1006 37 10000 3 150 10:44 02.08.2019
4314 Clear 20 1006 37 10000 3 150 10:24 02.08.2019
4315 Clear 20 1006 37 10000 2 160 09:53 02.08.2019
4316 Clear 20 1006 34 10000 3 150 09:29 02.08.2019
4317 Clear 20 1006 34 10000 2 150 08:54 02.08.2019
4318 Clear 20 1006 37 10000 3 120 08:25 02.08.2019
4319 Clear 20 1006 40 10000 2 130 07:54 02.08.2019
4320 Clear 19 1006 42 10000 2 150 07:35 02.08.2019
4321 Clear 19 1006 42 10000 2 140 06:58 02.08.2019
4322 Clear 18 1006 52 10000 2 140 06:27 02.08.2019
4323 Clouds 18 1006 55 10000 1 160 05:41 02.08.2019
4324 Clouds 14 1006 76 10000 2 10 03:32 02.08.2019
4325 Clouds 13 1006 87 10000 2 340 02:37 02.08.2019
4326 Clouds 12 1006 87 10000 2 330 01:30 02.08.2019
4327 Clouds 12 1005 87 10000 3 330 00:31 02.08.2019
4328 Clouds 12 1005 87 10000 3 330 23:44 01.08.2019
4329 Clouds 12 1005 87 10000 3 330 23:24 01.08.2019
4330 Clouds 12 1005 87 10000 3 350 22:42 01.08.2019
4331 Clouds 12 1005 87 10000 3 350 22:22 01.08.2019
4332 Clouds 11 1005 93 10000 3 330 21:55 01.08.2019
4333 Clouds 11 1005 93 10000 2 320 21:37 01.08.2019
4334 Clouds 11 1005 93 10000 2 320 21:19 01.08.2019
4335 Clouds 12 1005 87 10000 2 340 20:44 01.08.2019
4336 Clouds 12 1005 87 10000 2 340 20:23 01.08.2019
4337 Clouds 12 1005 87 10000 3 20 19:45 01.08.2019
4338 Clouds 12 1005 87 10000 3 20 19:23 01.08.2019
4339 Clouds 12 1005 87 10000 4 30 18:58 01.08.2019
4340 Clouds 12 1005 87 10000 3 360 18:40 01.08.2019
4341 Clouds 12 1005 87 10000 3 360 18:21 01.08.2019
4342 Clouds 12 1005 87 10000 2 30 17:45 01.08.2019
4343 Clouds 12 1005 87 10000 2 30 17:26 01.08.2019
4344 Clouds 12 1005 87 10000 3 30 16:44 01.08.2019
4345 Clouds 12 1005 87 10000 3 30 16:22 01.08.2019
4346 Rain 12 1005 87 10000 4 40 15:46 01.08.2019
4347 Rain 12 1005 87 10000 3 20 15:20 01.08.2019
4348 Rain 12 1005 87 10000 3 40 14:55 01.08.2019
4349 Rain 12 1005 87 10000 3 50 14:37 01.08.2019
4350 Rain 12 1005 87 10000 3 50 14:18 01.08.2019
4351 Rain 12 1005 87 10000 4 70 13:41 01.08.2019
4352 Rain 12 1005 87 10000 4 70 13:22 01.08.2019
4353 Rain 12 1005 87 10000 5 70 12:58 01.08.2019
4354 Rain 12 1005 87 10000 4 40 12:40 01.08.2019
4355 Rain 12 1005 87 10000 4 40 12:21 01.08.2019
4356 Rain 13 1006 82 10000 5 10 11:41 01.08.2019
4357 Rain 13 1006 82 10000 5 10 11:22 01.08.2019
4358 Clouds 14 1005 71 10000 7 10 10:45 01.08.2019
4359 Clouds 14 1005 71 10000 7 10 10:27 01.08.2019
4360 Rain 17 1005 51 10000 6 360 09:56 01.08.2019
4361 Clouds 19 1005 34 10000 5 20 09:38 01.08.2019
4362 Clouds 19 1005 34 10000 5 20 09:20 01.08.2019
4363 Clear 21 1005 28 10000 3 30 08:42 01.08.2019
4364 Clear 21 1005 28 10000 3 30 08:19 01.08.2019
4365 Clear 22 1006 26 10000 1 50 07:46 01.08.2019
4366 Clear 22 1006 26 10000 1 50 07:22 01.08.2019
4367 Clear 21 1006 28 10000 1 190 06:45 01.08.2019
4368 Clear 21 1006 30 10000 2 100 05:37 01.08.2019
4369 Clear 18 1007 39 10000 1 30 03:53 01.08.2019
4370 Clear 16 1008 51 10000 1 70 02:26 01.08.2019
4371 Clear 11 1009 66 10000 1 330 00:41 01.08.2019
4372 Clear 10 1009 71 10000 2 330 00:19 01.08.2019
4373 Clear 7 1009 75 10000 2 320 23:42 31.07.2019
4374 Clear 7 1009 75 10000 2 320 23:20 31.07.2019
4375 Clear 5 1008 75 10000 2 300 22:47 31.07.2019
4376 Clear 5 1008 75 10000 2 300 22:29 31.07.2019
4377 Clear 5 1008 55 10000 3 320 21:45 31.07.2019
4378 Clear 5 1008 55 10000 3 320 21:24 31.07.2019
4379 Clear 5 1008 52 10000 2 310 20:58 31.07.2019
4380 Clear 5 1008 52 10000 2 310 20:58 31.07.2019
4381 Clear 5 1008 52 10000 2 310 20:39 31.07.2019
4382 Clear 5 1008 52 10000 2 310 20:21 31.07.2019
4383 Clear 6 1008 70 10000 2 310 19:41 31.07.2019
4384 Clear 6 1008 70 10000 2 310 19:23 31.07.2019
4385 Clear 7 1008 65 10000 2 310 18:53 31.07.2019
4386 Clear 7 1008 65 10000 3 310 18:25 31.07.2019
4387 Clear 8 1008 61 10000 3 310 17:57 31.07.2019
4388 Clear 8 1008 65 10000 2 300 17:39 31.07.2019
4389 Clear 8 1008 65 10000 2 300 17:19 31.07.2019
4390 Clear 11 1008 53 10000 2 310 16:42 31.07.2019
4391 Clear 11 1008 53 10000 2 310 16:20 31.07.2019
4392 Clear 12 1008 54 10000 2 320 15:44 31.07.2019
4393 Clear 12 1008 54 10000 2 320 15:24 31.07.2019
4394 Clear 15 1008 41 10000 2 340 14:43 31.07.2019
4395 Clear 15 1008 41 10000 2 340 14:22 31.07.2019
4396 Clear 16 1008 44 10000 2 10 13:57 31.07.2019
4397 Clear 17 1008 36 10000 2 30 13:38 31.07.2019
4398 Clear 17 1008 36 10000 2 30 13:20 31.07.2019
4399 Clear 19 1008 29 10000 3 40 12:45 31.07.2019
4400 Clear 19 1008 29 10000 3 40 12:45 31.07.2019
4401 Clear 19 1008 29 10000 3 40 12:27 31.07.2019
4402 Clear 20 1008 28 10000 4 50 11:58 31.07.2019
4403 Clear 20 1008 30 10000 5 60 11:38 31.07.2019
4404 Clear 20 1008 30 10000 5 60 11:19 31.07.2019
4405 Clear 20 1007 30 10000 4 60 10:41 31.07.2019
4406 Clear 20 1007 30 10000 4 60 10:20 31.07.2019
4407 Clear 20 1008 28 10000 5 50 09:43 31.07.2019
4408 Clear 20 1008 28 10000 5 50 09:24 31.07.2019
4409 -273 0 0 0 0 0 08:56 31.07.2019
4410 Clear 20 1008 30 10000 4 70 08:37 31.07.2019
4411 Clear 20 1008 30 10000 4 70 08:19 31.07.2019
4412 Clear 20 1008 30 10000 3 80 07:34 31.07.2019
4413 Clear 20 1008 30 10000 3 80 07:34 31.07.2019
4414 Clear 19 1009 32 10000 4 50 06:31 31.07.2019
4415 Clear 18 1009 34 10000 3 40 04:50 31.07.2019
4416 Clear 12 1009 54 10000 3 30 01:32 31.07.2019
4417 Clear 9 1009 66 10000 3 350 23:58 30.07.2019
4418 Clear 8 1009 65 10000 3 350 23:39 30.07.2019
4419 Clear 8 1009 65 10000 3 350 23:19 30.07.2019
4420 Clear 8 1009 65 10000 2 340 22:45 30.07.2019
4421 Clear 8 1009 65 10000 2 340 22:25 30.07.2019
4422 Clear 9 1008 61 10000 3 350 21:40 30.07.2019
4423 Clear 9 1008 61 10000 3 350 21:20 30.07.2019
4424 Clear 9 1008 61 10000 3 340 20:59 30.07.2019
4425 Clear 9 1008 66 10000 3 350 20:41 30.07.2019
4426 Clear 9 1008 66 10000 3 350 20:23 30.07.2019
4427 Clear 10 1008 66 10000 3 350 19:56 30.07.2019
4428 Clear 11 1007 66 10000 3 340 19:38 30.07.2019
4429 Clear 12 1007 62 10000 3 340 18:55 30.07.2019
4430 Clear 12 1007 62 10000 3 340 18:37 30.07.2019
4431 Clear 12 1007 62 10000 3 340 18:18 30.07.2019
4432 Clear 12 1007 66 10000 2 310 17:41 30.07.2019
4433 Clear 12 1007 66 10000 2 310 17:19 30.07.2019
4434 Clear 13 1006 66 10000 3 330 16:50 30.07.2019
4435 Clear 14 1006 62 10000 2 320 16:20 30.07.2019
4436 Clear 15 1006 58 10000 2 310 15:55 30.07.2019
4437 Clear 16 1006 55 10000 2 320 15:36 30.07.2019
4438 Clear 16 1006 55 10000 2 320 15:18 30.07.2019
4439 Clear 18 1006 48 10000 2 350 14:41 30.07.2019
4440 Clear 18 1006 48 10000 2 350 14:19 30.07.2019
4441 Clear 19 1006 42 10000 4 360 13:44 30.07.2019
4442 Clear 19 1006 42 10000 4 360 13:25 30.07.2019
4443 Clouds 19 1005 45 10000 3 10 12:57 30.07.2019
4444 Clouds 19 1005 45 10000 4 30 12:38 30.07.2019
4445 Clouds 19 1005 45 10000 4 30 12:19 30.07.2019
4446 Clear 21 1004 40 10000 5 20 11:39 30.07.2019
4447 Clear 21 1004 40 10000 5 20 11:20 30.07.2019
4448 Clear 21 1004 40 10000 4 350 10:46 30.07.2019
4449 Clear 21 1004 40 10000 4 350 10:26 30.07.2019
4450 Clear 22 1004 37 10000 4 340 09:49 30.07.2019
4451 Clear 21 1004 37 10000 5 320 09:31 30.07.2019
4452 Clear 23 1004 35 10000 4 310 08:49 30.07.2019
4453 Clear 21 1003 40 10000 3 320 08:31 30.07.2019
4454 Clear 22 1003 37 10000 4 300 07:47 30.07.2019
4455 Clear 21 1003 40 10000 4 300 07:28 30.07.2019
4456 Clear 20 1003 45 10000 3 310 06:48 30.07.2019
4457 Clear 20 1003 42 10000 3 290 05:56 30.07.2019
4458 Clear 20 1003 45 10000 4 310 05:32 30.07.2019
4459 Clear 15 1003 62 10000 3 260 02:31 30.07.2019
4460 Clear 13 1003 71 10000 4 280 01:19 30.07.2019
4461 Clear 12 1002 76 10000 4 290 00:21 30.07.2019
4462 Clear 12 1002 76 10000 4 290 23:45 29.07.2019
4463 Clear 12 1002 76 10000 4 290 23:26 29.07.2019
4464 Clear 12 1002 76 10000 5 290 22:57 29.07.2019
4465 Clear 12 1002 71 10000 5 300 22:38 29.07.2019
4466 Clear 12 1002 71 10000 5 300 22:20 29.07.2019
4467 Clear 12 1001 76 10000 5 310 21:56 29.07.2019
4468 Clear 12 1001 71 10000 5 310 21:37 29.07.2019
4469 Clear 12 1001 71 10000 5 310 21:18 29.07.2019
4470 Clear 12 1001 76 10000 5 310 20:48 29.07.2019
4471 Clear 13 1001 66 10000 5 300 20:24 29.07.2019
4472 Clear 13 1001 66 10000 4 300 19:56 29.07.2019
4473 Clear 14 1000 67 10000 4 300 19:37 29.07.2019
4474 Clear 14 1000 67 10000 4 300 19:19 29.07.2019
4475 Smoke 15 1000 67 5000 3 310 18:42 29.07.2019
4476 Smoke 15 1000 67 5000 3 310 18:22 29.07.2019
4477 Smoke 16 1000 67 5000 4 320 17:51 29.07.2019
4478 Smoke 17 1000 63 5000 5 310 17:33 29.07.2019
4479 Smoke 18 999 59 5000 5 310 16:58 29.07.2019
4480 Smoke 19 999 59 5000 4 320 16:39 29.07.2019
4481 Smoke 19 999 59 5000 4 320 16:21 29.07.2019
4482 Smoke 20 999 56 5000 5 320 15:51 29.07.2019
4483 Smoke 20 999 56 5000 5 320 15:31 29.07.2019
4484 Smoke 20 999 56 5000 3 320 14:56 29.07.2019
4485 Smoke 21 999 52 5000 4 320 14:37 29.07.2019
4486 Smoke 21 999 52 5000 4 320 14:18 29.07.2019
4487 Clear 22 998 49 10000 6 320 13:41 29.07.2019
4488 Clear 22 998 49 10000 6 320 13:23 29.07.2019
4489 Clear 24 997 47 10000 6 330 12:42 29.07.2019
4490 Clear 24 997 47 10000 6 330 12:22 29.07.2019
4491 Clear 27 996 39 10000 6 330 11:43 29.07.2019
4492 Clear 27 996 39 10000 6 330 11:22 29.07.2019
4493 Clear 31 996 27 10000 3 290 10:45 29.07.2019
4494 Clear 31 996 27 10000 3 290 10:25 29.07.2019
4495 Clear 31 995 20 10000 3 170 09:48 29.07.2019
4496 Clear 31 995 20 10000 3 180 09:28 29.07.2019
4497 Clear 31 995 20 10000 4 160 08:57 29.07.2019
4498 Clear 31 995 19 10000 3 160 08:31 29.07.2019
4499 Clear 31 996 20 10000 4 160 07:58 29.07.2019
4500 Clear 31 996 19 10000 4 160 07:36 29.07.2019
4501 Clear 31 996 20 10000 4 170 06:45 29.07.2019
4502 Clear 29 997 35 10000 4 140 05:46 29.07.2019
4503 Clear 28 997 37 10000 4 140 04:51 29.07.2019
4504 Clear 22 998 49 10000 2 160 02:26 29.07.2019
4505 Clear 19 998 63 10000 1 150 01:41 29.07.2019
4506 Clear 19 998 63 10000 1 150 01:21 29.07.2019
4507 Clear 19 998 63 10000 1 150 01:21 29.07.2019
4508 Clear 16 998 67 10000 1 220 00:41 29.07.2019
4509 Clear 16 998 67 10000 1 220 00:19 29.07.2019
4510 Clear 12 998 76 10000 1.41 200.199 23:40 28.07.2019
4511 Clear 12 998 76 10000 1.41 200.199 23:18 28.07.2019
4512 Clear 10 998 76 10000 1 310 22:39 28.07.2019
4513 Clear 10 998 76 10000 1 310 22:21 28.07.2019
4514 Clear 10 998 76 10000 2 270 21:46 28.07.2019
4515 Clear 10 998 76 10000 2 270 21:19 28.07.2019
4516 Clear 10 998 76 10000 1 270 20:47 28.07.2019
4517 Clear 11 998 71 10000 2 290 20:29 28.07.2019
4518 Clear 11 998 76 10000 2 300 19:42 28.07.2019
4519 Clear 11 998 76 10000 2 300 19:22 28.07.2019
4520 Clear 13 998 66 10000 2 300 18:51 28.07.2019
4521 Clear 13 998 71 10000 1 350 18:32 28.07.2019
4522 Clear 13 998 71 10000 1 350 18:32 28.07.2019
4523 Clear 14 998 67 10000 2 250 17:59 28.07.2019
4524 Clear 14 998 67 10000 2 250 17:41 28.07.2019
4525 Clear 14 998 67 10000 2 250 17:21 28.07.2019
4526 Clear 15 998 67 10000 2 260 16:57 28.07.2019
4527 Clear 16 998 67 10000 1 280 16:38 28.07.2019
4528 Clear 16 998 67 10000 1 280 16:19 28.07.2019
4529 Smoke 18 998 59 5000 2 280 15:42 28.07.2019
4530 Smoke 18 998 59 5000 2 280 15:21 28.07.2019
4531 Clear 21 998 56 10000 2 320 14:37 28.07.2019
4532 Clear 21 998 56 10000 2 320 14:37 28.07.2019
4533 Clear 21 998 56 10000 2 320 14:19 28.07.2019
4534 Clear 25 998 50 10000 2 90 13:44 28.07.2019
4535 Clear 25 998 50 10000 2 90 13:23 28.07.2019
4536 Clear 26 997 44 10000 1 90 12:59 28.07.2019
4537 Clear 27 997 34 10000 1 100 12:40 28.07.2019
4538 Clear 27 997 34 10000 1 100 12:22 28.07.2019
4539 Clear 28 997 39 10000 1 60 11:47 28.07.2019
4540 Clear 29 997 26 10000 1 110 11:27 28.07.2019
4541 Clear 30 998 22 10000 1 140 10:41 28.07.2019
4542 Clear 30 998 22 10000 1 140 10:22 28.07.2019
4543 Clear 30 998 20 10000 3 160 09:47 28.07.2019
4544 Clear 30 998 20 10000 3 160 09:29 28.07.2019
4545 Clear 30 998 20 10000 3 160 08:52 28.07.2019
4546 Clear 29 998 23 10000 3 160 08:30 28.07.2019
4547 Clear 29 999 25 10000 3 140 07:59 28.07.2019
4548 Clear 29 999 23 10000 3 170 07:38 28.07.2019
4549 Clear 28 999 24 10000 4 170 06:46 28.07.2019
4550 Clear 28 999 26 10000 5 170 05:53 28.07.2019
4551 Clear 23 1000 43 10000 4 170 03:39 28.07.2019
4552 Clear 21 1000 49 10000 3 170 02:24 28.07.2019
4553 Clear 19 1000 55 10000 3 160 01:21 28.07.2019
4554 Clear 17 1000 63 10000 3 150 00:47 28.07.2019
4555 Clear 17 1000 63 10000 3 150 00:22 28.07.2019
4556 Clear 17 1000 59 10000 2 160 23:46 27.07.2019
4557 Clear 16 1000 67 10000 2 170 23:22 27.07.2019
4558 Clear 12 999 76 10000 1 200 22:42 27.07.2019
4559 Clear 12 999 76 10000 1 200 22:22 27.07.2019
4560 Clear 11 999 71 10000 2 200 21:43 27.07.2019
4561 Clear 11 999 71 10000 2 200 21:20 27.07.2019
4562 Clear 12 999 66 10000 1 200 20:53 27.07.2019
4563 Clear 16 999 51 10000 2 170 20:26 27.07.2019
4564 Clear 13 999 66 10000 1 150 19:58 27.07.2019
4565 Clear 16 999 51 10000 2 180 19:38 27.07.2019
4566 Clear 16 999 51 10000 2 180 19:19 27.07.2019
4567 Clear 17 998 55 10000 3 160 18:45 27.07.2019
4568 Clear 17 998 55 10000 3 160 18:27 27.07.2019
4569 Clear 17 998 48 10000 2 180 17:42 27.07.2019
4570 Clear 17 998 48 10000 2 180 17:24 27.07.2019
4571 Clear 19 998 39 10000 3 190 16:51 27.07.2019
4572 Clear 20 998 37 10000 3 190 16:32 27.07.2019
4573 Clear 19 998 42 10000 3 190 15:55 27.07.2019
4574 Clear 20 998 42 10000 3 180 15:25 27.07.2019
4575 Clear 21 998 46 10000 2 150 14:51 27.07.2019
4576 Clear 23 997 40 10000 2 150 14:33 27.07.2019
4577 Clear 25 997 36 10000 2 140 13:58 27.07.2019
4578 Clear 26 997 31 10000 2 140 13:40 27.07.2019
4579 Clear 26 997 31 10000 2 140 13:20 27.07.2019
4580 Clear 28 997 26 10000 3 140 12:45 27.07.2019
4581 Clear 28 997 26 10000 3 140 12:25 27.07.2019
4582 Clear 29 997 17 10000 3 160 11:46 27.07.2019
4583 Clear 29 997 17 10000 3 160 11:25 27.07.2019
4584 Clear 29 997 17 10000 3 160 11:25 27.07.2019
4585 Clear 30 997 15 10000 3 160 10:56 27.07.2019
4586 Clear 30 997 15 10000 4 150 10:38 27.07.2019
4587 Clear 30 997 15 10000 4 160 10:18 27.07.2019
4588 Clear 31 997 28 10000 4 170 09:40 27.07.2019
4589 Clear 31 997 28 10000 4 170 09:21 27.07.2019
4590 Clear 30 997 15 10000 5 170 08:45 27.07.2019
4591 Clear 30 997 15 10000 5 170 08:25 27.07.2019
4592 Clear 30 997 15 10000 5 170 07:45 27.07.2019
4593 Clear 30 997 15 10000 5 170 07:23 27.07.2019
4594 Clear 30 997 15 10000 5 170 06:55 27.07.2019
4595 Clear 30 998 16 10000 5 170 06:28 27.07.2019
4596 Clear 28 998 26 10000 6 170 05:42 27.07.2019
4597 Clear 28 998 28 10000 5 180 04:54 27.07.2019
4598 Clear 26 998 31 10000 5 170 03:57 27.07.2019
4599 Clear 22 999 43 10000 2 140 02:44 27.07.2019
4600 Clear 22 999 43 10000 2 140 02:24 27.07.2019
4601 Clear 20 999 49 10000 3 150 01:41 27.07.2019
4602 Clear 19 999 48 10000 3 180 00:51 27.07.2019
4603 Clear 18 999 52 10000 2 150 00:31 27.07.2019
4604 Clear 17 999 55 10000 2 170 23:50 26.07.2019
4605 Clear 16 999 55 10000 2 180 23:29 26.07.2019
4606 Clear 11 999 66 10000 1.9 181.268 22:45 26.07.2019
4607 Clear 11 999 66 10000 1.9 181.268 22:26 26.07.2019
4608 Clear 10 999 71 10000 1.9 181.268 21:58 26.07.2019
4609 Clear 10 999 71 10000 1.9 181.268 21:58 26.07.2019
4610 Clear 8 998 75 10000 1 200 21:37 26.07.2019
4611 Clear 8 998 75 10000 1 200 21:18 26.07.2019
4612 Clear 10 998 61 10000 1 280 20:41 26.07.2019
4613 Clear 10 998 61 10000 1 280 20:21 26.07.2019
4614 Clear 10 998 81 10000 1 190 19:42 26.07.2019
4615 Clear 10 998 81 10000 1 190 19:23 26.07.2019
4616 Clear 11 998 76 10000 1 180 18:46 26.07.2019
4617 Clear 11 998 76 10000 1 180 18:23 26.07.2019
4618 Clear 16 998 51 10000 2 180 17:58 26.07.2019
4619 Clear 17 998 48 10000 2 170 17:40 26.07.2019
4620 Clear 17 998 48 10000 2 170 17:18 26.07.2019
4621 Clear 18 998 36 10000 3 180 16:55 26.07.2019
4622 Clear 16 998 77 10000 3 150 16:37 26.07.2019
4623 Clear 16 998 77 10000 3 150 16:18 26.07.2019
4624 Clear 18 997 39 10000 2 210 15:45 26.07.2019
4625 Clear 18 997 39 10000 2 210 15:22 26.07.2019
4626 Clear 20 997 30 10000 2 220 14:58 26.07.2019
4627 Clear 24 997 22 10000 3 190 14:40 26.07.2019
4628 Clear 24 997 22 10000 3 190 14:21 26.07.2019
4629 Clear 27 997 18 10000 3 190 13:39 26.07.2019
4630 Clear 27 997 18 10000 3 190 13:21 26.07.2019
4631 Clear 29 997 18 10000 2 130 12:43 26.07.2019
4632 Clear 29 997 18 10000 2 130 12:19 26.07.2019
4633 Clear 30 997 20 10000 3 140 11:39 26.07.2019
4634 Clear 30 997 20 10000 3 140 11:19 26.07.2019
4635 Clear 31 997 14 10000 2 140 10:52 26.07.2019
4636 Clear 31 997 15 10000 2 100 10:34 26.07.2019
4637 Clear 31 997 15 10000 1 90 09:55 26.07.2019
4638 Clear 32 997 15 10000 1 90 09:34 26.07.2019
4639 Clear 31 997 16 10000 2 80 08:43 26.07.2019
4640 Clear 31 997 16 10000 2 80 08:22 26.07.2019
4641 Clear 31 997 15 10000 1 100 07:58 26.07.2019
4642 Clear 31 998 14 10000 2 90 07:28 26.07.2019
4643 Clear 31 998 14 10000 1 70 06:53 26.07.2019
4644 Clear 29 999 13 10000 1 170 05:23 26.07.2019
4645 Clear 28 1000 21 10000 1 140 04:22 26.07.2019
4646 Clear 21 1000 43 10000 1 110 02:45 26.07.2019
4647 Clear 19 1001 48 10000 1 90 01:43 26.07.2019
4648 Clear 16 1001 48 10000 1 340 00:45 26.07.2019
4649 Clear 14 1001 47 10000 1 320 23:57 25.07.2019
4650 Clear 11 1001 53 10000 1 310 23:24 25.07.2019
4651 Clear 9 1001 61 10000 2 300 22:56 25.07.2019
4652 Clear 9 1001 61 10000 2 310 22:37 25.07.2019
4653 Clear 9 1001 61 10000 2 310 22:19 25.07.2019
4654 Clear 8 1001 65 10000 3 300 21:44 25.07.2019
4655 Clear 8 1001 65 10000 3 300 21:21 25.07.2019
4656 Clear 8 1001 65 10000 3 300 21:21 25.07.2019
4657 Clear 8 1001 61 10000 2 300 20:47 25.07.2019
4658 Clear 9 1001 61 10000 2 310 20:23 25.07.2019
4659 Clear 10 1001 57 10000 2 310 19:44 25.07.2019
4660 Clear 10 1001 57 10000 2 310 19:44 25.07.2019
4661 Clear 10 1001 57 10000 2 310 19:26 25.07.2019
4662 Clear 10 1001 57 10000 1 290 18:57 25.07.2019
4663 Clear 12 1001 50 10000 2 290 18:38 25.07.2019
4664 Clear 12 1001 50 10000 2 290 18:20 25.07.2019
4665 Clear 13 1001 54 10000 2 300 17:43 25.07.2019
4666 Clear 13 1001 54 10000 2 300 17:24 25.07.2019
4667 Clear 15 1001 54 10000 1 220 16:44 25.07.2019
4668 Clear 15 1001 54 10000 1 220 16:26 25.07.2019
4669 Clear 14 1001 50 10000 1 190 15:54 25.07.2019
4670 Clear 18 1001 36 10000 2 200 15:21 25.07.2019
4671 Clear 22 1001 28 10000 3 190 14:58 25.07.2019
4672 Clear 24 1001 23 10000 3 180 14:40 25.07.2019
4673 Clear 24 1001 23 10000 3 180 14:20 25.07.2019
4674 Clear 25 1001 33 10000 2 80 13:41 25.07.2019
4675 Clear 25 1001 33 10000 2 80 13:23 25.07.2019
4676 Clear 29 1001 45 10000 1 220 12:39 25.07.2019
4677 Clear 29 1001 25 10000 1 220 12:20 25.07.2019
4678 Clear 29 1002 12 10000 2 150 11:41 25.07.2019
4679 Clear 29 1002 12 10000 2 150 11:23 25.07.2019
4680 Clear 29 1002 12 10000 3 150 10:45 25.07.2019
4681 Clear 29 1002 12 10000 3 150 10:25 25.07.2019
4682 Clear 29 1002 12 10000 3 160 09:52 25.07.2019
4683 Clear 30 1003 10 10000 4 160 09:34 25.07.2019
4684 Clear 30 1003 9 10000 4 170 08:53 25.07.2019
4685 Clear 30 1003 9 10000 4 160 08:33 25.07.2019
4686 Clear 29 1004 10 10000 4 150 07:42 25.07.2019
4687 Clear 29 1004 10 10000 4 150 07:24 25.07.2019
4688 Clear 29 1005 12 10000 4 150 06:40 25.07.2019
4689 Clear 28 1005 20 10000 4 130 05:37 25.07.2019
4690 Clear 27 1006 22 10000 2 140 04:53 25.07.2019
4691 Clear 25 1007 29 10000 1 100 03:24 25.07.2019
4692 Clear 20 1008 49 10000 2 140 01:21 25.07.2019
4693 Clear 17 1009 59 10000 1 160 00:35 25.07.2019
4694 Clear 16 1009 51 10000 1.4 152.685 23:59 24.07.2019
4695 Clear 13 1009 58 10000 1.4 152.685 23:40 24.07.2019
4696 Clear 13 1009 58 10000 1.4 152.685 23:22 24.07.2019
4697 Clear 9 1009 66 10000 1 300 22:45 24.07.2019
4698 Clear 9 1009 66 10000 1 300 22:22 24.07.2019
4699 -273 0 0 0 0 0 21:56 24.07.2019
4700 Clear 8 1009 70 10000 1 290 21:38 24.07.2019
4701 Clear 8 1009 70 10000 1 290 21:38 24.07.2019
4702 Clear 8 1009 70 10000 1 290 21:19 24.07.2019
4703 Clear 9 1009 66 10000 1 290 20:46 24.07.2019
4704 Clear 9 1009 66 10000 1 290 20:28 24.07.2019
4705 Clear 9 1009 66 10000 1 260 19:58 24.07.2019
4706 Clear 10 1009 57 10000 2 290 19:40 24.07.2019
4707 Clear 10 1009 57 10000 2 290 19:40 24.07.2019
4708 Clear 10 1009 57 10000 2 290 19:20 24.07.2019
4709 Clear 11 1009 53 10000 2 300 18:43 24.07.2019
4710 Clear 11 1009 53 10000 2 300 18:24 24.07.2019
4711 Clear 11 1009 57 10000 2 290 17:47 24.07.2019
4712 Clear 12 1009 54 10000 1 270 17:22 24.07.2019
4713 Clear 14 1009 47 10000 2 300 16:57 24.07.2019
4714 Clear 13 1009 54 10000 2 300 16:39 24.07.2019
4715 Clear 13 1009 54 10000 2 300 16:20 24.07.2019
4716 Clear 14 1009 67 10000 1.17 174.779 15:37 24.07.2019
4717 Clear 14 1009 67 10000 0.61 83.868 15:19 24.07.2019
4718 Clear 23 1009 35 10000 1 130 14:45 24.07.2019
4719 Clear 23 1009 35 10000 1 130 14:20 24.07.2019
4720 Clear 26 1009 19 10000 2 160 13:40 24.07.2019
4721 Clear 17 1011 45 0 0.44 67.319 13:19 24.07.2019
4722 Clear 27 1010 13 10000 3 200 12:53 24.07.2019
4723 Clear 27 1010 13 10000 3 200 12:34 24.07.2019
4724 Clear 27 1010 13 10000 3 200 11:55 24.07.2019
4725 Clear 28 1010 12 10000 3 190 11:36 24.07.2019
4726 Clear 28 1010 12 10000 3 190 11:18 24.07.2019
4727 Clear 28 1010 12 10000 3 200 10:39 24.07.2019
4728 Clear 28 1010 12 10000 3 200 10:18 24.07.2019
4729 Clear 28 1011 12 10000 3 190 09:43 24.07.2019
4730 Clear 28 1011 12 10000 3 190 09:22 24.07.2019
4731 Clear 27 1011 13 10000 4 170 08:43 24.07.2019
4732 Clear 27 1011 13 10000 3 160 07:52 24.07.2019
4733 Clear 27 1012 13 10000 3 150 07:31 24.07.2019
4734 Clear 27 1012 14 10000 3 170 06:56 24.07.2019
4735 Clear 27 1012 15 10000 2 160 06:28 24.07.2019
4736 Clear 26 1013 16 10000 1 120 05:22 24.07.2019
4737 Clear 18 1014 45 10000 2 130 01:49 24.07.2019
4738 Clear 17 1014 55 10000 1 120 00:58 24.07.2019
4739 Clear 15 1014 62 10000 1 150 00:39 24.07.2019
4740 Clear 13 1014 58 10000 0.72 164.801 23:54 23.07.2019
4741 Clear 10 1014 61 10000 1 280 23:26 23.07.2019
4742 Clear 8 1014 65 10000 1 310 22:59 23.07.2019
4743 Clear 7 1014 70 10000 1 290 22:38 23.07.2019
4744 Clear 7 1014 70 10000 1 290 22:19 23.07.2019
4745 Clear 6 1014 70 10000 2 290 21:45 23.07.2019
4746 Clear 6 1014 70 10000 2 290 21:26 23.07.2019
4747 Clear 6 1014 70 10000 2 290 20:49 23.07.2019
4748 Clear 6 1013 70 10000 2 290 20:29 23.07.2019
4749 Clear 8 1013 65 10000 2 290 19:44 23.07.2019
4750 Clear 8 1013 65 10000 2 290 19:44 23.07.2019
4751 Clear 8 1013 65 10000 2 290 19:24 23.07.2019
4752 Clear 8 1013 65 10000 2 290 18:59 23.07.2019
4753 Clear 9 1013 61 10000 2 290 18:40 23.07.2019
4754 Clear 9 1013 61 10000 2 290 18:40 23.07.2019
4755 Clear 9 1013 61 10000 2 290 18:20 23.07.2019
4756 Clear 10 1013 61 10000 2 300 17:43 23.07.2019
4757 Clear 10 1013 61 10000 2 300 17:22 23.07.2019
4758 Clear 12 1013 54 10000 2 290 16:48 23.07.2019
4759 Clear 12 1012 54 10000 3 290 16:27 23.07.2019
4760 Clear 14 1012 54 10000 2 290 15:52 23.07.2019
4761 Clear 14 1012 54 10000 1 350 15:34 23.07.2019
4762 Clear 14 1012 58 10000 1 60 14:59 23.07.2019
4763 Clear 18 1012 39 10000 1 40 14:37 23.07.2019
4764 Clear 21 1012 28 10000 1 10 14:18 23.07.2019
4765 Clear 21 1012 28 10000 1 10 14:18 23.07.2019
4766 Clear 21 1012 28 10000 1 10 13:56 23.07.2019
4767 Clear 23 1012 25 10000 2 10 13:37 23.07.2019
4768 Clear 23 1012 25 10000 2 10 13:19 23.07.2019
4769 Clear 24 1012 19 10000 2 20 12:42 23.07.2019
4770 Clear 24 1012 19 10000 2 20 12:22 23.07.2019
4771 Clear 25 1012 16 10000 3 360 11:41 23.07.2019
4772 Clear 25 1012 16 10000 3 360 11:21 23.07.2019
4773 Clear 25 1012 15 10000 2 10 10:49 23.07.2019
4774 Clear 25 1012 16 10000 2 340 10:23 23.07.2019
4775 Clear 25 1012 16 10000 3 330 09:43 23.07.2019
4776 Clear 25 1012 16 10000 3 330 09:43 23.07.2019
4777 Clear 25 1012 16 10000 3 330 09:22 23.07.2019
4778 Clear 25 1012 16 10000 2 10 08:54 23.07.2019
4779 Clear 24 1012 19 10000 3 360 08:36 23.07.2019
4780 Clear 24 1012 19 10000 3 360 08:36 23.07.2019
4781 Clear 24 1012 19 10000 3 360 08:18 23.07.2019
4782 Clear 24 1012 19 10000 3 360 07:39 23.07.2019
4783 Clear 23 1012 20 10000 4 350 06:57 23.07.2019
4784 Clear 23 1012 20 10000 4 10 06:36 23.07.2019
4785 Clear 20 1013 28 10000 3 20 04:28 23.07.2019
4786 Clear 17 1014 33 10000 3 80 01:46 23.07.2019
4787 Clear 17 1014 36 10000 2 70 00:47 23.07.2019
4788 Clear 17 1014 36 10000 2 70 00:20 23.07.2019
4789 Clear 14 1014 58 10000 2 350 23:39 22.07.2019
4790 Clear 14 1014 58 10000 2 350 23:20 22.07.2019
4791 Clear 12 1013 66 10000 2 350 22:46 22.07.2019
4792 Clear 12 1013 66 10000 2 350 22:46 22.07.2019
4793 Clear 12 1013 66 10000 2 350 22:24 22.07.2019
4794 Clear 12 1013 66 10000 2 350 21:57 22.07.2019
4795 Clear 11 1013 71 10000 2 350 21:39 22.07.2019
4796 Clear 11 1013 71 10000 2 350 21:19 22.07.2019
4797 Clear 13 1012 66 10000 1 20 20:42 22.07.2019
4798 Clear 13 1012 66 10000 1 20 20:22 22.07.2019
4799 Clear 13 1012 62 10000 3 350 19:43 22.07.2019
4800 Clear 13 1012 62 10000 3 350 19:23 22.07.2019
4801 Clear 12 1011 66 10000 3 320 18:55 22.07.2019
4802 Clear 12 1011 71 10000 2 340 18:37 22.07.2019
4803 Clear 13 1011 66 10000 2 320 18:19 22.07.2019
4804 Clear 14 1011 71 10000 2 330 17:39 22.07.2019
4805 Clear 14 1011 71 10000 2 330 17:20 22.07.2019
4806 Clear 16 1011 63 10000 1 10 16:41 22.07.2019
4807 Clear 16 1011 63 10000 1 10 16:21 22.07.2019
4808 Clear 15 1011 67 10000 1 10 15:55 22.07.2019
4809 Clear 17 1011 63 10000 2 350 15:36 22.07.2019
4810 Clear 17 1011 63 10000 2 350 15:18 22.07.2019
4811 Clear 21 1010 46 10000 2 30 14:42 22.07.2019
4812 Clear 21 1010 46 10000 2 30 14:19 22.07.2019
4813 Clear 24 1010 36 10000 2 30 13:45 22.07.2019
4814 Clear 24 1010 36 10000 2 30 13:22 22.07.2019
4815 Clear 26 1010 27 10000 3 30 12:44 22.07.2019
4816 Clear 26 1010 27 10000 3 30 12:24 22.07.2019
4817 Clear 27 1010 22 10000 3 30 11:44 22.07.2019
4818 Clear 27 1010 22 10000 3 30 11:20 22.07.2019
4819 Clear 27 1010 21 10000 3 10 10:48 22.07.2019
4820 Clear 27 1010 21 10000 4 10 10:27 22.07.2019
4821 Clear 27 1010 22 10000 2 20 09:44 22.07.2019
4822 Clear 27 1010 22 10000 2 20 09:24 22.07.2019
4823 Clear 27 1011 22 10000 1 80 08:45 22.07.2019
4824 Clear 27 1011 22 10000 1 80 08:25 22.07.2019
4825 Clear 26 1011 26 10000 2 80 07:58 22.07.2019
4826 Clear 27 1011 22 10000 1 110 07:40 22.07.2019
4827 Clear 27 1011 22 10000 1 110 07:21 22.07.2019
4828 Smoke 22 1012 40 5000 2 120 03:57 22.07.2019
4829 Smoke 20 1013 45 5000 1 140 02:42 22.07.2019
4830 Smoke 18 1013 42 5000 1 230 00:57 22.07.2019
4831 Smoke 17 1013 45 5000 1.76 328.284 00:26 22.07.2019
4832 Smoke 15 1013 51 5000 1.99 285.779 23:55 21.07.2019
4833 Smoke 12 1013 58 5000 1 290 23:36 21.07.2019
4834 Smoke 10 1013 66 5000 1.99 285.779 22:54 21.07.2019
4835 Smoke 9 1013 70 5000 2 310 22:36 21.07.2019
4836 Smoke 9 1013 70 5000 2 310 22:18 21.07.2019
4837 Smoke 9 1014 66 5000 4 300 21:43 21.07.2019
4838 Smoke 9 1014 66 5000 4 300 21:22 21.07.2019
4839 Smoke 8 1014 70 5000 2 310 20:54 21.07.2019
4840 Smoke 8 1014 70 5000 2 300 20:36 21.07.2019
4841 Smoke 8 1014 70 5000 2 300 20:36 21.07.2019
4842 Smoke 8 1014 70 5000 2 300 20:18 21.07.2019
4843 Clear 9 1014 70 10000 2 300 19:44 21.07.2019
4844 Clear 9 1014 70 10000 2 300 19:22 21.07.2019
4845 Clear 10 1014 66 10000 2 320 18:48 21.07.2019
4846 Clear 9 1014 70 10000 1 290 18:26 21.07.2019
4847 Smoke 12 1014 62 5000 3 300 17:43 21.07.2019
4848 Smoke 12 1014 62 5000 3 300 17:20 21.07.2019
4849 Smoke 12 1014 62 5000 2 290 16:57 21.07.2019
4850 Smoke 13 1015 58 5000 2 290 16:38 21.07.2019
4851 Smoke 13 1015 58 5000 2 290 16:20 21.07.2019
4852 Smoke 15 1015 54 5000 2 270 15:37 21.07.2019
4853 Smoke 15 1015 54 5000 2 270 15:18 21.07.2019
4854 Clear 20 1015 34 10000 2 330 14:41 21.07.2019
4855 Clear 20 1015 34 10000 2 330 14:22 21.07.2019
4856 Clear 21 1015 32 10000 2 280 13:51 21.07.2019
4857 Clear 22 1015 33 10000 2 180 13:30 21.07.2019
4858 Clear 23 1015 28 10000 2 180 12:44 21.07.2019
4859 Clear 23 1015 28 10000 2 180 12:25 21.07.2019
4860 Clear 24 1015 27 10000 2 170 11:51 21.07.2019
4861 Clear 24 1015 25 10000 2 140 11:30 21.07.2019
4862 Clear 24 1015 25 10000 2 150 10:58 21.07.2019
4863 Clear 24 1015 25 10000 2 140 10:40 21.07.2019
4864 Clear 24 1015 25 10000 2 140 10:22 21.07.2019
4865 Clear 24 1016 27 10000 3 150 09:38 21.07.2019
4866 Clear 24 1016 27 10000 3 150 09:20 21.07.2019
4867 Clear 24 1017 27 10000 3 120 08:43 21.07.2019
4868 Clear 24 1017 27 10000 3 120 08:25 21.07.2019
4869 Clear 23 1017 31 10000 3 130 07:37 21.07.2019
4870 Clear 23 1018 31 10000 2 90 06:45 21.07.2019
4871 Clear 23 1018 25 10000 3 290 05:28 21.07.2019
4872 Clear 18 1020 42 10000 2 120 02:43 21.07.2019
4873 Clear 15 1020 47 10000 2 190 00:58 21.07.2019
4874 Clear 13 1021 54 10000 2 240 00:39 21.07.2019
4875 Clear 10 1021 66 10000 2 270 00:18 21.07.2019
4876 Clear 8 1021 70 10000 2 280 23:39 20.07.2019
4877 Clear 8 1021 70 10000 2 280 23:19 20.07.2019
4878 Clear 6 1021 75 10000 3 290 22:42 20.07.2019
4879 Clear 6 1021 75 10000 3 290 22:21 20.07.2019
4880 Clear 4 1020 86 10000 3 290 21:45 20.07.2019
4881 Clear 4 1020 86 10000 3 290 21:25 20.07.2019
4882 Clear 4 1020 86 10000 3 290 20:56 20.07.2019
4883 Clear 4 1020 86 10000 3 300 20:38 20.07.2019
4884 Clear 4 1020 86 10000 3 300 20:38 20.07.2019
4885 Clear 4 1020 86 10000 3 300 20:18 20.07.2019
4886 Clear 6 1019 75 10000 2 290 19:42 20.07.2019
4887 Clear 6 1019 75 10000 2 290 19:19 20.07.2019
4888 Clear 7 1019 75 10000 2 290 18:40 20.07.2019
4889 Clear 7 1019 75 10000 2 290 18:20 20.07.2019
4890 Clear 7 1019 75 10000 3 290 17:48 20.07.2019
4891 Clear 8 1019 75 10000 3 290 17:20 20.07.2019
4892 Clear 10 1019 71 10000 3 290 16:43 20.07.2019
4893 Clear 10 1019 71 10000 3 290 16:25 20.07.2019
4894 Clear 11 1019 66 10000 3 290 15:57 20.07.2019
4895 Clear 12 1019 58 10000 3 300 15:38 20.07.2019
4896 Clear 12 1019 58 10000 3 300 15:19 20.07.2019
4897 Clear 15 1019 47 10000 2 280 14:43 20.07.2019
4898 Clear 15 1019 47 10000 2 280 14:21 20.07.2019
4899 Clear 17 1018 42 10000 2 10 13:38 20.07.2019
4900 Clear 17 1018 42 10000 2 10 13:19 20.07.2019
4901 Clear 18 1018 34 10000 2 50 12:52 20.07.2019
4902 Clear 18 1018 34 10000 2 40 12:21 20.07.2019
4903 Clear 18 1018 36 10000 2 50 11:55 20.07.2019
4904 Clear 18 1018 34 10000 3 50 11:23 20.07.2019
4905 Clear 18 1018 34 10000 2 70 10:55 20.07.2019
4906 Clear 19 1017 32 10000 2 60 10:36 20.07.2019
4907 Clear 19 1017 32 10000 2 60 10:18 20.07.2019
4908 Clear 18 1017 34 10000 4 70 09:43 20.07.2019
4909 Clear 18 1017 34 10000 4 70 09:18 20.07.2019
4910 Clear 18 1017 36 10000 4 70 08:39 20.07.2019
4911 Clear 18 1017 36 10000 4 70 08:19 20.07.2019
4912 Clear 18 1017 36 10000 3 90 07:18 20.07.2019
4913 Clear 18 1017 34 10000 3 90 06:35 20.07.2019
4914 Clear 16 1017 38 10000 3 90 04:31 20.07.2019
4915 Clear 14 1017 44 10000 1 320 02:38 20.07.2019
4916 Clear 11 1016 53 10000 2 280 01:21 20.07.2019
4917 Clear 9 1016 61 10000 3 280 00:46 20.07.2019
4918 Clear 9 1016 61 10000 3 280 00:19 20.07.2019
4919 Clear 7 1016 70 10000 4 300 23:43 19.07.2019
4920 Clear 7 1016 70 10000 4 300 23:24 19.07.2019
4921 Clear 4 1016 80 10000 4 290 22:45 19.07.2019
4922 Clear 4 1016 80 10000 4 290 22:26 19.07.2019
4923 Clear 4 1015 80 10000 4 300 21:49 19.07.2019
4924 Clear 3 1015 86 10000 4 290 21:31 19.07.2019
4925 Clear 4 1015 86 10000 4 290 20:58 19.07.2019
4926 Clear 5 1015 80 10000 3 290 20:37 19.07.2019
4927 Clear 5 1015 80 10000 3 290 20:18 19.07.2019
4928 Clear 6 1015 75 10000 4 290 19:35 19.07.2019
4929 Clear 7 1014 75 10000 4 290 18:43 19.07.2019
4930 Clear 7 1014 75 10000 4 290 18:23 19.07.2019
4931 Clear 7 1014 70 10000 3 290 17:55 19.07.2019
4932 Clear 8 1014 65 10000 4 290 17:29 19.07.2019
4933 Clear 8 1014 65 10000 3 290 16:57 19.07.2019
4934 Clear 9 1014 61 10000 3 300 16:39 19.07.2019
4935 Clear 9 1014 61 10000 3 300 16:18 19.07.2019
4936 Clear 11 1014 53 10000 3 300 15:43 19.07.2019
4937 Clear 11 1014 53 10000 3 300 15:24 19.07.2019
4938 Clear 12 1013 46 10000 3 310 14:45 19.07.2019
4939 Clear 12 1013 46 10000 3 310 14:25 19.07.2019
4940 Clear 13 1013 43 10000 4 320 13:47 19.07.2019
4941 Clear 13 1013 43 10000 4 320 13:27 19.07.2019
4942 Clear 13 1013 43 10000 4 310 12:58 19.07.2019
4943 Clouds 14 1013 52 10000 6 330 12:38 19.07.2019
4944 Clouds 14 1013 37 10000 6 330 12:19 19.07.2019
4945 Clouds 15 1012 38 10000 5 330 11:45 19.07.2019
4946 Clouds 15 1012 38 10000 5 320 11:19 19.07.2019
4947 Clouds 15 1012 38 10000 5 320 11:18 19.07.2019
4948 Clouds 15 1012 38 10000 5 320 10:48 19.07.2019
4949 Clouds 15 1011 38 10000 5 340 10:23 19.07.2019
4950 Clouds 15 1011 37 10000 5 320 09:59 19.07.2019
4951 Clouds 15 1011 38 10000 6 340 09:41 19.07.2019
4952 Clouds 15 1011 38 10000 6 340 09:22 19.07.2019
4953 Clouds 16 1010 38 10000 5 310 08:49 19.07.2019
4954 Clouds 15 1010 38 10000 4 320 08:22 19.07.2019
4955 Clouds 15 1010 54 10000 5 270 07:29 19.07.2019
4956 Clear 13 1009 62 10000 4 250 06:26 19.07.2019
4957 Clear 10 1008 66 10000 3 300 02:56 19.07.2019
4958 Clear 10 1007 66 10000 3 300 01:21 19.07.2019
4959 Clear 9 1007 70 10000 3 300 00:46 19.07.2019
4960 Clear 9 1007 70 10000 2 290 23:59 18.07.2019
4961 Clear 9 1007 70 10000 3 320 23:40 18.07.2019
4962 Clear 9 1007 70 10000 3 320 23:22 18.07.2019
4963 Clear 9 1006 70 10000 2 300 22:42 18.07.2019
4964 Clear 9 1006 70 10000 2 300 22:20 18.07.2019
4965 Clear 8 1006 75 10000 2 300 21:52 18.07.2019
4966 Clear 9 1006 70 10000 2 310 21:34 18.07.2019
4967 Clear 8 1006 75 10000 3 290 20:57 18.07.2019
4968 Clear 9 1006 70 10000 3 330 20:38 18.07.2019
4969 Clear 9 1006 70 10000 3 330 20:18 18.07.2019
4970 Clouds 9 1006 66 10000 3 310 19:46 18.07.2019
4971 Clouds 9 1006 66 10000 3 310 19:21 18.07.2019
4972 Clouds 9 1006 66 10000 3 320 18:49 18.07.2019
4973 Clouds 10 1006 66 10000 3 330 18:21 18.07.2019
4974 Clouds 10 1006 66 10000 3 330 17:45 18.07.2019
4975 Clouds 10 1006 66 10000 3 330 17:45 18.07.2019
4976 Clouds 10 1006 66 10000 3 330 17:45 18.07.2019
4977 Clouds 10 1006 66 10000 3 330 17:26 18.07.2019
4978 Clouds 10 1006 66 10000 3 310 16:58 18.07.2019
4979 Clouds 10 1006 61 10000 3 330 16:40 18.07.2019
4980 Clouds 10 1006 61 10000 3 330 16:21 18.07.2019
4981 Clouds 11 1006 57 10000 4 340 15:55 18.07.2019
4982 Clouds 12 1005 58 10000 5 350 15:35 18.07.2019
4983 Clouds 12 1005 58 10000 4 340 14:55 18.07.2019
4984 Clouds 13 1005 54 10000 3 320 14:37 18.07.2019
4985 Clouds 14 1004 62 10000 3 320 13:54 18.07.2019
4986 Clouds 14 1004 62 10000 3 320 13:36 18.07.2019
4987 Clear 14 1004 62 10000 4 310 13:18 18.07.2019
4988 Clear 14 1004 62 10000 4 300 12:42 18.07.2019
4989 Clear 14 1004 67 10000 3 290 12:18 18.07.2019
4990 Clear 14 1003 67 10000 4 290 11:48 18.07.2019
4991 Clear 14 1003 67 10000 4 290 11:27 18.07.2019
4992 Clouds 15 1003 62 10000 4 310 10:52 18.07.2019
4993 Clouds 15 1003 72 10000 4 310 09:52 18.07.2019
4994 Clouds 15 1003 72 10000 3 310 09:27 18.07.2019
4995 Clouds 15 1002 72 10000 5 290 08:59 18.07.2019
4996 Clouds 14 1002 76 10000 5 300 08:41 18.07.2019
4997 Clouds 14 1002 76 10000 6 300 08:18 18.07.2019
4998 Clouds 14 1002 76 10000 5 300 07:37 18.07.2019
4999 Clouds 14 1001 76 10000 5 290 06:59 18.07.2019
5000 Clouds 14 1001 76 10000 5 290 06:34 18.07.2019
5001 Clouds 13 1000 76 10000 6 290 04:19 18.07.2019
5002 Clouds 14 999 71 10000 7 280 02:52 18.07.2019
5003 Clouds 15 999 72 10000 6 300 01:37 18.07.2019
5004 Clear 16 999 72 10000 4 280 00:26 18.07.2019
5005 Clear 15 999 77 10000 4 280 23:49 17.07.2019
5006 Clouds 15 999 77 10000 6 300 23:18 17.07.2019
5007 Clouds 15 999 77 10000 7 290 22:43 17.07.2019
5008 Clouds 15 999 77 10000 7 290 22:23 17.07.2019
5009 Clouds 16 998 77 10000 6 300 21:58 17.07.2019
5010 Clouds 16 998 87 10000 4 300 21:39 17.07.2019
5011 Clouds 17 998 82 10000 4 280 21:21 17.07.2019
5012 Clouds 17 998 82 10000 4 280 20:57 17.07.2019
5013 Clouds 17 998 82 10000 4 290 20:39 17.07.2019
5014 Clouds 17 998 88 10000 4 290 20:20 17.07.2019
5015 Clouds 18 998 82 10000 2 280 19:43 17.07.2019
5016 -273 0 0 0 0 0 19:21 17.07.2019
5017 Rain 18 998 82 10000 2 180 18:56 17.07.2019
5018 Rain 18 998 82 10000 2 180 18:37 17.07.2019
5019 Clouds 20 999 68 10000 3 220 18:18 17.07.2019
5020 Clouds 20 999 68 10000 3 220 17:43 17.07.2019
5021 Clouds 20 999 68 10000 3 220 17:22 17.07.2019
5022 Clouds 20 999 68 10000 3 270 16:42 17.07.2019
5023 Clouds 20 999 68 10000 3 270 16:22 17.07.2019
5024 Clouds 20 1000 68 10000 3 280 15:51 17.07.2019
5025 Clouds 21 1000 64 10000 6 270 15:32 17.07.2019
5026 Clouds 21 1000 60 10000 5 260 14:57 17.07.2019
5027 Clouds 22 1000 56 10000 4 250 14:39 17.07.2019
5028 Clouds 22 1000 56 10000 4 250 14:21 17.07.2019
5029 Clouds 22 1000 56 10000 4 250 14:21 17.07.2019
5030 Clouds 22 1001 53 10000 4 250 13:56 17.07.2019
5031 Clouds 24 1001 44 10000 5 250 13:36 17.07.2019
5032 Clouds 23 1001 49 10000 4 270 13:18 17.07.2019
5033 Rain 17 1000 83 0 4.6 225.546 12:39 17.07.2019
5034 Clouds 25 1001 38 10000 6 270 12:19 17.07.2019
5035 Clouds 25 1001 38 10000 6 270 11:43 17.07.2019
5036 Clouds 26 1001 36 10000 8 280 11:19 17.07.2019
5037 Clouds 27 1001 30 10000 5 250 10:49 17.07.2019
5038 Clouds 27 1001 30 10000 5 250 10:24 17.07.2019
5039 Clouds 27 1002 28 10000 5 290 09:45 17.07.2019
5040 Clouds 27 1002 28 10000 5 290 09:27 17.07.2019
5041 Clear 28 1002 26 10000 5 270 08:56 17.07.2019
5042 Clear 27 1002 30 10000 4 290 08:37 17.07.2019
5043 Clear 27 1003 28 10000 5 300 08:18 17.07.2019
5044 Clear 27 1003 30 10000 5 310 07:41 17.07.2019
5045 Clear 27 1003 30 10000 5 310 07:22 17.07.2019
5046 Clear 27 1004 26 10000 5 310 06:46 17.07.2019
5047 Clear 27 1004 26 10000 5 310 06:45 17.07.2019
5048 Clear 27 1004 26 10000 5 310 06:27 17.07.2019
5049 Clear 26 1004 27 10000 5 330 05:41 17.07.2019
5050 Clear 25 1004 29 10000 5 310 04:59 17.07.2019
5051 Clear 24 1004 29 10000 6 310 03:57 17.07.2019
5052 Clear 22 1005 33 10000 6 310 02:44 17.07.2019
5053 Clear 20 1005 37 10000 3 300 01:42 17.07.2019
5054 Clear 20 1005 37 10000 3 300 01:23 17.07.2019
5055 Clear 17 1006 45 10000 4 280 00:43 17.07.2019
5056 Clear 17 1006 45 10000 4 280 00:23 17.07.2019
5057 Clear 15 1006 47 10000 4 290 23:47 16.07.2019
5058 Clear 15 1006 47 10000 4 290 23:25 16.07.2019
5059 Clear 15 1006 47 10000 3 320 22:57 16.07.2019
5060 Clear 14 1006 47 10000 4 280 22:39 16.07.2019
5061 Smoke 14 1006 47 5000 5 290 22:19 16.07.2019
5062 Smoke 14 1006 47 5000 5 280 21:43 16.07.2019
5063 Smoke 13 1006 50 5000 4 280 21:20 16.07.2019
5064 Smoke 13 1006 50 5000 4 290 20:41 16.07.2019
5065 Smoke 13 1006 50 5000 4 290 20:23 16.07.2019
5066 Smoke 14 1006 44 5000 5 290 19:56 16.07.2019
5067 Clear 14 1006 44 10000 4 300 19:37 16.07.2019
5068 Clear 14 1006 44 10000 4 300 19:19 16.07.2019
5069 Clear 13 1007 47 10000 4 300 18:45 16.07.2019
5070 Clear 14 1006 44 10000 4 300 18:21 16.07.2019
5071 Clear 14 1006 44 10000 4 300 18:21 16.07.2019
5072 Clear 14 1006 44 10000 4 300 17:55 16.07.2019
5073 Clear 14 1007 47 10000 3 310 17:36 16.07.2019
5074 Clear 16 1007 41 10000 3 290 16:56 16.07.2019
5075 Clear 16 1007 44 10000 3 280 16:38 16.07.2019
5076 Clear 17 1007 42 10000 3 290 16:18 16.07.2019
5077 Clear 18 1007 42 10000 2 290 15:39 16.07.2019
5078 Clear 19 1007 39 10000 3 270 15:20 16.07.2019
5079 Clear 19 1007 39 10000 3 270 14:57 16.07.2019
5080 Clear 20 1007 34 10000 3 290 14:38 16.07.2019
5081 Clear 21 1007 32 10000 3 290 14:19 16.07.2019
5082 Clear 23 1007 28 10000 3 300 13:44 16.07.2019
5083 Clear 23 1007 25 10000 6 290 13:20 16.07.2019
5084 Clear 24 1006 25 10000 5 300 12:44 16.07.2019
5085 Clear 24 1006 23 10000 5 310 12:20 16.07.2019
5086 Clear 24 1006 23 10000 5 310 11:55 16.07.2019
5087 Clear 26 1006 21 10000 5 300 11:37 16.07.2019
5088 Clear 26 1006 19 10000 6 310 11:19 16.07.2019
5089 Clear 27 1005 18 10000 5 310 10:45 16.07.2019
5090 Clear 27 1005 18 10000 5 310 10:22 16.07.2019
5091 Clear 27 1006 26 10000 6 280 09:44 16.07.2019
5092 Clouds 27 1006 28 10000 5 310 09:22 16.07.2019
5093 Clouds 27 1006 28 10000 5 310 08:58 16.07.2019
5094 Clouds 27 1006 28 10000 4 310 08:40 16.07.2019
5095 Clouds 26 1006 29 10000 4 290 08:18 16.07.2019
5096 Clear 26 1007 29 10000 4 290 07:41 16.07.2019
5097 Clear 26 1007 29 10000 4 290 07:22 16.07.2019
5098 Clear 25 1007 33 10000 3 280 06:45 16.07.2019
5099 Clear 24 1007 36 10000 3 290 05:59 16.07.2019
5100 Clear 24 1007 36 10000 3 300 05:32 16.07.2019
5101 Clear 23 1007 38 10000 4 300 04:54 16.07.2019
5102 Clear 23 1008 38 10000 4 280 03:52 16.07.2019
5103 Clear 21 1008 46 10000 4 250 02:55 16.07.2019
5104 Clear 21 1008 43 10000 3 290 02:30 16.07.2019
5105 Clear 19 1008 52 10000 3 280 01:41 16.07.2019
5106 Clear 18 1008 52 10000 4 290 00:41 16.07.2019
5107 Clear 17 1008 59 10000 5 290 00:19 16.07.2019
5108 Clear 16 1008 59 10000 5 300 23:44 15.07.2019
5109 Clear 16 1008 59 10000 5 300 23:25 15.07.2019
5110 Clear 16 1008 63 10000 4 310 22:47 15.07.2019
5111 Clear 16 1008 63 10000 4 310 22:22 15.07.2019
5112 Clear 16 1007 63 10000 5 300 21:58 15.07.2019
5113 Clear 16 1007 63 10000 4 300 21:39 15.07.2019
5114 Clear 16 1007 63 10000 4 300 21:19 15.07.2019
5115 Clear 16 1007 63 10000 4 300 20:54 15.07.2019
5116 Clear 17 1007 59 10000 4 310 20:36 15.07.2019
5117 Clear 17 1007 59 10000 4 300 20:18 15.07.2019
5118 Clear 17 1007 59 10000 4 300 19:39 15.07.2019
5119 Clear 18 1007 55 10000 4 300 19:19 15.07.2019
5120 Clear 18 1007 55 10000 4 290 18:49 15.07.2019
5121 Clear 18 1007 55 10000 4 290 18:23 15.07.2019
5122 Clear 19 1007 55 10000 4 300 17:58 15.07.2019
5123 Clear 19 1007 59 10000 3 310 17:40 15.07.2019
5124 Clear 19 1007 59 10000 3 310 17:22 15.07.2019
5125 Clear 19 1007 59 10000 3 310 17:22 15.07.2019
5126 Clear 20 1007 52 10000 3 300 16:58 15.07.2019
5127 Clear 20 1007 56 10000 3 300 16:38 15.07.2019
5128 Clear 21 1007 56 10000 3 290 16:19 15.07.2019
5129 Clear 22 1007 53 10000 3 300 15:43 15.07.2019
5130 Clear 22 1007 53 10000 3 300 15:25 15.07.2019
5131 Clear 23 1007 49 10000 3 290 14:59 15.07.2019
5132 Clear 24 1007 50 10000 2 280 14:38 15.07.2019
5133 Clear 25 1006 44 10000 3 310 14:19 15.07.2019
5134 Clear 26 1006 39 10000 4 310 13:48 15.07.2019
5135 Clear 27 1006 36 10000 4 320 13:20 15.07.2019
5136 Clear 27 1006 34 10000 5 330 12:48 15.07.2019
5137 Clear 27 1006 34 10000 5 330 12:27 15.07.2019
5138 Clear 28 1006 30 10000 5 320 11:58 15.07.2019
5139 Clear 29 1006 26 10000 5 310 11:40 15.07.2019
5140 Clear 29 1006 26 10000 6 310 11:19 15.07.2019
5141 Clear 30 1005 27 10000 5 300 10:43 15.07.2019
5142 Clear 30 1005 27 10000 5 300 10:24 15.07.2019
5143 Clear 30 1005 28 10000 4 310 09:43 15.07.2019
5144 Clear 30 1005 28 10000 4 310 09:22 15.07.2019
5145 Clear 30 1006 30 10000 4 270 08:47 15.07.2019
5146 Clear 30 1006 30 10000 4 270 08:25 15.07.2019
5147 -273 0 0 0 0 0 07:55 15.07.2019
5148 Clear 30 1006 28 10000 6 300 07:33 15.07.2019
5149 Clear 30 1006 30 10000 4 310 06:48 15.07.2019
5150 Clear 30 1006 30 10000 4 310 06:30 15.07.2019
5151 Clear 30 1006 33 10000 4 300 05:43 15.07.2019
5152 Clear 29 1006 39 10000 4 320 04:48 15.07.2019
5153 Clear 29 1006 39 10000 4 320 04:29 15.07.2019
5154 Clear 27 1006 47 10000 3 300 03:29 15.07.2019
5155 Clear 25 1006 57 10000 3 320 02:25 15.07.2019
5156 Clear 24 1006 60 10000 1 310 01:37 15.07.2019
5157 Clear 23 1006 69 10000 3 290 00:54 15.07.2019
5158 Clear 21 1006 77 10000 2 290 00:28 15.07.2019
5159 Clear 21 1006 77 10000 4 310 23:59 14.07.2019
5160 Clear 20 1006 77 10000 4 310 23:40 14.07.2019
5161 Clear 20 1006 77 10000 3 310 23:20 14.07.2019
5162 Clear 20 1006 77 10000 3 310 23:20 14.07.2019
5163 Clear 20 1006 77 10000 3 310 22:57 14.07.2019
5164 Clear 20 1006 77 10000 3 310 22:57 14.07.2019
5165 Clear 19 1006 82 10000 3 300 22:38 14.07.2019
5166 Clear 19 1006 82 10000 3 300 22:20 14.07.2019
5167 Clear 19 1006 82 10000 3 300 21:46 14.07.2019
5168 Clear 19 1005 82 10000 2 300 21:19 14.07.2019
5169 Clear 19 1005 82 10000 2 300 20:59 14.07.2019
5170 Clear 19 1005 82 10000 3 300 20:38 14.07.2019
5171 Clear 19 1005 82 10000 3 300 20:38 14.07.2019
5172 Clear 19 1005 82 10000 3 300 20:20 14.07.2019
5173 Clear 19 1005 82 10000 3 300 19:55 14.07.2019
5174 Clear 20 1005 77 10000 3 300 19:36 14.07.2019
5175 Clear 20 1005 77 10000 3 290 19:18 14.07.2019
5176 Clear 20 1005 77 10000 2 280 18:40 14.07.2019
5177 Clear 21 1004 73 10000 2 290 18:22 14.07.2019
5178 Clear 21 1004 73 10000 2 290 17:58 14.07.2019
5179 Clear 21 1005 77 10000 3 300 17:23 14.07.2019
5180 Clear 22 1005 73 10000 2 310 16:54 14.07.2019
5181 Clouds 22 1005 73 10000 3 310 16:26 14.07.2019
5182 Clouds 24 1005 64 10000 3 310 15:58 14.07.2019
5183 Clouds 25 1005 57 10000 3 300 15:38 14.07.2019
5184 Clouds 25 1004 57 10000 2 340 15:19 14.07.2019
5185 Clouds 26 1004 54 10000 2 320 14:44 14.07.2019
5186 Clouds 28 1004 45 10000 3 290 14:20 14.07.2019
5187 Clouds 28 1004 45 10000 1 170 13:45 14.07.2019
5188 Clouds 28 1004 45 10000 1 170 13:23 14.07.2019
5189 Clouds 30 1003 35 10000 2 100 12:56 14.07.2019
5190 Clouds 31 1003 38 10000 2 110 12:37 14.07.2019
5191 Clouds 32 1003 31 10000 1 50 12:18 14.07.2019
5192 Clouds 31 1003 33 10000 1 80 11:45 14.07.2019
5193 Clouds 31 1003 35 10000 1 120 11:20 14.07.2019
5194 Clouds 32 1003 29 10000 1 80 10:42 14.07.2019
5195 Clouds 32 1003 29 10000 1 320 10:20 14.07.2019
5196 Clouds 32 1003 29 10000 1 130 09:45 14.07.2019
5197 Clouds 32 1003 29 10000 1 130 09:27 14.07.2019
5198 Clear 32 1003 29 10000 2 170 08:46 14.07.2019
5199 Clear 32 1003 29 10000 2 170 08:24 14.07.2019
5200 Clear 31 1004 33 10000 2 150 07:41 14.07.2019
5201 Clear 31 1004 31 10000 4 130 07:19 14.07.2019
5202 Clear 29 1004 39 10000 4 150 05:45 14.07.2019
5203 Clear 29 1004 39 10000 4 150 05:45 14.07.2019
5204 Clear 28 1005 42 10000 4 180 03:51 14.07.2019
5205 Clear 27 1005 42 10000 5 190 03:33 14.07.2019
5206 Clear 26 1005 47 10000 5 180 02:52 14.07.2019
5207 Clear 26 1005 47 10000 5 170 02:22 14.07.2019
5208 Clear 24 1005 53 10000 4 180 01:34 14.07.2019
5209 Clear 24 1005 53 10000 4 190 00:59 14.07.2019
5210 Clear 22 1005 64 10000 3 180 00:40 14.07.2019
5211 Clear 21 1005 68 10000 3 130 00:20 14.07.2019
5212 Clear 20 1005 77 10000 1 50 23:45 13.07.2019
5213 Clear 20 1005 77 10000 1 50 23:26 13.07.2019
5214 Clear 19 1005 77 10000 1.69 184.206 22:59 13.07.2019
5215 Clear 18 1004 82 10000 1 310 22:39 13.07.2019
5216 Clear 17 1004 88 10000 2 300 22:20 13.07.2019
5217 Clear 17 1004 82 10000 1.69 184.206 21:43 13.07.2019
5218 Clear 17 1004 88 10000 2 300 21:19 13.07.2019
5219 Clear 17 1004 88 10000 1 290 20:46 13.07.2019
5220 Clear 17 1004 88 10000 1 290 20:27 13.07.2019
5221 Clear 18 1004 82 10000 1 310 19:47 13.07.2019
5222 Clear 18 1004 82 10000 1 310 19:29 13.07.2019
5223 Clear 19 1004 82 10000 2 300 18:45 13.07.2019
5224 Clear 20 1004 77 10000 2 300 18:22 13.07.2019
5225 Clear 21 1004 77 10000 1 20 17:42 13.07.2019
5226 Clear 21 1004 77 10000 1 20 17:21 13.07.2019
5227 Clear 21 1004 77 10000 1 300 16:58 13.07.2019
5228 Clear 22 1004 78 10000 1 160 16:38 13.07.2019
5229 Clear 24 1004 64 10000 2 110 16:19 13.07.2019
5230 Clear 24 1004 64 10000 2 110 16:19 13.07.2019
5231 Clear 25 1004 53 10000 3 310 15:44 13.07.2019
5232 Clear 25 1004 53 10000 3 310 15:21 13.07.2019
5233 Clouds 26 1004 57 10000 2 290 14:45 13.07.2019
5234 Clouds 26 1004 57 10000 2 290 14:24 13.07.2019
5235 Clouds 28 1004 51 10000 1 40 13:46 13.07.2019
5236 Clouds 28 1004 51 10000 1 40 13:26 13.07.2019
5237 Clouds 29 1004 48 10000 1 50 12:59 13.07.2019
5238 Clouds 31 1003 35 10000 1 60 12:39 13.07.2019
5239 Clouds 31 1003 33 10000 1 60 12:20 13.07.2019
5240 Clouds 31 1003 35 10000 2 80 11:42 13.07.2019
5241 Clouds 31 1003 38 10000 2 90 11:19 13.07.2019
5242 Clouds 31 1003 35 10000 2 90 10:44 13.07.2019
5243 Clouds 31 1003 35 10000 2 90 10:23 13.07.2019
5244 Clouds 31 1003 35 10000 2 90 10:23 13.07.2019
5245 Clouds 32 1004 31 10000 2 80 09:54 13.07.2019
5246 Clouds 32 1004 31 10000 2 80 09:54 13.07.2019
5247 Clouds 34 1004 18 10000 1 100 09:31 13.07.2019
5248 Clouds 33 1004 24 10000 2 90 08:58 13.07.2019
5249 Clouds 33 1004 26 10000 2 110 08:33 13.07.2019
5250 Clouds 33 1004 27 10000 2 90 07:59 13.07.2019
5251 Clouds 32 1004 29 10000 2 80 07:30 13.07.2019
5252 Clouds 32 1005 31 10000 3 90 06:39 13.07.2019
5253 Clouds 33 1005 27 10000 2 110 05:58 13.07.2019
5254 Clear 31 1006 38 10000 2 100 04:49 13.07.2019
5255 Clear 31 1006 38 10000 2 100 04:22 13.07.2019
5256 Clear 31 1006 35 10000 2 90 03:55 13.07.2019
5257 Clear 30 1006 40 10000 1 100 03:37 13.07.2019
5258 Clear 28 1007 58 10000 1 150 01:55 13.07.2019
5259 Clear 28 1007 58 10000 1 150 01:55 13.07.2019
5260 Clear 25 1007 69 10000 2 140 01:36 13.07.2019
5261 Clear 25 1007 57 10000 1 250 01:18 13.07.2019
5262 Clear 24 1007 60 10000 1 270 00:50 13.07.2019
5263 Clear 22 1007 64 10000 3 280 00:18 13.07.2019
5264 Clear 21 1006 68 10000 2 300 23:43 12.07.2019
5265 Clear 21 1006 68 10000 2 300 23:24 12.07.2019
5266 Clear 19 1007 72 10000 2 290 22:43 12.07.2019
5267 Clear 19 1007 72 10000 2 290 22:24 12.07.2019
5268 Clear 18 1007 77 10000 3 300 21:43 12.07.2019
5269 Clear 18 1007 77 10000 3 300 21:22 12.07.2019
5270 Clear 17 1007 82 10000 3 300 20:54 12.07.2019
5271 Clear 17 1006 88 10000 2 280 20:24 12.07.2019
5272 Clear 19 1006 77 10000 2 280 19:59 12.07.2019
5273 Clear 19 1006 77 10000 1 240 19:41 12.07.2019
5274 Clear 19 1006 77 10000 1 240 19:23 12.07.2019
5275 Clear 20 1006 77 10000 3 300 18:41 12.07.2019
5276 Clear 20 1006 77 10000 2 310 18:21 12.07.2019
5277 Clear 21 1006 77 10000 3 300 17:49 12.07.2019
5278 Clear 21 1006 77 10000 3 300 17:28 12.07.2019
5279 Clear 22 1006 78 10000 3 300 16:45 12.07.2019
5280 Clear 23 1006 73 10000 1 280 16:21 12.07.2019
5281 Clear 22 1006 73 10000 1 290 15:41 12.07.2019
5282 Clear 22 1006 73 10000 1 290 15:22 12.07.2019
5283 Clear 24 1006 64 10000 1 360 14:57 12.07.2019
5284 Clear 26 1006 57 10000 1 10 14:38 12.07.2019
5285 Clear 29 1006 45 10000 2 30 14:20 12.07.2019
5286 Clear 30 1006 42 10000 2 20 13:42 12.07.2019
5287 Clear 30 1006 40 10000 2 10 13:20 12.07.2019
5288 Clear 31 1006 35 10000 2 20 12:40 12.07.2019
5289 Clear 31 1006 35 10000 3 20 12:20 12.07.2019
5290 Clouds 31 1006 33 10000 3 20 11:45 12.07.2019
5291 Clouds 31 1006 33 10000 3 20 11:23 12.07.2019
5292 Clouds 32 1006 29 10000 3 30 10:44 12.07.2019
5293 Clouds 32 1006 29 10000 3 30 10:25 12.07.2019
5294 Clouds 32 1006 31 10000 3 20 09:55 12.07.2019
5295 Clouds 32 1007 29 10000 3 30 09:31 12.07.2019
5296 Clouds 32 1007 31 10000 4 30 09:00 12.07.2019
5297 Clouds 31 1007 33 10000 3 20 08:41 12.07.2019
5298 Clouds 32 1007 29 10000 2 10 08:19 12.07.2019
5299 Clouds 31 1007 33 10000 1 30 07:46 12.07.2019
5300 Clouds 31 1007 33 10000 1 30 07:27 12.07.2019
5301 Clouds 31 1007 34 0 1.81 110.86 06:29 12.07.2019
5302 Clear 29 1008 39 0 2.27 106.934 05:48 12.07.2019
5303 Clear 28 1009 51 10000 2 90 03:24 12.07.2019
5304 Clear 25 1009 65 10000 1 80 01:46 12.07.2019
5305 -273 0 0 0 0 0 01:26 12.07.2019
5306 Clear 23 1009 69 10000 1 300 00:31 12.07.2019
5307 Clear 20 1009 77 10000 1 260 23:50 11.07.2019
5308 Clear 20 1009 77 10000 1 260 23:27 11.07.2019
5309 Clear 19 1009 82 10000 2 290 22:59 11.07.2019
5310 Clear 18 1009 82 10000 3 300 22:40 11.07.2019
5311 Clear 18 1009 82 10000 3 300 22:21 11.07.2019
5312 Clear 17 1009 88 10000 3 300 21:42 11.07.2019
5313 Clear 17 1009 88 10000 3 290 21:19 11.07.2019
5314 Clear 17 1009 88 10000 3 290 20:56 11.07.2019
5315 Clear 17 1009 88 10000 3 290 20:37 11.07.2019
5316 Clear 17 1009 88 10000 3 290 20:37 11.07.2019
5317 Clear 17 1009 93 10000 3 290 20:18 11.07.2019
5318 Clear 17 1009 93 10000 3 290 20:18 11.07.2019
5319 Clear 18 1009 88 10000 3 300 19:45 11.07.2019
5320 Clear 18 1009 88 10000 3 300 19:25 11.07.2019
5321 Clear 19 1008 88 10000 2 300 18:53 11.07.2019
5322 Clear 19 1008 88 10000 2 300 18:33 11.07.2019
5323 Clear 19 1008 88 10000 3 280 17:59 11.07.2019
5324 Clear 20 1008 82 10000 1 270 17:40 11.07.2019
5325 Clear 20 1008 82 10000 1 270 17:22 11.07.2019
5326 Clear 21 1008 83 10000 2 290 16:49 11.07.2019
5327 Clear 21 1008 83 10000 2 290 16:23 11.07.2019
5328 Clear 22 1008 78 10000 2 280 15:49 11.07.2019
5329 Clear 22 1008 78 10000 2 280 15:30 11.07.2019
5330 Clear 23 1008 73 10000 1 300 14:59 11.07.2019
5331 Clear 24 1008 69 10000 1.8 308.561 14:41 11.07.2019
5332 Clear 25 1008 65 10000 1 90 14:21 11.07.2019
5333 Clear 26 1008 57 10000 1 40 13:46 11.07.2019
5334 Clear 26 1008 57 10000 1 40 13:26 11.07.2019
5335 Clear 28 1008 51 10000 2 40 12:45 11.07.2019
5336 Clear 28 1008 51 10000 2 40 12:27 11.07.2019
5337 Clear 27 1007 54 10000 2 60 11:55 11.07.2019
5338 Clouds 28 1007 48 10000 2 80 11:37 11.07.2019
5339 Clouds 27 1007 54 10000 3 70 11:18 11.07.2019
5340 Clouds 27 1007 54 10000 3 60 10:45 11.07.2019
5341 Clouds 28 1007 54 10000 2 90 10:19 11.07.2019
5342 Clouds 28 1007 54 10000 2 90 09:44 11.07.2019
5343 Clouds 28 1007 54 10000 2 90 09:26 11.07.2019
5344 Clouds 27 1007 57 10000 3 80 08:52 11.07.2019
5345 Clouds 27 1007 54 10000 3 70 08:26 11.07.2019
5346 Clouds 27 1008 57 10000 3 80 07:52 11.07.2019
5347 Clouds 26 1008 61 10000 3 90 07:34 11.07.2019
5348 Clouds 26 1008 57 10000 2 90 06:35 11.07.2019
5349 Clouds 25 1008 61 10000 2 100 05:48 11.07.2019
5350 Clouds 25 1008 61 10000 2 100 05:29 11.07.2019
5351 Clouds 25 1008 61 10000 2 90 04:53 11.07.2019
5352 Clouds 20 1009 82 10000 3 330 02:40 11.07.2019
5353 Clouds 20 1008 82 10000 3 350 01:27 11.07.2019
5354 Clouds 19 1008 88 10000 2 320 00:27 11.07.2019
5355 Clouds 19 1008 88 10000 3 310 23:37 10.07.2019
5356 Clouds 19 1007 88 10000 2 320 23:18 10.07.2019
5357 Clouds 19 1007 88 10000 1 350 22:44 10.07.2019
5358 Clouds 18 1007 93 10000 2 310 22:20 10.07.2019
5359 Clouds 18 1007 93 10000 3 320 21:45 10.07.2019
5360 Clouds 18 1007 93 10000 3 320 21:26 10.07.2019
5361 Clouds 18 1007 93 10000 3 320 20:56 10.07.2019
5362 Clouds 19 1007 88 10000 3 320 20:38 10.07.2019
5363 Clouds 19 1006 93 10000 2 330 20:18 10.07.2019
5364 Clouds 19 1007 93 10000 2 350 19:45 10.07.2019
5365 Clouds 19 1007 93 10000 3 340 19:22 10.07.2019
5366 Clouds 19 1007 93 10000 3 340 18:55 10.07.2019
5367 Clouds 19 1006 93 10000 3 330 18:37 10.07.2019
5368 Clouds 19 1006 93 10000 2 330 18:19 10.07.2019
5369 Clouds 19 1006 93 10000 3 340 17:40 10.07.2019
5370 Clouds 19 1006 93 10000 2 340 17:19 10.07.2019
5371 Clouds 19 1005 93 10000 3 330 16:22 10.07.2019
5372 Clouds 19 1005 93 10000 2 360 15:59 10.07.2019
5373 Clouds 19 1005 93 10000 2 360 15:41 10.07.2019
5374 Rain 20 1005 88 10000 2 350 15:19 10.07.2019
5375 Rain 20 1005 88 10000 2 350 15:19 10.07.2019
5376 Rain 20 1005 88 10000 3 360 14:40 10.07.2019
5377 Rain 20 1005 88 10000 3 360 14:22 10.07.2019
5378 Rain 20 1005 94 10000 4 360 13:44 10.07.2019
5379 Rain 20 1005 94 10000 4 350 13:19 10.07.2019
5380 Rain 20 1005 94 10000 4 350 12:55 10.07.2019
5381 Thunderstorm 20 1004 94 5000 5 360 12:37 10.07.2019
5382 Thunderstorm 23 1004 78 10000 5 10 12:18 10.07.2019
5383 Clouds 24 1004 69 10000 3 350 11:43 10.07.2019
5384 Clouds 23 1004 73 10000 4 340 11:21 10.07.2019
5385 Clouds 24 1004 73 10000 4 340 10:44 10.07.2019
5386 Clouds 24 1004 69 10000 4 340 10:20 10.07.2019
5387 Clouds 26 1003 57 10000 3 300 09:44 10.07.2019
5388 Clouds 25 1003 65 10000 4 300 09:21 10.07.2019
5389 Clouds 26 1003 57 10000 4 290 08:50 10.07.2019
5390 Clouds 26 1003 57 10000 4 290 08:29 10.07.2019
5391 Clouds 25 1003 65 10000 4 290 07:54 10.07.2019
5392 Clouds 24 1003 69 10000 4 310 07:32 10.07.2019
5393 Clouds 24 1004 69 10000 2 30 06:44 10.07.2019
5394 Clouds 24 1004 64 10000 2 100 05:59 10.07.2019
5395 Clouds 24 1003 69 10000 1 40 04:38 10.07.2019
5396 Clouds 23 1004 73 10000 2 40 03:40 10.07.2019
5397 Clouds 20 1004 88 10000 3 360 00:47 10.07.2019
5398 Clouds 20 1004 88 10000 3 360 00:26 10.07.2019
5399 Clouds 19 1003 93 10000 2 20 23:41 09.07.2019
5400 Clouds 19 1003 93 10000 2 20 23:21 09.07.2019
5401 Clouds 18 1003 93 10000 1 310 22:41 09.07.2019
5402 Clouds 18 1003 93 10000 1 310 22:22 09.07.2019
5403 Clouds 18 1003 93 10000 2 310 21:56 09.07.2019
5404 Clouds 18 1003 93 10000 3 310 21:38 09.07.2019
5405 Clouds 18 1003 93 10000 3 310 21:19 09.07.2019
5406 Clouds 18 1003 93 10000 2 320 20:43 09.07.2019
5407 Clouds 18 1003 93 10000 2 320 20:24 09.07.2019
5408 Clouds 18 1003 93 10000 2 330 19:41 09.07.2019
5409 Clouds 18 1003 93 10000 2 270 19:21 09.07.2019
5410 Clouds 18 1003 93 10000 2 240 18:45 09.07.2019
5411 Clouds 18 1003 93 10000 2 240 18:23 09.07.2019
5412 Clouds 19 1003 93 10000 1 130 17:56 09.07.2019
5413 Clouds 19 1003 93 10000 2 10 17:37 09.07.2019
5414 Clouds 19 1003 93 10000 2 10 17:37 09.07.2019
5415 Rain 19 1004 93 10000 1 60 17:19 09.07.2019
5416 Rain 19 1004 88 10000 1 220 16:47 09.07.2019
5417 Rain 19 1004 88 10000 1 220 16:24 09.07.2019
5418 Rain 19 1003 93 10000 4 330 15:50 09.07.2019
5419 Rain 19 1003 93 10000 4 330 15:31 09.07.2019
5420 Rain 19 1003 93 10000 3 320 14:57 09.07.2019
5421 Rain 20 1003 88 10000 4 310 14:39 09.07.2019
5422 Thunderstorm 22 1004 78 10000 4 250 14:18 09.07.2019
5423 Thunderstorm 23 1003 69 10000 3 220 13:43 09.07.2019
5424 Thunderstorm 23 1003 69 10000 3 220 13:24 09.07.2019
5425 Thunderstorm 24 1003 64 10000 3 20 12:40 09.07.2019
5426 Clouds 24 1003 64 10000 4 360 12:22 09.07.2019
5427 Clouds 25 1002 61 10000 4 360 11:58 09.07.2019
5428 Clouds 25 1002 61 10000 4 360 11:39 09.07.2019
5429 Clear 25 1002 61 10000 3 360 11:20 09.07.2019
5430 Clear 26 1002 54 10000 3 30 10:50 09.07.2019
5431 Clear 26 1002 54 10000 3 30 10:31 09.07.2019
5432 Clear 26 1002 54 10000 2 50 09:42 09.07.2019
5433 Clear 26 1002 54 10000 2 50 09:22 09.07.2019
5434 Clear 26 1002 54 10000 2 50 09:22 09.07.2019
5435 Clear 26 1002 54 10000 3 50 08:55 09.07.2019
5436 Clear 25 1002 57 10000 2 50 08:35 09.07.2019
5437 Clouds 16 1001 55 10000 4 140 03:58 05.07.2019
5438 Clouds 15 1002 62 10000 4 160 03:38 05.07.2019
5439 Clouds 14 1002 67 10000 4 170 03:19 05.07.2019
5440 Clouds 14 1002 71 10000 4 180 02:44 05.07.2019
5441 Clouds 14 1002 67 10000 3 130 01:39 05.07.2019
5442 Clouds 14 1002 71 10000 3 160 01:19 05.07.2019
5443 Clouds 14 1002 62 10000 2 190 00:46 05.07.2019
5444 Clouds 14 1003 58 10000 2 210 23:53 04.07.2019
5445 Clouds 13 1003 66 10000 3 190 23:21 04.07.2019
5446 Clouds 13 1003 66 10000 2 180 22:45 04.07.2019
5447 Clouds 13 1003 66 10000 2 180 22:25 04.07.2019
5448 Clouds 12 1003 71 10000 2 170 21:57 04.07.2019
5449 Clouds 12 1003 71 10000 2 190 21:39 04.07.2019
5450 Clouds 12 1003 66 10000 2 170 21:21 04.07.2019
5451 Clouds 13 1003 62 10000 2 160 20:40 04.07.2019
5452 Clouds 13 1003 62 10000 3 220 20:22 04.07.2019
5453 Clouds 13 1003 62 10000 3 220 19:57 04.07.2019
5454 Clouds 14 1003 58 10000 3 250 19:38 04.07.2019
5455 Clouds 14 1004 54 10000 3 250 19:20 04.07.2019
5456 Clouds 14 1004 54 10000 3 270 18:43 04.07.2019
5457 Clouds 14 1004 54 10000 3 270 18:25 04.07.2019
5458 Clouds 14 1004 54 10000 3 250 17:46 04.07.2019
5459 Clouds 13 1004 58 10000 2 260 17:19 04.07.2019
5460 Clouds 14 1004 50 10000 3 250 15:59 04.07.2019
5461 Clouds 15 1004 47 10000 2 260 15:41 04.07.2019
5462 Clouds 15 1004 47 10000 2 260 15:22 04.07.2019
5463 Clouds 16 1004 41 10000 3 260 14:56 04.07.2019
5464 Clouds 17 1004 42 10000 3 250 14:37 04.07.2019
5465 Clouds 17 1004 42 10000 3 260 14:18 04.07.2019
5466 Clouds 17 1004 42 10000 3 260 13:54 04.07.2019
5467 Clouds 17 1004 42 10000 3 270 13:36 04.07.2019
5468 Clouds 17 1004 42 10000 3 260 13:18 04.07.2019
5469 Clouds 17 1004 42 10000 3 260 12:37 04.07.2019
5470 Clouds 17 1004 42 10000 4 260 12:19 04.07.2019
5471 Clouds 17 1004 39 10000 3 280 11:39 04.07.2019
5472 Clouds 17 1004 39 10000 3 290 11:20 04.07.2019
5473 Clouds 18 1004 39 10000 6 270 10:41 04.07.2019
5474 Clouds 18 1004 39 10000 6 270 10:23 04.07.2019
5475 Clouds 18 1004 39 10000 6 280 09:45 04.07.2019
5476 Clouds 18 1004 39 10000 6 280 09:26 04.07.2019
5477 Clouds 20 1004 30 10000 3 330 08:57 04.07.2019
5478 Clouds 19 1004 29 10000 3 310 08:29 04.07.2019
5479 Clouds 18 1005 31 10000 1 200 07:47 04.07.2019
5480 Clouds 18 1005 31 10000 1 200 07:23 04.07.2019
5481 Clouds 19 1005 32 10000 2 280 06:56 04.07.2019
5482 Clouds 18 1005 34 10000 4 270 05:55 04.07.2019
5483 Clouds 17 1005 39 10000 5 300 05:36 04.07.2019
5484 Clouds 18 1005 42 10000 3 340 03:30 04.07.2019
5485 Clouds 13 1005 58 10000 2 330 01:45 04.07.2019
5486 Clouds 13 1005 58 10000 2 330 01:25 04.07.2019
5487 Clouds 12 1005 66 10000 3 310 00:37 04.07.2019
5488 Clouds 11 1005 76 10000 4 290 23:48 03.07.2019
5489 Clear 11 1004 71 10000 4 290 23:20 03.07.2019
5490 Clear 11 1004 71 10000 4 290 22:56 03.07.2019
5491 Clear 11 1004 71 10000 3 300 22:36 03.07.2019
5492 Clear 11 1004 71 10000 4 290 22:18 03.07.2019
5493 Clear 11 1005 76 10000 3 300 21:47 03.07.2019
5494 Clear 11 1005 76 10000 3 300 21:28 03.07.2019
5495 Clear 11 1004 76 10000 2 290 20:47 03.07.2019
5496 Clear 11 1004 76 10000 2 290 20:28 03.07.2019
5497 Clear 10 1005 81 10000 2 320 19:54 03.07.2019
5498 Clear 10 1005 81 10000 3 290 19:36 03.07.2019
5499 Clear 11 1005 76 10000 1 340 18:55 03.07.2019
5500 Clouds 12 1004 71 10000 2 290 18:37 03.07.2019
5501 Clouds 12 1004 71 10000 4 290 18:18 03.07.2019
5502 Clouds 12 1004 71 10000 3 290 17:45 03.07.2019
5503 Clouds 13 1004 66 10000 4 260 17:19 03.07.2019
5504 Clouds 13 1004 66 10000 4 250 16:44 03.07.2019
5505 Clouds 13 1004 66 10000 4 250 16:24 03.07.2019
5506 Clouds 13 1004 66 10000 4 240 15:52 03.07.2019
5507 Clouds 13 1004 66 10000 4 240 15:52 03.07.2019
5508 Clouds 14 1004 62 10000 4 270 15:32 03.07.2019
5509 Clouds 15 1004 58 10000 3 270 14:59 03.07.2019
5510 Clouds 15 1004 58 10000 5 270 14:41 03.07.2019
5511 Clouds 16 1004 55 10000 5 270 14:19 03.07.2019
5512 Clouds 16 1004 51 10000 4 280 13:43 03.07.2019
5513 Clouds 16 1004 51 10000 4 280 13:24 03.07.2019
5514 Clear 16 1003 51 10000 5 300 12:46 03.07.2019
5515 Clear 16 1003 51 10000 5 290 12:18 03.07.2019
5516 Clear 17 1003 48 10000 6 290 11:43 03.07.2019
5517 Clear 17 1003 48 10000 6 290 11:23 03.07.2019
5518 Clear 17 1003 48 10000 5 300 10:57 03.07.2019
5519 Clouds 17 1003 48 10000 5 290 10:36 03.07.2019
5520 Clouds 17 1003 48 10000 5 280 10:18 03.07.2019
5521 Clouds 17 1003 48 10000 4 280 09:39 03.07.2019
5522 Clouds 16 1003 51 10000 6 270 09:20 03.07.2019
5523 Clouds 17 1003 48 10000 5 280 08:50 03.07.2019
5524 Clouds 17 1003 48 10000 5 280 08:26 03.07.2019
5525 Clouds 16 1003 48 10000 5 290 07:40 03.07.2019
5526 Clouds 16 1002 48 10000 4 310 07:20 03.07.2019
5527 Clouds 16 1002 48 10000 4 300 06:25 03.07.2019
5528 Clouds 14 1003 54 10000 4 310 05:32 03.07.2019
5529 Clouds 14 1003 54 10000 5 290 04:34 03.07.2019
5530 Clouds 14 1002 54 10000 5 280 03:24 03.07.2019
5531 Clouds 12 1002 58 10000 5 280 01:49 03.07.2019
5532 Clear 11 1002 62 10000 5 290 01:21 03.07.2019
5533 Clear 11 1002 62 10000 5 290 01:21 03.07.2019
5534 Clear 11 1002 62 10000 4 300 00:45 03.07.2019
5535 Clear 9 1002 70 10000 3 290 23:59 02.07.2019
5536 Clear 9 1002 70 10000 3 290 23:37 02.07.2019
5537 Clear 9 1002 66 10000 4 300 23:19 02.07.2019
5538 Clear 9 1002 70 10000 7 300 22:56 02.07.2019
5539 Clear 9 1002 70 10000 7 300 22:37 02.07.2019
5540 Clear 9 1002 70 10000 7 290 22:18 02.07.2019
5541 Clear 9 1002 70 10000 5 300 21:42 02.07.2019
5542 Clear 9 1002 70 10000 5 300 21:22 02.07.2019
5543 Clear 9 1002 70 10000 4 300 20:58 02.07.2019
5544 Clear 9 1002 70 10000 4 300 20:39 02.07.2019
5545 Clear 9 1002 70 10000 4 300 20:20 02.07.2019
5546 Clear 10 1002 71 10000 4 290 19:42 02.07.2019
5547 Clear 10 1002 71 10000 3 300 19:23 02.07.2019
5548 Clear 10 1002 71 10000 3 300 19:23 02.07.2019
5549 Clear 10 1002 71 10000 3 300 18:49 02.07.2019
5550 Clear 10 1002 71 10000 3 280 18:19 02.07.2019
5551 Clear 12 1002 58 10000 3 290 17:44 02.07.2019
5552 Clear 12 1002 58 10000 2 290 17:24 02.07.2019
5553 Clear 14 1002 50 10000 4 310 16:54 02.07.2019
5554 Clear 14 1002 50 10000 4 310 16:35 02.07.2019
5555 Clear 15 1002 44 10000 5 310 15:59 02.07.2019
5556 Clear 15 1002 44 10000 3 300 15:38 02.07.2019
5557 Clear 16 1002 38 10000 3 310 15:18 02.07.2019
5558 Clear 17 1002 33 10000 5 310 14:40 02.07.2019
5559 Clear 18 1002 31 10000 4 300 14:21 02.07.2019
5560 Clear 19 1002 32 10000 6 290 13:42 02.07.2019
5561 Clear 19 1002 32 10000 6 290 13:19 02.07.2019
5562 Clear 19 1002 32 10000 6 290 13:19 02.07.2019
5563 Clear 20 1001 32 10000 6 290 12:44 02.07.2019
5564 Clear 21 1001 32 10000 5 300 12:23 02.07.2019
5565 Clear 21 1002 32 10000 7 290 11:44 02.07.2019
5566 Clear 21 1002 32 10000 7 290 11:44 02.07.2019
5567 Clear 21 1002 35 10000 5 280 11:23 02.07.2019
5568 Clear 21 1002 35 10000 5 280 10:58 02.07.2019
5569 Clear 21 1002 32 10000 6 290 10:37 02.07.2019
5570 Clouds 22 1002 35 10000 6 280 10:18 02.07.2019
5571 Clouds 21 1002 35 10000 5 280 09:23 02.07.2019
5572 Clouds 21 1002 35 10000 5 280 08:59 02.07.2019
5573 Clouds 22 1002 30 10000 6 290 08:38 02.07.2019
5574 Clouds 21 1002 37 10000 5 280 08:19 02.07.2019
5575 Clouds 21 1003 40 10000 6 280 07:43 02.07.2019
5576 Clouds 21 1003 40 10000 6 280 07:20 02.07.2019
5577 Clear 22 1003 35 10000 5 290 06:38 02.07.2019
5578 Clear 22 1002 35 10000 5 280 05:46 02.07.2019
5579 Clouds 18 1004 59 10000 4 300 02:43 02.07.2019
5580 Clouds 16 1004 82 10000 3 160 00:31 02.07.2019
5581 Clouds 16 1005 82 10000 2 190 23:39 01.07.2019
5582 Clouds 16 1004 82 10000 3 150 23:19 01.07.2019
5583 Rain 16 1005 82 10000 2 150 22:42 01.07.2019
5584 Clouds 16 1005 77 10000 3 180 22:24 01.07.2019
5585 Rain 16 1005 77 10000 4 180 21:45 01.07.2019
5586 Rain 16 1005 77 10000 4 180 21:25 01.07.2019
5587 Clouds 16 1005 77 10000 3 170 20:51 01.07.2019
5588 Clouds 17 1006 72 10000 3 180 20:21 01.07.2019
5589 Clouds 17 1006 72 10000 3 180 19:56 01.07.2019
5590 Clouds 17 1006 72 10000 3 180 19:37 01.07.2019
5591 Clouds 17 1006 72 10000 3 190 19:18 01.07.2019
5592 Clouds 18 1006 68 10000 4 180 18:44 01.07.2019
5593 Clouds 18 1006 68 10000 4 180 18:26 01.07.2019
5594 Clear 18 1006 68 10000 3 180 17:47 01.07.2019
5595 Clear 18 1006 68 10000 3 180 17:26 01.07.2019
5596 Clear 19 1006 63 10000 3 180 16:57 01.07.2019
5597 Clear 19 1006 59 10000 3 180 16:39 01.07.2019
5598 Clear 19 1006 59 10000 3 180 16:21 01.07.2019
5599 Clear 20 1006 56 10000 3 170 15:44 01.07.2019
5600 Clear 21 1006 52 10000 3 160 15:23 01.07.2019
5601 Smoke 21 1006 56 5000 3 140 14:44 01.07.2019
5602 Smoke 21 1006 56 5000 3 140 14:22 01.07.2019
5603 Smoke 24 1006 47 5000 1 120 13:48 01.07.2019
5604 Smoke 24 1006 47 5000 1 120 13:24 01.07.2019
5605 Smoke 25 1006 33 5000 1 130 12:58 01.07.2019
5606 Smoke 25 1006 33 5000 1 130 12:38 01.07.2019
5607 Smoke 26 1006 31 5000 2.92 84.483 12:20 01.07.2019
5608 Smoke 25 1006 33 5000 1 70 11:45 01.07.2019
5609 Smoke 25 1006 33 5000 1 70 11:23 01.07.2019
5610 Smoke 25 1006 31 5000 2 10 10:48 01.07.2019
5611 Smoke 25 1006 31 5000 2 10 10:25 01.07.2019
5612 Smoke 26 1006 34 5000 1 90 09:59 01.07.2019
5613 Smoke 26 1006 31 5000 1 50 09:40 01.07.2019
5614 Smoke 26 1006 31 5000 1 50 09:22 01.07.2019
5615 Smoke 25 1006 36 5000 2 20 08:39 01.07.2019
5616 Smoke 25 1006 36 5000 2 20 08:21 01.07.2019
5617 Smoke 25 1007 36 5000 2 40 07:29 01.07.2019
5618 Clear 24 1006 38 10000 4 10 06:39 01.07.2019
5619 Clear 18 1006 59 10000 3 30 02:48 01.07.2019
5620 Clear 16 1005 63 10000 5 30 00:53 01.07.2019
5621 Clear 16 1005 63 10000 5 10 00:31 01.07.2019
5622 Clear 16 1005 59 10000 4 360 23:58 30.06.2019
5623 Clear 15 1004 62 10000 4 350 23:24 30.06.2019
5624 Clear 14 1004 67 10000 4 340 22:54 30.06.2019
5625 Clear 14 1004 67 10000 4 340 22:23 30.06.2019
5626 Clear 13 1004 71 10000 3 340 21:57 30.06.2019
5627 Clouds 13 1004 66 10000 3 360 21:38 30.06.2019
5628 Clear 13 1004 71 10000 4 330 21:18 30.06.2019
5629 Clouds 13 1003 71 10000 4 320 20:41 30.06.2019
5630 Clouds 13 1003 71 10000 4 320 20:22 30.06.2019
5631 Clouds 14 1003 67 10000 3 320 19:51 30.06.2019
5632 Clouds 14 1003 67 10000 3 330 19:25 30.06.2019
5633 Clear 15 1003 67 10000 4 340 18:48 30.06.2019
5634 Clear 15 1003 62 10000 3 340 18:22 30.06.2019
5635 Clear 15 1002 62 10000 3 320 17:41 30.06.2019
5636 Clear 16 1002 55 10000 2 360 17:19 30.06.2019
5637 Clear 16 1002 55 10000 2 360 16:52 30.06.2019
5638 Clear 17 1002 51 10000 4 350 16:33 30.06.2019
5639 Clear 17 1002 55 10000 3 330 15:58 30.06.2019
5640 Clear 19 1002 45 10000 3 350 15:36 30.06.2019
5641 Clear 20 1002 42 10000 3 360 15:18 30.06.2019
5642 Clouds 21 1002 46 10000 3 330 14:43 30.06.2019
5643 Clouds 21 1002 46 10000 3 330 14:24 30.06.2019
5644 Clouds 21 1001 49 10000 2 340 13:43 30.06.2019
5645 Rain 24 1001 27 10000 5 350 13:20 30.06.2019
5646 Clouds 25 1001 25 10000 6 360 12:47 30.06.2019
5647 Clouds 25 1001 25 10000 6 360 12:24 30.06.2019
5648 Clouds 26 1001 26 10000 6 360 11:48 30.06.2019
5649 Clouds 26 1001 26 10000 6 360 11:24 30.06.2019
5650 Clouds 25 1001 25 10000 5 10 10:59 30.06.2019
5651 Clear 25 1001 27 10000 4 30 10:38 30.06.2019
5652 Clear 25 1001 27 10000 4 330 10:19 30.06.2019
5653 Clear 25 1001 25 10000 5 10 09:43 30.06.2019
5654 Clear 25 1001 25 10000 5 10 09:23 30.06.2019
5655 Clear 26 1002 24 10000 5 360 08:57 30.06.2019
5656 Clear 26 1002 22 10000 7 10 08:29 30.06.2019
5657 Clear 27 1002 22 10000 6 330 07:56 30.06.2019
5658 Clear 27 1002 24 10000 7 330 07:28 30.06.2019
5659 Clear 27 1002 28 10000 7 330 06:41 30.06.2019
5660 Clear 26 1002 31 10000 5 350 05:33 30.06.2019
5661 Clear 22 1002 46 10000 5 360 02:52 30.06.2019
5662 Clear 21 1002 52 10000 5 360 01:28 30.06.2019
5663 Clear 20 1002 60 10000 4 340 00:32 30.06.2019
5664 Clear 19 1002 63 10000 4 350 23:55 29.06.2019
5665 Clear 18 1002 68 10000 2 330 23:25 29.06.2019
5666 Clear 17 1002 72 10000 2 300 22:57 29.06.2019
5667 Clear 17 1002 72 10000 3 290 22:38 29.06.2019
5668 Clear 17 1002 72 10000 4 300 22:19 29.06.2019
5669 Clear 17 1002 67 10000 4 310 21:42 29.06.2019
5670 Clear 17 1002 67 10000 4 310 21:22 29.06.2019
5671 Clear 17 1001 67 10000 3 300 20:41 29.06.2019
5672 Clear 17 1001 67 10000 3 300 20:23 29.06.2019
5673 Clear 18 1001 63 10000 3 310 19:48 29.06.2019
5674 Clear 18 1001 63 10000 3 310 19:24 29.06.2019
5675 Clear 19 1002 59 10000 4 310 18:51 29.06.2019
5676 Clear 19 1002 59 10000 4 310 18:26 29.06.2019
5677 Clear 20 1002 56 10000 4 300 17:42 29.06.2019
5678 Clear 20 1002 56 10000 4 300 17:23 29.06.2019
5679 Clear 20 1002 56 10000 4 300 16:58 29.06.2019
5680 Clear 21 1002 49 10000 3 300 16:39 29.06.2019
5681 Clouds 21 1001 49 10000 2 290 15:53 29.06.2019
5682 Clouds 22 1001 40 10000 3 280 15:30 29.06.2019
5683 Clouds 24 1002 33 10000 3 310 14:44 29.06.2019
5684 Clouds 24 1002 33 10000 3 310 14:26 29.06.2019
5685 Clouds 26 1002 26 10000 4 300 13:47 29.06.2019
5686 Clouds 26 1002 26 10000 4 300 13:26 29.06.2019
5687 Clouds 27 1002 32 10000 5 310 12:52 29.06.2019
5688 Clouds 27 1001 32 10000 7 300 12:34 29.06.2019
5689 Clear 29 1001 32 10000 5 300 11:55 29.06.2019
5690 Clear 29 1001 30 10000 6 290 11:37 29.06.2019
5691 Clear 29 1002 28 10000 5 310 11:19 29.06.2019
5692 Clear 29 1002 32 10000 4 320 10:39 29.06.2019
5693 Clear 29 1002 32 10000 4 320 10:20 29.06.2019
5694 Smoke 29 1002 26 5000 7 310 09:45 29.06.2019
5695 Smoke 30 1002 25 5000 5 300 08:51 29.06.2019
5696 Smoke 30 1002 25 5000 6 310 08:25 29.06.2019
5697 Smoke 29 1003 25 5000 5 330 07:44 29.06.2019
5698 Smoke 28 1003 30 5000 2 130 06:47 29.06.2019
5699 Smoke 27 1003 32 5000 2 120 06:24 29.06.2019
5700 Smoke 24 1004 47 5000 2 320 02:52 29.06.2019
5701 Smoke 20 1004 52 5000 3 300 01:32 29.06.2019
5702 Smoke 18 1004 59 5000 3 300 00:31 29.06.2019
5703 Smoke 17 1004 59 5000 3 300 23:37 28.06.2019
5704 Smoke 17 1004 59 5000 3 300 23:37 28.06.2019
5705 Smoke 17 1004 59 5000 4 300 23:19 28.06.2019
5706 Clear 17 1004 59 10000 3 310 22:45 28.06.2019
5707 Clear 17 1004 59 10000 4 300 21:58 28.06.2019
5708 Clear 16 1004 63 10000 4 300 21:27 28.06.2019
5709 Clear 16 1004 63 10000 4 300 21:26 28.06.2019
5710 Clear 16 1004 63 10000 4 300 20:55 28.06.2019
5711 Clear 16 1004 63 10000 3 300 20:37 28.06.2019
5712 Clear 17 1004 59 10000 4 300 20:18 28.06.2019
5713 Clear 17 1004 59 10000 4 300 19:37 28.06.2019
5714 Clear 18 1003 55 10000 4 300 19:19 28.06.2019
5715 Clear 19 1003 52 10000 4 300 18:41 28.06.2019
5716 Clear 19 1003 52 10000 4 300 18:21 28.06.2019
5717 Clear 19 1003 52 10000 4 300 17:41 28.06.2019
5718 Clear 19 1003 52 10000 4 300 17:23 28.06.2019
5719 Clear 21 1003 46 10000 4 290 16:46 28.06.2019
5720 Smoke 21 1003 43 5000 4 290 16:18 28.06.2019
5721 Smoke 22 1003 40 5000 3 290 15:40 28.06.2019
5722 Smoke 23 1003 38 5000 3 290 15:18 28.06.2019
5723 Smoke 24 1003 36 5000 3 290 14:39 28.06.2019
5724 Smoke 24 1003 36 5000 3 290 14:21 28.06.2019
5725 Smoke 26 1003 31 5000 2 310 13:46 28.06.2019
5726 Smoke 26 1003 31 5000 2 310 13:27 28.06.2019
5727 Clear 28 1003 26 10000 4 350 12:51 28.06.2019
5728 Clear 28 1003 26 10000 4 350 12:32 28.06.2019
5729 Clear 29 1003 21 10000 5 350 11:29 28.06.2019
5730 Clear 28 1003 24 10000 6 360 10:58 28.06.2019
5731 Clear 28 1003 26 10000 5 20 10:38 28.06.2019
5732 Clear 29 1003 23 10000 6 30 10:18 28.06.2019
5733 Clear 30 1003 20 10000 6 10 09:43 28.06.2019
5734 Clear 30 1003 20 10000 6 10 09:24 28.06.2019
5735 Clouds 29 1003 21 10000 6 10 08:42 28.06.2019
5736 Clouds 29 1003 21 10000 6 10 08:23 28.06.2019
5737 Clear 28 1004 32 10000 3 70 07:42 28.06.2019
5738 Clear 30 1004 23 10000 4 340 06:52 28.06.2019
5739 Clear 27 1005 32 10000 4 350 03:59 28.06.2019
5740 Clear 21 1006 52 10000 4 300 00:47 28.06.2019
5741 Clear 20 1006 56 10000 3 320 00:19 28.06.2019
5742 Clear 19 1006 59 10000 3 320 23:46 27.06.2019
5743 Clear 19 1006 59 10000 3 320 23:24 27.06.2019
5744 Clear 16 1006 67 10000 3 320 22:43 27.06.2019
5745 Clear 16 1006 67 10000 3 320 22:25 27.06.2019
5746 Clear 15 1006 67 10000 4 290 21:58 27.06.2019
5747 Clear 15 1006 67 10000 3 310 21:39 27.06.2019
5748 Clear 15 1006 67 10000 3 310 21:20 27.06.2019
5749 Clear 15 1006 67 10000 4 300 20:46 27.06.2019
5750 Clear 15 1006 67 10000 4 300 20:28 27.06.2019
5751 Clear 15 1006 67 10000 4 300 19:49 27.06.2019
5752 Clear 15 1006 67 10000 4 300 19:29 27.06.2019
5753 Clear 15 1006 67 10000 4 300 18:52 27.06.2019
5754 Clear 16 1006 63 10000 4 300 18:30 27.06.2019
5755 Clear 16 1006 67 10000 4 300 17:55 27.06.2019
5756 Clear 16 1006 67 10000 3 300 17:36 27.06.2019
5757 Clear 17 1006 63 10000 3 300 17:18 27.06.2019
5758 Clear 18 1006 59 10000 3 290 16:38 27.06.2019
5759 Clear 19 1006 52 10000 3 280 16:19 27.06.2019
5760 Clear 19 1006 55 10000 2 260 15:45 27.06.2019
5761 Clear 19 1006 55 10000 2 260 15:24 27.06.2019
5762 Clear 22 1006 43 10000 2 200 14:48 27.06.2019
5763 Clear 22 1006 43 10000 2 200 14:29 27.06.2019
5764 Clear 25 1006 33 10000 2 190 13:50 27.06.2019
5765 Clear 25 1006 33 10000 2 190 13:31 27.06.2019
5766 Clear 25 1006 31 10000 2 150 12:57 27.06.2019
5767 Clear 25 1006 31 10000 2 150 12:38 27.06.2019
5768 Clear 26 1007 27 10000 2 140 12:18 27.06.2019
5769 Clear 26 1007 29 10000 2 130 11:42 27.06.2019
5770 Clear 26 1007 29 10000 2 130 11:21 27.06.2019
5771 Clear 26 1007 29 10000 2 100 10:46 27.06.2019
5772 Clear 26 1007 29 10000 2 100 10:22 27.06.2019
5773 Clear 25 1007 31 10000 3 140 09:56 27.06.2019
5774 Clear 26 1007 29 10000 2 90 09:36 27.06.2019
5775 Clear 25 1008 31 10000 3 140 09:18 27.06.2019
5776 Clear 25 1008 31 10000 3 80 08:40 27.06.2019
5777 Clear 25 1008 31 10000 3 90 08:19 27.06.2019
5778 Clear 26 1008 29 10000 2 80 07:38 27.06.2019
5779 Clear 25 1009 31 10000 3 80 06:54 27.06.2019
5780 Clear 25 1009 31 10000 2 110 06:24 27.06.2019
5781 Clear 23 1010 35 10000 2 130 03:22 27.06.2019
5782 Clear 23 1011 46 10000 2 80 02:39 27.06.2019
5783 Clear 19 1011 59 10000 1 90 01:18 27.06.2019
5784 Clear 19 1011 59 10000 1 80 00:42 27.06.2019
5785 Clear 17 1011 59 10000 0.34 312.7 00:19 27.06.2019
5786 Clear 16 1011 63 10000 0.34 312.7 23:42 26.06.2019
5787 Clear 16 1011 63 10000 0.34 312.7 23:22 26.06.2019
5788 Clear 13 1011 71 10000 1 330 22:46 26.06.2019
5789 Clear 13 1011 71 10000 1 330 22:27 26.06.2019
5790 Clear 11 1011 81 10000 2 300 21:59 26.06.2019
5791 Clear 10 1011 81 10000 2 290 21:39 26.06.2019
5792 Clear 10 1010 87 10000 2 290 21:19 26.06.2019
5793 Clear 10 1010 87 10000 2 290 20:49 26.06.2019
5794 Clear 10 1010 87 10000 2 290 20:30 26.06.2019
5795 Clear 10 1010 87 10000 1 320 19:50 26.06.2019
5796 Clear 11 1010 81 10000 3 300 19:31 26.06.2019
5797 Clear 11 1010 87 10000 3 290 18:58 26.06.2019
5798 Clear 12 1010 81 10000 3 300 18:39 26.06.2019
5799 Clear 13 1010 76 10000 2 290 18:19 26.06.2019
5800 Clear 13 1010 76 10000 2 290 18:19 26.06.2019
5801 Clear 14 1010 76 10000 2 290 17:46 26.06.2019
5802 Clear 14 1010 76 10000 2 290 17:27 26.06.2019
5803 Clear 14 1010 76 10000 2 290 17:27 26.06.2019
5804 Clear 14 1010 76 10000 2 290 17:27 26.06.2019
5805 Clear 14 1010 76 10000 1 310 16:52 26.06.2019
5806 Clear 14 1010 82 10000 1.66 235.436 16:29 26.06.2019
5807 Clear 14 1010 82 10000 1.66 235.436 16:29 26.06.2019
5808 Clear 16 1010 77 10000 1.66 235.436 15:53 26.06.2019
5809 Clear 17 1010 67 10000 1.66 235.436 15:28 26.06.2019
5810 -273 0 0 0 0 0 14:57 26.06.2019
5811 Clear 21 1010 40 10000 1 160 14:37 26.06.2019
5812 Clear 22 1010 35 10000 1 150 14:18 26.06.2019
5813 Clear 23 1010 35 10000 1 210 13:39 26.06.2019
5814 Clear 23 1010 35 10000 2 210 13:18 26.06.2019
5815 Clear 23 1010 35 10000 1 190 12:40 26.06.2019
5816 Clear 22 1010 37 10000 2 190 12:19 26.06.2019
5817 Clear 23 1009 33 10000 2 190 11:25 26.06.2019
5818 Clear 23 1009 33 10000 2 190 11:25 26.06.2019
5819 Clear 23 1010 35 10000 2 220 10:56 26.06.2019
5820 Clear 23 1010 33 10000 2 130 10:38 26.06.2019
5821 Clear 23 1010 33 10000 2 160 10:19 26.06.2019
5822 Clear 23 1010 33 10000 2 140 09:30 26.06.2019
5823 Clear 23 1010 33 10000 2 160 08:57 26.06.2019
5824 Clear 22 1010 35 10000 3 130 08:23 26.06.2019
5825 Clear 22 1010 37 10000 2 130 07:59 26.06.2019
5826 Clear 22 1011 35 10000 3 130 07:40 26.06.2019
5827 Clear 21 1011 40 10000 3 150 06:33 26.06.2019
5828 Clear 19 1012 48 10000 4 110 03:33 26.06.2019
5829 Clear 17 1012 63 10000 2 130 00:41 26.06.2019
5830 Clear 16 1012 67 10000 2 140 23:58 25.06.2019
5831 Clear 16 1012 72 10000 2.35 135.724 23:39 25.06.2019
5832 Clear 14 1012 82 10000 1 330 23:20 25.06.2019
5833 Clear 13 1012 82 10000 1 330 22:42 25.06.2019
5834 Clear 13 1012 82 10000 1 330 22:23 25.06.2019
5835 Clear 12 1012 87 10000 2 330 21:46 25.06.2019
5836 Clear 12 1012 87 10000 2 330 21:27 25.06.2019
5837 Clear 11 1012 93 10000 2 340 20:57 25.06.2019
5838 Clear 11 1012 87 10000 2 320 20:36 25.06.2019
5839 Clear 12 1012 87 10000 1 350 20:18 25.06.2019
5840 Clear 12 1012 87 10000 1 120 19:43 25.06.2019
5841 Clear 12 1012 87 10000 1 120 19:21 25.06.2019
5842 Clear 14 1012 76 10000 2 140 18:42 25.06.2019
5843 Clear 14 1012 76 10000 2 140 18:24 25.06.2019
5844 -273 0 0 0 0 0 17:46 25.06.2019
5845 Clear 15 1011 77 10000 2 140 17:27 25.06.2019
5846 -273 0 0 0 0 0 17:27 25.06.2019
5847 -273 0 0 0 0 0 17:27 25.06.2019
5848 Clear 16 1011 72 10000 2 150 16:45 25.06.2019
5849 Clear 16 1011 72 10000 2 150 16:26 25.06.2019
5850 Clear 16 1011 72 10000 2 150 16:26 25.06.2019
5851 Clear 16 1011 72 10000 2 150 15:59 25.06.2019
5852 Clear 17 1011 67 10000 2 140 15:39 25.06.2019
5853 Clear 17 1011 67 10000 2 140 15:20 25.06.2019
5854 Clear 19 1010 59 10000 4 150 14:45 25.06.2019
5855 Clear 19 1010 59 10000 4 150 14:26 25.06.2019
5856 Clear 21 1010 49 10000 3 160 13:43 25.06.2019
5857 Clear 21 1010 49 10000 3 160 13:24 25.06.2019
5858 Clear 22 1009 46 10000 3 160 12:43 25.06.2019
5859 Clear 22 1009 46 10000 3 160 12:24 25.06.2019
5860 Clear 22 1009 46 10000 3 160 12:24 25.06.2019
5861 Clear 22 1009 49 10000 4 160 11:46 25.06.2019
5862 Clear 22 1009 49 10000 4 160 11:25 25.06.2019
5863 Clear 22 1009 49 10000 4 170 10:58 25.06.2019
5864 Clear 22 1009 49 10000 4 170 10:57 25.06.2019
5865 Clear 21 1009 52 10000 4 160 10:37 25.06.2019
5866 Clouds 21 1009 52 10000 3 140 10:18 25.06.2019
5867 Clouds 21 1009 52 10000 4 150 09:39 25.06.2019
5868 Clouds 21 1009 52 10000 4 150 09:21 25.06.2019
5869 Clouds 21 1009 52 10000 3 140 08:52 25.06.2019
5870 Clouds 21 1009 52 10000 3 150 08:31 25.06.2019
5871 Clouds 19 1009 68 10000 3 140 07:44 25.06.2019
5872 Clouds 19 1009 68 10000 3 140 07:25 25.06.2019
5873 Clouds 19 1009 68 10000 4 110 06:44 25.06.2019
5874 Clouds 20 1009 64 10000 4 100 05:56 25.06.2019
5875 Clouds 17 1008 82 10000 4 130 02:43 25.06.2019
5876 Clouds 16 1008 87 10000 3 110 00:39 25.06.2019
5877 Clouds 15 1008 87 10000 2 110 00:19 25.06.2019
5878 Clouds 15 1008 87 10000 2 110 23:51 24.06.2019
5879 Clouds 14 1008 93 10000 3 110 23:32 24.06.2019
5880 Rain 14 1007 93 10000 3 120 22:48 24.06.2019
5881 Rain 14 1007 93 10000 3 120 22:21 24.06.2019
5882 Clouds 14 1007 93 10000 3 110 21:56 24.06.2019
5883 Clouds 14 1007 93 10000 2 120 21:37 24.06.2019
5884 Clouds 15 1007 87 10000 2 130 21:18 24.06.2019
5885 Clouds 15 1007 87 10000 3 120 20:42 24.06.2019
5886 Clouds 15 1007 87 10000 3 120 20:22 24.06.2019
5887 Clouds 15 1007 93 10000 3 160 19:49 24.06.2019
5888 Clouds 15 1007 93 10000 3 160 19:27 24.06.2019
5889 Clouds 15 1007 93 10000 4 170 18:58 24.06.2019
5890 Clouds 16 1007 93 10000 3 140 18:38 24.06.2019
5891 Clouds 16 1007 93 10000 3 150 18:20 24.06.2019
5892 Clouds 16 1007 93 10000 1 120 17:37 24.06.2019
5893 Clouds 16 1006 93 10000 1 220 17:18 24.06.2019
5894 Rain 16 1006 93 10000 1 190 16:40 24.06.2019
5895 Clouds 17 1006 82 10000 2 200 16:19 24.06.2019
5896 Clouds 17 1006 88 10000 2 170 15:41 24.06.2019
5897 Clouds 17 1006 88 10000 2 170 15:22 24.06.2019
5898 Clouds 18 1006 82 10000 2 150 14:35 24.06.2019
5899 Rain 19 1006 77 10000 1 170 13:59 24.06.2019
5900 Clouds 18 1006 77 10000 2 200 13:32 24.06.2019
5901 -273 0 0 0 0 0 12:57 24.06.2019
5902 Clouds 20 1006 64 10000 3 170 12:38 24.06.2019
5903 Clouds 21 1006 60 10000 5 170 12:20 24.06.2019
5904 Clouds 20 1005 68 10000 4 170 11:43 24.06.2019
5905 Clouds 20 1005 68 10000 4 170 11:24 24.06.2019
5906 Clouds 20 1005 72 10000 4 180 10:51 24.06.2019
5907 Clouds 20 1005 72 10000 4 180 10:31 24.06.2019
5908 Clouds 20 1005 72 10000 3 170 09:56 24.06.2019
5909 Clouds 19 1005 77 10000 2 170 09:37 24.06.2019
5910 Rain 19 1005 77 10000 4 190 09:18 24.06.2019
5911 Thunderstorm 19 1005 72 10000 3 160 08:34 24.06.2019
5912 Thunderstorm 22 1005 60 10000 5 170 07:49 24.06.2019
5913 Thunderstorm 22 1005 60 10000 5 170 07:27 24.06.2019
5914 Thunderstorm 22 1005 60 10000 4 170 06:56 24.06.2019
5915 Clouds 22 1005 60 10000 4 170 06:23 24.06.2019
5916 Clouds 22 1005 60 10000 3 150 05:31 24.06.2019
5917 Clouds 20 1005 68 10000 2 140 04:34 24.06.2019
5918 Clouds 18 1005 77 10000 3 120 03:32 24.06.2019
5919 Clouds 18 1005 82 10000 2 80 02:34 24.06.2019
5920 Clouds 18 1005 82 10000 2 100 01:54 24.06.2019
5921 Clouds 17 1005 88 10000 3 90 01:28 24.06.2019
5922 Clouds 17 1004 82 10000 2 340 00:45 24.06.2019
5923 Clouds 16 1004 87 10000 2 300 00:20 24.06.2019
5924 Clouds 16 1004 87 10000 1 290 23:47 23.06.2019
5925 Clouds 16 1004 87 10000 1 290 23:27 23.06.2019
5926 Clouds 16 1004 93 10000 3 330 22:55 23.06.2019
5927 Clouds 16 1004 87 10000 3 310 22:37 23.06.2019
5928 Clouds 15 1004 93 10000 3 310 22:19 23.06.2019
5929 Clear 15 1004 93 10000 3 300 21:40 23.06.2019
5930 Clear 15 1004 93 10000 3 300 21:21 23.06.2019
5931 Clear 15 1004 93 10000 3 300 20:45 23.06.2019
5932 Clear 15 1004 93 10000 3 300 20:26 23.06.2019
5933 Clear 16 1004 87 10000 3 300 19:46 23.06.2019
5934 Clear 16 1004 87 10000 3 300 19:21 23.06.2019
5935 Clear 16 1004 93 10000 3 270 18:54 23.06.2019
5936 Clouds 17 1004 88 10000 2 270 18:25 23.06.2019
5937 Clouds 17 1004 88 10000 2 290 17:54 23.06.2019
5938 Clouds 17 1004 88 10000 2 290 17:28 23.06.2019
5939 Clouds 18 1004 82 10000 1 300 16:59 23.06.2019
5940 Clouds 18 1004 82 10000 4 310 16:41 23.06.2019
5941 Clouds 18 1004 82 10000 4 310 16:22 23.06.2019
5942 Clouds 19 1003 77 10000 5 290 15:41 23.06.2019
5943 Clouds 19 1003 77 10000 5 290 15:22 23.06.2019
5944 Clouds 20 1004 72 10000 5 290 14:42 23.06.2019
5945 Clouds 20 1004 72 10000 5 290 14:24 23.06.2019
5946 Clouds 21 1004 64 10000 5 280 13:59 23.06.2019
5947 Clouds 22 1003 60 10000 5 280 13:40 23.06.2019
5948 Clouds 23 1003 53 10000 3 310 13:19 23.06.2019
5949 Clouds 23 1003 53 10000 3 310 13:19 23.06.2019
5950 Clouds 23 1003 53 10000 3 310 13:19 23.06.2019
5951 Clouds 24 1003 47 10000 2 210 12:46 23.06.2019
5952 Clouds 24 1003 47 10000 2 210 12:23 23.06.2019
5953 Clouds 24 1003 44 10000 3 90 11:57 23.06.2019
5954 Clouds 26 1003 36 10000 3 100 11:38 23.06.2019
5955 Clouds 25 1003 38 10000 3 80 11:19 23.06.2019
5956 Clouds 27 1003 32 10000 3 100 10:44 23.06.2019
5957 Clouds 27 1003 34 10000 3 100 10:19 23.06.2019
5958 Clouds 26 1003 39 10000 3 90 09:42 23.06.2019
5959 Clouds 26 1003 39 10000 3 90 09:21 23.06.2019
5960 Clouds 26 1003 39 10000 4 90 08:45 23.06.2019
5961 Clouds 26 1003 39 10000 4 90 08:27 23.06.2019
5962 Clouds 26 1003 39 10000 4 90 07:54 23.06.2019
5963 Clear 24 1004 44 10000 3 90 07:21 23.06.2019
5964 Clear 24 1004 44 10000 3 100 06:54 23.06.2019
5965 Clouds 25 1005 44 10000 4 90 05:55 23.06.2019
5966 Clouds 25 1005 47 10000 3 90 04:38 23.06.2019
5967 Clear 22 1006 56 10000 2 110 01:57 23.06.2019
5968 Clear 21 1006 64 10000 2 120 01:36 23.06.2019
5969 Clear 20 1006 64 10000 2 100 00:36 23.06.2019
5970 Clear 20 1006 64 10000 1 100 23:55 22.06.2019
5971 Clear 20 1006 64 10000 1 100 23:55 22.06.2019
5972 Clear 19 1006 68 10000 2 110 23:37 22.06.2019
5973 Clear 18 1006 72 10000 1 70 23:18 22.06.2019
5974 Clear 18 1006 72 10000 2 160 22:38 22.06.2019
5975 Clouds 17 1006 77 10000 1 100 22:19 22.06.2019
5976 Clouds 16 1006 82 10000 2 160 21:38 22.06.2019
5977 Clouds 17 1006 77 10000 3 130 21:19 22.06.2019
5978 Clouds 17 1006 77 10000 3 130 20:50 22.06.2019
5979 Clouds 16 1006 77 10000 1 140 20:25 22.06.2019
5980 Clear 14 1006 82 10000 1 130 19:50 22.06.2019
5981 Clear 14 1006 82 10000 1 130 19:28 22.06.2019
5982 Clear 15 1006 82 10000 1 120 18:55 22.06.2019
5983 Clear 18 1006 68 10000 1 200 18:33 22.06.2019
5984 Clear 19 1006 63 10000 1 190 17:57 22.06.2019
5985 Clear 19 1006 63 10000 3 120 17:36 22.06.2019
5986 Clear 20 1006 60 10000 2 120 17:18 22.06.2019
5987 Clear 20 1006 60 10000 2 100 16:39 22.06.2019
5988 Clear 20 1006 60 10000 2 100 16:20 22.06.2019
5989 Clear 20 1006 60 10000 2 80 15:40 22.06.2019
5990 Clear 20 1006 60 10000 2 80 15:22 22.06.2019
5991 Clear 23 1006 49 10000 2 60 14:37 22.06.2019
5992 Clear 24 1006 47 10000 2 50 14:18 22.06.2019
5993 Clear 26 1006 39 10000 1 60 13:42 22.06.2019
5994 Clear 26 1006 39 10000 1 60 13:22 22.06.2019
5995 Clear 26 1006 39 10000 2 60 12:52 22.06.2019
5996 Clear 26 1006 36 10000 2 40 12:33 22.06.2019
5997 Clear 26 1006 36 10000 1 50 11:58 22.06.2019
5998 Clear 26 1006 36 10000 2 70 11:33 22.06.2019
5999 Clear 27 1006 34 10000 2 70 10:53 22.06.2019
6000 Clear 27 1006 32 10000 2 60 10:21 22.06.2019
6001 Clear 27 1006 32 10000 2 70 09:49 22.06.2019
6002 Clear 27 1006 32 10000 2 70 09:22 22.06.2019
6003 Clear 27 1007 32 10000 2 90 08:43 22.06.2019
6004 Clear 26 1007 36 10000 2 80 08:22 22.06.2019
6005 Clear 25 1007 38 10000 2 70 07:32 22.06.2019
6006 Clear 26 1008 36 10000 1 350 06:47 22.06.2019
6007 Clear 25 1008 38 10000 1 70 05:22 22.06.2019
6008 Clear 22 1009 49 10000 2 50 02:33 22.06.2019
6009 Clear 19 1009 63 10000 2 50 01:19 22.06.2019
6010 Clear 19 1009 63 10000 2 70 00:39 22.06.2019
6011 Clear 18 1009 68 10000 1 70 00:19 22.06.2019
6012 Clear 19 1009 59 10000 1 60 23:42 21.06.2019
6013 Clear 19 1009 59 10000 1 60 23:21 21.06.2019
6014 Clear 16 1009 77 10000 1 30 22:47 21.06.2019
6015 Clear 16 1009 77 10000 1 30 22:47 21.06.2019
6016 Clear 16 1009 77 10000 1 30 22:23 21.06.2019
6017 Clear 15 1008 82 10000 2 340 21:40 21.06.2019
6018 Clear 15 1008 82 10000 2 340 21:22 21.06.2019
6019 Clear 14 1008 82 10000 2 350 20:53 21.06.2019
6020 Clear 15 1008 82 10000 2 350 20:28 21.06.2019
6021 Clear 14 1008 82 10000 2 360 19:59 21.06.2019
6022 Clear 14 1008 82 10000 2 330 19:31 21.06.2019
6023 Clouds 16 1008 77 10000 2 340 18:48 21.06.2019
6024 Clouds 16 1008 77 10000 2 340 18:28 21.06.2019
6025 Clear 17 1007 67 10000 2 360 17:46 21.06.2019
6026 Clear 17 1007 67 10000 2 360 17:28 21.06.2019
6027 Clear 18 1008 63 10000 1 20 16:40 21.06.2019
6028 Clear 18 1008 63 10000 1 20 16:22 21.06.2019
6029 Clear 19 1007 59 10000 2 80 15:40 21.06.2019
6030 Clear 19 1007 59 10000 2 80 15:20 21.06.2019
6031 Clear 20 1007 60 10000 3 80 14:49 21.06.2019
6032 Clear 20 1007 60 10000 3 80 14:30 21.06.2019
6033 Clear 22 1007 53 10000 2 60 13:53 21.06.2019
6034 Clear 22 1007 53 10000 2 70 13:33 21.06.2019
6035 Clear 23 1006 53 10000 1 60 12:58 21.06.2019
6036 Clear 25 1006 44 10000 2 40 12:38 21.06.2019
6037 Clear 26 1006 39 10000 3 20 12:18 21.06.2019
6038 Clear 26 1006 39 10000 3 20 12:18 21.06.2019
6039 Clear 26 1006 41 10000 2 10 11:46 21.06.2019
6040 Clear 26 1006 41 10000 2 10 11:24 21.06.2019
6041 Clear 26 1005 44 10000 2 40 10:49 21.06.2019
6042 Clear 26 1005 44 10000 2 40 10:21 21.06.2019
6043 Clear 26 1005 44 10000 3 20 09:56 21.06.2019
6044 Clear 26 1005 44 10000 2 30 09:38 21.06.2019
6045 Clear 25 1005 47 10000 3 30 09:19 21.06.2019
6046 Clear 24 1006 50 10000 3 10 08:42 21.06.2019
6047 Clear 24 1006 50 10000 3 10 08:22 21.06.2019
6048 Clear 24 1006 50 10000 4 360 07:46 21.06.2019
6049 Clear 24 1006 50 10000 4 360 07:26 21.06.2019
6050 Clear 23 1006 53 10000 2 40 06:51 21.06.2019
6051 Clear 23 1006 53 10000 2 80 06:19 21.06.2019
6052 Clear 23 1006 53 10000 2 20 04:58 21.06.2019
6053 Clear 21 1006 60 10000 1 50 03:58 21.06.2019
6054 Clear 21 1006 60 10000 2 10 03:32 21.06.2019
6055 Clear 19 1006 63 10000 1 350 02:47 21.06.2019
6056 Clear 18 1006 72 10000 2 100 01:38 21.06.2019
6057 Clear 18 1005 72 10000 2 130 00:53 21.06.2019
6058 Clear 17 1005 77 10000 1 160 00:19 21.06.2019
6059 Clear 16 1005 82 10000 2 170 23:42 20.06.2019
6060 Clear 16 1005 82 10000 2 170 23:21 20.06.2019
6061 Clouds 16 1005 82 10000 2 140 22:46 20.06.2019
6062 Clouds 16 1005 82 10000 2 140 22:27 20.06.2019
6063 Clouds 16 1005 82 10000 1 140 21:57 20.06.2019
6064 Thunderstorm 17 1005 72 10000 4 160 21:39 20.06.2019
6065 Clouds 17 1005 67 10000 3 210 21:19 20.06.2019
6066 Clouds 17 1005 67 10000 2 200 20:46 20.06.2019
6067 Clouds 17 1005 67 10000 2 200 20:26 20.06.2019
6068 Clouds 17 1005 67 10000 2 170 19:55 20.06.2019
6069 Clouds 18 1005 63 10000 2 140 19:37 20.06.2019
6070 Clouds 16 1005 77 10000 1 120 19:18 20.06.2019
6071 Clear 16 1005 77 10000 3 80 18:42 20.06.2019
6072 Clear 16 1005 77 10000 3 80 18:23 20.06.2019
6073 Clear 16 1005 82 10000 1 270 17:51 20.06.2019
6074 Clear 16 1005 82 10000 1 270 17:51 20.06.2019
6075 Clear 17 1005 72 10000 1 170 17:32 20.06.2019
6076 Clear 19 1005 63 10000 2 130 16:49 20.06.2019
6077 Clear 19 1005 63 10000 2 130 16:20 20.06.2019
6078 Clear 19 1005 68 10000 1 180 15:59 20.06.2019
6079 Clear 20 1005 64 10000 1 230 15:40 20.06.2019
6080 Clear 20 1005 64 10000 1 230 15:22 20.06.2019
6081 Clear 23 1005 49 10000 2 170 14:46 20.06.2019
6082 Clear 23 1005 49 10000 2 170 14:23 20.06.2019
6083 Clear 25 1005 44 10000 2 150 13:41 20.06.2019
6084 Clear 26 1005 34 10000 1 130 13:20 20.06.2019
6085 Clear 27 1005 30 10000 2 130 12:49 20.06.2019
6086 Clear 27 1005 30 10000 2 130 12:24 20.06.2019
6087 Clouds 28 1004 28 10000 3 170 11:49 20.06.2019
6088 Clouds 28 1004 28 10000 3 170 11:30 20.06.2019
6089 Clouds 28 1005 28 10000 3 150 10:58 20.06.2019
6090 Clouds 28 1005 26 10000 3 140 10:39 20.06.2019
6091 Clouds 27 1005 28 10000 3 130 10:20 20.06.2019
6092 Clouds 27 1005 30 10000 3 120 09:40 20.06.2019
6093 Clouds 27 1005 30 10000 3 120 09:22 20.06.2019
6094 Clouds 28 1006 26 10000 4 140 08:46 20.06.2019
6095 Clouds 28 1006 26 10000 4 140 08:27 20.06.2019
6096 Clear 28 1006 24 10000 4 140 07:54 20.06.2019
6097 Clear 28 1006 24 10000 4 140 07:30 20.06.2019
6098 Clear 28 1007 24 10000 3 140 06:38 20.06.2019
6099 Clear 27 1007 28 10000 3 140 05:54 20.06.2019
6100 Clear 24 1008 50 10000 2 130 03:37 20.06.2019
6101 Clear 16 1008 67 10000 1 330 00:34 20.06.2019
6102 Clear 15 1008 67 10000 1 320 23:59 19.06.2019
6103 Clear 13 1008 76 10000 1 290 23:41 19.06.2019
6104 Clear 13 1008 76 10000 1 290 23:23 19.06.2019
6105 Clear 11 1008 81 10000 2 290 22:47 19.06.2019
6106 Clear 11 1008 81 10000 1 290 22:20 19.06.2019
6107 Clear 11 1008 81 10000 2 300 21:47 19.06.2019
6108 Clear 11 1008 81 10000 2 300 21:26 19.06.2019
6109 Clear 11 1007 81 10000 2 300 20:57 19.06.2019
6110 Clear 11 1007 81 10000 2 300 20:37 19.06.2019
6111 Clear 12 1007 76 10000 2 310 20:19 19.06.2019
6112 Clear 12 1007 76 10000 2 300 19:41 19.06.2019
6113 Clear 13 1007 76 10000 2 300 19:21 19.06.2019
6114 Clear 14 1007 76 10000 1 300 18:49 19.06.2019
6115 Clear 14 1007 76 10000 1 230 18:21 19.06.2019
6116 Clear 15 1007 77 10000 1.49 3.047 17:41 19.06.2019
6117 Clear 16 1007 72 10000 1 110 17:22 19.06.2019
6118 Clear 16 1007 72 10000 1 330 16:40 19.06.2019
6119 Clear 16 1007 72 10000 1 330 16:22 19.06.2019
6120 Clear 19 1007 59 10000 1 210 15:55 19.06.2019
6121 Clear 18 1007 59 10000 1 10 15:31 19.06.2019
6122 Clear 23 1006 40 10000 2 20 14:57 19.06.2019
6123 Clear 23 1006 40 10000 2 20 14:39 19.06.2019
6124 Clear 23 1006 40 10000 2 20 14:21 19.06.2019
6125 Clear 25 1006 33 10000 2 20 13:43 19.06.2019
6126 Clear 25 1006 33 10000 2 20 13:24 19.06.2019
6127 Clear 27 1006 26 10000 4 20 12:44 19.06.2019
6128 Clear 27 1006 26 10000 4 20 12:22 19.06.2019
6129 Clear 27 1006 24 10000 4 20 11:56 19.06.2019
6130 Clear 28 1005 21 10000 4 20 11:38 19.06.2019
6131 Clear 28 1005 20 10000 4 20 11:19 19.06.2019
6132 Clear 28 1005 21 10000 4 20 10:45 19.06.2019
6133 Clear 28 1005 21 10000 4 20 10:26 19.06.2019
6134 Clear 28 1005 23 10000 2 30 09:43 19.06.2019
6135 Clear 28 1005 23 10000 2 30 09:22 19.06.2019
6136 Clear 28 1005 24 10000 2 100 08:51 19.06.2019
6137 Clear 27 1006 28 10000 2 80 08:29 19.06.2019
6138 Clear 27 1006 28 10000 2 100 07:49 19.06.2019
6139 Clear 27 1006 28 10000 2 100 07:30 19.06.2019
6140 Clear 27 1006 30 10000 2 80 06:55 19.06.2019
6141 Clear 26 1006 31 10000 1 50 06:30 19.06.2019
6142 Clear 25 1007 36 10000 1 80 05:50 19.06.2019
6143 Clear 24 1007 41 10000 1 60 04:41 19.06.2019
6144 Clear 23 1007 43 10000 1 80 03:37 19.06.2019
6145 Clear 22 1007 43 10000 1 70 02:30 19.06.2019
6146 Clear 19 1007 63 10000 2 130 01:29 19.06.2019
6147 Clear 19 1007 59 10000 1 100 00:52 19.06.2019
6148 Clear 19 1007 63 10000 1 70 00:34 19.06.2019
6149 Clear 18 1007 63 10000 1 140 23:58 18.06.2019
6150 Clear 18 1007 63 10000 1 140 23:58 18.06.2019
6151 Clear 18 1007 68 10000 1 110 23:30 18.06.2019
6152 Clear 17 1007 67 10000 1 200 22:55 18.06.2019
6153 Clear 16 1007 72 10000 1 180 22:37 18.06.2019
6154 Clear 16 1007 72 10000 1 90 22:18 18.06.2019
6155 Clear 16 1007 67 10000 1 180 21:43 18.06.2019
6156 Clear 16 1007 67 10000 1 180 21:21 18.06.2019
6157 Clear 16 1007 67 10000 1 180 21:21 18.06.2019
6158 Clear 16 1007 67 10000 3 160 20:44 18.06.2019
6159 Clear 16 1007 67 10000 3 160 20:26 18.06.2019
6160 Clear 16 1007 67 10000 3 170 19:56 18.06.2019
6161 -273 0 0 0 0 0 19:38 18.06.2019
6162 Clear 17 1007 59 10000 3 190 19:19 18.06.2019
6163 Clear 18 1006 52 10000 2 180 18:45 18.06.2019
6164 Clear 18 1006 52 10000 2 180 18:24 18.06.2019
6165 Clear 20 1006 45 10000 5 150 17:42 18.06.2019
6166 Clear 20 1006 45 10000 5 150 17:20 18.06.2019
6167 Clear 18 1006 55 10000 1 170 16:47 18.06.2019
6168 Clear 18 1006 55 10000 1 170 16:27 18.06.2019
6169 Clear 19 1006 55 10000 2 240 15:56 18.06.2019
6170 Clear 20 1006 49 10000 3 290 15:37 18.06.2019
6171 Clear 20 1005 49 10000 1 260 15:19 18.06.2019
6172 Clear 22 1005 46 10000 1 250 14:45 18.06.2019
6173 Clear 22 1005 46 10000 1 250 14:45 18.06.2019
6174 Clear 22 1005 46 10000 1 250 14:22 18.06.2019
6175 Clear 24 1005 36 10000 2.79 210.025 13:56 18.06.2019
6176 Clear 26 1005 29 10000 1 30 13:38 18.06.2019
6177 Clear 27 1005 26 10000 1 30 13:19 18.06.2019
6178 Clear 27 1005 24 10000 2 20 12:42 18.06.2019
6179 Clear 27 1005 24 10000 2 20 12:24 18.06.2019
6180 Clear 28 1005 23 10000 4 30 11:43 18.06.2019
6181 Clear 28 1005 23 10000 4 30 11:21 18.06.2019
6182 Clear 28 1005 21 10000 4 20 10:57 18.06.2019
6183 Clear 28 1005 23 10000 4 30 10:37 18.06.2019
6184 Clear 28 1005 23 10000 5 20 10:18 18.06.2019
6185 Clear 28 1005 23 10000 4 20 09:47 18.06.2019
6186 Clear 27 1006 24 10000 4 30 09:22 18.06.2019
6187 Clear 28 1006 23 10000 4 30 08:43 18.06.2019
6188 Clear 28 1006 23 10000 4 30 08:43 18.06.2019
6189 Clear 28 1006 24 10000 5 10 08:21 18.06.2019
6190 Clear 27 1006 26 10000 4 10 07:40 18.06.2019
6191 Clear 27 1006 26 10000 4 20 07:20 18.06.2019
6192 Clear 27 1006 30 10000 3 70 06:33 18.06.2019
6193 Clear 26 1006 29 10000 6 30 05:19 18.06.2019
6194 Clear 24 1007 36 10000 5 10 02:52 18.06.2019
6195 Clear 22 1007 43 10000 4 360 01:54 18.06.2019
6196 Clear 21 1007 46 10000 4 10 01:24 18.06.2019
6197 Clear 21 1007 43 10000 5 10 00:54 18.06.2019
6198 Clear 21 1007 43 10000 5 360 00:26 18.06.2019
6199 Clear 20 1007 45 10000 3 350 23:41 17.06.2019
6200 Clear 18 1007 52 10000 3 340 23:20 17.06.2019
6201 Clear 18 1007 52 10000 3 340 22:55 17.06.2019
6202 Clear 17 1007 51 10000 2 340 22:36 17.06.2019
6203 Clear 16 1007 55 10000 3 330 22:18 17.06.2019
6204 Clear 16 1007 55 10000 2 340 21:41 17.06.2019
6205 Clear 16 1007 55 10000 2 340 21:21 17.06.2019
6206 Clear 16 1007 59 10000 3 340 20:37 17.06.2019
6207 Clear 15 1007 62 10000 3 340 20:18 17.06.2019
6208 Clear 15 1006 58 10000 3 340 19:42 17.06.2019
6209 Clear 15 1006 58 10000 3 340 19:23 17.06.2019
6210 Clear 16 1006 55 10000 3 330 18:57 17.06.2019
6211 Clear 17 1006 51 10000 3 310 18:37 17.06.2019
6212 Clear 18 1006 48 10000 3 330 18:18 17.06.2019
6213 Clear 18 1006 48 10000 3 330 18:18 17.06.2019
6214 Clear 18 1006 48 10000 3 330 17:44 17.06.2019
6215 Clear 18 1006 48 10000 3 330 17:26 17.06.2019
6216 Clouds 19 1006 52 10000 3 330 16:47 17.06.2019
6217 Clouds 19 1006 52 10000 3 330 16:29 17.06.2019
6218 Clouds 18 1006 59 10000 1 350 15:57 17.06.2019
6219 Clouds 21 1006 49 10000 3 300 15:38 17.06.2019
6220 Clouds 22 1006 46 10000 2 300 15:19 17.06.2019
6221 Clouds 23 1006 40 10000 2 300 14:51 17.06.2019
6222 Clouds 23 1006 40 10000 2 300 14:31 17.06.2019
6223 Clouds 24 1006 36 10000 2 300 13:54 17.06.2019
6224 Clouds 25 1006 36 10000 2 290 13:36 17.06.2019
6225 Clouds 26 1006 31 10000 2 310 13:18 17.06.2019
6226 Clouds 27 1006 30 10000 1 320 12:32 17.06.2019
6227 Clouds 25 1006 33 10000 3 70 11:51 17.06.2019
6228 -273 0 0 0 0 0 11:27 17.06.2019
6229 Clouds 25 1006 33 10000 3 70 11:27 17.06.2019
6230 -273 0 0 0 0 0 11:27 17.06.2019
6231 Clouds 29 1006 22 10000 6 10 10:59 17.06.2019
6232 Clouds 29 1006 17 10000 4 360 10:41 17.06.2019
6233 Clouds 29 1006 18 10000 6 30 10:22 17.06.2019
6234 Clouds 29 1006 18 10000 6 30 09:55 17.06.2019
6235 Clear 29 1006 25 10000 2 70 09:30 17.06.2019
6236 Clear 29 1007 26 10000 2 100 08:43 17.06.2019
6237 Clear 28 1007 28 10000 2 110 08:23 17.06.2019
6238 Clear 28 1007 28 10000 3 110 07:47 17.06.2019
6239 Clear 28 1007 28 10000 3 110 07:28 17.06.2019
6240 Clear 27 1008 32 10000 4 140 06:46 17.06.2019
6241 Clear 27 1008 32 10000 3 140 05:50 17.06.2019
6242 Clear 26 1009 36 10000 3 140 04:52 17.06.2019
6243 Clear 23 1010 49 10000 4 130 03:50 17.06.2019
6244 Clear 23 1010 49 10000 4 130 03:25 17.06.2019
6245 Clear 21 1010 52 10000 3 130 02:42 17.06.2019
6246 Clear 20 1011 60 10000 3 140 02:18 17.06.2019
6247 Clear 19 1011 59 10000 3 130 01:34 17.06.2019
6248 Clear 19 1011 55 10000 1 180 00:45 17.06.2019
6249 Clear 17 1011 63 10000 2 170 00:24 17.06.2019
6250 Clear 17 1011 63 10000 2 170 23:56 16.06.2019
6251 Clear 16 1011 72 10000 1 190 23:36 16.06.2019
6252 Clear 15 1011 72 10000 1.29 264.047 23:18 16.06.2019
6253 Clear 12 1011 76 10000 1 330 22:39 16.06.2019
6254 Clear 11 1012 81 10000 1 300 22:19 16.06.2019
6255 Clear 11 1012 81 10000 1 300 21:56 16.06.2019
6256 Clear 10 1012 87 10000 1 310 21:38 16.06.2019
6257 Clear 10 1012 87 10000 1 280 21:20 16.06.2019
6258 Clear 10 1012 87 10000 1 290 20:38 16.06.2019
6259 Clear 11 1012 81 10000 2 300 20:19 16.06.2019
6260 Clear 11 1012 81 10000 2 300 19:58 16.06.2019
6261 Clear 10 1011 87 10000 1.89 233.312 19:38 16.06.2019
6262 Clear 11 1011 81 10000 1 290 19:19 16.06.2019
6263 Clear 12 1011 81 10000 1 310 18:41 16.06.2019
6264 Clear 13 1011 82 10000 1 290 18:21 16.06.2019
6265 Clear 13 1011 82 10000 1 200 17:49 16.06.2019
6266 Clear 13 1011 82 10000 1 200 17:25 16.06.2019
6267 Clear 13 1011 82 10000 2 140 16:58 16.06.2019
6268 Clear 13 1011 82 10000 1 170 16:40 16.06.2019
6269 Clear 16 1011 63 10000 1 150 16:21 16.06.2019
6270 Clear 19 1011 55 10000 2 150 15:45 16.06.2019
6271 Clear 19 1011 55 10000 2 150 15:26 16.06.2019
6272 Clear 21 1011 43 10000 2 120 14:56 16.06.2019
6273 Clear 21 1011 43 10000 2 120 14:37 16.06.2019
6274 Clear 22 1010 40 10000 2 100 14:19 16.06.2019
6275 Clear 23 1010 38 10000 2 90 13:45 16.06.2019
6276 Clear 23 1010 38 10000 2 90 13:25 16.06.2019
6277 Clear 24 1010 33 10000 2 90 12:44 16.06.2019
6278 Clear 25 1010 31 10000 3 80 12:22 16.06.2019
6279 Clear 25 1010 31 10000 3 80 11:56 16.06.2019
6280 Clear 25 1010 31 10000 3 70 11:37 16.06.2019
6281 Clear 26 1010 26 10000 3 60 11:18 16.06.2019
6282 Clear 26 1010 27 10000 3 70 10:44 16.06.2019
6283 Clear 26 1010 26 10000 2 60 10:19 16.06.2019
6284 Clear 26 1010 27 10000 3 70 09:42 16.06.2019
6285 Clear 26 1010 26 10000 3 60 09:23 16.06.2019
6286 Clear 26 1010 26 10000 2 80 08:46 16.06.2019
6287 Clear 26 1010 24 10000 3 70 08:20 16.06.2019
6288 Clear 26 1010 26 10000 2 70 07:45 16.06.2019
6289 Clear 26 1010 26 10000 2 70 07:27 16.06.2019
6290 Clear 26 1010 24 10000 3 60 06:52 16.06.2019
6291 Clear 26 1011 26 10000 3 80 05:55 16.06.2019
6292 Clear 25 1011 29 10000 1 40 05:22 16.06.2019
6293 Clear 23 1011 35 10000 2 60 04:21 16.06.2019
6294 Clear 22 1011 43 10000 2 40 03:40 16.06.2019
6295 Clear 22 1011 40 10000 2 70 03:20 16.06.2019
6296 Clear 18 1011 55 10000 2 70 01:48 16.06.2019
6297 Clear 18 1011 55 10000 2 70 01:30 16.06.2019
6298 Clear 17 1011 55 10000 1 20 00:43 16.06.2019
6299 Clear 17 1011 55 10000 1 20 00:25 16.06.2019
6300 Clear 16 1011 59 10000 2 50 23:56 15.06.2019
6301 Clear 15 1010 62 10000 2 50 23:38 15.06.2019
6302 Clear 13 1010 71 10000 2 30 23:19 15.06.2019
6303 Clear 13 1010 71 10000 2 340 22:43 15.06.2019
6304 Clear 13 1010 71 10000 2 340 22:25 15.06.2019
6305 Clear 11 1010 81 10000 2 350 21:44 15.06.2019
6306 Clear 11 1009 81 10000 2 340 21:21 15.06.2019
6307 Clear 11 1010 76 10000 2 340 20:45 15.06.2019
6308 Clear 11 1010 81 10000 2 340 20:23 15.06.2019
6309 Clear 12 1009 76 10000 3 360 19:50 15.06.2019
6310 Clear 12 1009 76 10000 3 360 19:28 15.06.2019
6311 Clear 12 1009 76 10000 3 350 18:45 15.06.2019
6312 Clear 12 1009 76 10000 3 350 18:26 15.06.2019
6313 Clear 14 1009 62 10000 3 340 17:47 15.06.2019
6314 Clear 14 1009 62 10000 3 340 17:29 15.06.2019
6315 Clear 15 1009 62 10000 2 340 16:49 15.06.2019
6316 Clouds 17 1009 55 10000 3 340 16:22 15.06.2019
6317 Clouds 17 1009 55 10000 3 340 15:58 15.06.2019
6318 Clouds 17 1009 55 10000 2 30 15:40 15.06.2019
6319 Clouds 18 1008 48 10000 3 50 15:19 15.06.2019
6320 Clouds 19 1008 48 10000 2 50 14:38 15.06.2019
6321 Clouds 20 1008 49 10000 2 20 14:18 15.06.2019
6322 Clouds 21 1008 40 10000 2 30 13:43 15.06.2019
6323 Clouds 23 1008 35 10000 2 50 13:20 15.06.2019
6324 Clouds 23 1008 35 10000 2 50 12:57 15.06.2019
6325 Clouds 24 1008 29 10000 2 60 12:37 15.06.2019
6326 Clouds 24 1008 27 10000 2 60 12:19 15.06.2019
6327 Clouds 23 1008 28 10000 2 70 11:41 15.06.2019
6328 Clouds 23 1008 28 10000 2 70 11:41 15.06.2019
6329 Clouds 24 1008 23 10000 2 70 11:23 15.06.2019
6330 Clouds 25 1008 23 10000 2 70 10:42 15.06.2019
6331 Clouds 25 1008 23 10000 2 70 10:24 15.06.2019
6332 Clouds 25 1009 20 10000 2 140 09:47 15.06.2019
6333 Clouds 25 1009 20 10000 2 140 09:25 15.06.2019
6334 Clouds 24 1009 25 10000 3 90 08:54 15.06.2019
6335 Clouds 25 1009 22 10000 2 130 08:33 15.06.2019
6336 Clouds 25 1009 22 10000 2 130 08:33 15.06.2019
6337 Clouds 25 1010 23 10000 3 150 07:52 15.06.2019
6338 Clouds 25 1010 23 10000 3 150 07:25 15.06.2019
6339 Clouds 25 1010 23 10000 3 150 07:25 15.06.2019
6340 Clouds 24 1010 25 10000 3 130 06:47 15.06.2019
6341 Clouds 24 1011 27 10000 3 170 06:20 15.06.2019
6342 Clear 23 1011 28 10000 3 140 05:28 15.06.2019
6343 Clear 22 1011 35 10000 3 160 04:46 15.06.2019
6344 Clear 20 1012 42 10000 2 140 03:49 15.06.2019
6345 Clear 18 1012 55 10000 3 140 02:58 15.06.2019
6346 Clear 17 1013 63 10000 2 110 02:23 15.06.2019
6347 Clear 16 1013 67 10000 2 120 01:50 15.06.2019
6348 Clear 15 1013 72 10000 1 130 00:59 15.06.2019
6349 Clear 14 1013 76 10000 2 110 00:40 15.06.2019
6350 Clear 14 1013 71 10000 1 160 23:55 14.06.2019
6351 Clear 13 1013 76 10000 1 230 23:27 14.06.2019
6352 Clear 11 1013 81 10000 1.51 131.611 22:57 14.06.2019
6353 Clear 9 1013 87 10000 1 290 22:39 14.06.2019
6354 Clear 8 1013 87 10000 1 310 22:19 14.06.2019
6355 Clear 7 1013 93 10000 2 290 21:41 14.06.2019
6356 Clear 7 1013 87 10000 2 300 21:22 14.06.2019
6357 Clear 7 1013 87 10000 1 290 20:43 14.06.2019
6358 Clear 8 1013 87 10000 1 290 20:19 14.06.2019
6359 Clear 8 1013 87 10000 1 290 19:57 14.06.2019
6360 Clear 8 1013 87 10000 1 300 19:36 14.06.2019
6361 Clear 8 1013 93 10000 2 300 19:18 14.06.2019
6362 Clear 9 1013 87 10000 2 300 18:43 14.06.2019
6363 Clear 10 1013 81 10000 2 300 18:24 14.06.2019
6364 Clear 11 1013 87 10000 1 330 17:57 14.06.2019
6365 Clear 11 1013 87 10000 1 330 17:39 14.06.2019
6366 Clear 12 1013 81 10000 2 320 17:19 14.06.2019
6367 Clear 11 1013 81 10000 1 140 16:46 14.06.2019
6368 Clear 13 1012 76 10000 2 150 16:21 14.06.2019
6369 Clear 13 1012 76 10000 2 150 15:57 14.06.2019
6370 Clear 15 1012 72 10000 2 140 15:38 14.06.2019
6371 Clear 16 1013 67 10000 1 140 15:18 14.06.2019
6372 Clear 18 1013 55 10000 1 160 14:40 14.06.2019
6373 Clear 18 1013 55 10000 1 160 14:21 14.06.2019
6374 Clear 19 1013 52 10000 2 140 13:44 14.06.2019
6375 Clear 19 1013 52 10000 2 140 13:25 14.06.2019
6376 Clear 20 1013 40 10000 3 150 12:48 14.06.2019
6377 -273 0 0 0 0 0 12:27 14.06.2019
6378 Clear 19 1013 45 10000 3 140 11:59 14.06.2019
6379 Clear 20 1013 42 10000 4 140 11:41 14.06.2019
6380 Clear 20 1013 42 10000 3 130 11:22 14.06.2019
6381 Clear 19 1013 45 10000 4 140 10:45 14.06.2019
6382 Clear 19 1013 45 10000 3 130 10:20 14.06.2019
6383 Clear 19 1013 42 10000 2 130 09:49 14.06.2019
6384 Clear 19 1013 42 10000 2 130 09:31 14.06.2019
6385 Clear 18 1014 48 10000 3 140 08:48 14.06.2019
6386 Clear 18 1014 45 10000 3 130 08:20 14.06.2019
6387 Clear 17 1014 48 10000 3 140 07:53 14.06.2019
6388 Clear 17 1015 48 10000 3 140 07:23 14.06.2019
6389 Clear 16 1015 51 10000 3 130 06:52 14.06.2019
6390 Clear 16 1015 51 10000 3 130 06:52 14.06.2019
6391 Clear 15 1015 54 10000 4 140 06:18 14.06.2019
6392 Clear 16 1015 51 10000 3 110 05:35 14.06.2019
6393 Clear 14 1016 54 10000 3 120 04:51 14.06.2019
6394 Clear 13 1016 62 10000 3 130 04:19 14.06.2019
6395 Clear 14 1016 54 10000 2 120 03:26 14.06.2019
6396 -273 0 0 0 0 0 02:58 14.06.2019
6397 Clear 12 1016 58 10000 2 340 02:35 14.06.2019
6398 Clear 10 1016 66 10000 1 310 01:39 14.06.2019
6399 Clear 10 1016 66 10000 1 310 01:39 14.06.2019
6400 Clear 10 1016 66 10000 2 270 00:37 14.06.2019
6401 Clear 9 1016 70 10000 2 320 00:18 14.06.2019
6402 Clear 9 1015 70 10000 3 330 23:49 13.06.2019
6403 Clear 9 1015 70 10000 3 330 23:25 13.06.2019
6404 Clear 7 1015 81 10000 3 310 22:41 13.06.2019
6405 Clear 6 1015 87 10000 3 300 22:22 13.06.2019
6406 Clear 6 1015 87 10000 3 300 21:59 13.06.2019
6407 Clear 6 1015 87 10000 2 300 21:37 13.06.2019
6408 Clear 5 1015 86 10000 2 300 21:18 13.06.2019
6409 Clear 5 1015 86 10000 2 300 21:18 13.06.2019
6410 Clouds 6 1014 87 10000 2 300 20:44 13.06.2019
6411 Clouds 6 1014 81 10000 2 310 20:20 13.06.2019
6412 Clouds 7 1014 81 10000 3 320 19:43 13.06.2019
6413 Clouds 7 1014 81 10000 4 310 19:25 13.06.2019
6414 Clouds 7 1014 81 10000 4 310 18:59 13.06.2019
6415 Clouds 7 1014 81 10000 3 310 18:41 13.06.2019
6416 Clouds 7 1014 81 10000 3 320 18:22 13.06.2019
6417 Clouds 7 1013 81 10000 3 330 17:45 13.06.2019
6418 Clouds 7 1013 81 10000 4 320 17:22 13.06.2019
6419 Clouds 7 1013 81 10000 4 320 16:59 13.06.2019
6420 Clouds 7 1013 81 10000 3 310 16:40 13.06.2019
6421 Clear 7 1013 81 10000 3 310 16:20 13.06.2019
6422 Clear 8 1013 75 10000 3 310 15:41 13.06.2019
6423 Clear 9 1013 70 10000 5 310 15:22 13.06.2019
6424 Clear 9 1012 76 10000 4 310 14:50 13.06.2019
6425 Clear 9 1012 76 10000 4 310 14:31 13.06.2019
6426 Clear 10 1012 71 10000 5 310 13:57 13.06.2019
6427 Clear 11 1012 66 10000 5 330 13:57 13.06.2019
6428 Clear 11 1012 66 10000 5 330 13:39 13.06.2019
6429 Clear 11 1011 66 10000 5 310 13:20 13.06.2019
6430 Clear 12 1011 62 10000 6 310 12:41 13.06.2019
6431 Clear 13 1011 62 10000 6 310 12:21 13.06.2019
6432 Clear 13 1010 62 10000 7 310 11:45 13.06.2019
6433 Clear 13 1010 62 10000 7 310 11:26 13.06.2019
6434 Clear 15 1010 54 10000 7 320 10:51 13.06.2019
6435 Clear 15 1010 54 10000 7 320 10:31 13.06.2019
6436 Clear 17 1009 48 10000 7 310 09:56 13.06.2019
6437 Clear 17 1009 51 10000 6 300 09:38 13.06.2019
6438 Clear 18 1008 48 10000 7 310 09:20 13.06.2019
6439 Clear 19 1008 45 10000 7 300 08:43 13.06.2019
6440 Clear 18 1008 52 10000 8 290 08:22 13.06.2019
6441 Clear 20 1007 45 10000 8 280 07:42 13.06.2019
6442 Clear 20 1007 45 10000 8 280 07:24 13.06.2019
6443 Clear 21 1007 32 10000 2 180 06:45 13.06.2019
6444 Clear 21 1007 32 10000 2 260 06:22 13.06.2019
6445 Clear 22 1007 30 10000 2 140 05:54 13.06.2019
6446 Clear 22 1007 30 10000 2 140 05:36 13.06.2019
6447 Clear 21 1007 32 10000 2 180 04:55 13.06.2019
6448 Clear 18 1006 36 10000 4 150 02:23 13.06.2019
6449 Clear 16 1006 48 10000 4 150 00:47 13.06.2019
6450 Clear 15 1005 47 10000 4 140 23:49 12.06.2019
6451 Clear 14 1005 47 10000 4 120 23:22 12.06.2019
6452 Clear 14 1005 47 10000 3 110 22:43 12.06.2019
6453 Clear 14 1005 47 10000 3 110 22:24 12.06.2019
6454 Clear 13 1005 50 10000 3 120 21:56 12.06.2019
6455 Clear 13 1004 50 10000 2 140 21:37 12.06.2019
6456 Clear 13 1004 50 10000 2 120 21:18 12.06.2019
6457 Clear 13 1004 50 10000 2 120 21:18 12.06.2019
6458 Clear 11 1004 62 10000 1 140 20:38 12.06.2019
6459 Clear 12 1003 54 10000 2 120 20:20 12.06.2019
6460 Clear 13 1003 54 10000 2 120 19:42 12.06.2019
6461 Clear 13 1003 54 10000 2 120 19:23 12.06.2019
6462 Clear 14 1003 47 10000 1 160 18:56 12.06.2019
6463 Clear 16 1003 41 10000 3 140 18:38 12.06.2019
6464 Clear 17 1003 36 10000 3 140 18:19 12.06.2019
6465 Clear 17 1002 33 10000 4 120 17:43 12.06.2019
6466 Clear 18 1002 34 10000 4 120 17:20 12.06.2019
6467 Clear 18 1002 34 10000 4 110 16:42 12.06.2019
6468 Clear 18 1002 34 10000 4 110 16:23 12.06.2019
6469 Clear 18 1002 34 10000 4 110 15:53 12.06.2019
6470 Clear 19 1002 32 10000 4 110 15:32 12.06.2019
6471 Clear 21 1001 28 10000 4 110 14:49 12.06.2019
6472 Clear 21 1001 28 10000 4 110 14:27 12.06.2019
6473 -273 0 0 0 0 0 13:44 12.06.2019
6474 Clear 22 1000 24 10000 4 140 13:21 12.06.2019
6475 Clear 22 1000 24 10000 4 140 12:59 12.06.2019
6476 Clear 24 1000 22 10000 6 150 12:38 12.06.2019
6477 -273 0 0 0 0 0 12:19 12.06.2019
6478 Clear 24 1000 19 10000 5 130 12:19 12.06.2019
6479 -273 0 0 0 0 0 11:47 12.06.2019
6480 Clear 25 1000 17 10000 5 130 11:28 12.06.2019
6481 Clear 25 1000 15 10000 6 140 10:52 12.06.2019
6482 Clear 25 1000 15 10000 6 140 10:34 12.06.2019
6483 Clear 25 1000 27 10000 5 140 09:55 12.06.2019
6484 Clear 25 1000 27 10000 7 140 09:37 12.06.2019
6485 Clear 25 1000 17 10000 5 120 09:18 12.06.2019
6486 Clear 25 1000 17 10000 7 130 08:25 12.06.2019
6487 Clear 24 1001 23 10000 5 130 07:52 12.06.2019
6488 Clear 25 1001 20 10000 6 120 06:55 12.06.2019
6489 Clear 24 1001 27 10000 6 130 05:54 12.06.2019
6490 Clear 24 1001 27 10000 6 130 05:24 12.06.2019
6491 Clear 19 1002 39 10000 3 120 02:19 12.06.2019
6492 Clear 17 1002 42 10000 2 120 00:41 12.06.2019
6493 Clear 15 1002 47 10000 2 110 23:53 11.06.2019
6494 Clear 15 1002 47 10000 2 110 23:34 11.06.2019
6495 Clear 14 1002 50 10000 2 120 22:45 11.06.2019
6496 Clear 14 1002 54 10000 2 120 22:24 11.06.2019
6497 Clear 14 1002 54 10000 2 120 21:58 11.06.2019
6498 Clear 13 1002 58 10000 3 110 21:40 11.06.2019
6499 Clear 12 1002 62 10000 3.95 129.937 21:21 11.06.2019
6500 Clear 11 1002 66 10000 3.95 129.937 20:50 11.06.2019
6501 Clear 11 1002 66 10000 3.95 129.937 20:27 11.06.2019
6502 Clear 13 1002 58 10000 1 160 19:58 11.06.2019
6503 Clear 13 1002 58 10000 1 240 19:40 11.06.2019
6504 Clear 13 1002 58 10000 1 240 19:39 11.06.2019
6505 Clear 13 1002 58 10000 1 240 19:38 11.06.2019
6506 Clear 14 1002 54 10000 1 360 18:59 11.06.2019
6507 -273 0 0 0 0 0 18:58 11.06.2019
6508 Clear 13 1002 62 10000 1 330 18:23 11.06.2019
6509 Clear 17 1002 42 10000 1 110 17:54 11.06.2019
6510 Clear 17 1002 42 10000 1 110 17:36 11.06.2019
6511 -273 0 0 0 0 0 17:18 11.06.2019
6512 Clear 18 1002 42 10000 3 120 16:41 11.06.2019
6513 Clear 18 1002 42 10000 4 110 16:23 11.06.2019
6514 Clear 19 1002 39 10000 4 110 15:42 11.06.2019
6515 Clear 19 1002 39 10000 4 110 15:24 11.06.2019
6516 Clear 20 1002 34 10000 4 110 14:54 11.06.2019
6517 Clear 21 1002 35 10000 4 110 14:23 11.06.2019
6518 Clear 21 1002 35 10000 4 110 13:56 11.06.2019
6519 Clear 22 1002 33 10000 4 100 13:36 11.06.2019
6520 Clear 23 1002 31 10000 4 110 13:18 11.06.2019
6521 Clear 23 1002 31 10000 4 110 12:40 11.06.2019
6522 Clear 24 1002 29 10000 4 110 12:21 11.06.2019
6523 Clear 24 1003 29 10000 4 110 11:40 11.06.2019
6524 Clear 24 1003 29 10000 4 120 11:21 11.06.2019
6525 Clear 24 1003 29 10000 4 110 10:50 11.06.2019
6526 Clear 24 1003 29 10000 4 110 10:26 11.06.2019
6527 Clear 23 1003 28 10000 4 120 09:50 11.06.2019
6528 Clear 23 1003 28 10000 4 120 09:25 11.06.2019
6529 Clear 23 1004 31 10000 5 110 08:49 11.06.2019
6530 Clear 23 1004 31 10000 5 110 08:30 11.06.2019
6531 Clear 23 1004 31 10000 5 120 07:55 11.06.2019
6532 Clear 23 1004 28 10000 6 120 07:31 11.06.2019
6533 Clear 22 1004 33 10000 5 140 06:51 11.06.2019
6534 Clear 21 1005 35 10000 5 110 05:20 11.06.2019
6535 Clear 20 1006 37 10000 6 120 03:55 11.06.2019
6536 Clear 18 1007 45 10000 4 100 01:43 11.06.2019
6537 Clear 16 1008 51 10000 5 130 00:49 11.06.2019
6538 Clear 15 1008 54 10000 4 140 00:23 11.06.2019
6539 Clear 15 1008 54 10000 4 140 23:44 10.06.2019
6540 Clear 14 1008 58 10000 4 140 23:19 10.06.2019
6541 Clear 14 1008 58 10000 3 150 22:42 10.06.2019
6542 Clear 14 1008 58 10000 3 150 22:24 10.06.2019
6543 Clear 13 1008 66 10000 3 150 21:41 10.06.2019
6544 Clear 11 1008 71 10000 2 160 21:23 10.06.2019
6545 Clear 11 1008 71 10000 2 160 20:59 10.06.2019
6546 Clear 10 1008 76 10000 1 160 20:40 10.06.2019
6547 Clear 13 1008 58 10000 2 180 20:21 10.06.2019
6548 Clear 14 1008 54 10000 2 170 19:43 10.06.2019
6549 Clear 13 1007 58 10000 3 190 19:22 10.06.2019
6550 Clear 13 1007 58 10000 3 190 18:56 10.06.2019
6551 Clear 15 1007 54 10000 3 150 18:38 10.06.2019
6552 Clear 14 1007 58 10000 1 150 18:19 10.06.2019
6553 Clear 15 1007 54 10000 3 140 17:43 10.06.2019
6554 Clear 15 1007 54 10000 3 140 17:24 10.06.2019
6555 Clear 17 1007 48 10000 3 130 16:49 10.06.2019
6556 Clear 17 1007 48 10000 3 130 16:30 10.06.2019
6557 Clear 17 1007 48 10000 3 140 15:57 10.06.2019
6558 Clear 18 1007 42 10000 2 130 15:38 10.06.2019
6559 Clear 19 1007 37 10000 3 120 15:20 10.06.2019
6560 Clear 20 1006 34 10000 3 110 14:41 10.06.2019
6561 Clear 21 1006 35 10000 2 120 14:23 10.06.2019
6562 Clear 21 1006 30 10000 3 130 13:46 10.06.2019
6563 Clear 21 1006 30 10000 3 130 13:26 10.06.2019
6564 Clear 22 1006 28 10000 3 120 12:54 10.06.2019
6565 Clear 22 1006 28 10000 3 120 12:30 10.06.2019
6566 Clear 24 1006 27 10000 4 110 11:54 10.06.2019
6567 Clear 24 1006 27 10000 4 110 11:30 10.06.2019
6568 Clear 24 1006 25 10000 3 120 10:59 10.06.2019
6569 Clear 24 1006 27 10000 3 130 10:41 10.06.2019
6570 Clear 25 1006 23 10000 4 120 10:19 10.06.2019
6571 Clear 25 1006 23 10000 3 130 09:51 10.06.2019
6572 Clear 25 1006 23 10000 3 130 09:29 10.06.2019
6573 Clear 25 1007 23 10000 4 120 08:49 10.06.2019
6574 Clear 25 1007 23 10000 4 120 08:26 10.06.2019
6575 Clear 24 1007 25 10000 4 140 07:41 10.06.2019
6576 Clear 24 1008 22 10000 4 140 04:43 10.06.2019
6577 Clear 22 1008 33 10000 2 70 03:29 10.06.2019
6578 Clear 18 1009 48 10000 1 100 01:50 10.06.2019
6579 Clear 17 1009 51 10000 1 80 01:19 10.06.2019
6580 Clear 16 1009 55 10000 1 70 00:47 10.06.2019
6581 Clear 16 1009 51 10000 2 110 23:47 09.06.2019
6582 Clear 16 1009 51 10000 2 110 23:47 09.06.2019
6583 Clear 14 1009 62 10000 2.77 129.997 23:22 09.06.2019
6584 Clear 11 1009 71 10000 1 340 22:48 09.06.2019
6585 Clear 11 1009 71 10000 1 340 22:26 09.06.2019
6586 Clear 10 1009 71 10000 1 340 21:57 09.06.2019
6587 Clear 8 1008 75 10000 1 320 21:37 09.06.2019
6588 Clear 8 1008 81 10000 1 320 21:18 09.06.2019
6589 Clear 8 1008 81 10000 1.77 133.51 20:41 09.06.2019
6590 Clear 9 1008 76 10000 1 310 20:22 09.06.2019
6591 Clear 9 1008 81 10000 2 270 19:45 09.06.2019
6592 Clear 10 1008 76 10000 1.67 125.737 19:19 09.06.2019
6593 Clear 11 1008 71 10000 1.67 125.737 18:45 09.06.2019
6594 Clear 11 1008 71 10000 2.2 130.212 18:26 09.06.2019
6595 Clear 12 1008 71 10000 2.2 130.212 17:57 09.06.2019
6596 Clear 15 1008 54 10000 2 130 17:38 09.06.2019
6597 Clear 15 1008 58 10000 1 140 16:59 09.06.2019
6598 Clear 16 1008 51 10000 2 130 16:40 09.06.2019
6599 Clear 15 1008 58 10000 2 130 16:21 09.06.2019
6600 Clear 17 1007 55 10000 2 140 15:51 09.06.2019
6601 Clear 17 1007 55 10000 2 140 15:29 09.06.2019
6602 Clear 19 1007 42 10000 2 120 14:58 09.06.2019
6603 Clear 20 1007 40 10000 2 120 14:39 09.06.2019
6604 Clear 22 1007 33 10000 2 140 14:19 09.06.2019
6605 Clear 23 1007 28 10000 2 140 13:48 09.06.2019
6606 Clear 23 1007 28 10000 3 140 13:18 09.06.2019
6607 Clear 24 1007 25 10000 3 140 12:38 09.06.2019
6608 Clear 25 1007 22 10000 4 120 12:20 09.06.2019
6609 Clear 25 1007 20 10000 4 120 11:39 09.06.2019
6610 Clear 25 1007 20 10000 4 120 11:19 09.06.2019
6611 Clear 25 1007 20 10000 4 120 10:43 09.06.2019
6612 Clear 26 1007 27 10000 4 120 10:22 09.06.2019
6613 Clear 25 1007 20 10000 4 140 09:40 09.06.2019
6614 Clear 25 1007 20 10000 3 140 09:21 09.06.2019
6615 Clear 26 1008 19 10000 4 110 08:46 09.06.2019
6616 Clear 26 1008 19 10000 4 110 08:27 09.06.2019
6617 Clear 25 1008 23 10000 5 150 06:55 09.06.2019
6618 Clear 25 1009 20 10000 4 120 06:30 09.06.2019
6619 Clear 24 1009 23 10000 3 150 04:35 09.06.2019
6620 Clear 20 1010 37 10000 3 160 01:38 09.06.2019
6621 Clear 18 1010 45 10000 3 140 01:20 09.06.2019
6622 Clear 18 1010 45 10000 3 140 00:58 09.06.2019
6623 Clear 16 1010 48 10000 2 170 23:43 08.06.2019
6624 Clear 16 1010 48 10000 2 170 23:24 08.06.2019
6625 Clear 15 1010 51 10000 3 170 22:57 08.06.2019
6626 Clear 13 1010 62 10000 1 190 22:39 08.06.2019
6627 Clear 12 1010 71 10000 1 160 22:19 08.06.2019
6628 Clear 12 1009 66 10000 2.17 145.666 21:51 08.06.2019
6629 Clear 12 1009 66 10000 1.65 143.324 21:26 08.06.2019
6630 Clear 14 1009 47 10000 3 180 20:49 08.06.2019
6631 Clear 14 1009 47 10000 3 180 20:26 08.06.2019
6632 Clear 14 1009 50 10000 3 190 19:59 08.06.2019
6633 Clear 14 1009 50 10000 2 180 19:39 08.06.2019
6634 Clear 14 1009 54 10000 2 180 19:19 08.06.2019
6635 Clear 14 1009 54 10000 2 180 18:56 08.06.2019
6636 Clear 13 1009 58 10000 2 190 18:35 08.06.2019
6637 Clear 13 1009 62 10000 1 220 17:49 08.06.2019
6638 Clear 14 1009 58 10000 1 270 17:25 08.06.2019
6639 Clear 14 1009 58 10000 1 270 16:58 08.06.2019
6640 Clear 16 1009 48 10000 3 110 16:38 08.06.2019
6641 Clear 16 1009 48 10000 1 110 15:57 08.06.2019
6642 Clear 18 1009 36 10000 2 130 15:36 08.06.2019
6643 Clear 21 1009 35 10000 2 80 14:50 08.06.2019
6644 Clear 21 1009 35 10000 2 80 14:31 08.06.2019
6645 Clear 22 1009 28 10000 2 60 13:54 08.06.2019
6646 Clear 23 1009 25 10000 2 60 13:22 08.06.2019
6647 Clear 25 1009 17 10000 1 70 12:42 08.06.2019
6648 Clear 26 1009 16 10000 2 70 11:59 08.06.2019
6649 Clear 26 1009 16 10000 1 100 11:40 08.06.2019
6650 Clear 26 1009 15 10000 2 100 11:20 08.06.2019
6651 Clear 26 1009 14 10000 2 130 10:43 08.06.2019
6652 Clear 26 1009 14 10000 2 130 10:22 08.06.2019
6653 Clear 26 1009 14 10000 1 130 09:40 08.06.2019
6654 Clear 26 1010 15 10000 2 80 08:59 08.06.2019
6655 Clear 26 1010 15 10000 2 130 08:28 08.06.2019
6656 Clear 26 1010 15 10000 1 140 07:46 08.06.2019
6657 Clear 25 1011 16 10000 2 140 06:45 08.06.2019
6658 Clear 25 1011 16 10000 2 140 06:45 08.06.2019
6659 Clear 24 1012 16 10000 1 70 04:19 08.06.2019
6660 Clear 20 1013 32 10000 1 160 02:21 08.06.2019
6661 Clear 17 1013 39 10000 1.87 104.801 00:45 08.06.2019
6662 Clear 15 1013 44 10000 1 340 00:24 08.06.2019
6663 Clear 13 1013 47 10000 1 310 23:39 07.06.2019
6664 Clear 10 1013 57 10000 1 280 23:19 07.06.2019
6665 Clear 8 1013 61 10000 1 300 22:35 07.06.2019
6666 Clear 6 1013 70 10000 2 290 21:57 07.06.2019
6667 Clear 6 1012 70 10000 2 290 21:39 07.06.2019
6668 Clear 6 1012 70 10000 2 290 21:20 07.06.2019
6669 Clear 6 1012 70 10000 2 290 20:53 07.06.2019
6670 Clear 6 1012 70 10000 2 300 20:35 07.06.2019
6671 Clear 7 1012 65 10000 2 320 19:46 07.06.2019
6672 Clear 8 1012 65 10000 3 290 19:20 07.06.2019
6673 Clear 9 1012 61 10000 3 300 18:50 07.06.2019
6674 Clear 9 1012 61 10000 3 300 18:28 07.06.2019
6675 Clear 10 1012 61 10000 3 290 17:47 07.06.2019
6676 Clear 10 1012 61 10000 3 290 17:26 07.06.2019
6677 Clear 12 1012 58 10000 3 290 16:48 07.06.2019
6678 Clear 12 1012 58 10000 3 290 16:30 07.06.2019
6679 Clear 12 1011 62 10000 1 330 15:50 07.06.2019
6680 Clear 16 1011 51 10000 1 330 15:21 07.06.2019
6681 Clear 19 1011 32 10000 1 30 14:47 07.06.2019
6682 Clear 19 1011 32 10000 1 30 14:23 07.06.2019
6683 Clear 22 1011 42 10000 2 360 13:44 07.06.2019
6684 Clear 22 1011 21 10000 3 360 13:23 07.06.2019
6685 Clear 23 1011 18 10000 3 360 12:44 07.06.2019
6686 Clear 23 1011 20 10000 3 20 12:22 07.06.2019
6687 Clear 23 1011 20 10000 4 30 11:43 07.06.2019
6688 Clear 23 1011 23 10000 5 50 11:22 07.06.2019
6689 Clear 23 1011 23 10000 3 60 10:49 07.06.2019
6690 Clear 23 1011 23 10000 3 60 10:25 07.06.2019
6691 Clear 23 1011 23 10000 3 60 09:51 07.06.2019
6692 Clear 23 1011 23 10000 3 60 09:29 07.06.2019
6693 Clear 23 1011 23 10000 4 70 08:56 07.06.2019
6694 Clear 23 1011 25 10000 4 80 08:31 07.06.2019
6695 Clear 23 1011 25 10000 4 70 07:57 07.06.2019
6696 Clear 23 1011 23 10000 3 40 07:38 07.06.2019
6697 Clear 22 1012 23 10000 3 60 07:20 07.06.2019
6698 Clear 22 1012 28 10000 4 70 06:41 07.06.2019
6699 Clear 22 1012 28 10000 4 70 06:18 07.06.2019
6700 Clear 21 1012 30 10000 4 70 04:27 07.06.2019
6701 Clear 17 1012 48 10000 3 30 01:46 07.06.2019
6702 Clear 17 1012 48 10000 3 30 01:27 07.06.2019
6703 Clear 16 1012 51 10000 4 10 00:26 07.06.2019
6704 Clear 14 1012 71 10000 4 330 23:43 06.06.2019
6705 Clear 13 1011 76 10000 3 310 23:22 06.06.2019
6706 Clear 12 1011 81 10000 3 330 22:44 06.06.2019
6707 Clear 12 1011 81 10000 4 340 22:23 06.06.2019
6708 Clear 10 1011 93 10000 3 310 21:57 06.06.2019
6709 Clear 10 1011 93 10000 3 310 21:39 06.06.2019
6710 Clear 10 1011 93 10000 4 310 21:21 06.06.2019
6711 Clear 10 1011 93 10000 3 310 20:49 06.06.2019
6712 Clear 10 1011 93 10000 3 310 20:25 06.06.2019
6713 Clear 11 1010 93 10000 3 320 19:40 06.06.2019
6714 Clear 11 1010 93 10000 3 320 19:40 06.06.2019
6715 Clear 12 1010 87 10000 3 330 19:20 06.06.2019
6716 Clear 12 1010 87 10000 3 330 18:58 06.06.2019
6717 Clear 12 1010 81 10000 3 310 18:37 06.06.2019
6718 Clear 13 1009 76 10000 4 330 18:19 06.06.2019
6719 Clear 13 1009 76 10000 4 330 17:42 06.06.2019
6720 Clear 14 1009 71 10000 3 340 17:21 06.06.2019
6721 Clear 14 1009 71 10000 4 330 16:48 06.06.2019
6722 Clear 15 1009 67 10000 4 330 16:22 06.06.2019
6723 Clear 15 1009 67 10000 2 320 15:53 06.06.2019
6724 Clear 15 1009 67 10000 2 320 15:34 06.06.2019
6725 Clouds 17 1009 59 10000 3 340 14:56 06.06.2019
6726 Clouds 18 1009 55 10000 5 350 14:38 06.06.2019
6727 Clouds 18 1008 55 10000 6 350 14:18 06.06.2019
6728 Clouds 19 1008 48 10000 9 350 13:46 06.06.2019
6729 -273 0 0 0 0 0 13:27 06.06.2019
6730 Clear 24 1007 27 10000 5 330 12:47 06.06.2019
6731 Clear 24 1007 27 10000 4 330 12:24 06.06.2019
6732 Clear 25 1007 22 10000 5 310 11:49 06.06.2019
6733 Clear 25 1007 22 10000 5 310 11:29 06.06.2019
6734 Clear 25 1007 25 10000 6 300 10:50 06.06.2019
6735 Clear 25 1007 25 10000 6 300 10:32 06.06.2019
6736 Clear 24 1007 29 10000 6 320 09:56 06.06.2019
6737 Clear 24 1007 29 10000 6 320 09:56 06.06.2019
6738 Clear 25 1007 27 10000 6 300 09:38 06.06.2019
6739 Clear 24 1007 33 10000 6 330 09:19 06.06.2019
6740 Clear 26 1007 29 10000 3 290 08:43 06.06.2019
6741 Clear 25 1007 31 10000 6 330 08:22 06.06.2019
6742 Clear 25 1007 31 10000 4 330 07:46 06.06.2019
6743 Clear 24 1007 33 10000 5 320 07:22 06.06.2019
6744 Clear 23 1007 40 10000 4 350 06:45 06.06.2019
6745 Clear 23 1007 40 10000 4 320 05:32 06.06.2019
6746 Clear 21 1008 49 10000 4 310 04:30 06.06.2019
6747 Clear 20 1008 56 10000 4 300 02:20 06.06.2019
6748 Clear 19 1007 59 10000 4 320 01:40 06.06.2019
6749 Clear 16 1007 72 10000 4 290 00:42 06.06.2019
6750 Clear 15 1007 77 10000 4 300 00:23 06.06.2019
6751 Clear 15 1007 72 10000 5 300 23:36 05.06.2019
6752 Clear 14 1007 76 10000 4 300 22:59 05.06.2019
6753 Clear 13 1007 82 10000 4 290 22:38 05.06.2019
6754 Clear 12 1006 81 10000 4 300 22:20 05.06.2019
6755 Clear 11 1006 87 10000 5 300 21:44 05.06.2019
6756 Clear 11 1006 87 10000 5 300 21:25 05.06.2019
6757 Clouds 11 1006 87 10000 5 300 20:49 05.06.2019
6758 Clouds 11 1006 87 10000 5 300 20:29 05.06.2019
6759 Clear 12 1006 81 10000 3 280 19:50 05.06.2019
6760 Clouds 12 1006 87 10000 3 290 19:26 05.06.2019
6761 Clouds 13 1006 82 10000 3 300 18:52 05.06.2019
6762 Clouds 13 1006 82 10000 3 300 18:34 05.06.2019
6763 Clouds 14 1006 76 10000 3 300 17:55 05.06.2019
6764 Clouds 14 1006 76 10000 3 300 17:36 05.06.2019
6765 Clouds 15 1006 77 10000 3 300 17:18 05.06.2019
6766 Clouds 16 1005 72 10000 3</